<?xml version='1.0' encoding='UTF-8'?><gpx version="1.1" creator="JPX - https://github.com/jenetics/jpx" xmlns="http://www.topografix.com/GPX/1/1"><trk><trkseg><trkpt lat="36.84516678762418" lon="-108.11584922022085"><ele>1805.2</ele><time>2026-04-02T22:24:45Z</time></trkpt><trkpt lat="36.84510057022414" lon="-108.11575705949421"><ele>1805.4</ele><time>2026-04-02T22:24:46Z</time></trkpt><trkpt lat="36.84502573682316" lon="-108.11565060353273"><ele>1805.6</ele><time>2026-04-02T22:24:47Z</time></trkpt><trkpt lat="36.84495341500374" lon="-108.11553770688687"><ele>1805.8</ele><time>2026-04-02T22:24:47.999Z</time></trkpt><trkpt lat="36.84490323726163" lon="-108.11541880857494"><ele>1806.0</ele><time>2026-04-02T22:24:48.999Z</time></trkpt><trkpt lat="36.84486164002426" lon="-108.11527055455218"><ele>1806.0</ele><time>2026-04-02T22:24:49.999Z</time></trkpt><trkpt lat="36.844833630249276" lon="-108.11512128741205"><ele>1806.0</ele><time>2026-04-02T22:24:50.999Z</time></trkpt><trkpt lat="36.844821727427956" lon="-108.1150271583377"><ele>1806.0</ele><time>2026-04-02T22:24:51.999Z</time></trkpt><trkpt lat="36.84484511603613" lon="-108.11492581733687"><ele>1806.0</ele><time>2026-04-02T22:24:53.999Z</time></trkpt><trkpt lat="36.84491307194148" lon="-108.11487709568303"><ele>1806.0</ele><time>2026-04-02T22:24:54.999Z</time></trkpt><trkpt lat="36.84498262797166" lon="-108.11478254934788"><ele>1807.0</ele><time>2026-04-02T22:24:55.999Z</time></trkpt><trkpt lat="36.844986493302436" lon="-108.11470345850452"><ele>1808.0</ele><time>2026-04-02T22:24:56.999Z</time></trkpt><trkpt lat="36.84495035057299" lon="-108.11460142745254"><ele>1809.0</ele><time>2026-04-02T22:24:57.999Z</time></trkpt><trkpt lat="36.84494988734625" lon="-108.11446998112952"><ele>1810.0</ele><time>2026-04-02T22:24:59.999Z</time></trkpt><trkpt lat="36.84497996852848" lon="-108.11434867040484"><ele>1811.0</ele><time>2026-04-02T22:25:00.999Z</time></trkpt><trkpt lat="36.84499072026139" lon="-108.11420241383047"><ele>1811.0</ele><time>2026-04-02T22:25:01.999Z</time></trkpt><trkpt lat="36.84496763936369" lon="-108.11408419640232"><ele>1811.0</ele><time>2026-04-02T22:25:02.999Z</time></trkpt><trkpt lat="36.84493363610646" lon="-108.11398273565648"><ele>1811.0</ele><time>2026-04-02T22:25:03.999Z</time></trkpt><trkpt lat="36.84490627806543" lon="-108.11388460477633"><ele>1811.0</ele><time>2026-04-02T22:25:05.999Z</time></trkpt><trkpt lat="36.844954726924605" lon="-108.11378363264407"><ele>1811.0</ele><time>2026-04-02T22:25:06.999Z</time></trkpt><trkpt lat="36.844942225818805" lon="-108.11366551724632"><ele>1812.0</ele><time>2026-04-02T22:25:07.999Z</time></trkpt><trkpt lat="36.84492794508382" lon="-108.11358548561317"><ele>1813.0</ele><time>2026-04-02T22:25:08.999Z</time></trkpt><trkpt lat="36.84484155391297" lon="-108.11346507835712"><ele>1814.0</ele><time>2026-04-02T22:25:10.999Z</time></trkpt><trkpt lat="36.84474443159873" lon="-108.11337097478172"><ele>1815.0</ele><time>2026-04-02T22:25:11.999Z</time></trkpt><trkpt lat="36.844659154036215" lon="-108.11328240438134"><ele>1816.0</ele><time>2026-04-02T22:25:12.999Z</time></trkpt><trkpt lat="36.84459679629283" lon="-108.11320386113289"><ele>1816.0</ele><time>2026-04-02T22:25:13.999Z</time></trkpt><trkpt lat="36.84454649528404" lon="-108.11309470013538"><ele>1816.0</ele><time>2026-04-02T22:25:14.999Z</time></trkpt><trkpt lat="36.8444920196086" lon="-108.11294478155224"><ele>1816.0</ele><time>2026-04-02T22:25:15.999Z</time></trkpt><trkpt lat="36.84442992170246" lon="-108.11283953513193"><ele>1816.0</ele><time>2026-04-02T22:25:16.999Z</time></trkpt><trkpt lat="36.84437241132182" lon="-108.11273900541576"><ele>1816.0</ele><time>2026-04-02T22:25:17.999Z</time></trkpt><trkpt lat="36.84433409335816" lon="-108.11262971661559"><ele>1816.0</ele><time>2026-04-02T22:25:18.999Z</time></trkpt><trkpt lat="36.84433653564869" lon="-108.11246243882513"><ele>1816.0</ele><time>2026-04-02T22:25:19.999Z</time></trkpt><trkpt lat="36.84433687607077" lon="-108.11227057944572"><ele>1816.0</ele><time>2026-04-02T22:25:20.999Z</time></trkpt><trkpt lat="36.84433398878349" lon="-108.11206784101807"><ele>1816.5</ele><time>2026-04-02T22:25:21.999Z</time></trkpt><trkpt lat="36.84432247643217" lon="-108.11188819373899"><ele>1817.0</ele><time>2026-04-02T22:25:22.999Z</time></trkpt><trkpt lat="36.844310500213" lon="-108.11174753244548"><ele>1817.5</ele><time>2026-04-02T22:25:23.999Z</time></trkpt><trkpt lat="36.844309409154896" lon="-108.11162359383563"><ele>1818.0</ele><time>2026-04-02T22:25:24.999Z</time></trkpt><trkpt lat="36.844254114230516" lon="-108.11148745407301"><ele>1817.4285714285713</ele><time>2026-04-02T22:25:26.999Z</time></trkpt><trkpt lat="36.844196307890876" lon="-108.11142782136793"><ele>1816.8571428571431</ele><time>2026-04-02T22:25:27.999Z</time></trkpt><trkpt lat="36.84412672809942" lon="-108.11141158385608"><ele>1816.2857142857144</ele><time>2026-04-02T22:25:28.999Z</time></trkpt><trkpt lat="36.8440632294143" lon="-108.11143432323178"><ele>1815.7142857142858</ele><time>2026-04-02T22:25:29.999Z</time></trkpt><trkpt lat="36.84399183253362" lon="-108.11145406968086"><ele>1815.1428571428573</ele><time>2026-04-02T22:25:30.999Z</time></trkpt><trkpt lat="36.84391401794509" lon="-108.11147377182202"><ele>1814.571428571429</ele><time>2026-04-02T22:25:31.999Z</time></trkpt><trkpt lat="36.84384102718321" lon="-108.11151463846011"><ele>1814.0000000000002</ele><time>2026-04-02T22:25:32.999Z</time></trkpt><trkpt lat="36.8437521902627" lon="-108.11155877414902"><ele>1814.4999999999998</ele><time>2026-04-02T22:25:33.999Z</time></trkpt><trkpt lat="36.84365821123916" lon="-108.11159748493813"><ele>1815.0</ele><time>2026-04-02T22:25:34.999Z</time></trkpt><trkpt lat="36.84359519765829" lon="-108.11161226643931"><ele>1815.5</ele><time>2026-04-02T22:25:35.999Z</time></trkpt><trkpt lat="36.84350827449577" lon="-108.11159693607877"><ele>1816.0</ele><time>2026-04-02T22:25:36.999Z</time></trkpt><trkpt lat="36.84340535859077" lon="-108.11159359948732"><ele>1816.4999999999998</ele><time>2026-04-02T22:25:37.999Z</time></trkpt><trkpt lat="36.84334207026312" lon="-108.11160387977867"><ele>1817.0</ele><time>2026-04-02T22:25:38.999Z</time></trkpt><trkpt lat="36.84320502048993" lon="-108.11151925717186"><ele>1815.3999999999999</ele><time>2026-04-02T22:25:40.999Z</time></trkpt><trkpt lat="36.843127551564955" lon="-108.11147273824832"><ele>1813.7999999999997</ele><time>2026-04-02T22:25:41.999Z</time></trkpt><trkpt lat="36.84305664462599" lon="-108.11144060066194"><ele>1812.2</ele><time>2026-04-02T22:25:42.999Z</time></trkpt><trkpt lat="36.84297898938247" lon="-108.11139567784332"><ele>1810.6</ele><time>2026-04-02T22:25:43.999Z</time></trkpt><trkpt lat="36.842893778724516" lon="-108.11133236709132"><ele>1809.0</ele><time>2026-04-02T22:25:44.999Z</time></trkpt><trkpt lat="36.842859499651" lon="-108.11118140744014"><ele>1809.0</ele><time>2026-04-02T22:25:47.998Z</time></trkpt><trkpt lat="36.842782617740745" lon="-108.1110921616262"><ele>1809.0</ele><time>2026-04-02T22:25:48.998Z</time></trkpt><trkpt lat="36.842683138205146" lon="-108.11100750384772"><ele>1809.0</ele><time>2026-04-02T22:25:49.998Z</time></trkpt><trkpt lat="36.8425597880699" lon="-108.11090972969603"><ele>1809.0</ele><time>2026-04-02T22:25:50.998Z</time></trkpt><trkpt lat="36.842442160024305" lon="-108.11079385397692"><ele>1808.0</ele><time>2026-04-02T22:25:51.998Z</time></trkpt><trkpt lat="36.842340826096326" lon="-108.11071460990206"><ele>1807.0</ele><time>2026-04-02T22:25:52.998Z</time></trkpt><trkpt lat="36.842258112731585" lon="-108.11064076145021"><ele>1806.0</ele><time>2026-04-02T22:25:53.998Z</time></trkpt><trkpt lat="36.84217022909066" lon="-108.11056064034145"><ele>1805.0</ele><time>2026-04-02T22:25:54.998Z</time></trkpt><trkpt lat="36.84209739087081" lon="-108.11050545901405"><ele>1804.0</ele><time>2026-04-02T22:25:55.998Z</time></trkpt><trkpt lat="36.842045197985925" lon="-108.1104559616873"><ele>1804.0000000000002</ele><time>2026-04-02T22:25:58.998Z</time></trkpt><trkpt lat="36.842063846397494" lon="-108.11035104043441"><ele>1804.0</ele><time>2026-04-02T22:26:04.999Z</time></trkpt><trkpt lat="36.842093754764505" lon="-108.11026871655655"><ele>1804.0</ele><time>2026-04-02T22:26:05.999Z</time></trkpt><trkpt lat="36.84202451964329" lon="-108.11018681759522"><ele>1804.0</ele><time>2026-04-02T22:26:06.999Z</time></trkpt><trkpt lat="36.842077559133706" lon="-108.1101203790756"><ele>1804.0000000000002</ele><time>2026-04-02T22:26:07.999Z</time></trkpt><trkpt lat="36.842133203775006" lon="-108.11003542827874"><ele>1804.0</ele><time>2026-04-02T22:26:08.999Z</time></trkpt><trkpt lat="36.8421751981331" lon="-108.1099697357714"><ele>1804.5000000000002</ele><time>2026-04-02T22:26:09.999Z</time></trkpt><trkpt lat="36.84222497308343" lon="-108.1098908540444"><ele>1805.0</ele><time>2026-04-02T22:26:10.999Z</time></trkpt><trkpt lat="36.84225784250378" lon="-108.1097991694571"><ele>1805.5</ele><time>2026-04-02T22:26:11.999Z</time></trkpt><trkpt lat="36.84228318510278" lon="-108.1096950298882"><ele>1806.0</ele><time>2026-04-02T22:26:12.999Z</time></trkpt><trkpt lat="36.842277632856195" lon="-108.10959411227664"><ele>1806.5000000000002</ele><time>2026-04-02T22:26:13.999Z</time></trkpt><trkpt lat="36.84226464482289" lon="-108.10950043024958"><ele>1807.0</ele><time>2026-04-02T22:26:14.999Z</time></trkpt><trkpt lat="36.84220726732472" lon="-108.10941190317612"><ele>1807.0</ele><time>2026-04-02T22:26:16.999Z</time></trkpt><trkpt lat="36.84212794725277" lon="-108.10939186778732"><ele>1806.9999999999998</ele><time>2026-04-02T22:26:18.999Z</time></trkpt><trkpt lat="36.842064106894604" lon="-108.10938350484884"><ele>1806.9999999999998</ele><time>2026-04-02T22:26:19.999Z</time></trkpt><trkpt lat="36.84195880728431" lon="-108.10936935522352"><ele>1807.0</ele><time>2026-04-02T22:26:20.999Z</time></trkpt><trkpt lat="36.84185282041931" lon="-108.10936317346228"><ele>1807.0</ele><time>2026-04-02T22:26:21.999Z</time></trkpt><trkpt lat="36.84175898226605" lon="-108.10933367029097"><ele>1806.3333333333335</ele><time>2026-04-02T22:26:22.999Z</time></trkpt><trkpt lat="36.841662936040066" lon="-108.10927664538582"><ele>1805.6666666666667</ele><time>2026-04-02T22:26:23.999Z</time></trkpt><trkpt lat="36.84159614900057" lon="-108.10922267197674"><ele>1805.0</ele><time>2026-04-02T22:26:24.999Z</time></trkpt><trkpt lat="36.841537189237" lon="-108.1091578460688"><ele>1804.3333333333335</ele><time>2026-04-02T22:26:25.999Z</time></trkpt><trkpt lat="36.841456183508775" lon="-108.10910341963829"><ele>1803.6666666666667</ele><time>2026-04-02T22:26:27.999Z</time></trkpt><trkpt lat="36.841390630296175" lon="-108.10906261162262"><ele>1803.0</ele><time>2026-04-02T22:26:28.999Z</time></trkpt><trkpt lat="36.84132056695973" lon="-108.1090062918642"><ele>1802.0</ele><time>2026-04-02T22:26:29.999Z</time></trkpt><trkpt lat="36.84124767226561" lon="-108.10894159414653"><ele>1801.0</ele><time>2026-04-02T22:26:30.999Z</time></trkpt><trkpt lat="36.84117306628457" lon="-108.1088809140345"><ele>1800.0</ele><time>2026-04-02T22:26:31.999Z</time></trkpt><trkpt lat="36.8410970913275" lon="-108.10880458724051"><ele>1799.0</ele><time>2026-04-02T22:26:32.999Z</time></trkpt><trkpt lat="36.84102387549115" lon="-108.1087438498477"><ele>1798.0</ele><time>2026-04-02T22:26:33.999Z</time></trkpt><trkpt lat="36.840950366202755" lon="-108.10871300430354"><ele>1797.0</ele><time>2026-04-02T22:26:34.999Z</time></trkpt><trkpt lat="36.84086880117421" lon="-108.10868308704129"><ele>1796.8333333333333</ele><time>2026-04-02T22:26:36.999Z</time></trkpt><trkpt lat="36.84079930464881" lon="-108.10870686154513"><ele>1796.6666666666665</ele><time>2026-04-02T22:26:38.999Z</time></trkpt><trkpt lat="36.84071179475016" lon="-108.10877307068607"><ele>1796.5</ele><time>2026-04-02T22:26:41.999Z</time></trkpt><trkpt lat="36.84063812225663" lon="-108.10878204478071"><ele>1796.3333333333333</ele><time>2026-04-02T22:26:43.999Z</time></trkpt><trkpt lat="36.84050724456412" lon="-108.10877350179737"><ele>1796.1666666666665</ele><time>2026-04-02T22:26:45.999Z</time></trkpt><trkpt lat="36.84044244354011" lon="-108.10878391791759"><ele>1796.0</ele><time>2026-04-02T22:26:46.999Z</time></trkpt><trkpt lat="36.84037692418401" lon="-108.10881498074232"><ele>1796.0</ele><time>2026-04-02T22:26:47.999Z</time></trkpt><trkpt lat="36.84028916087067" lon="-108.10890447413142"><ele>1796.0</ele><time>2026-04-02T22:26:49.999Z</time></trkpt><trkpt lat="36.840237686344516" lon="-108.10897594433303"><ele>1796.0</ele><time>2026-04-02T22:26:50.999Z</time></trkpt><trkpt lat="36.840183705486695" lon="-108.10905465996308"><ele>1796.0</ele><time>2026-04-02T22:26:51.999Z</time></trkpt><trkpt lat="36.84013034503796" lon="-108.10913716229851"><ele>1796.0</ele><time>2026-04-02T22:26:52.999Z</time></trkpt><trkpt lat="36.84006541548803" lon="-108.10923308386482"><ele>1794.25</ele><time>2026-04-02T22:26:53.999Z</time></trkpt><trkpt lat="36.83997622225732" lon="-108.10934544483722"><ele>1792.5</ele><time>2026-04-02T22:26:54.999Z</time></trkpt><trkpt lat="36.839862421997616" lon="-108.10946945300421"><ele>1790.75</ele><time>2026-04-02T22:26:55.999Z</time></trkpt><trkpt lat="36.839739062985316" lon="-108.10959098567537"><ele>1789.0</ele><time>2026-04-02T22:26:56.999Z</time></trkpt><trkpt lat="36.83965636693633" lon="-108.10968792474785"><ele>1789.0</ele><time>2026-04-02T22:26:57.999Z</time></trkpt><trkpt lat="36.83958243340861" lon="-108.10978652032348"><ele>1789.0</ele><time>2026-04-02T22:26:58.999Z</time></trkpt><trkpt lat="36.8394962528001" lon="-108.10988156986798"><ele>1789.0</ele><time>2026-04-02T22:26:59.999Z</time></trkpt><trkpt lat="36.839405939639654" lon="-108.10992918793205"><ele>1789.0</ele><time>2026-04-02T22:27:00.999Z</time></trkpt><trkpt lat="36.83933876928083" lon="-108.10996994591409"><ele>1789.0</ele><time>2026-04-02T22:27:01.999Z</time></trkpt><trkpt lat="36.83924255745928" lon="-108.11001290498318"><ele>1789.0</ele><time>2026-04-02T22:27:03.999Z</time></trkpt><trkpt lat="36.839351307173196" lon="-108.10998345762395"><ele>1789.0</ele><time>2026-04-02T22:27:13.999Z</time></trkpt><trkpt lat="36.83941918298206" lon="-108.1099419808295"><ele>1789.0</ele><time>2026-04-02T22:27:14.999Z</time></trkpt><trkpt lat="36.839503664159054" lon="-108.10988362148493"><ele>1789.0</ele><time>2026-04-02T22:27:15.999Z</time></trkpt><trkpt lat="36.839608588629844" lon="-108.10979382627394"><ele>1789.0</ele><time>2026-04-02T22:27:16.999Z</time></trkpt><trkpt lat="36.839697715653855" lon="-108.10968049133227"><ele>1789.0</ele><time>2026-04-02T22:27:17.999Z</time></trkpt><trkpt lat="36.83978542314714" lon="-108.10956852830314"><ele>1789.0</ele><time>2026-04-02T22:27:18.999Z</time></trkpt><trkpt lat="36.839903463516315" lon="-108.10944462298512"><ele>1789.0</ele><time>2026-04-02T22:27:19.999Z</time></trkpt><trkpt lat="36.84002628292992" lon="-108.10930363918852"><ele>1789.0</ele><time>2026-04-02T22:27:20.999Z</time></trkpt><trkpt lat="36.84011805841842" lon="-108.10919694927492"><ele>1790.4</ele><time>2026-04-02T22:27:21.999Z</time></trkpt><trkpt lat="36.840190711473085" lon="-108.10909217374271"><ele>1791.8000000000002</ele><time>2026-04-02T22:27:22.999Z</time></trkpt><trkpt lat="36.84024606469102" lon="-108.10900619237694"><ele>1793.1999999999998</ele><time>2026-04-02T22:27:23.999Z</time></trkpt><trkpt lat="36.84031479817453" lon="-108.10891065842739"><ele>1794.6</ele><time>2026-04-02T22:27:24.999Z</time></trkpt><trkpt lat="36.840390158724816" lon="-108.10882696427718"><ele>1796.0</ele><time>2026-04-02T22:27:25.999Z</time></trkpt><trkpt lat="36.84049411460585" lon="-108.1087920398836"><ele>1796.0</ele><time>2026-04-02T22:27:27.999Z</time></trkpt><trkpt lat="36.840589376993655" lon="-108.10878838134386"><ele>1796.0</ele><time>2026-04-02T22:27:28.999Z</time></trkpt><trkpt lat="36.840724231989064" lon="-108.10879518062747"><ele>1796.0</ele><time>2026-04-02T22:27:29.999Z</time></trkpt><trkpt lat="36.840800194615404" lon="-108.10877650324746"><ele>1796.0</ele><time>2026-04-02T22:27:30.999Z</time></trkpt><trkpt lat="36.84090448922577" lon="-108.10867412423703"><ele>1796.0</ele><time>2026-04-02T22:27:32.999Z</time></trkpt><trkpt lat="36.841048579605605" lon="-108.10876852386143"><ele>1796.25</ele><time>2026-04-02T22:27:34.999Z</time></trkpt><trkpt lat="36.8411448816486" lon="-108.10882727829498"><ele>1796.5</ele><time>2026-04-02T22:27:35.999Z</time></trkpt><trkpt lat="36.841238710824626" lon="-108.10891068052445"><ele>1796.75</ele><time>2026-04-02T22:27:36.999Z</time></trkpt><trkpt lat="36.84131463152213" lon="-108.10902630706323"><ele>1797.0</ele><time>2026-04-02T22:27:37.999Z</time></trkpt><trkpt lat="36.84142273565614" lon="-108.1091051751366"><ele>1798.1999999999998</ele><time>2026-04-02T22:27:38.999Z</time></trkpt><trkpt lat="36.84152909768211" lon="-108.1091737535435"><ele>1799.3999999999999</ele><time>2026-04-02T22:27:39.999Z</time></trkpt><trkpt lat="36.841637755756466" lon="-108.1092354975933"><ele>1800.6000000000001</ele><time>2026-04-02T22:27:40.999Z</time></trkpt><trkpt lat="36.841715050829116" lon="-108.10929244341776"><ele>1801.8000000000002</ele><time>2026-04-02T22:27:41.999Z</time></trkpt><trkpt lat="36.841772071734574" lon="-108.10935282745942"><ele>1803.0</ele><time>2026-04-02T22:27:42.999Z</time></trkpt><trkpt lat="36.84183049386805" lon="-108.1094401767135"><ele>1803.6666666666667</ele><time>2026-04-02T22:27:43.999Z</time></trkpt><trkpt lat="36.84194367182368" lon="-108.10946645875195"><ele>1804.3333333333335</ele><time>2026-04-02T22:27:45.999Z</time></trkpt><trkpt lat="36.84202254254202" lon="-108.1095052542252"><ele>1805.0</ele><time>2026-04-02T22:27:46.999Z</time></trkpt><trkpt lat="36.842084459620615" lon="-108.10953568793673"><ele>1805.6666666666667</ele><time>2026-04-02T22:27:47.999Z</time></trkpt><trkpt lat="36.84216675785165" lon="-108.10949697211105"><ele>1806.3333333333335</ele><time>2026-04-02T22:27:49.999Z</time></trkpt><trkpt lat="36.842213022097354" lon="-108.10942386482594"><ele>1807.0</ele><time>2026-04-02T22:27:50.999Z</time></trkpt><trkpt lat="36.84226046510468" lon="-108.10931853695675"><ele>1807.0</ele><time>2026-04-02T22:27:51.999Z</time></trkpt><trkpt lat="36.84230465190485" lon="-108.10920891695537"><ele>1806.9999999999998</ele><time>2026-04-02T22:27:52.999Z</time></trkpt><trkpt lat="36.842333668911934" lon="-108.10909188500536"><ele>1806.9999999999998</ele><time>2026-04-02T22:27:53.999Z</time></trkpt><trkpt lat="36.84234652788648" lon="-108.10896531286467"><ele>1807.0</ele><time>2026-04-02T22:27:54.999Z</time></trkpt><trkpt lat="36.84236731665782" lon="-108.10885983725164"><ele>1807.0</ele><time>2026-04-02T22:27:55.999Z</time></trkpt><trkpt lat="36.84239629942085" lon="-108.10875750648513"><ele>1805.6666666666667</ele><time>2026-04-02T22:27:56.999Z</time></trkpt><trkpt lat="36.84245092262847" lon="-108.10865756571508"><ele>1804.3333333333335</ele><time>2026-04-02T22:27:57.999Z</time></trkpt><trkpt lat="36.84248950071701" lon="-108.10853062188374"><ele>1803.0</ele><time>2026-04-02T22:27:58.999Z</time></trkpt><trkpt lat="36.84250087536258" lon="-108.10843191795912"><ele>1801.6666666666665</ele><time>2026-04-02T22:27:59.999Z</time></trkpt><trkpt lat="36.84248203437" lon="-108.10833745811541"><ele>1800.3333333333333</ele><time>2026-04-02T22:28:00.999Z</time></trkpt><trkpt lat="36.842432684392996" lon="-108.10825413390533"><ele>1799.0</ele><time>2026-04-02T22:28:01.999Z</time></trkpt><trkpt lat="36.842351992064074" lon="-108.10818789852125"><ele>1797.0</ele><time>2026-04-02T22:28:02.999Z</time></trkpt><trkpt lat="36.84223051711706" lon="-108.10811690287466"><ele>1795.0</ele><time>2026-04-02T22:28:03.999Z</time></trkpt><trkpt lat="36.84211100322506" lon="-108.10803659980522"><ele>1793.0</ele><time>2026-04-02T22:28:04.999Z</time></trkpt><trkpt lat="36.84201606697128" lon="-108.10795294029799"><ele>1791.0</ele><time>2026-04-02T22:28:05.999Z</time></trkpt><trkpt lat="36.841928872410925" lon="-108.10787288511587"><ele>1791.0</ele><time>2026-04-02T22:28:06.999Z</time></trkpt><trkpt lat="36.841851480384605" lon="-108.10781719532173"><ele>1791.0</ele><time>2026-04-02T22:28:07.999Z</time></trkpt><trkpt lat="36.84178632942541" lon="-108.10771668802508"><ele>1791.0</ele><time>2026-04-02T22:28:09.999Z</time></trkpt><trkpt lat="36.84180594602538" lon="-108.10763086366411"><ele>1791.0</ele><time>2026-04-02T22:28:10.999Z</time></trkpt><trkpt lat="36.84181341834446" lon="-108.10752064754699"><ele>1791.0</ele><time>2026-04-02T22:28:11.999Z</time></trkpt><trkpt lat="36.841777561150124" lon="-108.1074097527568"><ele>1791.0</ele><time>2026-04-02T22:28:12.999Z</time></trkpt><trkpt lat="36.84175055698109" lon="-108.10728822297315"><ele>1790.4</ele><time>2026-04-02T22:28:13.999Z</time></trkpt><trkpt lat="36.84172866743379" lon="-108.1071769261272"><ele>1789.8</ele><time>2026-04-02T22:28:15.999Z</time></trkpt><trkpt lat="36.841809877483996" lon="-108.10706243906769"><ele>1789.2000000000003</ele><time>2026-04-02T22:28:17.999Z</time></trkpt><trkpt lat="36.841866043727876" lon="-108.10695103408563"><ele>1788.6000000000001</ele><time>2026-04-02T22:28:18.999Z</time></trkpt><trkpt lat="36.84193497074305" lon="-108.106841136821"><ele>1788.0</ele><time>2026-04-02T22:28:19.999Z</time></trkpt><trkpt lat="36.84201336849075" lon="-108.10674986588643"><ele>1788.0</ele><time>2026-04-02T22:28:20.999Z</time></trkpt><trkpt lat="36.84211389864588" lon="-108.1066534372882"><ele>1788.0</ele><time>2026-04-02T22:28:21.999Z</time></trkpt><trkpt lat="36.84221582109148" lon="-108.10654936693653"><ele>1788.0</ele><time>2026-04-02T22:28:22.999Z</time></trkpt><trkpt lat="36.84228301690235" lon="-108.10645239170218"><ele>1788.0</ele><time>2026-04-02T22:28:23.999Z</time></trkpt><trkpt lat="36.84231850583273" lon="-108.10634225294689"><ele>1787.5</ele><time>2026-04-02T22:28:24.999Z</time></trkpt><trkpt lat="36.84235117802221" lon="-108.10620933836437"><ele>1787.0</ele><time>2026-04-02T22:28:25.999Z</time></trkpt><trkpt lat="36.842381167706584" lon="-108.10609901993827"><ele>1786.5</ele><time>2026-04-02T22:28:26.999Z</time></trkpt><trkpt lat="36.84239240242403" lon="-108.10597266211781"><ele>1786.0</ele><time>2026-04-02T22:28:28.999Z</time></trkpt><trkpt lat="36.84230739128278" lon="-108.10581820064802"><ele>1785.8</ele><time>2026-04-02T22:28:30.999Z</time></trkpt><trkpt lat="36.84222416878346" lon="-108.10571219252085"><ele>1785.6</ele><time>2026-04-02T22:28:31.999Z</time></trkpt><trkpt lat="36.8421323207434" lon="-108.10558347272874"><ele>1785.4</ele><time>2026-04-02T22:28:32.999Z</time></trkpt><trkpt lat="36.84206760381803" lon="-108.10548444270489"><ele>1785.2</ele><time>2026-04-02T22:28:33.999Z</time></trkpt><trkpt lat="36.84200980588556" lon="-108.10540016762903"><ele>1785.0</ele><time>2026-04-02T22:28:35.999Z</time></trkpt><trkpt lat="36.84201338459874" lon="-108.10529006792338"><ele>1785.0</ele><time>2026-04-02T22:28:38.999Z</time></trkpt><trkpt lat="36.842123447057126" lon="-108.10519424685313"><ele>1785.0</ele><time>2026-04-02T22:28:40.999Z</time></trkpt><trkpt lat="36.842191120907565" lon="-108.10513938253459"><ele>1785.0</ele><time>2026-04-02T22:28:41.999Z</time></trkpt><trkpt lat="36.84229834896337" lon="-108.10510379021228"><ele>1785.0</ele><time>2026-04-02T22:28:43.999Z</time></trkpt><trkpt lat="36.84236329660439" lon="-108.10510360019236"><ele>1785.0</ele><time>2026-04-02T22:28:44.999Z</time></trkpt><trkpt lat="36.842445415805834" lon="-108.10513682391897"><ele>1785.0</ele><time>2026-04-02T22:28:46.999Z</time></trkpt><trkpt lat="36.84253725445373" lon="-108.10518095408315"><ele>1785.0</ele><time>2026-04-02T22:28:48.999Z</time></trkpt><trkpt lat="36.84261557920837" lon="-108.10518930126806"><ele>1785.0</ele><time>2026-04-02T22:28:50.999Z</time></trkpt><trkpt lat="36.84270652141797" lon="-108.10508422026842"><ele>1785.0</ele><time>2026-04-02T22:28:52.999Z</time></trkpt><trkpt lat="36.84277578676958" lon="-108.10503292045635"><ele>1785.0</ele><time>2026-04-02T22:28:53.999Z</time></trkpt><trkpt lat="36.84287231740219" lon="-108.10493952227824"><ele>1785.8333333333333</ele><time>2026-04-02T22:28:54.999Z</time></trkpt><trkpt lat="36.84294345597636" lon="-108.10487215348243"><ele>1786.6666666666665</ele><time>2026-04-02T22:28:55.999Z</time></trkpt><trkpt lat="36.84291872567095" lon="-108.10478288057195"><ele>1787.5</ele><time>2026-04-02T22:28:58.999Z</time></trkpt><trkpt lat="36.84284755809846" lon="-108.10479299345494"><ele>1788.3333333333333</ele><time>2026-04-02T22:29:00.999Z</time></trkpt><trkpt lat="36.84275453963532" lon="-108.10475397453143"><ele>1789.1666666666665</ele><time>2026-04-02T22:29:02.999Z</time></trkpt><trkpt lat="36.84268253199322" lon="-108.1046472910532"><ele>1790.0</ele><time>2026-04-02T22:29:04.999Z</time></trkpt><trkpt lat="36.842707235312396" lon="-108.10450773966099"><ele>1790.0</ele><time>2026-04-02T22:29:05.999Z</time></trkpt><trkpt lat="36.84274840233582" lon="-108.10434536332839"><ele>1790.0</ele><time>2026-04-02T22:29:06.999Z</time></trkpt><trkpt lat="36.84280644591121" lon="-108.10413993232412"><ele>1790.0</ele><time>2026-04-02T22:29:07.999Z</time></trkpt><trkpt lat="36.84287622999329" lon="-108.10390374236796"><ele>1790.3333333333333</ele><time>2026-04-02T22:29:08.999Z</time></trkpt><trkpt lat="36.84296248440009" lon="-108.10368524982972"><ele>1790.6666666666665</ele><time>2026-04-02T22:29:09.999Z</time></trkpt><trkpt lat="36.8430459431183" lon="-108.10342573616748"><ele>1791.0</ele><time>2026-04-02T22:29:10.999Z</time></trkpt><trkpt lat="36.843118239374235" lon="-108.10319517439444"><ele>1791.0</ele><time>2026-04-02T22:29:11.999Z</time></trkpt><trkpt lat="36.84319005199221" lon="-108.10296915593366"><ele>1791.0</ele><time>2026-04-02T22:29:12.999Z</time></trkpt><trkpt lat="36.84326078381465" lon="-108.10275049941035"><ele>1791.0</ele><time>2026-04-02T22:29:13.999Z</time></trkpt><trkpt lat="36.843326917652796" lon="-108.10254479974577"><ele>1792.6666666666665</ele><time>2026-04-02T22:29:14.999Z</time></trkpt><trkpt lat="36.84338115447307" lon="-108.1023597643105"><ele>1794.3333333333333</ele><time>2026-04-02T22:29:15.999Z</time></trkpt><trkpt lat="36.84344062781547" lon="-108.1021694215126"><ele>1796.0</ele><time>2026-04-02T22:29:16.999Z</time></trkpt><trkpt lat="36.84350902165999" lon="-108.10199588441213"><ele>1796.1666666666665</ele><time>2026-04-02T22:29:17.999Z</time></trkpt><trkpt lat="36.84357367996535" lon="-108.10186979533475"><ele>1796.3333333333333</ele><time>2026-04-02T22:29:18.999Z</time></trkpt><trkpt lat="36.84359208910523" lon="-108.1017932949397"><ele>1796.5</ele><time>2026-04-02T22:29:19.999Z</time></trkpt><trkpt lat="36.84352754450462" lon="-108.1017855016726"><ele>1796.6666666666665</ele><time>2026-04-02T22:29:20.999Z</time></trkpt><trkpt lat="36.84348097780462" lon="-108.10163545516778"><ele>1796.8333333333333</ele><time>2026-04-02T22:29:22.999Z</time></trkpt><trkpt lat="36.843485901784895" lon="-108.101550501692"><ele>1797.0</ele><time>2026-04-02T22:29:23.999Z</time></trkpt><trkpt lat="36.84352491995361" lon="-108.10148090303218"><ele>1798.1999999999998</ele><time>2026-04-02T22:29:24.999Z</time></trkpt><trkpt lat="36.84352615148618" lon="-108.10137770419924"><ele>1799.3999999999999</ele><time>2026-04-02T22:29:25.999Z</time></trkpt><trkpt lat="36.843494219048154" lon="-108.10126421989648"><ele>1800.6000000000001</ele><time>2026-04-02T22:29:26.999Z</time></trkpt><trkpt lat="36.84347930020466" lon="-108.1011622561149"><ele>1801.8000000000002</ele><time>2026-04-02T22:29:27.999Z</time></trkpt><trkpt lat="36.843469605201854" lon="-108.10103297656576"><ele>1803.0</ele><time>2026-04-02T22:29:28.999Z</time></trkpt><trkpt lat="36.84349248524312" lon="-108.1009235475066"><ele>1803.0</ele><time>2026-04-02T22:29:29.999Z</time></trkpt><trkpt lat="36.843550332186304" lon="-108.10084731733981"><ele>1803.0000000000002</ele><time>2026-04-02T22:29:30.999Z</time></trkpt><trkpt lat="36.84357486421979" lon="-108.10068098901745"><ele>1803.0000000000002</ele><time>2026-04-02T22:29:32.999Z</time></trkpt><trkpt lat="36.843597645464584" lon="-108.10059004915388"><ele>1803.0</ele><time>2026-04-02T22:29:33.999Z</time></trkpt><trkpt lat="36.84372630206137" lon="-108.10050371457054"><ele>1803.0</ele><time>2026-04-02T22:29:35.999Z</time></trkpt><trkpt lat="36.84381124478388" lon="-108.10041930282271"><ele>1803.8000000000002</ele><time>2026-04-02T22:29:36.999Z</time></trkpt><trkpt lat="36.84390017670386" lon="-108.1003699195215"><ele>1804.6000000000001</ele><time>2026-04-02T22:29:37.999Z</time></trkpt><trkpt lat="36.84395918094043" lon="-108.10031183021677"><ele>1805.3999999999999</ele><time>2026-04-02T22:29:38.999Z</time></trkpt><trkpt lat="36.84402645890466" lon="-108.10017430990928"><ele>1806.1999999999998</ele><time>2026-04-02T22:29:40.999Z</time></trkpt><trkpt lat="36.84409182999659" lon="-108.10013776168539"><ele>1807.0</ele><time>2026-04-02T22:29:41.999Z</time></trkpt><trkpt lat="36.84416790460592" lon="-108.10009937959157"><ele>1807.0000000000002</ele><time>2026-04-02T22:29:42.999Z</time></trkpt><trkpt lat="36.84424202169482" lon="-108.10007178942143"><ele>1807.0</ele><time>2026-04-02T22:29:43.999Z</time></trkpt><trkpt lat="36.84431054784672" lon="-108.1000281168013"><ele>1807.0</ele><time>2026-04-02T22:29:44.999Z</time></trkpt><trkpt lat="36.84436720611912" lon="-108.09996926936121"><ele>1807.0</ele><time>2026-04-02T22:29:45.999Z</time></trkpt><trkpt lat="36.84449469870611" lon="-108.09991781659807"><ele>1807.0000000000002</ele><time>2026-04-02T22:29:47.999Z</time></trkpt><trkpt lat="36.844564825352734" lon="-108.09991816573212"><ele>1807.0</ele><time>2026-04-02T22:29:48.999Z</time></trkpt><trkpt lat="36.84464848923626" lon="-108.10005558559767"><ele>1806.8</ele><time>2026-04-02T22:29:50.999Z</time></trkpt><trkpt lat="36.84472351035035" lon="-108.10016402589244"><ele>1806.6</ele><time>2026-04-02T22:29:51.999Z</time></trkpt><trkpt lat="36.844814242916954" lon="-108.10023736156612"><ele>1806.3999999999999</ele><time>2026-04-02T22:29:52.999Z</time></trkpt><trkpt lat="36.84488641729648" lon="-108.10029132839728"><ele>1806.1999999999998</ele><time>2026-04-02T22:29:53.999Z</time></trkpt><trkpt lat="36.84499249677941" lon="-108.10028202173241"><ele>1806.0</ele><time>2026-04-02T22:29:55.999Z</time></trkpt><trkpt lat="36.84506512016007" lon="-108.10024204111306"><ele>1805.1666666666667</ele><time>2026-04-02T22:29:56.999Z</time></trkpt><trkpt lat="36.84513434857512" lon="-108.1002015767696"><ele>1804.3333333333335</ele><time>2026-04-02T22:29:57.999Z</time></trkpt><trkpt lat="36.845208724656" lon="-108.10020341883306"><ele>1803.5</ele><time>2026-04-02T22:29:58.999Z</time></trkpt><trkpt lat="36.84531027573904" lon="-108.10018897728943"><ele>1802.6666666666667</ele><time>2026-04-02T22:30:00.999Z</time></trkpt><trkpt lat="36.845375624935535" lon="-108.10014129443451"><ele>1801.8333333333335</ele><time>2026-04-02T22:30:01.999Z</time></trkpt><trkpt lat="36.84545725835933" lon="-108.10007784097346"><ele>1801.0</ele><time>2026-04-02T22:30:02.999Z</time></trkpt><trkpt lat="36.84553970434668" lon="-108.10002142340807"><ele>1801.0</ele><time>2026-04-02T22:30:03.999Z</time></trkpt><trkpt lat="36.845622416235074" lon="-108.09996170169741"><ele>1801.0</ele><time>2026-04-02T22:30:04.999Z</time></trkpt><trkpt lat="36.84570966668727" lon="-108.09991561328816"><ele>1801.0</ele><time>2026-04-02T22:30:05.999Z</time></trkpt><trkpt lat="36.84577206998275" lon="-108.09983363134961"><ele>1801.0</ele><time>2026-04-02T22:30:06.999Z</time></trkpt><trkpt lat="36.8458742656532" lon="-108.09991547935385"><ele>1801.0</ele><time>2026-04-02T22:30:08.999Z</time></trkpt><trkpt lat="36.8459475472093" lon="-108.10001559088806"><ele>1801.25</ele><time>2026-04-02T22:30:09.999Z</time></trkpt><trkpt lat="36.84604342090007" lon="-108.10007234833874"><ele>1801.5</ele><time>2026-04-02T22:30:10.999Z</time></trkpt><trkpt lat="36.84616302209239" lon="-108.10008690576049"><ele>1801.75</ele><time>2026-04-02T22:30:11.999Z</time></trkpt><trkpt lat="36.84629072616052" lon="-108.10010281598905"><ele>1802.0</ele><time>2026-04-02T22:30:12.999Z</time></trkpt><trkpt lat="36.84638897074888" lon="-108.10014278152"><ele>1802.0</ele><time>2026-04-02T22:30:13.999Z</time></trkpt><trkpt lat="36.84650300830546" lon="-108.10018039133027"><ele>1801.9999999999998</ele><time>2026-04-02T22:30:14.999Z</time></trkpt><trkpt lat="36.8466069826088" lon="-108.10016897699654"><ele>1801.9999999999998</ele><time>2026-04-02T22:30:15.999Z</time></trkpt><trkpt lat="36.84669188732931" lon="-108.10016907583494"><ele>1802.0</ele><time>2026-04-02T22:30:17Z</time></trkpt><trkpt lat="36.84676301070031" lon="-108.10014466675344"><ele>1802.0</ele><time>2026-04-02T22:30:18Z</time></trkpt><trkpt lat="36.846818308428645" lon="-108.10005882593198"><ele>1802.25</ele><time>2026-04-02T22:30:19Z</time></trkpt><trkpt lat="36.84686408767967" lon="-108.09992654638606"><ele>1802.5</ele><time>2026-04-02T22:30:20Z</time></trkpt><trkpt lat="36.846913885044806" lon="-108.0997816500703"><ele>1802.75</ele><time>2026-04-02T22:30:21Z</time></trkpt><trkpt lat="36.846998085645" lon="-108.09963820850693"><ele>1803.0</ele><time>2026-04-02T22:30:22Z</time></trkpt><trkpt lat="36.84712349467874" lon="-108.09951910017367"><ele>1803.0</ele><time>2026-04-02T22:30:23Z</time></trkpt><trkpt lat="36.84727233824849" lon="-108.09940405243323"><ele>1803.0</ele><time>2026-04-02T22:30:24Z</time></trkpt><trkpt lat="36.8473985299542" lon="-108.09929772020011"><ele>1803.0</ele><time>2026-04-02T22:30:25Z</time></trkpt><trkpt lat="36.8474666990036" lon="-108.09919719836176"><ele>1803.0</ele><time>2026-04-02T22:30:26Z</time></trkpt><trkpt lat="36.847504516418695" lon="-108.09909850846472"><ele>1803.5</ele><time>2026-04-02T22:30:27Z</time></trkpt><trkpt lat="36.8475350285592" lon="-108.09900111138727"><ele>1804.0</ele><time>2026-04-02T22:30:28Z</time></trkpt><trkpt lat="36.84758722315478" lon="-108.09887254993214"><ele>1804.5</ele><time>2026-04-02T22:30:29Z</time></trkpt><trkpt lat="36.847673779739225" lon="-108.09873960689191"><ele>1805.0</ele><time>2026-04-02T22:30:30Z</time></trkpt><trkpt lat="36.84777562886358" lon="-108.09862096373388"><ele>1805.4</ele><time>2026-04-02T22:30:31Z</time></trkpt><trkpt lat="36.84787792971934" lon="-108.09850177674072"><ele>1805.8</ele><time>2026-04-02T22:30:32Z</time></trkpt><trkpt lat="36.847950033694914" lon="-108.09841454022097"><ele>1806.1999999999998</ele><time>2026-04-02T22:30:33Z</time></trkpt><trkpt lat="36.848011610023" lon="-108.09837251811783"><ele>1806.6</ele><time>2026-04-02T22:30:34Z</time></trkpt><trkpt lat="36.84808154001512" lon="-108.09834840391277"><ele>1807.0</ele><time>2026-04-02T22:30:35Z</time></trkpt><trkpt lat="36.84815496957219" lon="-108.09830999022205"><ele>1807.6</ele><time>2026-04-02T22:30:36Z</time></trkpt><trkpt lat="36.84823725291321" lon="-108.09823987956199"><ele>1808.1999999999998</ele><time>2026-04-02T22:30:37Z</time></trkpt><trkpt lat="36.84834000136398" lon="-108.09817928979638"><ele>1808.8</ele><time>2026-04-02T22:30:38Z</time></trkpt><trkpt lat="36.84844266146176" lon="-108.09815044295942"><ele>1809.4</ele><time>2026-04-02T22:30:39Z</time></trkpt><trkpt lat="36.84853210561148" lon="-108.09812111938128"><ele>1810.0</ele><time>2026-04-02T22:30:40Z</time></trkpt><trkpt lat="36.848620339629676" lon="-108.09807709604551"><ele>1810.5000000000002</ele><time>2026-04-02T22:30:41Z</time></trkpt><trkpt lat="36.84868527853139" lon="-108.09806470686898"><ele>1811.0</ele><time>2026-04-02T22:30:42Z</time></trkpt><trkpt lat="36.848751217921794" lon="-108.09807582312324"><ele>1811.5</ele><time>2026-04-02T22:30:43Z</time></trkpt><trkpt lat="36.84883720942504" lon="-108.0980670801956"><ele>1812.0</ele><time>2026-04-02T22:30:44Z</time></trkpt><trkpt lat="36.848946759329195" lon="-108.09803303964944"><ele>1812.5000000000002</ele><time>2026-04-02T22:30:45Z</time></trkpt><trkpt lat="36.849026219927794" lon="-108.09798478486665"><ele>1813.0</ele><time>2026-04-02T22:30:47Z</time></trkpt><trkpt lat="36.84904873380971" lon="-108.09778298423939"><ele>1813.0</ele><time>2026-04-02T22:30:49Z</time></trkpt><trkpt lat="36.84906313150309" lon="-108.09765857078408"><ele>1813.0000000000002</ele><time>2026-04-02T22:30:49.999Z</time></trkpt><trkpt lat="36.84913115517857" lon="-108.09763061579417"><ele>1813.0000000000002</ele><time>2026-04-02T22:30:51.999Z</time></trkpt><trkpt lat="36.849268587519695" lon="-108.09762169039487"><ele>1813.0</ele><time>2026-04-02T22:30:53.999Z</time></trkpt><trkpt lat="36.84935337697624" lon="-108.09760507631911"><ele>1813.0</ele><time>2026-04-02T22:30:54.999Z</time></trkpt><trkpt lat="36.84943447054798" lon="-108.09759626593154"><ele>1813.0</ele><time>2026-04-02T22:30:55.999Z</time></trkpt><trkpt lat="36.84951963782118" lon="-108.09757438784854"><ele>1813.0</ele><time>2026-04-02T22:30:56.999Z</time></trkpt><trkpt lat="36.84964875602144" lon="-108.0975088325713"><ele>1813.0</ele><time>2026-04-02T22:30:57.999Z</time></trkpt><trkpt lat="36.84977735870553" lon="-108.09746488212879"><ele>1813.0</ele><time>2026-04-02T22:30:58.999Z</time></trkpt><trkpt lat="36.84987301749681" lon="-108.0974196559436"><ele>1814.4</ele><time>2026-04-02T22:30:59.999Z</time></trkpt><trkpt lat="36.84995527897232" lon="-108.09737622268788"><ele>1815.8000000000002</ele><time>2026-04-02T22:31:00.999Z</time></trkpt><trkpt lat="36.85003669816944" lon="-108.09728010027608"><ele>1817.2</ele><time>2026-04-02T22:31:01.999Z</time></trkpt><trkpt lat="36.85007435579391" lon="-108.09717419712881"><ele>1818.6</ele><time>2026-04-02T22:31:02.999Z</time></trkpt><trkpt lat="36.850059072642146" lon="-108.0970373749295"><ele>1820.0</ele><time>2026-04-02T22:31:03.999Z</time></trkpt><trkpt lat="36.85007364251344" lon="-108.0969208325324"><ele>1820.4</ele><time>2026-04-02T22:31:04.999Z</time></trkpt><trkpt lat="36.850130282117355" lon="-108.09681479920673"><ele>1820.8</ele><time>2026-04-02T22:31:05.999Z</time></trkpt><trkpt lat="36.85019348955847" lon="-108.09668468660296"><ele>1821.1999999999998</ele><time>2026-04-02T22:31:06.999Z</time></trkpt><trkpt lat="36.850196102512285" lon="-108.09656470389469"><ele>1821.6</ele><time>2026-04-02T22:31:07.999Z</time></trkpt><trkpt lat="36.850217152129545" lon="-108.09643082108694"><ele>1822.0</ele><time>2026-04-02T22:31:08.999Z</time></trkpt><trkpt lat="36.85026083743749" lon="-108.09635171727886"><ele>1822.3999999999999</ele><time>2026-04-02T22:31:09.999Z</time></trkpt><trkpt lat="36.85036624698503" lon="-108.09626496250925"><ele>1822.7999999999997</ele><time>2026-04-02T22:31:11.999Z</time></trkpt><trkpt lat="36.85042692137647" lon="-108.09621808871199"><ele>1823.2</ele><time>2026-04-02T22:31:12.999Z</time></trkpt><trkpt lat="36.85046940869106" lon="-108.09614035406662"><ele>1823.6</ele><time>2026-04-02T22:31:13.999Z</time></trkpt><trkpt lat="36.85048935961987" lon="-108.09603284768433"><ele>1824.0</ele><time>2026-04-02T22:31:14.999Z</time></trkpt><trkpt lat="36.850500271382906" lon="-108.09592237780134"><ele>1824.0</ele><time>2026-04-02T22:31:15.999Z</time></trkpt><trkpt lat="36.850533993866435" lon="-108.09585015732108"><ele>1824.0</ele><time>2026-04-02T22:31:16.999Z</time></trkpt><trkpt lat="36.850675868173305" lon="-108.09585423070864"><ele>1824.0</ele><time>2026-04-02T22:31:18.999Z</time></trkpt><trkpt lat="36.850747721462874" lon="-108.09570676098824"><ele>1824.0</ele><time>2026-04-02T22:31:20.999Z</time></trkpt><trkpt lat="36.85080586108161" lon="-108.09553473017291"><ele>1825.6</ele><time>2026-04-02T22:31:22.999Z</time></trkpt><trkpt lat="36.850837245099214" lon="-108.09539744955997"><ele>1827.2</ele><time>2026-04-02T22:31:23.999Z</time></trkpt><trkpt lat="36.850861845002676" lon="-108.09530366052044"><ele>1828.7999999999997</ele><time>2026-04-02T22:31:24.999Z</time></trkpt><trkpt lat="36.850889255435824" lon="-108.09521318380187"><ele>1830.3999999999999</ele><time>2026-04-02T22:31:25.999Z</time></trkpt><trkpt lat="36.85092183677839" lon="-108.09510231663087"><ele>1832.0</ele><time>2026-04-02T22:31:26.999Z</time></trkpt><trkpt lat="36.85095121511298" lon="-108.0950020674846"><ele>1833.0</ele><time>2026-04-02T22:31:27.999Z</time></trkpt><trkpt lat="36.85099066629365" lon="-108.09488481277288"><ele>1833.9999999999998</ele><time>2026-04-02T22:31:28.999Z</time></trkpt><trkpt lat="36.851038587730216" lon="-108.09480152666043"><ele>1834.9999999999998</ele><time>2026-04-02T22:31:29.999Z</time></trkpt><trkpt lat="36.851119589920636" lon="-108.09483852062014"><ele>1836.0</ele><time>2026-04-02T22:31:31.999Z</time></trkpt><trkpt lat="36.85122593119889" lon="-108.0948413713963"><ele>1837.0</ele><time>2026-04-02T22:31:32.999Z</time></trkpt><trkpt lat="36.85135434894541" lon="-108.09480255212105"><ele>1837.0</ele><time>2026-04-02T22:31:33.999Z</time></trkpt><trkpt lat="36.851461361948715" lon="-108.09476205206062"><ele>1836.9999999999998</ele><time>2026-04-02T22:31:34.999Z</time></trkpt><trkpt lat="36.851559407672816" lon="-108.09472977057942"><ele>1836.9999999999998</ele><time>2026-04-02T22:31:35.999Z</time></trkpt><trkpt lat="36.85165801532824" lon="-108.09469987929386"><ele>1837.0</ele><time>2026-04-02T22:31:36.999Z</time></trkpt><trkpt lat="36.851702458613445" lon="-108.0946405738773"><ele>1837.0</ele><time>2026-04-02T22:31:37.999Z</time></trkpt><trkpt lat="36.85180153087439" lon="-108.09455759029271"><ele>1837.5000000000002</ele><time>2026-04-02T22:31:38.999Z</time></trkpt><trkpt lat="36.851903658817896" lon="-108.09449892657295"><ele>1838.0</ele><time>2026-04-02T22:31:39.999Z</time></trkpt><trkpt lat="36.85198254569949" lon="-108.09446648480964"><ele>1838.5</ele><time>2026-04-02T22:31:40.999Z</time></trkpt><trkpt lat="36.85207633622169" lon="-108.09443696187705"><ele>1839.0</ele><time>2026-04-02T22:31:41.999Z</time></trkpt><trkpt lat="36.852147596809004" lon="-108.0944207988568"><ele>1839.5000000000002</ele><time>2026-04-02T22:31:42.999Z</time></trkpt><trkpt lat="36.852204286618026" lon="-108.09445687962564"><ele>1840.0</ele><time>2026-04-02T22:31:44.999Z</time></trkpt><trkpt lat="36.85221755928392" lon="-108.09455036989117"><ele>1840.0</ele><time>2026-04-02T22:31:45.999Z</time></trkpt><trkpt lat="36.85222077587699" lon="-108.09467543067842"><ele>1840.0</ele><time>2026-04-02T22:31:46.999Z</time></trkpt><trkpt lat="36.852226431196534" lon="-108.09479786505322"><ele>1840.0</ele><time>2026-04-02T22:31:47.999Z</time></trkpt><trkpt lat="36.852291275285424" lon="-108.09490921180947"><ele>1840.0</ele><time>2026-04-02T22:31:49.999Z</time></trkpt><trkpt lat="36.85235596623788" lon="-108.09494352741953"><ele>1840.0</ele><time>2026-04-02T22:31:50.999Z</time></trkpt><trkpt lat="36.85244320810852" lon="-108.09496674105038"><ele>1839.6666666666667</ele><time>2026-04-02T22:31:51.999Z</time></trkpt><trkpt lat="36.852516585681975" lon="-108.09501662034324"><ele>1839.3333333333335</ele><time>2026-04-02T22:31:52.999Z</time></trkpt><trkpt lat="36.85257325757994" lon="-108.09509061506282"><ele>1839.0</ele><time>2026-04-02T22:31:53.999Z</time></trkpt><trkpt lat="36.852627895472914" lon="-108.09516478889512"><ele>1838.6666666666665</ele><time>2026-04-02T22:31:54.999Z</time></trkpt><trkpt lat="36.85268141336236" lon="-108.09520911203012"><ele>1838.3333333333333</ele><time>2026-04-02T22:31:55.999Z</time></trkpt><trkpt lat="36.85275530188875" lon="-108.0952473954001"><ele>1838.0</ele><time>2026-04-02T22:31:56.999Z</time></trkpt><trkpt lat="36.852813977838494" lon="-108.0952888747915"><ele>1839.3333333333333</ele><time>2026-04-02T22:31:57.999Z</time></trkpt><trkpt lat="36.85286178453073" lon="-108.09535122407488"><ele>1840.6666666666665</ele><time>2026-04-02T22:31:58.999Z</time></trkpt><trkpt lat="36.85290881320922" lon="-108.09541519764606"><ele>1842.0</ele><time>2026-04-02T22:31:59.999Z</time></trkpt><trkpt lat="36.85294072406317" lon="-108.0955163668089"><ele>1843.3333333333335</ele><time>2026-04-02T22:32:00.999Z</time></trkpt><trkpt lat="36.85300180421071" lon="-108.09562117629254"><ele>1844.6666666666667</ele><time>2026-04-02T22:32:01.999Z</time></trkpt><trkpt lat="36.8530726431014" lon="-108.09564143175005"><ele>1846.0</ele><time>2026-04-02T22:32:02.999Z</time></trkpt><trkpt lat="36.85313936500366" lon="-108.0955533829909"><ele>1846.0</ele><time>2026-04-02T22:32:03.999Z</time></trkpt><trkpt lat="36.85323507878352" lon="-108.09548032097283"><ele>1846.0</ele><time>2026-04-02T22:32:04.999Z</time></trkpt><trkpt lat="36.853281984144296" lon="-108.09538378182776"><ele>1846.0</ele><time>2026-04-02T22:32:05.999Z</time></trkpt><trkpt lat="36.85333659342076" lon="-108.09533128519335"><ele>1846.0</ele><time>2026-04-02T22:32:06.999Z</time></trkpt><trkpt lat="36.85341038684323" lon="-108.09533026745007"><ele>1846.0</ele><time>2026-04-02T22:32:07.999Z</time></trkpt><trkpt lat="36.85350090154234" lon="-108.09522603566921"><ele>1847.1666666666667</ele><time>2026-04-02T22:32:09.999Z</time></trkpt><trkpt lat="36.853541012373945" lon="-108.09513988853317"><ele>1848.3333333333335</ele><time>2026-04-02T22:32:10.999Z</time></trkpt><trkpt lat="36.85361382626402" lon="-108.09511405250551"><ele>1849.5</ele><time>2026-04-02T22:32:11.999Z</time></trkpt><trkpt lat="36.853696884240165" lon="-108.09506037036671"><ele>1850.6666666666665</ele><time>2026-04-02T22:32:12.999Z</time></trkpt><trkpt lat="36.85379476430855" lon="-108.09500231873791"><ele>1851.8333333333333</ele><time>2026-04-02T22:32:13.999Z</time></trkpt><trkpt lat="36.85387191447579" lon="-108.09498686005348"><ele>1853.0</ele><time>2026-04-02T22:32:14.999Z</time></trkpt><trkpt lat="36.853953204430454" lon="-108.0949753510196"><ele>1852.9999999999998</ele><time>2026-04-02T22:32:15.999Z</time></trkpt><trkpt lat="36.85404546730188" lon="-108.09492403592223"><ele>1853.0</ele><time>2026-04-02T22:32:16.999Z</time></trkpt><trkpt lat="36.85412671370706" lon="-108.09485170191164"><ele>1853.0</ele><time>2026-04-02T22:32:17.999Z</time></trkpt><trkpt lat="36.854196942043494" lon="-108.09481755788384"><ele>1853.0</ele><time>2026-04-02T22:32:18.999Z</time></trkpt><trkpt lat="36.85427387400615" lon="-108.09479796315041"><ele>1852.9999999999998</ele><time>2026-04-02T22:32:19.999Z</time></trkpt><trkpt lat="36.85435485042609" lon="-108.09479992298738"><ele>1853.0</ele><time>2026-04-02T22:32:20.999Z</time></trkpt><trkpt lat="36.85443185858757" lon="-108.09480727916053"><ele>1854.0</ele><time>2026-04-02T22:32:21.999Z</time></trkpt><trkpt lat="36.85450971986061" lon="-108.0948257690743"><ele>1855.0000000000002</ele><time>2026-04-02T22:32:22.999Z</time></trkpt><trkpt lat="36.8545735708697" lon="-108.09496585461743"><ele>1856.0000000000002</ele><time>2026-04-02T22:32:24.999Z</time></trkpt><trkpt lat="36.85461207638169" lon="-108.09504367196028"><ele>1857.0</ele><time>2026-04-02T22:32:25.999Z</time></trkpt><trkpt lat="36.854678516955794" lon="-108.09502802334066"><ele>1858.0</ele><time>2026-04-02T22:32:26.999Z</time></trkpt><trkpt lat="36.85477220309785" lon="-108.09497362823082"><ele>1858.0000000000002</ele><time>2026-04-02T22:32:27.999Z</time></trkpt><trkpt lat="36.85484408477629" lon="-108.09497519618132"><ele>1858.0</ele><time>2026-04-02T22:32:28.999Z</time></trkpt><trkpt lat="36.854966864918026" lon="-108.09497270199036"><ele>1858.0</ele><time>2026-04-02T22:32:30.999Z</time></trkpt><trkpt lat="36.855029698036454" lon="-108.09495970405668"><ele>1858.0</ele><time>2026-04-02T22:32:31.999Z</time></trkpt><trkpt lat="36.85508826122551" lon="-108.09490924466299"><ele>1858.0000000000002</ele><time>2026-04-02T22:32:32.999Z</time></trkpt><trkpt lat="36.85517067691991" lon="-108.09485119757582"><ele>1858.0</ele><time>2026-04-02T22:32:33.999Z</time></trkpt><trkpt lat="36.855241100312625" lon="-108.0948686549287"><ele>1859.8000000000002</ele><time>2026-04-02T22:32:34.999Z</time></trkpt><trkpt lat="36.855305001255076" lon="-108.09494049126131"><ele>1861.6000000000001</ele><time>2026-04-02T22:32:36.999Z</time></trkpt><trkpt lat="36.85535824993947" lon="-108.09503037804548"><ele>1863.3999999999999</ele><time>2026-04-02T22:32:37.999Z</time></trkpt><trkpt lat="36.85541598214952" lon="-108.09507341382117"><ele>1865.1999999999998</ele><time>2026-04-02T22:32:38.999Z</time></trkpt><trkpt lat="36.85554775664507" lon="-108.095106140023"><ele>1867.0</ele><time>2026-04-02T22:32:40.999Z</time></trkpt><trkpt lat="36.855633412646405" lon="-108.09516301767084"><ele>1867.0</ele><time>2026-04-02T22:32:41.999Z</time></trkpt><trkpt lat="36.85572229128521" lon="-108.09522531054603"><ele>1866.9999999999998</ele><time>2026-04-02T22:32:42.999Z</time></trkpt><trkpt lat="36.85579204070026" lon="-108.09527283268015"><ele>1866.9999999999998</ele><time>2026-04-02T22:32:43.999Z</time></trkpt><trkpt lat="36.855876855020014" lon="-108.09539403289327"><ele>1867.0</ele><time>2026-04-02T22:32:45.999Z</time></trkpt><trkpt lat="36.85593706302792" lon="-108.09545587428406"><ele>1867.0</ele><time>2026-04-02T22:32:46.999Z</time></trkpt><trkpt lat="36.855994841616024" lon="-108.0955304382362"><ele>1868.1666666666667</ele><time>2026-04-02T22:32:47.999Z</time></trkpt><trkpt lat="36.85604662328869" lon="-108.09558414489318"><ele>1869.3333333333335</ele><time>2026-04-02T22:32:48.999Z</time></trkpt><trkpt lat="36.85610655053983" lon="-108.09562206956983"><ele>1870.5</ele><time>2026-04-02T22:32:49.999Z</time></trkpt><trkpt lat="36.856178002690896" lon="-108.09569234452337"><ele>1871.6666666666665</ele><time>2026-04-02T22:32:50.999Z</time></trkpt><trkpt lat="36.856222577686566" lon="-108.0957832944441"><ele>1872.8333333333333</ele><time>2026-04-02T22:32:51.999Z</time></trkpt><trkpt lat="36.856225660311644" lon="-108.09589934142558"><ele>1874.0</ele><time>2026-04-02T22:32:52.999Z</time></trkpt><trkpt lat="36.856244472400014" lon="-108.096007501706"><ele>1874.3333333333333</ele><time>2026-04-02T22:32:53.999Z</time></trkpt><trkpt lat="36.856235735857155" lon="-108.09611571044213"><ele>1874.6666666666665</ele><time>2026-04-02T22:32:55.999Z</time></trkpt><trkpt lat="36.8563084050834" lon="-108.09620640387253"><ele>1875.0</ele><time>2026-04-02T22:32:57.999Z</time></trkpt><trkpt lat="36.856375567466216" lon="-108.09620314318028"><ele>1875.3333333333335</ele><time>2026-04-02T22:32:58.999Z</time></trkpt><trkpt lat="36.85645814532841" lon="-108.09615248346773"><ele>1875.6666666666667</ele><time>2026-04-02T22:32:59.999Z</time></trkpt><trkpt lat="36.85654774282284" lon="-108.09611966238968"><ele>1876.0</ele><time>2026-04-02T22:33:00.999Z</time></trkpt><trkpt lat="36.85666383462604" lon="-108.09613156988152"><ele>1876.0</ele><time>2026-04-02T22:33:02.999Z</time></trkpt><trkpt lat="36.856763492990886" lon="-108.09609726258435"><ele>1876.0</ele><time>2026-04-02T22:34:54.999Z</time></trkpt><trkpt lat="36.85688163324688" lon="-108.09604257565175"><ele>1876.0</ele><time>2026-04-02T22:34:56.999Z</time></trkpt><trkpt lat="36.8569792084962" lon="-108.09605175523437"><ele>1876.0</ele><time>2026-04-02T22:34:57.999Z</time></trkpt><trkpt lat="36.8570638507376" lon="-108.09605927690572"><ele>1876.0</ele><time>2026-04-02T22:34:58.999Z</time></trkpt><trkpt lat="36.85719053638005" lon="-108.09599265013628"><ele>1876.6</ele><time>2026-04-02T22:35:00.999Z</time></trkpt><trkpt lat="36.85727873207402" lon="-108.09599433951955"><ele>1877.1999999999998</ele><time>2026-04-02T22:35:01.999Z</time></trkpt><trkpt lat="36.8574216983981" lon="-108.0959669797529"><ele>1877.8000000000002</ele><time>2026-04-02T22:35:03.999Z</time></trkpt><trkpt lat="36.857486594821935" lon="-108.0959683724756"><ele>1878.4</ele><time>2026-04-02T22:35:04.999Z</time></trkpt><trkpt lat="36.85759646137777" lon="-108.09599082555238"><ele>1879.0</ele><time>2026-04-02T22:35:06.999Z</time></trkpt><trkpt lat="36.85766683144064" lon="-108.09596796438146"><ele>1879.0</ele><time>2026-04-02T22:35:07.999Z</time></trkpt><trkpt lat="36.85773580052219" lon="-108.09594674993018"><ele>1879.0</ele><time>2026-04-02T22:35:08.999Z</time></trkpt><trkpt lat="36.857815627896855" lon="-108.09589656402875"><ele>1879.0</ele><time>2026-04-02T22:35:09.999Z</time></trkpt><trkpt lat="36.85787762376778" lon="-108.09582420601636"><ele>1879.0</ele><time>2026-04-02T22:35:10.999Z</time></trkpt><trkpt lat="36.8579848843481" lon="-108.09574525090834"><ele>1879.0</ele><time>2026-04-02T22:35:12.999Z</time></trkpt><trkpt lat="36.85807142700394" lon="-108.0957210348086"><ele>1878.0000000000002</ele><time>2026-04-02T22:35:13.999Z</time></trkpt><trkpt lat="36.85816257413266" lon="-108.09569800138021"><ele>1877.0</ele><time>2026-04-02T22:35:14.999Z</time></trkpt><trkpt lat="36.85823443892846" lon="-108.09566561928598"><ele>1876.0</ele><time>2026-04-02T22:35:15.999Z</time></trkpt><trkpt lat="36.85829059461248" lon="-108.09561660940693"><ele>1875.0</ele><time>2026-04-02T22:35:16.999Z</time></trkpt><trkpt lat="36.858342743929704" lon="-108.09556594640273"><ele>1874.0000000000002</ele><time>2026-04-02T22:35:17.999Z</time></trkpt><trkpt lat="36.858393309812634" lon="-108.09550990638479"><ele>1873.0</ele><time>2026-04-02T22:35:18.999Z</time></trkpt><trkpt lat="36.858455102487895" lon="-108.09543400482367"><ele>1872.6666666666667</ele><time>2026-04-02T22:35:19.999Z</time></trkpt><trkpt lat="36.858522977297234" lon="-108.09535970331537"><ele>1872.3333333333335</ele><time>2026-04-02T22:35:20.999Z</time></trkpt><trkpt lat="36.85859098291852" lon="-108.09530786448993"><ele>1872.0</ele><time>2026-04-02T22:35:21.999Z</time></trkpt><trkpt lat="36.85865634950788" lon="-108.09526566129668"><ele>1871.6666666666665</ele><time>2026-04-02T22:35:22.999Z</time></trkpt><trkpt lat="36.85871950668072" lon="-108.09522185816738"><ele>1871.3333333333333</ele><time>2026-04-02T22:35:23.999Z</time></trkpt><trkpt lat="36.85879519272575" lon="-108.09515499796996"><ele>1871.0</ele><time>2026-04-02T22:35:24.999Z</time></trkpt><trkpt lat="36.8588737326913" lon="-108.09508667906248"><ele>1870.9999999999998</ele><time>2026-04-02T22:35:25.999Z</time></trkpt><trkpt lat="36.85894692537929" lon="-108.09502942222868"><ele>1871.0</ele><time>2026-04-02T22:35:26.999Z</time></trkpt><trkpt lat="36.859012347923404" lon="-108.09498288465478"><ele>1871.0</ele><time>2026-04-02T22:35:27.999Z</time></trkpt><trkpt lat="36.8591037049135" lon="-108.09493654404082"><ele>1871.0</ele><time>2026-04-02T22:35:28.999Z</time></trkpt><trkpt lat="36.85919058677604" lon="-108.09490425102878"><ele>1870.9999999999998</ele><time>2026-04-02T22:35:29.999Z</time></trkpt><trkpt lat="36.85925787067098" lon="-108.09488114985268"><ele>1871.0</ele><time>2026-04-02T22:35:30.999Z</time></trkpt><trkpt lat="36.85932878822116" lon="-108.09485750744678"><ele>1869.9999999999998</ele><time>2026-04-02T22:35:31.999Z</time></trkpt><trkpt lat="36.859400140706306" lon="-108.09485429333688"><ele>1869.0</ele><time>2026-04-02T22:35:32.999Z</time></trkpt><trkpt lat="36.85951200670183" lon="-108.09483455815682"><ele>1868.0</ele><time>2026-04-02T22:35:34.999Z</time></trkpt><trkpt lat="36.85959017758952" lon="-108.09481782224701"><ele>1867.0</ele><time>2026-04-02T22:35:35.999Z</time></trkpt><trkpt lat="36.85967687081358" lon="-108.0948068274443"><ele>1865.9999999999998</ele><time>2026-04-02T22:35:36.999Z</time></trkpt><trkpt lat="36.85974097728195" lon="-108.09481637526555"><ele>1865.0</ele><time>2026-04-02T22:35:37.999Z</time></trkpt><trkpt lat="36.859807496108004" lon="-108.09481177241895"><ele>1865.0</ele><time>2026-04-02T22:35:39.999Z</time></trkpt><trkpt lat="36.85990046599617" lon="-108.09472131474863"><ele>1865.0</ele><time>2026-04-02T22:35:41.999Z</time></trkpt><trkpt lat="36.859971472978174" lon="-108.09466225741289"><ele>1865.0</ele><time>2026-04-02T22:35:42.999Z</time></trkpt><trkpt lat="36.86004025992741" lon="-108.09465894871326"><ele>1865.0</ele><time>2026-04-02T22:35:43.999Z</time></trkpt><trkpt lat="36.86013502620058" lon="-108.09468852729748"><ele>1865.0</ele><time>2026-04-02T22:35:44.999Z</time></trkpt><trkpt lat="36.860227549449974" lon="-108.09469383450714"><ele>1866.0</ele><time>2026-04-02T22:35:45.999Z</time></trkpt><trkpt lat="36.86032197038728" lon="-108.09467442213149"><ele>1867.0</ele><time>2026-04-02T22:35:47.999Z</time></trkpt><trkpt lat="36.86040900183373" lon="-108.09468417820433"><ele>1868.0</ele><time>2026-04-02T22:35:49.999Z</time></trkpt><trkpt lat="36.860477910429" lon="-108.09483616710183"><ele>1869.0</ele><time>2026-04-02T22:35:51.999Z</time></trkpt><trkpt lat="36.860541851985886" lon="-108.09489274940402"><ele>1870.0</ele><time>2026-04-02T22:35:52.999Z</time></trkpt><trkpt lat="36.86060473256954" lon="-108.09489781952102"><ele>1870.2</ele><time>2026-04-02T22:35:53.999Z</time></trkpt><trkpt lat="36.860710382943395" lon="-108.09493927969078"><ele>1870.4</ele><time>2026-04-02T22:35:54.999Z</time></trkpt><trkpt lat="36.860806582095194" lon="-108.0949869113215"><ele>1870.6</ele><time>2026-04-02T22:35:55.999Z</time></trkpt><trkpt lat="36.860893016733684" lon="-108.09502381342426"><ele>1870.8</ele><time>2026-04-02T22:35:56.999Z</time></trkpt><trkpt lat="36.86098237015807" lon="-108.09503679633963"><ele>1871.0</ele><time>2026-04-02T22:35:57.999Z</time></trkpt><trkpt lat="36.8610833192089" lon="-108.09506012496678"><ele>1872.1666666666665</ele><time>2026-04-02T22:35:58.999Z</time></trkpt><trkpt lat="36.86118023712363" lon="-108.09506740434988"><ele>1873.3333333333333</ele><time>2026-04-02T22:35:59.999Z</time></trkpt><trkpt lat="36.86127858609077" lon="-108.09505503317413"><ele>1874.5</ele><time>2026-04-02T22:36:00.999Z</time></trkpt><trkpt lat="36.86135347725004" lon="-108.09507929482055"><ele>1875.6666666666665</ele><time>2026-04-02T22:36:01.999Z</time></trkpt><trkpt lat="36.861418148455996" lon="-108.0950952833446"><ele>1876.8333333333333</ele><time>2026-04-02T22:36:02.999Z</time></trkpt><trkpt lat="36.86148471120455" lon="-108.09510288977573"><ele>1878.0</ele><time>2026-04-02T22:36:03.999Z</time></trkpt><trkpt lat="36.86154952210072" lon="-108.09512753098407"><ele>1878.0</ele><time>2026-04-02T22:36:04.999Z</time></trkpt><trkpt lat="36.86161217877809" lon="-108.09519711760885"><ele>1878.0</ele><time>2026-04-02T22:36:05.999Z</time></trkpt><trkpt lat="36.86169613064148" lon="-108.09520417207554"><ele>1878.0</ele><time>2026-04-02T22:36:06.999Z</time></trkpt><trkpt lat="36.861780623838165" lon="-108.09520597910563"><ele>1878.0</ele><time>2026-04-02T22:36:07.999Z</time></trkpt><trkpt lat="36.86184091225493" lon="-108.09525125729004"><ele>1878.0</ele><time>2026-04-02T22:36:08.999Z</time></trkpt><trkpt lat="36.861904694769045" lon="-108.0953057411909"><ele>1878.0</ele><time>2026-04-02T22:36:09.999Z</time></trkpt><trkpt lat="36.86200710151705" lon="-108.09534682718012"><ele>1878.0</ele><time>2026-04-02T22:36:10.999Z</time></trkpt><trkpt lat="36.86211308701851" lon="-108.09538609645516"><ele>1878.0</ele><time>2026-04-02T22:36:11.999Z</time></trkpt><trkpt lat="36.862192855913484" lon="-108.09541620858803"><ele>1878.0</ele><time>2026-04-02T22:36:12.999Z</time></trkpt><trkpt lat="36.86234726535741" lon="-108.095373487053"><ele>1878.0</ele><time>2026-04-02T22:36:14.999Z</time></trkpt><trkpt lat="36.862442296200186" lon="-108.09532738225631"><ele>1878.0</ele><time>2026-04-02T22:36:15.999Z</time></trkpt><trkpt lat="36.862507337355666" lon="-108.09527213636451"><ele>1878.0000000000002</ele><time>2026-04-02T22:36:16.999Z</time></trkpt><trkpt lat="36.862561614649806" lon="-108.09520499924648"><ele>1878.0000000000002</ele><time>2026-04-02T22:36:17.999Z</time></trkpt><trkpt lat="36.862596602139426" lon="-108.0951252432588"><ele>1878.0</ele><time>2026-04-02T22:36:18.999Z</time></trkpt><trkpt lat="36.86269380280386" lon="-108.09502948916987"><ele>1878.0</ele><time>2026-04-02T22:36:20.999Z</time></trkpt><trkpt lat="36.862768561508176" lon="-108.09493273979443"><ele>1877.6666666666667</ele><time>2026-04-02T22:36:22.999Z</time></trkpt><trkpt lat="36.86281763217729" lon="-108.09487778536536"><ele>1877.3333333333335</ele><time>2026-04-02T22:36:23.999Z</time></trkpt><trkpt lat="36.86289239656703" lon="-108.09484246590189"><ele>1877.0</ele><time>2026-04-02T22:36:24.999Z</time></trkpt><trkpt lat="36.86295505985707" lon="-108.09482710747851"><ele>1876.6666666666667</ele><time>2026-04-02T22:36:25.999Z</time></trkpt><trkpt lat="36.86302264354149" lon="-108.09484880032366"><ele>1876.3333333333335</ele><time>2026-04-02T22:36:28.999Z</time></trkpt><trkpt lat="36.86309074831562" lon="-108.09486147431282"><ele>1876.0</ele><time>2026-04-02T22:36:30.999Z</time></trkpt><trkpt lat="36.86320805371272" lon="-108.09481038844199"><ele>1876.0000000000002</ele><time>2026-04-02T22:36:32.999Z</time></trkpt><trkpt lat="36.863284170804924" lon="-108.09477066978842"><ele>1876.0</ele><time>2026-04-02T22:36:33.999Z</time></trkpt><trkpt lat="36.86335310035815" lon="-108.09475479426784"><ele>1876.0</ele><time>2026-04-02T22:36:34.999Z</time></trkpt><trkpt lat="36.86341456606208" lon="-108.09479407935488"><ele>1876.0</ele><time>2026-04-02T22:36:35.999Z</time></trkpt><trkpt lat="36.86348405463727" lon="-108.09482738675192"><ele>1876.0000000000002</ele><time>2026-04-02T22:36:36.999Z</time></trkpt><trkpt lat="36.863572255228966" lon="-108.09486158891357"><ele>1876.0</ele><time>2026-04-02T22:36:37.999Z</time></trkpt><trkpt lat="36.863662482906705" lon="-108.09486009151416"><ele>1876.1666666666667</ele><time>2026-04-02T22:36:38.999Z</time></trkpt><trkpt lat="36.863763643297" lon="-108.09481268868282"><ele>1876.3333333333335</ele><time>2026-04-02T22:36:40.999Z</time></trkpt><trkpt lat="36.8638187948608" lon="-108.0947559923799"><ele>1876.5</ele><time>2026-04-02T22:36:41.999Z</time></trkpt><trkpt lat="36.86390125123474" lon="-108.09470314323727"><ele>1876.6666666666665</ele><time>2026-04-02T22:36:43.999Z</time></trkpt><trkpt lat="36.86394311586559" lon="-108.09462017725386"><ele>1876.8333333333333</ele><time>2026-04-02T22:36:44.999Z</time></trkpt><trkpt lat="36.863982271184085" lon="-108.09452648183094"><ele>1877.0</ele><time>2026-04-02T22:36:45.999Z</time></trkpt><trkpt lat="36.86402166246275" lon="-108.09445093164281"><ele>1876.9999999999998</ele><time>2026-04-02T22:36:46.999Z</time></trkpt><trkpt lat="36.86411412953572" lon="-108.09434938184347"><ele>1877.0</ele><time>2026-04-02T22:36:48.999Z</time></trkpt><trkpt lat="36.86417260855866" lon="-108.09431795750007"><ele>1877.0</ele><time>2026-04-02T22:36:49.999Z</time></trkpt><trkpt lat="36.864244852938974" lon="-108.09430612251597"><ele>1877.0</ele><time>2026-04-02T22:36:50.999Z</time></trkpt><trkpt lat="36.864315390428494" lon="-108.09431439543492"><ele>1876.9999999999998</ele><time>2026-04-02T22:36:51.999Z</time></trkpt><trkpt lat="36.86439348516668" lon="-108.09432601511155"><ele>1877.0</ele><time>2026-04-02T22:36:52.999Z</time></trkpt><trkpt lat="36.864477146181684" lon="-108.09433794817303"><ele>1877.3999999999999</ele><time>2026-04-02T22:36:53.999Z</time></trkpt><trkpt lat="36.86454872691031" lon="-108.09436280105194"><ele>1877.7999999999997</ele><time>2026-04-02T22:36:54.999Z</time></trkpt><trkpt lat="36.864659637562305" lon="-108.09443513459934"><ele>1878.2</ele><time>2026-04-02T22:36:56.999Z</time></trkpt><trkpt lat="36.86471431350835" lon="-108.09453903647305"><ele>1878.6</ele><time>2026-04-02T22:36:57.999Z</time></trkpt><trkpt lat="36.86477284619709" lon="-108.09460003834532"><ele>1879.0</ele><time>2026-04-02T22:36:58.999Z</time></trkpt><trkpt lat="36.864863901094296" lon="-108.0947200145974"><ele>1879.0</ele><time>2026-04-02T22:36:59.999Z</time></trkpt><trkpt lat="36.864949911517265" lon="-108.09475923243748"><ele>1879.0</ele><time>2026-04-02T22:37:00.999Z</time></trkpt><trkpt lat="36.86504831437336" lon="-108.09476257805679"><ele>1879.0</ele><time>2026-04-02T22:37:01.999Z</time></trkpt><trkpt lat="36.865148331974" lon="-108.09473952019914"><ele>1879.0</ele><time>2026-04-02T22:37:02.999Z</time></trkpt><trkpt lat="36.865189142989166" lon="-108.0946751105479"><ele>1879.0</ele><time>2026-04-02T22:37:03.999Z</time></trkpt><trkpt lat="36.86527536718543" lon="-108.094595300979"><ele>1880.2</ele><time>2026-04-02T22:37:05.999Z</time></trkpt><trkpt lat="36.86535998987808" lon="-108.09455147413014"><ele>1881.4</ele><time>2026-04-02T22:37:07.999Z</time></trkpt><trkpt lat="36.86547573912529" lon="-108.09455532802116"><ele>1882.6</ele><time>2026-04-02T22:37:10.999Z</time></trkpt><trkpt lat="36.865564849816856" lon="-108.09454283794975"><ele>1883.8</ele><time>2026-04-02T22:37:11.999Z</time></trkpt><trkpt lat="36.86566924335927" lon="-108.09453761124355"><ele>1885.0</ele><time>2026-04-02T22:37:12.999Z</time></trkpt><trkpt lat="36.86579995111881" lon="-108.09453039277095"><ele>1885.0</ele><time>2026-04-02T22:37:13.999Z</time></trkpt><trkpt lat="36.865919156522686" lon="-108.09450005672304"><ele>1885.0</ele><time>2026-04-02T22:37:14.999Z</time></trkpt><trkpt lat="36.86599876767215" lon="-108.09449098949445"><ele>1885.0</ele><time>2026-04-02T22:37:15.999Z</time></trkpt><trkpt lat="36.86605777106698" lon="-108.09452159796265"><ele>1885.0</ele><time>2026-04-02T22:37:16.999Z</time></trkpt><trkpt lat="36.86614849075155" lon="-108.09458312092376"><ele>1885.0</ele><time>2026-04-02T22:37:17.999Z</time></trkpt><trkpt lat="36.86625183490063" lon="-108.09462194747918"><ele>1885.8</ele><time>2026-04-02T22:37:18.999Z</time></trkpt><trkpt lat="36.866332254750354" lon="-108.09463038859525"><ele>1886.6</ele><time>2026-04-02T22:37:19.999Z</time></trkpt><trkpt lat="36.86640214636767" lon="-108.09461901025973"><ele>1887.4</ele><time>2026-04-02T22:37:20.999Z</time></trkpt><trkpt lat="36.866489169026536" lon="-108.09460488837334"><ele>1888.2</ele><time>2026-04-02T22:37:21.999Z</time></trkpt><trkpt lat="36.86660388863546" lon="-108.09461322158337"><ele>1889.0</ele><time>2026-04-02T22:37:22.999Z</time></trkpt><trkpt lat="36.86670364976977" lon="-108.09460374700753"><ele>1889.0</ele><time>2026-04-02T22:37:23.999Z</time></trkpt><trkpt lat="36.86676944638316" lon="-108.09459444357023"><ele>1889.0</ele><time>2026-04-02T22:37:24.999Z</time></trkpt><trkpt lat="36.86677916048267" lon="-108.09475627468845"><ele>1889.0</ele><time>2026-04-02T22:37:26.999Z</time></trkpt><trkpt lat="36.86679684351683" lon="-108.09487531258222"><ele>1889.0</ele><time>2026-04-02T22:37:27.999Z</time></trkpt><trkpt lat="36.866868346571685" lon="-108.09501107808362"><ele>1889.0</ele><time>2026-04-02T22:37:28.999Z</time></trkpt><trkpt lat="36.86693193822009" lon="-108.09511888541408"><ele>1890.0</ele><time>2026-04-02T22:37:29.999Z</time></trkpt><trkpt lat="36.86698254163364" lon="-108.09518007353218"><ele>1891.0</ele><time>2026-04-02T22:37:30.999Z</time></trkpt><trkpt lat="36.867042855060106" lon="-108.09521467924829"><ele>1892.0</ele><time>2026-04-02T22:37:31.999Z</time></trkpt><trkpt lat="36.86713589007163" lon="-108.09524960056173"><ele>1893.0</ele><time>2026-04-02T22:37:32.999Z</time></trkpt><trkpt lat="36.8672438677006" lon="-108.09527747681936"><ele>1894.0</ele><time>2026-04-02T22:37:33.999Z</time></trkpt><trkpt lat="36.867357786521445" lon="-108.09529778864088"><ele>1894.0</ele><time>2026-04-02T22:37:34.999Z</time></trkpt><trkpt lat="36.867443334046094" lon="-108.09533286610325"><ele>1894.0</ele><time>2026-04-02T22:37:35.999Z</time></trkpt><trkpt lat="36.86752523621061" lon="-108.09544093001055"><ele>1894.0</ele><time>2026-04-02T22:37:36.999Z</time></trkpt><trkpt lat="36.867605272403246" lon="-108.09557481435107"><ele>1894.0</ele><time>2026-04-02T22:37:37.999Z</time></trkpt><trkpt lat="36.86768221250624" lon="-108.09569519342485"><ele>1895.4</ele><time>2026-04-02T22:37:38.999Z</time></trkpt><trkpt lat="36.867756497039785" lon="-108.0957930843793"><ele>1896.8000000000002</ele><time>2026-04-02T22:37:39.999Z</time></trkpt><trkpt lat="36.867830238056804" lon="-108.09589032559909"><ele>1898.1999999999998</ele><time>2026-04-02T22:37:40.999Z</time></trkpt><trkpt lat="36.867877247544975" lon="-108.09598223318186"><ele>1899.6</ele><time>2026-04-02T22:37:41.999Z</time></trkpt><trkpt lat="36.867922458460114" lon="-108.09605825435021"><ele>1901.0</ele><time>2026-04-02T22:37:42.999Z</time></trkpt><trkpt lat="36.8679946339378" lon="-108.0961670437028"><ele>1901.0</ele><time>2026-04-02T22:37:43.999Z</time></trkpt><trkpt lat="36.868076617356536" lon="-108.09628060476136"><ele>1901.0</ele><time>2026-04-02T22:37:44.999Z</time></trkpt><trkpt lat="36.86815925172599" lon="-108.09635235821511"><ele>1901.0</ele><time>2026-04-02T22:37:45.999Z</time></trkpt><trkpt lat="36.868251524323476" lon="-108.09642971389285"><ele>1901.0</ele><time>2026-04-02T22:37:46.999Z</time></trkpt><trkpt lat="36.86834586620071" lon="-108.09651414763039"><ele>1903.0</ele><time>2026-04-02T22:37:47.999Z</time></trkpt><trkpt lat="36.86845083574448" lon="-108.09662617687768"><ele>1905.0</ele><time>2026-04-02T22:37:48.999Z</time></trkpt><trkpt lat="36.868534864658194" lon="-108.09674743915532"><ele>1907.0</ele><time>2026-04-02T22:37:49.999Z</time></trkpt><trkpt lat="36.8686123643859" lon="-108.09685460584883"><ele>1909.0</ele><time>2026-04-02T22:37:50.999Z</time></trkpt><trkpt lat="36.86868641868095" lon="-108.09691428203847"><ele>1909.0000000000002</ele><time>2026-04-02T22:37:51.999Z</time></trkpt><trkpt lat="36.86878323686478" lon="-108.09689063698019"><ele>1909.0</ele><time>2026-04-02T22:37:53.999Z</time></trkpt><trkpt lat="36.86885622516283" lon="-108.0968745532525"><ele>1909.0</ele><time>2026-04-02T22:37:54.999Z</time></trkpt><trkpt lat="36.86894238068823" lon="-108.09681658276115"><ele>1909.0</ele><time>2026-04-02T22:37:56.999Z</time></trkpt><trkpt lat="36.86899407459814" lon="-108.09675790258767"><ele>1909.0000000000002</ele><time>2026-04-02T22:37:57.999Z</time></trkpt><trkpt lat="36.86905707228303" lon="-108.09669904137455"><ele>1909.0</ele><time>2026-04-02T22:37:58.999Z</time></trkpt><trkpt lat="36.86913780710663" lon="-108.09668213712433"><ele>1909.0</ele><time>2026-04-02T22:37:59.999Z</time></trkpt><trkpt lat="36.86921339758813" lon="-108.09669874282028"><ele>1909.0</ele><time>2026-04-02T22:38:00.999Z</time></trkpt><trkpt lat="36.86930209825583" lon="-108.09670845627943"><ele>1909.0</ele><time>2026-04-02T22:38:01.999Z</time></trkpt><trkpt lat="36.86940637432761" lon="-108.09674778079511"><ele>1909.0</ele><time>2026-04-02T22:38:02.999Z</time></trkpt><trkpt lat="36.86951884303781" lon="-108.09681866250138"><ele>1909.0</ele><time>2026-04-02T22:38:03.999Z</time></trkpt><trkpt lat="36.86960788629426" lon="-108.09689007304289"><ele>1908.5000000000002</ele><time>2026-04-02T22:38:04.999Z</time></trkpt><trkpt lat="36.86967877312551" lon="-108.09695230961789"><ele>1908.0</ele><time>2026-04-02T22:38:05.999Z</time></trkpt><trkpt lat="36.86973596545728" lon="-108.09700574982162"><ele>1907.5</ele><time>2026-04-02T22:38:06.999Z</time></trkpt><trkpt lat="36.869812096435915" lon="-108.09708287885489"><ele>1907.0</ele><time>2026-04-02T22:38:08.999Z</time></trkpt><trkpt lat="36.86989154571073" lon="-108.09705682845645"><ele>1906.5000000000002</ele><time>2026-04-02T22:38:10.999Z</time></trkpt><trkpt lat="36.869907389610674" lon="-108.09716357160265"><ele>1906.0</ele><time>2026-04-02T22:38:11.999Z</time></trkpt><trkpt lat="36.86997538068306" lon="-108.09722616738759"><ele>1906.0</ele><time>2026-04-02T22:38:12.999Z</time></trkpt><trkpt lat="36.87009804984105" lon="-108.0971626760909"><ele>1906.0</ele><time>2026-04-02T22:38:13.999Z</time></trkpt><trkpt lat="36.87022259400137" lon="-108.09716188628336"><ele>1906.0</ele><time>2026-04-02T22:38:15.999Z</time></trkpt><trkpt lat="36.87028165550487" lon="-108.09732697063573"><ele>1906.0</ele><time>2026-04-02T22:38:17.999Z</time></trkpt><trkpt lat="36.87034048664557" lon="-108.09742243169168"><ele>1905.0</ele><time>2026-04-02T22:38:18.999Z</time></trkpt><trkpt lat="36.8704381505654" lon="-108.09751646214615"><ele>1904.0</ele><time>2026-04-02T22:38:19.999Z</time></trkpt><trkpt lat="36.870566015311745" lon="-108.09763344517312"><ele>1903.0</ele><time>2026-04-02T22:38:20.999Z</time></trkpt><trkpt lat="36.87071107535946" lon="-108.09774986087122"><ele>1903.0</ele><time>2026-04-02T22:38:21.999Z</time></trkpt><trkpt lat="36.870828926662405" lon="-108.09784941130421"><ele>1903.0</ele><time>2026-04-02T22:38:22.999Z</time></trkpt><trkpt lat="36.87092287035842" lon="-108.09794537109757"><ele>1903.0</ele><time>2026-04-02T22:38:23.999Z</time></trkpt><trkpt lat="36.87099713516574" lon="-108.09803933655647"><ele>1903.0</ele><time>2026-04-02T22:38:24.999Z</time></trkpt><trkpt lat="36.87107150857833" lon="-108.09813974596453"><ele>1902.0</ele><time>2026-04-02T22:38:25.999Z</time></trkpt><trkpt lat="36.871150278548626" lon="-108.09823532313531"><ele>1901.0000000000002</ele><time>2026-04-02T22:38:26.999Z</time></trkpt><trkpt lat="36.871244568478815" lon="-108.09834693133227"><ele>1900.0000000000002</ele><time>2026-04-02T22:38:27.999Z</time></trkpt><trkpt lat="36.87133097190186" lon="-108.0984485166914"><ele>1899.0</ele><time>2026-04-02T22:38:28.999Z</time></trkpt><trkpt lat="36.87139000471231" lon="-108.09852124569976"><ele>1898.0</ele><time>2026-04-02T22:38:29.999Z</time></trkpt><trkpt lat="36.87139923988364" lon="-108.09863662116162"><ele>1897.9999999999998</ele><time>2026-04-02T22:38:31.999Z</time></trkpt><trkpt lat="36.87133733905707" lon="-108.09875469715398"><ele>1898.0</ele><time>2026-04-02T22:38:33.999Z</time></trkpt><trkpt lat="36.87132606745417" lon="-108.098834130964"><ele>1898.0</ele><time>2026-04-02T22:38:34.999Z</time></trkpt><trkpt lat="36.87135281746154" lon="-108.0989123228284"><ele>1898.0</ele><time>2026-04-02T22:38:35.999Z</time></trkpt><trkpt lat="36.87140208876296" lon="-108.09901358800079"><ele>1897.9999999999998</ele><time>2026-04-02T22:38:36.999Z</time></trkpt><trkpt lat="36.87147424795272" lon="-108.09911540357594"><ele>1898.0</ele><time>2026-04-02T22:38:37.999Z</time></trkpt><trkpt lat="36.871568488513034" lon="-108.09920502284852"><ele>1897.75</ele><time>2026-04-02T22:38:38.999Z</time></trkpt><trkpt lat="36.87167080948344" lon="-108.09929081347397"><ele>1897.5</ele><time>2026-04-02T22:38:39.999Z</time></trkpt><trkpt lat="36.87176565849453" lon="-108.09937465526507"><ele>1897.25</ele><time>2026-04-02T22:38:40.999Z</time></trkpt><trkpt lat="36.87182935545644" lon="-108.09947808763886"><ele>1897.0</ele><time>2026-04-02T22:38:41.999Z</time></trkpt><trkpt lat="36.87185420678059" lon="-108.09961864817424"><ele>1896.1666666666667</ele><time>2026-04-02T22:38:42.999Z</time></trkpt><trkpt lat="36.871875921053295" lon="-108.099732574664"><ele>1895.3333333333335</ele><time>2026-04-02T22:38:43.999Z</time></trkpt><trkpt lat="36.87192325257687" lon="-108.09980216288632"><ele>1894.5</ele><time>2026-04-02T22:38:44.999Z</time></trkpt><trkpt lat="36.87199000184783" lon="-108.09985137925175"><ele>1893.6666666666665</ele><time>2026-04-02T22:38:45.999Z</time></trkpt><trkpt lat="36.8720640922789" lon="-108.09993999959568"><ele>1892.8333333333333</ele><time>2026-04-02T22:38:46.999Z</time></trkpt><trkpt lat="36.87211966762587" lon="-108.10001027685007"><ele>1892.0</ele><time>2026-04-02T22:38:47.999Z</time></trkpt><trkpt lat="36.87220581812607" lon="-108.10004270383217"><ele>1892.0</ele><time>2026-04-02T22:38:48.999Z</time></trkpt><trkpt lat="36.8723174778513" lon="-108.1000754279103"><ele>1891.9999999999998</ele><time>2026-04-02T22:38:49.999Z</time></trkpt><trkpt lat="36.872407980670296" lon="-108.10011563904291"><ele>1891.9999999999998</ele><time>2026-04-02T22:38:51Z</time></trkpt><trkpt lat="36.872443702639536" lon="-108.10020478079669"><ele>1892.0</ele><time>2026-04-02T22:38:52Z</time></trkpt><trkpt lat="36.87247252615105" lon="-108.10035071589786"><ele>1892.0</ele><time>2026-04-02T22:38:53Z</time></trkpt><trkpt lat="36.872506678209646" lon="-108.10051442922158"><ele>1892.0</ele><time>2026-04-02T22:38:54Z</time></trkpt><trkpt lat="36.87254038040208" lon="-108.10064205932395"><ele>1891.9999999999998</ele><time>2026-04-02T22:38:55Z</time></trkpt><trkpt lat="36.87258635141463" lon="-108.10074586935059"><ele>1891.9999999999998</ele><time>2026-04-02T22:38:56Z</time></trkpt><trkpt lat="36.87265816625848" lon="-108.10084803245365"><ele>1892.0</ele><time>2026-04-02T22:38:57Z</time></trkpt><trkpt lat="36.87271548724815" lon="-108.10093477432652"><ele>1892.0</ele><time>2026-04-02T22:38:58Z</time></trkpt><trkpt lat="36.872740548968004" lon="-108.1010203627895"><ele>1891.1999999999998</ele><time>2026-04-02T22:38:59Z</time></trkpt><trkpt lat="36.872739726760614" lon="-108.10113652741147"><ele>1890.3999999999999</ele><time>2026-04-02T22:39:00Z</time></trkpt><trkpt lat="36.872763922892396" lon="-108.10125107796523"><ele>1889.6000000000001</ele><time>2026-04-02T22:39:01Z</time></trkpt><trkpt lat="36.87280372828771" lon="-108.10139334081421"><ele>1888.8000000000002</ele><time>2026-04-02T22:39:02Z</time></trkpt><trkpt lat="36.872845928125805" lon="-108.10153492635725"><ele>1888.0</ele><time>2026-04-02T22:39:03Z</time></trkpt><trkpt lat="36.87287936368592" lon="-108.10167562528737"><ele>1888.0000000000002</ele><time>2026-04-02T22:39:04Z</time></trkpt><trkpt lat="36.87288249370855" lon="-108.10178610892885"><ele>1888.0</ele><time>2026-04-02T22:39:05Z</time></trkpt><trkpt lat="36.87288718698687" lon="-108.10187636090151"><ele>1888.0</ele><time>2026-04-02T22:39:06Z</time></trkpt><trkpt lat="36.87294225628311" lon="-108.10196254483411"><ele>1888.0</ele><time>2026-04-02T22:39:07Z</time></trkpt><trkpt lat="36.873014098677025" lon="-108.10201595514836"><ele>1888.0000000000002</ele><time>2026-04-02T22:39:08Z</time></trkpt><trkpt lat="36.87309585367192" lon="-108.10204711893995"><ele>1888.0</ele><time>2026-04-02T22:39:09Z</time></trkpt><trkpt lat="36.87319256679861" lon="-108.10212099445846"><ele>1888.0</ele><time>2026-04-02T22:39:10Z</time></trkpt><trkpt lat="36.8733076238127" lon="-108.10219779902249"><ele>1888.0</ele><time>2026-04-02T22:39:11Z</time></trkpt><trkpt lat="36.873416748416076" lon="-108.10226541192566"><ele>1888.0</ele><time>2026-04-02T22:39:12Z</time></trkpt><trkpt lat="36.87349650533999" lon="-108.10234882490876"><ele>1888.0</ele><time>2026-04-02T22:39:13Z</time></trkpt><trkpt lat="36.873560013397196" lon="-108.10245050373832"><ele>1886.8333333333335</ele><time>2026-04-02T22:39:14Z</time></trkpt><trkpt lat="36.87362137084042" lon="-108.10252161650548"><ele>1885.6666666666667</ele><time>2026-04-02T22:39:15Z</time></trkpt><trkpt lat="36.87366644596681" lon="-108.10262415401358"><ele>1884.5</ele><time>2026-04-02T22:39:18Z</time></trkpt><trkpt lat="36.8736930257714" lon="-108.10270994340291"><ele>1883.3333333333335</ele><time>2026-04-02T22:39:19Z</time></trkpt><trkpt lat="36.87374108079242" lon="-108.1027772463805"><ele>1882.1666666666667</ele><time>2026-04-02T22:39:20Z</time></trkpt><trkpt lat="36.873775440503564" lon="-108.10292634019794"><ele>1881.0</ele><time>2026-04-02T22:39:22Z</time></trkpt><trkpt lat="36.87376548611273" lon="-108.10302319919393"><ele>1881.0</ele><time>2026-04-02T22:39:23Z</time></trkpt><trkpt lat="36.873731176591136" lon="-108.10312074464116"><ele>1881.0</ele><time>2026-04-02T22:39:24Z</time></trkpt><trkpt lat="36.873693178269484" lon="-108.1032311178947"><ele>1881.0</ele><time>2026-04-02T22:39:25Z</time></trkpt><trkpt lat="36.873642385447546" lon="-108.1033304363509"><ele>1881.0</ele><time>2026-04-02T22:39:26Z</time></trkpt><trkpt lat="36.8735747963572" lon="-108.10342215771617"><ele>1881.0</ele><time>2026-04-02T22:39:27Z</time></trkpt><trkpt lat="36.87350955570508" lon="-108.10347653118043"><ele>1881.0</ele><time>2026-04-02T22:39:28Z</time></trkpt><trkpt lat="36.87348151947141" lon="-108.10362126529533"><ele>1881.0</ele><time>2026-04-02T22:39:30Z</time></trkpt><trkpt lat="36.87349096107784" lon="-108.10372160420913"><ele>1881.0</ele><time>2026-04-02T22:39:31Z</time></trkpt><trkpt lat="36.87345453482238" lon="-108.10381376430745"><ele>1881.0</ele><time>2026-04-02T22:39:32Z</time></trkpt><trkpt lat="36.87341834218815" lon="-108.10388254722685"><ele>1881.0</ele><time>2026-04-02T22:39:33Z</time></trkpt><trkpt lat="36.87346170549886" lon="-108.1040126917008"><ele>1880.75</ele><time>2026-04-02T22:39:35Z</time></trkpt><trkpt lat="36.87344957966841" lon="-108.1041178054323"><ele>1880.5</ele><time>2026-04-02T22:39:37Z</time></trkpt><trkpt lat="36.87357347715509" lon="-108.10409698797443"><ele>1880.25</ele><time>2026-04-02T22:39:39Z</time></trkpt><trkpt lat="36.87368561182532" lon="-108.10401570846018"><ele>1880.0</ele><time>2026-04-02T22:39:40Z</time></trkpt><trkpt lat="36.8737806102876" lon="-108.10390554457055"><ele>1880.0</ele><time>2026-04-02T22:39:41Z</time></trkpt><trkpt lat="36.87385907952005" lon="-108.10379567212591"><ele>1880.0</ele><time>2026-04-02T22:39:42Z</time></trkpt><trkpt lat="36.87392909128594" lon="-108.1037505636114"><ele>1880.0</ele><time>2026-04-02T22:39:43Z</time></trkpt><trkpt lat="36.87402148364004" lon="-108.10368904259275"><ele>1880.0</ele><time>2026-04-02T22:39:44Z</time></trkpt><trkpt lat="36.87410734744855" lon="-108.10362669836348"><ele>1880.0</ele><time>2026-04-02T22:39:45Z</time></trkpt><trkpt lat="36.8741647242143" lon="-108.10356993659624"><ele>1879.9999999999998</ele><time>2026-04-02T22:39:46Z</time></trkpt><trkpt lat="36.87421996330567" lon="-108.10351477581787"><ele>1880.0</ele><time>2026-04-02T22:39:47Z</time></trkpt><trkpt lat="36.87429946268009" lon="-108.10345973750928"><ele>1880.0</ele><time>2026-04-02T22:39:48Z</time></trkpt><trkpt lat="36.8743846738068" lon="-108.10340154190519"><ele>1880.0</ele><time>2026-04-02T22:39:49Z</time></trkpt><trkpt lat="36.87443910114848" lon="-108.10335379515747"><ele>1879.9999999999998</ele><time>2026-04-02T22:39:50Z</time></trkpt><trkpt lat="36.87446328582942" lon="-108.10327786732813"><ele>1880.0</ele><time>2026-04-02T22:39:51Z</time></trkpt><trkpt lat="36.87450507627672" lon="-108.10318678495685"><ele>1878.8</ele><time>2026-04-02T22:39:52Z</time></trkpt><trkpt lat="36.874602939748264" lon="-108.10315051477787"><ele>1877.6</ele><time>2026-04-02T22:39:54Z</time></trkpt><trkpt lat="36.87464081101453" lon="-108.10302826109373"><ele>1876.4</ele><time>2026-04-02T22:39:56Z</time></trkpt><trkpt lat="36.874664888210305" lon="-108.10289802958087"><ele>1875.2</ele><time>2026-04-02T22:39:57Z</time></trkpt><trkpt lat="36.874700177216795" lon="-108.10282217522739"><ele>1874.0</ele><time>2026-04-02T22:39:58Z</time></trkpt><trkpt lat="36.8747686780684" lon="-108.10279512141845"><ele>1874.0</ele><time>2026-04-02T22:39:59Z</time></trkpt><trkpt lat="36.87486013583959" lon="-108.10276603570757"><ele>1874.0</ele><time>2026-04-02T22:40:00Z</time></trkpt><trkpt lat="36.87491568911877" lon="-108.10272535278594"><ele>1874.0</ele><time>2026-04-02T22:40:01Z</time></trkpt><trkpt lat="36.87505224967761" lon="-108.10278844190331"><ele>1874.0</ele><time>2026-04-02T22:40:03Z</time></trkpt><trkpt lat="36.87515593000564" lon="-108.10282239659126"><ele>1874.0</ele><time>2026-04-02T22:40:04Z</time></trkpt><trkpt lat="36.875247226823355" lon="-108.1028110681679"><ele>1873.1666666666665</ele><time>2026-04-02T22:40:05Z</time></trkpt><trkpt lat="36.87533375296373" lon="-108.10277797924158"><ele>1872.3333333333333</ele><time>2026-04-02T22:40:06Z</time></trkpt><trkpt lat="36.87542029524529" lon="-108.10274669911877"><ele>1871.5</ele><time>2026-04-02T22:40:07Z</time></trkpt><trkpt lat="36.875492762444004" lon="-108.10272545624225"><ele>1870.6666666666665</ele><time>2026-04-02T22:40:08Z</time></trkpt><trkpt lat="36.87555558346919" lon="-108.10269074620275"><ele>1869.8333333333333</ele><time>2026-04-02T22:40:09Z</time></trkpt><trkpt lat="36.875616049237784" lon="-108.1026679420087"><ele>1869.0</ele><time>2026-04-02T22:40:10Z</time></trkpt><trkpt lat="36.87570052119626" lon="-108.10265081872238"><ele>1869.0</ele><time>2026-04-02T22:40:12Z</time></trkpt><trkpt lat="36.875778009609604" lon="-108.10263873268448"><ele>1869.0</ele><time>2026-04-02T22:40:13Z</time></trkpt><trkpt lat="36.87587739834628" lon="-108.10267151840294"><ele>1869.0</ele><time>2026-04-02T22:40:15Z</time></trkpt><trkpt lat="36.87595032032964" lon="-108.10278517666235"><ele>1869.0</ele><time>2026-04-02T22:40:17Z</time></trkpt><trkpt lat="36.875993264585304" lon="-108.10284940026825"><ele>1869.0</ele><time>2026-04-02T22:40:18Z</time></trkpt><trkpt lat="36.876028563094586" lon="-108.10292042616706"><ele>1869.0</ele><time>2026-04-02T22:40:19Z</time></trkpt><trkpt lat="36.87608384317281" lon="-108.10303502402982"><ele>1868.6</ele><time>2026-04-02T22:40:20Z</time></trkpt><trkpt lat="36.87613822388483" lon="-108.10312959021853"><ele>1868.2</ele><time>2026-04-02T22:40:21Z</time></trkpt><trkpt lat="36.876177458916366" lon="-108.10320793885212"><ele>1867.7999999999997</ele><time>2026-04-02T22:40:22Z</time></trkpt><trkpt lat="36.87621512048671" lon="-108.10330969872403"><ele>1867.3999999999999</ele><time>2026-04-02T22:40:23Z</time></trkpt><trkpt lat="36.876254203219304" lon="-108.10343152555673"><ele>1867.0</ele><time>2026-04-02T22:40:24Z</time></trkpt><trkpt lat="36.876290679021544" lon="-108.1035630997648"><ele>1867.0</ele><time>2026-04-02T22:40:25Z</time></trkpt><trkpt lat="36.876350253608265" lon="-108.1036847517926"><ele>1866.9999999999998</ele><time>2026-04-02T22:40:26Z</time></trkpt><trkpt lat="36.87642078551418" lon="-108.10379974337982"><ele>1866.9999999999998</ele><time>2026-04-02T22:40:27Z</time></trkpt><trkpt lat="36.87647551884253" lon="-108.10388524338802"><ele>1867.0</ele><time>2026-04-02T22:40:28Z</time></trkpt><trkpt lat="36.87652620222647" lon="-108.10394452018755"><ele>1867.0</ele><time>2026-04-02T22:40:29Z</time></trkpt><trkpt lat="36.87659440356943" lon="-108.10399686487307"><ele>1867.0000000000002</ele><time>2026-04-02T22:40:30Z</time></trkpt><trkpt lat="36.87666525429854" lon="-108.10404366914231"><ele>1867.0</ele><time>2026-04-02T22:40:31Z</time></trkpt><trkpt lat="36.87675456738483" lon="-108.10406549829318"><ele>1867.0</ele><time>2026-04-02T22:40:33Z</time></trkpt><trkpt lat="36.87680550956184" lon="-108.10397081524243"><ele>1867.0</ele><time>2026-04-02T22:40:35Z</time></trkpt><trkpt lat="36.8768188317371" lon="-108.10388147959075"><ele>1867.0000000000002</ele><time>2026-04-02T22:40:36Z</time></trkpt><trkpt lat="36.87687025878067" lon="-108.10381505161709"><ele>1867.0</ele><time>2026-04-02T22:40:38Z</time></trkpt><trkpt lat="36.87694153314769" lon="-108.10380845402746"><ele>1867.8</ele><time>2026-04-02T22:40:41Z</time></trkpt><trkpt lat="36.87711940818543" lon="-108.10384776674813"><ele>1868.6</ele><time>2026-04-02T22:40:42Z</time></trkpt><trkpt lat="36.87715879471138" lon="-108.10378403874795"><ele>1869.3999999999999</ele><time>2026-04-02T22:40:43Z</time></trkpt><trkpt lat="36.877205113124624" lon="-108.10372525240818"><ele>1870.1999999999998</ele><time>2026-04-02T22:40:44Z</time></trkpt><trkpt lat="36.87725279256965" lon="-108.10365760415627"><ele>1871.0</ele><time>2026-04-02T22:40:45Z</time></trkpt><trkpt lat="36.87731194100047" lon="-108.10358535958963"><ele>1870.9999999999998</ele><time>2026-04-02T22:40:46.001Z</time></trkpt><trkpt lat="36.877371880740085" lon="-108.10349585734066"><ele>1871.0</ele><time>2026-04-02T22:40:47.001Z</time></trkpt><trkpt lat="36.87744407468805" lon="-108.10340423434292"><ele>1871.0</ele><time>2026-04-02T22:40:48Z</time></trkpt><trkpt lat="36.87751103256481" lon="-108.10333357779653"><ele>1871.0</ele><time>2026-04-02T22:40:49.001Z</time></trkpt><trkpt lat="36.87757411186048" lon="-108.10327589238315"><ele>1870.9999999999998</ele><time>2026-04-02T22:40:50.001Z</time></trkpt><trkpt lat="36.87764333115786" lon="-108.10322209646168"><ele>1871.0</ele><time>2026-04-02T22:40:51.001Z</time></trkpt><trkpt lat="36.87772102137444" lon="-108.10315456381453"><ele>1872.8</ele><time>2026-04-02T22:40:52.001Z</time></trkpt><trkpt lat="36.877814794232876" lon="-108.1030844556005"><ele>1874.6</ele><time>2026-04-02T22:40:53.001Z</time></trkpt><trkpt lat="36.87790244537382" lon="-108.10301403908232"><ele>1876.4</ele><time>2026-04-02T22:40:54.001Z</time></trkpt><trkpt lat="36.87798648221884" lon="-108.10293724593826"><ele>1878.2</ele><time>2026-04-02T22:40:55.001Z</time></trkpt><trkpt lat="36.8780716417799" lon="-108.10286087310124"><ele>1880.0</ele><time>2026-04-02T22:40:56.001Z</time></trkpt><trkpt lat="36.87814897393415" lon="-108.10277033317895"><ele>1880.0</ele><time>2026-04-02T22:40:58.001Z</time></trkpt><trkpt lat="36.87821543835047" lon="-108.10264816515277"><ele>1880.0</ele><time>2026-04-02T22:41:00.001Z</time></trkpt><trkpt lat="36.87808109478844" lon="-108.10251383262953"><ele>1880.0</ele><time>2026-04-02T22:41:02.001Z</time></trkpt><trkpt lat="36.8776643919681" lon="-108.10240474554828"><ele>1880.4</ele><time>2026-04-02T22:41:03.001Z</time></trkpt><trkpt lat="36.87760913178778" lon="-108.10229898293451"><ele>1880.8</ele><time>2026-04-02T22:41:04Z</time></trkpt><trkpt lat="36.877559041319564" lon="-108.10223065467362"><ele>1881.1999999999998</ele><time>2026-04-02T22:41:05Z</time></trkpt><trkpt lat="36.87748280352977" lon="-108.1021615970157"><ele>1881.6</ele><time>2026-04-02T22:41:06Z</time></trkpt><trkpt lat="36.877397043695815" lon="-108.10208766611855"><ele>1882.0</ele><time>2026-04-02T22:41:07Z</time></trkpt><trkpt lat="36.87741119136664" lon="-108.10199172214384"><ele>1882.0</ele><time>2026-04-02T22:41:09Z</time></trkpt><trkpt lat="36.87747023345618" lon="-108.10189760260873"><ele>1881.9999999999998</ele><time>2026-04-02T22:41:10Z</time></trkpt><trkpt lat="36.877449222806575" lon="-108.10182328051016"><ele>1881.9999999999998</ele><time>2026-04-02T22:41:11Z</time></trkpt><trkpt lat="36.87735471843372" lon="-108.10176401577574"><ele>1882.0</ele><time>2026-04-02T22:41:12Z</time></trkpt><trkpt lat="36.877278365265454" lon="-108.10164952172876"><ele>1882.0</ele><time>2026-04-02T22:41:13Z</time></trkpt><trkpt lat="36.877204941177375" lon="-108.10154451957285"><ele>1882.8333333333335</ele><time>2026-04-02T22:41:14Z</time></trkpt><trkpt lat="36.87712371093351" lon="-108.10146985559955"><ele>1883.6666666666667</ele><time>2026-04-02T22:41:15Z</time></trkpt><trkpt lat="36.87704436623251" lon="-108.10142807869717"><ele>1884.5</ele><time>2026-04-02T22:41:16Z</time></trkpt><trkpt lat="36.87697725004717" lon="-108.10138525716985"><ele>1885.3333333333335</ele><time>2026-04-02T22:41:17Z</time></trkpt><trkpt lat="36.87691147652132" lon="-108.10131193035808"><ele>1886.1666666666667</ele><time>2026-04-02T22:41:18Z</time></trkpt><trkpt lat="36.87685068173813" lon="-108.10125051513695"><ele>1887.0</ele><time>2026-04-02T22:41:19Z</time></trkpt><trkpt lat="36.876779466801196" lon="-108.10119186512823"><ele>1885.6</ele><time>2026-04-02T22:41:20Z</time></trkpt><trkpt lat="36.87672416903133" lon="-108.10113090839425"><ele>1884.1999999999998</ele><time>2026-04-02T22:41:21Z</time></trkpt><trkpt lat="36.876608646225016" lon="-108.10115456101603"><ele>1882.8</ele><time>2026-04-02T22:41:23Z</time></trkpt><trkpt lat="36.87651541704921" lon="-108.10114294980961"><ele>1881.4</ele><time>2026-04-02T22:41:24Z</time></trkpt><trkpt lat="36.87646315157364" lon="-108.10104201011109"><ele>1880.0</ele><time>2026-04-02T22:41:26Z</time></trkpt><trkpt lat="36.87652103893397" lon="-108.10092898416825"><ele>1880.0</ele><time>2026-04-02T22:41:28Z</time></trkpt><trkpt lat="36.87658826425691" lon="-108.10087307839456"><ele>1880.0</ele><time>2026-04-02T22:41:29Z</time></trkpt><trkpt lat="36.87665827760539" lon="-108.10088281671044"><ele>1880.0</ele><time>2026-04-02T22:41:30Z</time></trkpt><trkpt lat="36.87672865690766" lon="-108.10091341764785"><ele>1880.0</ele><time>2026-04-02T22:41:31Z</time></trkpt><trkpt lat="36.876793507628975" lon="-108.10081092215174"><ele>1880.0</ele><time>2026-04-02T22:41:33Z</time></trkpt><trkpt lat="36.87694855031859" lon="-108.100867873564"><ele>1881.4</ele><time>2026-04-02T22:41:35Z</time></trkpt><trkpt lat="36.877060331854416" lon="-108.1008846252139"><ele>1882.8</ele><time>2026-04-02T22:41:36Z</time></trkpt><trkpt lat="36.87714954294171" lon="-108.1008634598525"><ele>1884.1999999999998</ele><time>2026-04-02T22:41:37Z</time></trkpt><trkpt lat="36.87721054647572" lon="-108.10084306106258"><ele>1885.6</ele><time>2026-04-02T22:41:38Z</time></trkpt><trkpt lat="36.877279633462095" lon="-108.10077995319"><ele>1887.0</ele><time>2026-04-02T22:41:39Z</time></trkpt><trkpt lat="36.87737704107712" lon="-108.10068401893835"><ele>1887.0</ele><time>2026-04-02T22:41:40Z</time></trkpt><trkpt lat="36.87744193164378" lon="-108.10061481619647"><ele>1886.9999999999998</ele><time>2026-04-02T22:41:41Z</time></trkpt><trkpt lat="36.87748277717919" lon="-108.1005312011521"><ele>1886.9999999999998</ele><time>2026-04-02T22:41:42Z</time></trkpt><trkpt lat="36.87755025779749" lon="-108.10043258254144"><ele>1887.0</ele><time>2026-04-02T22:41:43Z</time></trkpt><trkpt lat="36.877613671489" lon="-108.10034311159991"><ele>1887.0</ele><time>2026-04-02T22:41:44Z</time></trkpt><trkpt lat="36.87768247501994" lon="-108.10025068703769"><ele>1887.8</ele><time>2026-04-02T22:41:45Z</time></trkpt><trkpt lat="36.877726573601294" lon="-108.10019035771086"><ele>1888.6</ele><time>2026-04-02T22:41:46Z</time></trkpt><trkpt lat="36.87786658822728" lon="-108.10019176568727"><ele>1889.3999999999999</ele><time>2026-04-02T22:41:48Z</time></trkpt><trkpt lat="36.87794277859726" lon="-108.10022676004016"><ele>1890.1999999999998</ele><time>2026-04-02T22:41:49Z</time></trkpt><trkpt lat="36.878090752903226" lon="-108.10015617772433"><ele>1891.0</ele><time>2026-04-02T22:41:51Z</time></trkpt><trkpt lat="36.87816300063371" lon="-108.10013329690811"><ele>1891.0</ele><time>2026-04-02T22:41:52Z</time></trkpt><trkpt lat="36.878225699556495" lon="-108.10004241307314"><ele>1891.0</ele><time>2026-04-02T22:41:53Z</time></trkpt><trkpt lat="36.878319451328615" lon="-108.09992395885993"><ele>1891.0</ele><time>2026-04-02T22:41:54Z</time></trkpt><trkpt lat="36.878409717413426" lon="-108.09984765449983"><ele>1891.0</ele><time>2026-04-02T22:41:55Z</time></trkpt><trkpt lat="36.878460915756165" lon="-108.09973186231859"><ele>1891.0</ele><time>2026-04-02T22:41:57Z</time></trkpt><trkpt lat="36.87849105472435" lon="-108.09959587291168"><ele>1890.8</ele><time>2026-04-02T22:41:58Z</time></trkpt><trkpt lat="36.87854361119157" lon="-108.09943314630935"><ele>1890.6</ele><time>2026-04-02T22:41:59Z</time></trkpt><trkpt lat="36.87860236095844" lon="-108.09928841281271"><ele>1890.4</ele><time>2026-04-02T22:42:00Z</time></trkpt><trkpt lat="36.878647990073034" lon="-108.09918614358818"><ele>1890.2</ele><time>2026-04-02T22:42:01Z</time></trkpt><trkpt lat="36.87868840004" lon="-108.09911450415376"><ele>1890.0</ele><time>2026-04-02T22:42:02Z</time></trkpt><trkpt lat="36.8787842828692" lon="-108.09909151144488"><ele>1890.0</ele><time>2026-04-02T22:42:04Z</time></trkpt><trkpt lat="36.87885355142051" lon="-108.09910714047254"><ele>1890.0</ele><time>2026-04-02T22:42:05Z</time></trkpt><trkpt lat="36.87893758271565" lon="-108.099130074022"><ele>1890.0</ele><time>2026-04-02T22:42:06Z</time></trkpt><trkpt lat="36.87903736533913" lon="-108.09914864736436"><ele>1890.0</ele><time>2026-04-02T22:42:07Z</time></trkpt><trkpt lat="36.87915356304951" lon="-108.0991684155211"><ele>1890.0</ele><time>2026-04-02T22:42:08Z</time></trkpt><trkpt lat="36.879274644830204" lon="-108.09919094486308"><ele>1889.0</ele><time>2026-04-02T22:42:09Z</time></trkpt><trkpt lat="36.87935192292295" lon="-108.09921030350365"><ele>1888.0</ele><time>2026-04-02T22:42:10Z</time></trkpt><trkpt lat="36.87942111801905" lon="-108.09921173830352"><ele>1887.0</ele><time>2026-04-02T22:42:11Z</time></trkpt><trkpt lat="36.8794787397542" lon="-108.09925242919249"><ele>1886.0</ele><time>2026-04-02T22:42:12Z</time></trkpt><trkpt lat="36.8795096063884" lon="-108.09933129475567"><ele>1885.0</ele><time>2026-04-02T22:42:13Z</time></trkpt><trkpt lat="36.879525102534764" lon="-108.09944267859915"><ele>1884.0</ele><time>2026-04-02T22:42:14Z</time></trkpt><trkpt lat="36.87953282818334" lon="-108.09955029321544"><ele>1884.0</ele><time>2026-04-02T22:42:15Z</time></trkpt><trkpt lat="36.87955515326474" lon="-108.09964368418467"><ele>1884.0</ele><time>2026-04-02T22:42:17Z</time></trkpt><trkpt lat="36.87971318215982" lon="-108.09958454790609"><ele>1884.0</ele><time>2026-04-02T22:42:19Z</time></trkpt><trkpt lat="36.879768141209425" lon="-108.09954455997665"><ele>1884.0</ele><time>2026-04-02T22:42:20Z</time></trkpt><trkpt lat="36.879862661849" lon="-108.09966330068333"><ele>1884.0</ele><time>2026-04-02T22:42:24Z</time></trkpt><trkpt lat="36.87999094735662" lon="-108.09967176589196"><ele>1883.6</ele><time>2026-04-02T22:42:25Z</time></trkpt><trkpt lat="36.88013313977028" lon="-108.09969101085139"><ele>1883.2</ele><time>2026-04-02T22:42:26Z</time></trkpt><trkpt lat="36.88023112529834" lon="-108.09968179803269"><ele>1882.7999999999997</ele><time>2026-04-02T22:42:27Z</time></trkpt><trkpt lat="36.880307750292374" lon="-108.0996822370955"><ele>1882.3999999999999</ele><time>2026-04-02T22:42:28Z</time></trkpt><trkpt lat="36.880373666780365" lon="-108.0997047670325"><ele>1882.0</ele><time>2026-04-02T22:42:29Z</time></trkpt><trkpt lat="36.880496784200446" lon="-108.09963538574577"><ele>1882.0</ele><time>2026-04-02T22:42:31Z</time></trkpt><trkpt lat="36.88061978239228" lon="-108.09962170763671"><ele>1881.9999999999998</ele><time>2026-04-02T22:42:33Z</time></trkpt><trkpt lat="36.88071851288859" lon="-108.0995583496012"><ele>1881.9999999999998</ele><time>2026-04-02T22:42:35Z</time></trkpt><trkpt lat="36.8807900852199" lon="-108.09949351832283"><ele>1882.0</ele><time>2026-04-02T22:42:37Z</time></trkpt><trkpt lat="36.88083503199573" lon="-108.0994359103479"><ele>1882.0</ele><time>2026-04-02T22:42:38Z</time></trkpt><trkpt lat="36.880892699269076" lon="-108.0993493201969"><ele>1882.0000000000002</ele><time>2026-04-02T22:42:39Z</time></trkpt><trkpt lat="36.88094926841485" lon="-108.09927022021374"><ele>1882.0</ele><time>2026-04-02T22:42:40Z</time></trkpt><trkpt lat="36.88100075464685" lon="-108.09921252001449"><ele>1882.0</ele><time>2026-04-02T22:42:41Z</time></trkpt><trkpt lat="36.88106387712471" lon="-108.0991708850369"><ele>1882.0</ele><time>2026-04-02T22:42:42Z</time></trkpt><trkpt lat="36.88114479333412" lon="-108.09914474986103"><ele>1882.0000000000002</ele><time>2026-04-02T22:42:43Z</time></trkpt><trkpt lat="36.88122234794359" lon="-108.09913955023903"><ele>1882.0</ele><time>2026-04-02T22:42:44Z</time></trkpt><trkpt lat="36.8812836515356" lon="-108.09912113660636"><ele>1881.3999999999999</ele><time>2026-04-02T22:42:45Z</time></trkpt><trkpt lat="36.881341064082484" lon="-108.09907665980936"><ele>1880.7999999999997</ele><time>2026-04-02T22:42:46Z</time></trkpt><trkpt lat="36.88139825019183" lon="-108.0990123504519"><ele>1880.2</ele><time>2026-04-02T22:42:47Z</time></trkpt><trkpt lat="36.88144390424068" lon="-108.09892432085451"><ele>1879.6</ele><time>2026-04-02T22:42:48Z</time></trkpt><trkpt lat="36.88154199275374" lon="-108.09892426144194"><ele>1879.0</ele><time>2026-04-02T22:42:50Z</time></trkpt><trkpt lat="36.88167242154333" lon="-108.0989000667406"><ele>1879.0</ele><time>2026-04-02T22:42:51Z</time></trkpt><trkpt lat="36.8817374830358" lon="-108.09891977599229"><ele>1879.0</ele><time>2026-04-02T22:42:53.001Z</time></trkpt><trkpt lat="36.88182390081128" lon="-108.09904772360672"><ele>1879.0</ele><time>2026-04-02T22:42:54.001Z</time></trkpt><trkpt lat="36.881892875509074" lon="-108.09915892565581"><ele>1879.0</ele><time>2026-04-02T22:42:55.001Z</time></trkpt><trkpt lat="36.88196744107547" lon="-108.09922340898771"><ele>1879.0</ele><time>2026-04-02T22:42:56.001Z</time></trkpt><trkpt lat="36.88205876859847" lon="-108.09921781720666"><ele>1878.0000000000002</ele><time>2026-04-02T22:42:57.001Z</time></trkpt><trkpt lat="36.88214949122068" lon="-108.09919091145073"><ele>1877.0</ele><time>2026-04-02T22:42:58.001Z</time></trkpt><trkpt lat="36.882238870293065" lon="-108.09917389661602"><ele>1876.0</ele><time>2026-04-02T22:42:59.001Z</time></trkpt><trkpt lat="36.88231399447876" lon="-108.09919294118068"><ele>1875.0</ele><time>2026-04-02T22:43:00.001Z</time></trkpt><trkpt lat="36.88240197758738" lon="-108.09920219083759"><ele>1874.0000000000002</ele><time>2026-04-02T22:43:02.001Z</time></trkpt><trkpt lat="36.882469829957046" lon="-108.09917697042232"><ele>1873.0</ele><time>2026-04-02T22:43:03.001Z</time></trkpt><trkpt lat="36.88254057166518" lon="-108.09914332656805"><ele>1872.0000000000002</ele><time>2026-04-02T22:43:04.001Z</time></trkpt><trkpt lat="36.88260713915053" lon="-108.09912716024634"><ele>1871.0</ele><time>2026-04-02T22:43:06.001Z</time></trkpt><trkpt lat="36.88267460020062" lon="-108.09918048642587"><ele>1870.0</ele><time>2026-04-02T22:43:08.001Z</time></trkpt><trkpt lat="36.88273319410282" lon="-108.09925962684315"><ele>1869.0</ele><time>2026-04-02T22:43:09.001Z</time></trkpt><trkpt lat="36.88280441822786" lon="-108.09935556523175"><ele>1868.0000000000002</ele><time>2026-04-02T22:43:10.001Z</time></trkpt><trkpt lat="36.88286915871634" lon="-108.09944380140381"><ele>1867.0</ele><time>2026-04-02T22:43:11.001Z</time></trkpt><trkpt lat="36.88290742633425" lon="-108.09951905144099"><ele>1867.0</ele><time>2026-04-02T22:43:12.001Z</time></trkpt><trkpt lat="36.88295209869277" lon="-108.0996480754387"><ele>1866.9999999999998</ele><time>2026-04-02T22:43:13.001Z</time></trkpt><trkpt lat="36.88300473663901" lon="-108.09976338135345"><ele>1866.9999999999998</ele><time>2026-04-02T22:43:14.001Z</time></trkpt><trkpt lat="36.883077406632395" lon="-108.09978893916353"><ele>1867.0</ele><time>2026-04-02T22:43:15.001Z</time></trkpt><trkpt lat="36.88318046074896" lon="-108.09981943235579"><ele>1867.0</ele><time>2026-04-02T22:43:16.001Z</time></trkpt><trkpt lat="36.88329914485424" lon="-108.09986182019165"><ele>1867.0</ele><time>2026-04-02T22:43:17.001Z</time></trkpt><trkpt lat="36.88340563386634" lon="-108.09990953191978"><ele>1866.9999999999998</ele><time>2026-04-02T22:43:18.001Z</time></trkpt><trkpt lat="36.88350536748055" lon="-108.09995628214054"><ele>1866.9999999999998</ele><time>2026-04-02T22:43:19.001Z</time></trkpt><trkpt lat="36.883571533990725" lon="-108.0999609561854"><ele>1867.0</ele><time>2026-04-02T22:43:20.001Z</time></trkpt><trkpt lat="36.883576433434094" lon="-108.1000933576906"><ele>1867.0</ele><time>2026-04-02T22:43:23.001Z</time></trkpt><trkpt lat="36.88359110022207" lon="-108.10024326388624"><ele>1866.0</ele><time>2026-04-02T22:43:24.001Z</time></trkpt><trkpt lat="36.88363793409999" lon="-108.1003814281148"><ele>1864.9999999999998</ele><time>2026-04-02T22:43:25.001Z</time></trkpt><trkpt lat="36.88370425218146" lon="-108.10049839667136"><ele>1863.9999999999998</ele><time>2026-04-02T22:43:26.001Z</time></trkpt><trkpt lat="36.88374340930443" lon="-108.10061899823714"><ele>1863.0</ele><time>2026-04-02T22:43:27.001Z</time></trkpt><trkpt lat="36.88379000999066" lon="-108.10070082286965"><ele>1862.0</ele><time>2026-04-02T22:43:28.001Z</time></trkpt><trkpt lat="36.883855679679826" lon="-108.1007567716422"><ele>1861.6</ele><time>2026-04-02T22:43:29.001Z</time></trkpt><trkpt lat="36.88391564773463" lon="-108.1007957129991"><ele>1861.1999999999998</ele><time>2026-04-02T22:43:30.001Z</time></trkpt><trkpt lat="36.88394318947078" lon="-108.10087208427404"><ele>1860.8</ele><time>2026-04-02T22:43:31.001Z</time></trkpt><trkpt lat="36.883989108529654" lon="-108.10097330938528"><ele>1860.4</ele><time>2026-04-02T22:43:32.001Z</time></trkpt><trkpt lat="36.884056993368226" lon="-108.10110574096521"><ele>1860.0</ele><time>2026-04-02T22:43:33.001Z</time></trkpt><trkpt lat="36.8841234213129" lon="-108.10120749153407"><ele>1860.0</ele><time>2026-04-02T22:43:34.001Z</time></trkpt><trkpt lat="36.884196091971766" lon="-108.10128543192076"><ele>1860.0</ele><time>2026-04-02T22:43:35.001Z</time></trkpt><trkpt lat="36.884257248743594" lon="-108.10133623318939"><ele>1860.0</ele><time>2026-04-02T22:43:36.001Z</time></trkpt><trkpt lat="36.88433617937909" lon="-108.1014255057577"><ele>1860.0</ele><time>2026-04-02T22:43:38.001Z</time></trkpt><trkpt lat="36.8843696963371" lon="-108.10149418670858"><ele>1860.0</ele><time>2026-04-02T22:43:39.001Z</time></trkpt><trkpt lat="36.88444751962365" lon="-108.10155611104419"><ele>1860.0</ele><time>2026-04-02T22:43:41.001Z</time></trkpt><trkpt lat="36.88454614840178" lon="-108.10157976404405"><ele>1859.0</ele><time>2026-04-02T22:43:43.001Z</time></trkpt><trkpt lat="36.88463060664601" lon="-108.10161062903485"><ele>1858.0</ele><time>2026-04-02T22:43:44.001Z</time></trkpt><trkpt lat="36.88471575318334" lon="-108.10163147069716"><ele>1857.0</ele><time>2026-04-02T22:43:45.001Z</time></trkpt><trkpt lat="36.884785202915594" lon="-108.10165064066732"><ele>1856.0</ele><time>2026-04-02T22:43:46.001Z</time></trkpt><trkpt lat="36.88485407126439" lon="-108.101675577379"><ele>1855.0</ele><time>2026-04-02T22:43:47.001Z</time></trkpt><trkpt lat="36.8849276469798" lon="-108.10169336151958"><ele>1854.0</ele><time>2026-04-02T22:43:48.001Z</time></trkpt><trkpt lat="36.88506600304212" lon="-108.1017029030608"><ele>1854.0</ele><time>2026-04-02T22:43:50.001Z</time></trkpt><trkpt lat="36.88513393231754" lon="-108.10172575309402"><ele>1854.0</ele><time>2026-04-02T22:43:51.001Z</time></trkpt><trkpt lat="36.885185848833316" lon="-108.10182158674907"><ele>1854.0</ele><time>2026-04-02T22:43:53.001Z</time></trkpt><trkpt lat="36.88530048274302" lon="-108.10189511111055"><ele>1854.0</ele><time>2026-04-02T22:43:55.001Z</time></trkpt><trkpt lat="36.88536679958443" lon="-108.10191057337506"><ele>1854.0</ele><time>2026-04-02T22:43:56.001Z</time></trkpt><trkpt lat="36.88548998184568" lon="-108.1019478179653"><ele>1854.0</ele><time>2026-04-02T22:43:58.001Z</time></trkpt><trkpt lat="36.885570788466644" lon="-108.10200453024954"><ele>1854.0</ele><time>2026-04-02T22:44:00.001Z</time></trkpt><trkpt lat="36.88562819225397" lon="-108.10205262827466"><ele>1854.0</ele><time>2026-04-02T22:44:02.001Z</time></trkpt><trkpt lat="36.8856876269948" lon="-108.10216077003057"><ele>1854.0</ele><time>2026-04-02T22:44:04.001Z</time></trkpt><trkpt lat="36.88572655021898" lon="-108.10228510235098"><ele>1854.0</ele><time>2026-04-02T22:44:05.001Z</time></trkpt><trkpt lat="36.88574660358294" lon="-108.10237738410575"><ele>1853.4</ele><time>2026-04-02T22:44:06.001Z</time></trkpt><trkpt lat="36.88577772096878" lon="-108.10249394218184"><ele>1852.8000000000002</ele><time>2026-04-02T22:44:07.001Z</time></trkpt><trkpt lat="36.885811435473855" lon="-108.10260756604175"><ele>1852.1999999999998</ele><time>2026-04-02T22:44:08.001Z</time></trkpt><trkpt lat="36.88584400081229" lon="-108.10272886279616"><ele>1851.6</ele><time>2026-04-02T22:44:09.001Z</time></trkpt><trkpt lat="36.88587706136747" lon="-108.10283658916454"><ele>1851.0</ele><time>2026-04-02T22:44:10.001Z</time></trkpt><trkpt lat="36.885916672288545" lon="-108.102925141056"><ele>1850.8333333333333</ele><time>2026-04-02T22:44:11.001Z</time></trkpt><trkpt lat="36.88593877680054" lon="-108.10301727427544"><ele>1850.6666666666665</ele><time>2026-04-02T22:44:12.001Z</time></trkpt><trkpt lat="36.88595774728263" lon="-108.1030971627325"><ele>1850.5</ele><time>2026-04-02T22:44:13.001Z</time></trkpt><trkpt lat="36.885991046984664" lon="-108.10321140857339"><ele>1850.3333333333333</ele><time>2026-04-02T22:44:14.001Z</time></trkpt><trkpt lat="36.886025500521214" lon="-108.10333017547943"><ele>1850.1666666666665</ele><time>2026-04-02T22:44:15.001Z</time></trkpt><trkpt lat="36.88606879377387" lon="-108.10344737372255"><ele>1850.0</ele><time>2026-04-02T22:44:16.001Z</time></trkpt><trkpt lat="36.88612012312906" lon="-108.10358170586372"><ele>1849.2</ele><time>2026-04-02T22:44:17.001Z</time></trkpt><trkpt lat="36.886175536296804" lon="-108.10371178504089"><ele>1848.4</ele><time>2026-04-02T22:44:18.001Z</time></trkpt><trkpt lat="36.88622193995407" lon="-108.10380953161581"><ele>1847.6</ele><time>2026-04-02T22:44:19.001Z</time></trkpt><trkpt lat="36.886257031633974" lon="-108.10393064397381"><ele>1846.8</ele><time>2026-04-02T22:44:20.001Z</time></trkpt><trkpt lat="36.886253619372184" lon="-108.10403216244315"><ele>1846.0</ele><time>2026-04-02T22:44:21.001Z</time></trkpt><trkpt lat="36.88623572135612" lon="-108.10413074862754"><ele>1845.5000000000002</ele><time>2026-04-02T22:44:22.001Z</time></trkpt><trkpt lat="36.88617140422122" lon="-108.10416674310386"><ele>1845.0</ele><time>2026-04-02T22:44:24.001Z</time></trkpt><trkpt lat="36.88610351117245" lon="-108.10419567490392"><ele>1844.5</ele><time>2026-04-02T22:44:26.001Z</time></trkpt><trkpt lat="36.886071892763006" lon="-108.10427632139124"><ele>1844.0</ele><time>2026-04-02T22:44:28.001Z</time></trkpt><trkpt lat="36.88611479730682" lon="-108.10434055435762"><ele>1843.5000000000002</ele><time>2026-04-02T22:44:30.001Z</time></trkpt><trkpt lat="36.886106775619496" lon="-108.10448290920078"><ele>1843.0</ele><time>2026-04-02T22:44:32.001Z</time></trkpt><trkpt lat="36.88618505515731" lon="-108.10460104361964"><ele>1843.0</ele><time>2026-04-02T22:44:34.001Z</time></trkpt><trkpt lat="36.886256949741345" lon="-108.10459113301849"><ele>1843.0000000000002</ele><time>2026-04-02T22:44:36.001Z</time></trkpt><trkpt lat="36.88639276722827" lon="-108.10463836215776"><ele>1843.0000000000002</ele><time>2026-04-02T22:44:38.001Z</time></trkpt><trkpt lat="36.88646646783033" lon="-108.10465603888886"><ele>1843.0</ele><time>2026-04-02T22:44:39.001Z</time></trkpt><trkpt lat="36.88654587966441" lon="-108.1046653771521"><ele>1843.0</ele><time>2026-04-02T22:44:40.001Z</time></trkpt><trkpt lat="36.88663945564619" lon="-108.10466127169614"><ele>1843.0000000000002</ele><time>2026-04-02T22:44:41.001Z</time></trkpt><trkpt lat="36.886739288360985" lon="-108.1046883590471"><ele>1843.0</ele><time>2026-04-02T22:44:42.001Z</time></trkpt><trkpt lat="36.886799159833046" lon="-108.10473715932416"><ele>1843.0</ele><time>2026-04-02T22:44:43.001Z</time></trkpt><trkpt lat="36.886849245440466" lon="-108.1048174310095"><ele>1843.0</ele><time>2026-04-02T22:44:44.001Z</time></trkpt><trkpt lat="36.886897525325914" lon="-108.10490717360341"><ele>1843.0000000000002</ele><time>2026-04-02T22:44:45.001Z</time></trkpt><trkpt lat="36.88694174840206" lon="-108.10497018355835"><ele>1843.0</ele><time>2026-04-02T22:44:46.001Z</time></trkpt><trkpt lat="36.88698997463266" lon="-108.10502544816325"><ele>1844.4</ele><time>2026-04-02T22:44:47.001Z</time></trkpt><trkpt lat="36.88706346132105" lon="-108.10509452944869"><ele>1845.8000000000002</ele><time>2026-04-02T22:44:48.001Z</time></trkpt><trkpt lat="36.8871365673335" lon="-108.10514937262154"><ele>1847.2</ele><time>2026-04-02T22:44:49.001Z</time></trkpt><trkpt lat="36.88720612235591" lon="-108.10514886314964"><ele>1848.6</ele><time>2026-04-02T22:44:51.001Z</time></trkpt><trkpt lat="36.887296536170325" lon="-108.10505479853967"><ele>1850.0</ele><time>2026-04-02T22:44:53.001Z</time></trkpt><trkpt lat="36.887359339298236" lon="-108.1049772398476"><ele>1850.25</ele><time>2026-04-02T22:44:54.001Z</time></trkpt><trkpt lat="36.88744067251479" lon="-108.10489377196404"><ele>1850.5</ele><time>2026-04-02T22:44:55.001Z</time></trkpt><trkpt lat="36.88754249370028" lon="-108.10479475183388"><ele>1850.75</ele><time>2026-04-02T22:44:56.001Z</time></trkpt><trkpt lat="36.887656151604325" lon="-108.1046850050322"><ele>1851.0</ele><time>2026-04-02T22:44:57.001Z</time></trkpt><trkpt lat="36.887784037978605" lon="-108.10455258135143"><ele>1851.0</ele><time>2026-04-02T22:44:58.001Z</time></trkpt><trkpt lat="36.88792205833548" lon="-108.10441572930718"><ele>1851.0</ele><time>2026-04-02T22:44:59.001Z</time></trkpt><trkpt lat="36.88807261895905" lon="-108.10426805107525"><ele>1851.0</ele><time>2026-04-02T22:45:00.001Z</time></trkpt><trkpt lat="36.88822245569621" lon="-108.10412546592767"><ele>1850.6666666666665</ele><time>2026-04-02T22:45:01.001Z</time></trkpt><trkpt lat="36.8883622338071" lon="-108.10399131561792"><ele>1850.3333333333333</ele><time>2026-04-02T22:45:02.001Z</time></trkpt><trkpt lat="36.888485338286074" lon="-108.1038775494885"><ele>1850.0</ele><time>2026-04-02T22:45:03.001Z</time></trkpt><trkpt lat="36.888611804564476" lon="-108.10376615500134"><ele>1850.0</ele><time>2026-04-02T22:45:04.001Z</time></trkpt><trkpt lat="36.88874862768941" lon="-108.1036389640876"><ele>1850.0</ele><time>2026-04-02T22:45:05.001Z</time></trkpt><trkpt lat="36.888889320136265" lon="-108.10351564458097"><ele>1850.0</ele><time>2026-04-02T22:45:06.001Z</time></trkpt><trkpt lat="36.889030738987294" lon="-108.10341472812149"><ele>1850.0</ele><time>2026-04-02T22:45:07.001Z</time></trkpt><trkpt lat="36.88917329569165" lon="-108.10332651288275"><ele>1850.0</ele><time>2026-04-02T22:45:08.001Z</time></trkpt><trkpt lat="36.889298708549724" lon="-108.10325344351338"><ele>1850.0</ele><time>2026-04-02T22:45:09.001Z</time></trkpt><trkpt lat="36.889409356184615" lon="-108.1031925885596"><ele>1850.0</ele><time>2026-04-02T22:45:10.001Z</time></trkpt><trkpt lat="36.889508263042025" lon="-108.10314606128064"><ele>1850.1666666666665</ele><time>2026-04-02T22:45:11.001Z</time></trkpt><trkpt lat="36.889589627755136" lon="-108.10311444470037"><ele>1850.3333333333333</ele><time>2026-04-02T22:45:12.001Z</time></trkpt><trkpt lat="36.889669320892565" lon="-108.10308792975859"><ele>1850.5</ele><time>2026-04-02T22:45:14.001Z</time></trkpt><trkpt lat="36.88959189668139" lon="-108.10316223431319"><ele>1850.6666666666665</ele><time>2026-04-02T22:45:21.001Z</time></trkpt><trkpt lat="36.88951924505026" lon="-108.10316182042897"><ele>1850.8333333333333</ele><time>2026-04-02T22:45:22.001Z</time></trkpt><trkpt lat="36.889447972743916" lon="-108.10318281574477"><ele>1851.0</ele><time>2026-04-02T22:45:23.001Z</time></trkpt><trkpt lat="36.88936803637586" lon="-108.10321981475575"><ele>1851.1999999999998</ele><time>2026-04-02T22:45:24.001Z</time></trkpt><trkpt lat="36.88928120122213" lon="-108.10326344669768"><ele>1851.3999999999999</ele><time>2026-04-02T22:45:25.001Z</time></trkpt><trkpt lat="36.88919158371749" lon="-108.10331692847328"><ele>1851.6</ele><time>2026-04-02T22:45:26.001Z</time></trkpt><trkpt lat="36.88909256852169" lon="-108.10337954864707"><ele>1851.8</ele><time>2026-04-02T22:45:27.001Z</time></trkpt><trkpt lat="36.888988698864914" lon="-108.10345084922301"><ele>1852.0</ele><time>2026-04-02T22:45:28.001Z</time></trkpt><trkpt lat="36.88887915310772" lon="-108.10353417092959"><ele>1851.5</ele><time>2026-04-02T22:45:29.001Z</time></trkpt><trkpt lat="36.88876234448775" lon="-108.10363128294694"><ele>1851.0</ele><time>2026-04-02T22:45:30.001Z</time></trkpt><trkpt lat="36.888640621289355" lon="-108.10373411226551"><ele>1850.5</ele><time>2026-04-02T22:45:31.001Z</time></trkpt><trkpt lat="36.888511921974604" lon="-108.1038511097647"><ele>1850.0</ele><time>2026-04-02T22:45:32.001Z</time></trkpt><trkpt lat="36.888377485452295" lon="-108.1039811502146"><ele>1850.3333333333333</ele><time>2026-04-02T22:45:33.001Z</time></trkpt><trkpt lat="36.88823974341424" lon="-108.10411477467485"><ele>1850.6666666666665</ele><time>2026-04-02T22:45:34.001Z</time></trkpt><trkpt lat="36.888087551318094" lon="-108.10425656461727"><ele>1851.0</ele><time>2026-04-02T22:45:35.001Z</time></trkpt><trkpt lat="36.88794180684811" lon="-108.1043946210766"><ele>1851.0</ele><time>2026-04-02T22:45:36.001Z</time></trkpt><trkpt lat="36.887803886551616" lon="-108.10452527848794"><ele>1851.0</ele><time>2026-04-02T22:45:37.001Z</time></trkpt><trkpt lat="36.88769091465856" lon="-108.10463458126779"><ele>1851.0</ele><time>2026-04-02T22:45:38.001Z</time></trkpt><trkpt lat="36.88758626142331" lon="-108.10473536228201"><ele>1851.0</ele><time>2026-04-02T22:45:39.001Z</time></trkpt><trkpt lat="36.88748996254254" lon="-108.1048312161997"><ele>1850.8</ele><time>2026-04-02T22:45:40.001Z</time></trkpt><trkpt lat="36.88739873543616" lon="-108.1049185073311"><ele>1850.6</ele><time>2026-04-02T22:45:41.001Z</time></trkpt><trkpt lat="36.88732213973385" lon="-108.10502274179203"><ele>1850.4</ele><time>2026-04-02T22:45:42.001Z</time></trkpt><trkpt lat="36.88724925003389" lon="-108.10509891682142"><ele>1850.2</ele><time>2026-04-02T22:45:43.001Z</time></trkpt><trkpt lat="36.887191503610794" lon="-108.10516145635654"><ele>1850.0</ele><time>2026-04-02T22:45:45Z</time></trkpt><trkpt lat="36.88727102490787" lon="-108.10522069516334"><ele>1849.9999999999998</ele><time>2026-04-02T22:45:50Z</time></trkpt><trkpt lat="36.88733200156828" lon="-108.10524997275284"><ele>1850.0</ele><time>2026-04-02T22:45:51Z</time></trkpt><trkpt lat="36.88738926114933" lon="-108.1053042748997"><ele>1850.0</ele><time>2026-04-02T22:45:52Z</time></trkpt><trkpt lat="36.88745479429637" lon="-108.10539101197362"><ele>1850.0</ele><time>2026-04-02T22:45:53Z</time></trkpt><trkpt lat="36.887521919767195" lon="-108.10549208136752"><ele>1849.9999999999998</ele><time>2026-04-02T22:45:54Z</time></trkpt><trkpt lat="36.887594293490686" lon="-108.10557581372603"><ele>1850.0</ele><time>2026-04-02T22:45:55Z</time></trkpt><trkpt lat="36.887669863590936" lon="-108.1056558515892"><ele>1851.0</ele><time>2026-04-02T22:45:56Z</time></trkpt><trkpt lat="36.88774548181951" lon="-108.10571603494556"><ele>1852.0</ele><time>2026-04-02T22:45:57Z</time></trkpt><trkpt lat="36.887823787221556" lon="-108.10575297779229"><ele>1853.0</ele><time>2026-04-02T22:45:58Z</time></trkpt><trkpt lat="36.88791855768831" lon="-108.10573765068096"><ele>1854.0</ele><time>2026-04-02T22:46:00Z</time></trkpt><trkpt lat="36.88801699899203" lon="-108.1058022500694"><ele>1855.0</ele><time>2026-04-02T22:46:02Z</time></trkpt><trkpt lat="36.88808810239904" lon="-108.10586675057371"><ele>1855.0</ele><time>2026-04-02T22:46:03Z</time></trkpt><trkpt lat="36.888214184273444" lon="-108.10582870751898"><ele>1855.0</ele><time>2026-04-02T22:46:05Z</time></trkpt><trkpt lat="36.88831745568616" lon="-108.10576040473455"><ele>1855.0</ele><time>2026-04-02T22:46:06Z</time></trkpt><trkpt lat="36.88839690854777" lon="-108.10569382393949"><ele>1855.0</ele><time>2026-04-02T22:46:07Z</time></trkpt><trkpt lat="36.88846818834822" lon="-108.10562036620846"><ele>1855.0</ele><time>2026-04-02T22:46:08Z</time></trkpt><trkpt lat="36.8885441743664" lon="-108.105567840427"><ele>1855.6666666666667</ele><time>2026-04-02T22:46:09Z</time></trkpt><trkpt lat="36.888638533084375" lon="-108.10554728300635"><ele>1856.3333333333335</ele><time>2026-04-02T22:46:10Z</time></trkpt><trkpt lat="36.88873300342216" lon="-108.10554015997178"><ele>1857.0</ele><time>2026-04-02T22:46:11Z</time></trkpt><trkpt lat="36.88879657566082" lon="-108.10555577153544"><ele>1857.6666666666665</ele><time>2026-04-02T22:46:12Z</time></trkpt><trkpt lat="36.88887276196107" lon="-108.10564007492324"><ele>1858.3333333333333</ele><time>2026-04-02T22:46:14Z</time></trkpt><trkpt lat="36.88894105264775" lon="-108.10566607236075"><ele>1859.0</ele><time>2026-04-02T22:46:16Z</time></trkpt><trkpt lat="36.8890331376057" lon="-108.10568070648878"><ele>1859.0</ele><time>2026-04-02T22:46:18Z</time></trkpt><trkpt lat="36.889158857409086" lon="-108.1057440607884"><ele>1859.0</ele><time>2026-04-02T22:46:20Z</time></trkpt><trkpt lat="36.889222458064765" lon="-108.10579427796667"><ele>1859.0</ele><time>2026-04-02T22:46:22Z</time></trkpt><trkpt lat="36.88930185291742" lon="-108.10583374577122"><ele>1859.0</ele><time>2026-04-02T22:46:28Z</time></trkpt><trkpt lat="36.8893978852617" lon="-108.10593569127396"><ele>1859.0</ele><time>2026-04-02T22:46:31Z</time></trkpt><trkpt lat="36.88946751716175" lon="-108.10598265578756"><ele>1860.0</ele><time>2026-04-02T22:46:33Z</time></trkpt><trkpt lat="36.88953123578341" lon="-108.10603005231755"><ele>1861.0</ele><time>2026-04-02T22:46:37Z</time></trkpt><trkpt lat="36.889615466266946" lon="-108.10608797829956"><ele>1862.0</ele><time>2026-04-02T22:46:38Z</time></trkpt><trkpt lat="36.88969389683451" lon="-108.10618432098505"><ele>1863.0</ele><time>2026-04-02T22:46:42Z</time></trkpt><trkpt lat="36.88976984209556" lon="-108.1062807842331"><ele>1864.0</ele><time>2026-04-02T22:46:43Z</time></trkpt><trkpt lat="36.889805423918006" lon="-108.10635732231388"><ele>1864.0000000000002</ele><time>2026-04-02T22:46:44Z</time></trkpt><trkpt lat="36.88985640484319" lon="-108.10642255263768"><ele>1864.0</ele><time>2026-04-02T22:46:45Z</time></trkpt><trkpt lat="36.88990863084078" lon="-108.1064873908949"><ele>1864.0</ele><time>2026-04-02T22:46:46Z</time></trkpt><trkpt lat="36.88998361726248" lon="-108.10656694577963"><ele>1864.0</ele><time>2026-04-02T22:46:47Z</time></trkpt><trkpt lat="36.890056831593746" lon="-108.10663266331464"><ele>1864.0000000000002</ele><time>2026-04-02T22:46:48Z</time></trkpt><trkpt lat="36.89014421535671" lon="-108.10665706689842"><ele>1864.0</ele><time>2026-04-02T22:46:49Z</time></trkpt><trkpt lat="36.89021233771382" lon="-108.10667833701687"><ele>1864.8333333333335</ele><time>2026-04-02T22:46:50Z</time></trkpt><trkpt lat="36.89027877436076" lon="-108.10669067891581"><ele>1865.6666666666667</ele><time>2026-04-02T22:46:51Z</time></trkpt><trkpt lat="36.89033202594641" lon="-108.10673952773271"><ele>1866.5</ele><time>2026-04-02T22:46:52Z</time></trkpt><trkpt lat="36.890400203519" lon="-108.10680281569518"><ele>1867.3333333333335</ele><time>2026-04-02T22:46:53Z</time></trkpt><trkpt lat="36.8904734155705" lon="-108.10688014125952"><ele>1868.1666666666667</ele><time>2026-04-02T22:46:54Z</time></trkpt><trkpt lat="36.89056452224879" lon="-108.10698782382167"><ele>1869.0</ele><time>2026-04-02T22:46:55Z</time></trkpt><trkpt lat="36.890640080300344" lon="-108.10711210296216"><ele>1869.0</ele><time>2026-04-02T22:46:56Z</time></trkpt><trkpt lat="36.89070506349389" lon="-108.10724692912282"><ele>1869.0</ele><time>2026-04-02T22:46:57Z</time></trkpt><trkpt lat="36.890741204720776" lon="-108.10737766007387"><ele>1869.0</ele><time>2026-04-02T22:46:58Z</time></trkpt><trkpt lat="36.89076750900951" lon="-108.10750133642715"><ele>1869.0</ele><time>2026-04-02T22:46:59Z</time></trkpt><trkpt lat="36.89077327051872" lon="-108.10761824932167"><ele>1869.0</ele><time>2026-04-02T22:47:00Z</time></trkpt><trkpt lat="36.89078876396639" lon="-108.10771096394113"><ele>1869.8333333333333</ele><time>2026-04-02T22:47:01Z</time></trkpt><trkpt lat="36.89081785357667" lon="-108.10780709988194"><ele>1870.6666666666665</ele><time>2026-04-02T22:47:02Z</time></trkpt><trkpt lat="36.890844057346584" lon="-108.10789193845095"><ele>1871.5</ele><time>2026-04-02T22:47:03.001Z</time></trkpt><trkpt lat="36.89084210705866" lon="-108.10780577940633"><ele>1872.3333333333333</ele><time>2026-04-02T22:47:04.001Z</time></trkpt><trkpt lat="36.890928202950164" lon="-108.10780004273153"><ele>1873.1666666666665</ele><time>2026-04-02T22:51:30Z</time></trkpt><trkpt lat="36.89100964442811" lon="-108.10780980437254"><ele>1874.0</ele><time>2026-04-02T22:51:31Z</time></trkpt><trkpt lat="36.89108901814982" lon="-108.10780775450917"><ele>1873.9999999999998</ele><time>2026-04-02T22:51:32Z</time></trkpt><trkpt lat="36.89116883828392" lon="-108.1078268778333"><ele>1874.0</ele><time>2026-04-02T22:51:33Z</time></trkpt><trkpt lat="36.891237263952796" lon="-108.10788384056667"><ele>1874.0</ele><time>2026-04-02T22:51:34Z</time></trkpt><trkpt lat="36.89128360677413" lon="-108.10795737914651"><ele>1874.0</ele><time>2026-04-02T22:51:35Z</time></trkpt><trkpt lat="36.89131657055658" lon="-108.10804385609507"><ele>1873.9999999999998</ele><time>2026-04-02T22:51:36Z</time></trkpt><trkpt lat="36.89137319998815" lon="-108.1081230440311"><ele>1874.0</ele><time>2026-04-02T22:51:37Z</time></trkpt><trkpt lat="36.89144675659938" lon="-108.10818380626459"><ele>1874.2</ele><time>2026-04-02T22:51:38Z</time></trkpt><trkpt lat="36.891535025078255" lon="-108.10824808604465"><ele>1874.4</ele><time>2026-04-02T22:51:39Z</time></trkpt><trkpt lat="36.8915874455899" lon="-108.10832422776097"><ele>1874.6</ele><time>2026-04-02T22:51:40Z</time></trkpt><trkpt lat="36.8916145520458" lon="-108.10844876396371"><ele>1874.8</ele><time>2026-04-02T22:51:41Z</time></trkpt><trkpt lat="36.89165041897835" lon="-108.10858764192604"><ele>1875.0</ele><time>2026-04-02T22:51:42Z</time></trkpt><trkpt lat="36.891684918591324" lon="-108.1086791492505"><ele>1875.0</ele><time>2026-04-02T22:51:43Z</time></trkpt><trkpt lat="36.89171913878783" lon="-108.10877304129326"><ele>1875.0</ele><time>2026-04-02T22:51:44Z</time></trkpt><trkpt lat="36.891771744611084" lon="-108.10886588223127"><ele>1875.0</ele><time>2026-04-02T22:51:45Z</time></trkpt><trkpt lat="36.89184373295661" lon="-108.10896775109762"><ele>1875.0</ele><time>2026-04-02T22:51:46Z</time></trkpt><trkpt lat="36.89189613524136" lon="-108.10905773662857"><ele>1875.0</ele><time>2026-04-02T22:51:47Z</time></trkpt><trkpt lat="36.89189772340796" lon="-108.10917354490188"><ele>1876.2</ele><time>2026-04-02T22:51:48Z</time></trkpt><trkpt lat="36.89190686212793" lon="-108.10928145102027"><ele>1877.4</ele><time>2026-04-02T22:51:49Z</time></trkpt><trkpt lat="36.89193967325382" lon="-108.10935902591001"><ele>1878.6</ele><time>2026-04-02T22:51:50Z</time></trkpt><trkpt lat="36.892005239238436" lon="-108.10947825473379"><ele>1879.8</ele><time>2026-04-02T22:51:51Z</time></trkpt><trkpt lat="36.892056545924405" lon="-108.1096025612923"><ele>1881.0</ele><time>2026-04-02T22:51:52Z</time></trkpt><trkpt lat="36.892089835856964" lon="-108.1097198816506"><ele>1881.0</ele><time>2026-04-02T22:51:53Z</time></trkpt><trkpt lat="36.89214833079557" lon="-108.10980795126201"><ele>1881.0</ele><time>2026-04-02T22:51:54Z</time></trkpt><trkpt lat="36.89216178440307" lon="-108.10993566413504"><ele>1881.0</ele><time>2026-04-02T22:51:56Z</time></trkpt><trkpt lat="36.89214639857808" lon="-108.11002163610524"><ele>1881.0</ele><time>2026-04-02T22:51:57Z</time></trkpt><trkpt lat="36.89214489276543" lon="-108.11011945671952"><ele>1881.0</ele><time>2026-04-02T22:51:58Z</time></trkpt><trkpt lat="36.892162751550494" lon="-108.1102440351666"><ele>1881.0</ele><time>2026-04-02T22:51:59Z</time></trkpt><trkpt lat="36.892194869152796" lon="-108.11038232591892"><ele>1882.8</ele><time>2026-04-02T22:52:00Z</time></trkpt><trkpt lat="36.892198119141504" lon="-108.11051160842304"><ele>1884.6</ele><time>2026-04-02T22:52:01Z</time></trkpt><trkpt lat="36.892208284946655" lon="-108.11061019081815"><ele>1886.4</ele><time>2026-04-02T22:52:02Z</time></trkpt><trkpt lat="36.8923131553222" lon="-108.11064379183244"><ele>1888.2</ele><time>2026-04-02T22:52:04Z</time></trkpt><trkpt lat="36.89239624821845" lon="-108.11059422338101"><ele>1890.0</ele><time>2026-04-02T22:52:05Z</time></trkpt><trkpt lat="36.892472849176094" lon="-108.11053922536777"><ele>1890.0</ele><time>2026-04-02T22:52:06Z</time></trkpt><trkpt lat="36.892568454851606" lon="-108.11057378502946"><ele>1890.0</ele><time>2026-04-02T22:52:07Z</time></trkpt><trkpt lat="36.892670646068446" lon="-108.11058078183513"><ele>1890.0</ele><time>2026-04-02T22:52:08Z</time></trkpt><trkpt lat="36.892764050336005" lon="-108.11070238426818"><ele>1890.0</ele><time>2026-04-02T22:52:09.999Z</time></trkpt><trkpt lat="36.89283488526901" lon="-108.1108056713336"><ele>1890.0</ele><time>2026-04-02T22:52:10.999Z</time></trkpt><trkpt lat="36.89290808169172" lon="-108.11082284040863"><ele>1890.0</ele><time>2026-04-02T22:52:11.999Z</time></trkpt><trkpt lat="36.892953160861936" lon="-108.11075722141649"><ele>1890.0</ele><time>2026-04-02T22:52:12.999Z</time></trkpt><trkpt lat="36.893053748947736" lon="-108.11068999537594"><ele>1890.0</ele><time>2026-04-02T22:52:13.999Z</time></trkpt><trkpt lat="36.893140453286755" lon="-108.11068678317623"><ele>1890.0</ele><time>2026-04-02T22:52:14.999Z</time></trkpt><trkpt lat="36.89322520192164" lon="-108.11072432823579"><ele>1890.0</ele><time>2026-04-02T22:52:15.999Z</time></trkpt><trkpt lat="36.893312837365066" lon="-108.1107636729115"><ele>1890.2</ele><time>2026-04-02T22:52:16.999Z</time></trkpt><trkpt lat="36.89344550263319" lon="-108.11073627709811"><ele>1890.4</ele><time>2026-04-02T22:52:18.999Z</time></trkpt><trkpt lat="36.893548746426724" lon="-108.11070681571447"><ele>1890.6</ele><time>2026-04-02T22:52:19.999Z</time></trkpt><trkpt lat="36.89363531733917" lon="-108.11067356802604"><ele>1890.8</ele><time>2026-04-02T22:52:20.999Z</time></trkpt><trkpt lat="36.89371673195008" lon="-108.11060531718917"><ele>1891.0</ele><time>2026-04-02T22:52:21.999Z</time></trkpt><trkpt lat="36.89379390151839" lon="-108.11054293646747"><ele>1891.0</ele><time>2026-04-02T22:52:22.999Z</time></trkpt><trkpt lat="36.89389750575802" lon="-108.11051356646632"><ele>1891.0</ele><time>2026-04-02T22:52:24.999Z</time></trkpt><trkpt lat="36.89401035890174" lon="-108.1104140419895"><ele>1891.0</ele><time>2026-04-02T22:52:25.999Z</time></trkpt><trkpt lat="36.89407423389315" lon="-108.11036326430346"><ele>1891.0</ele><time>2026-04-02T22:52:26.999Z</time></trkpt><trkpt lat="36.894139307651535" lon="-108.11033027855431"><ele>1891.0</ele><time>2026-04-02T22:52:27.999Z</time></trkpt><trkpt lat="36.89419650726871" lon="-108.1102631992836"><ele>1891.0000000000002</ele><time>2026-04-02T22:52:28.999Z</time></trkpt><trkpt lat="36.89423406768153" lon="-108.11017191096936"><ele>1891.0</ele><time>2026-04-02T22:52:29.999Z</time></trkpt><trkpt lat="36.89427205320338" lon="-108.1100707284313"><ele>1891.0</ele><time>2026-04-02T22:52:30.999Z</time></trkpt><trkpt lat="36.894339641204176" lon="-108.11000241611664"><ele>1891.0</ele><time>2026-04-02T22:52:31.999Z</time></trkpt><trkpt lat="36.89441806774038" lon="-108.10993888926374"><ele>1891.0000000000002</ele><time>2026-04-02T22:52:32.999Z</time></trkpt><trkpt lat="36.89447885249996" lon="-108.10986392180156"><ele>1891.0</ele><time>2026-04-02T22:52:33.999Z</time></trkpt><trkpt lat="36.89453062871708" lon="-108.10978807699753"><ele>1892.1999999999998</ele><time>2026-04-02T22:52:34.999Z</time></trkpt><trkpt lat="36.89459108043573" lon="-108.10969893062261"><ele>1893.3999999999999</ele><time>2026-04-02T22:52:35.999Z</time></trkpt><trkpt lat="36.89463343192297" lon="-108.10961824212465"><ele>1894.6</ele><time>2026-04-02T22:52:36.999Z</time></trkpt><trkpt lat="36.894774732500785" lon="-108.10959687528982"><ele>1895.8</ele><time>2026-04-02T22:52:38.999Z</time></trkpt><trkpt lat="36.894854699005954" lon="-108.10959947774599"><ele>1897.0</ele><time>2026-04-02T22:52:39.999Z</time></trkpt><trkpt lat="36.89492423336709" lon="-108.10958594310841"><ele>1897.0</ele><time>2026-04-02T22:52:40.999Z</time></trkpt><trkpt lat="36.89499204942477" lon="-108.10962020588579"><ele>1896.9999999999998</ele><time>2026-04-02T22:52:41.999Z</time></trkpt><trkpt lat="36.89504926600234" lon="-108.10970298528436"><ele>1896.9999999999998</ele><time>2026-04-02T22:52:42.999Z</time></trkpt><trkpt lat="36.895117682159345" lon="-108.10978234418432"><ele>1897.0</ele><time>2026-04-02T22:52:43.999Z</time></trkpt><trkpt lat="36.89522242209986" lon="-108.10975060290693"><ele>1897.0</ele><time>2026-04-02T22:52:44.999Z</time></trkpt><trkpt lat="36.89534933115566" lon="-108.10965230495746"><ele>1896.3333333333335</ele><time>2026-04-02T22:52:45.999Z</time></trkpt><trkpt lat="36.89540948585326" lon="-108.10960339528438"><ele>1895.6666666666667</ele><time>2026-04-02T22:52:46.999Z</time></trkpt><trkpt lat="36.895452197193315" lon="-108.10952160181648"><ele>1895.0</ele><time>2026-04-02T22:52:47.999Z</time></trkpt><trkpt lat="36.89551113594046" lon="-108.10942478225"><ele>1894.3333333333335</ele><time>2026-04-02T22:52:48.999Z</time></trkpt><trkpt lat="36.89560800093302" lon="-108.10939554354981"><ele>1893.6666666666667</ele><time>2026-04-02T22:52:49.999Z</time></trkpt><trkpt lat="36.89568380975768" lon="-108.10936673077565"><ele>1893.0</ele><time>2026-04-02T22:52:50.999Z</time></trkpt><trkpt lat="36.895722686610476" lon="-108.109271230876"><ele>1893.0</ele><time>2026-04-02T22:52:51.999Z</time></trkpt><trkpt lat="36.89572611116022" lon="-108.10914432225513"><ele>1893.0000000000002</ele><time>2026-04-02T22:52:52.999Z</time></trkpt><trkpt lat="36.89574674419014" lon="-108.10904034602763"><ele>1893.0000000000002</ele><time>2026-04-02T22:52:53.999Z</time></trkpt><trkpt lat="36.89579980542731" lon="-108.10896637619085"><ele>1893.0</ele><time>2026-04-02T22:52:54.999Z</time></trkpt><trkpt lat="36.895885974157544" lon="-108.10891057085469"><ele>1893.0</ele><time>2026-04-02T22:52:55.999Z</time></trkpt><trkpt lat="36.89598837114399" lon="-108.10883636967122"><ele>1893.6000000000001</ele><time>2026-04-02T22:52:56.999Z</time></trkpt><trkpt lat="36.89607019684443" lon="-108.10872585279459"><ele>1894.2000000000003</ele><time>2026-04-02T22:52:57.999Z</time></trkpt><trkpt lat="36.896149228013506" lon="-108.10861051440503"><ele>1894.8</ele><time>2026-04-02T22:52:59.999Z</time></trkpt><trkpt lat="36.8962107302998" lon="-108.10855620073437"><ele>1895.4</ele><time>2026-04-02T22:53:00.999Z</time></trkpt><trkpt lat="36.89628039407109" lon="-108.10856743331685"><ele>1896.0</ele><time>2026-04-02T22:53:01.999Z</time></trkpt><trkpt lat="36.89635502054353" lon="-108.10857266839294"><ele>1896.0</ele><time>2026-04-02T22:53:02.999Z</time></trkpt><trkpt lat="36.896441897197214" lon="-108.10856967480922"><ele>1896.0</ele><time>2026-04-02T22:53:03.999Z</time></trkpt><trkpt lat="36.896514385138225" lon="-108.10858503257015"><ele>1896.0</ele><time>2026-04-02T22:53:04.999Z</time></trkpt><trkpt lat="36.896580701156765" lon="-108.10858524029291"><ele>1896.0</ele><time>2026-04-02T22:53:05.999Z</time></trkpt><trkpt lat="36.896695461972776" lon="-108.10846649047052"><ele>1896.0</ele><time>2026-04-02T22:53:07.999Z</time></trkpt><trkpt lat="36.896785497808445" lon="-108.10840499508924"><ele>1895.1428571428569</ele><time>2026-04-02T22:53:08.999Z</time></trkpt><trkpt lat="36.896849877802175" lon="-108.10836565503564"><ele>1894.2857142857142</ele><time>2026-04-02T22:53:09.999Z</time></trkpt><trkpt lat="36.8969137198047" lon="-108.10832377711002"><ele>1893.4285714285713</ele><time>2026-04-02T22:53:10.999Z</time></trkpt><trkpt lat="36.896952492926786" lon="-108.10825669013892"><ele>1892.5714285714284</ele><time>2026-04-02T22:53:11.999Z</time></trkpt><trkpt lat="36.89696416602043" lon="-108.10816173925427"><ele>1891.7142857142858</ele><time>2026-04-02T22:53:12.999Z</time></trkpt><trkpt lat="36.896971412300786" lon="-108.10806172005536"><ele>1890.857142857143</ele><time>2026-04-02T22:53:13.999Z</time></trkpt><trkpt lat="36.89698011267339" lon="-108.10796343496688"><ele>1890.0</ele><time>2026-04-02T22:53:14.999Z</time></trkpt><trkpt lat="36.896975309129104" lon="-108.10785934966883"><ele>1890.0</ele><time>2026-04-02T22:53:15.999Z</time></trkpt><trkpt lat="36.896983883769494" lon="-108.10777647566829"><ele>1890.0</ele><time>2026-04-02T22:53:16.999Z</time></trkpt><trkpt lat="36.897022209522866" lon="-108.1076977871699"><ele>1890.0</ele><time>2026-04-02T22:53:17.999Z</time></trkpt><trkpt lat="36.89708270371134" lon="-108.1076044971108"><ele>1890.0</ele><time>2026-04-02T22:53:18.999Z</time></trkpt><trkpt lat="36.897113175890006" lon="-108.10751042009372"><ele>1890.0</ele><time>2026-04-02T22:53:19.999Z</time></trkpt><trkpt lat="36.89714177025029" lon="-108.10739419524724"><ele>1890.0</ele><time>2026-04-02T22:53:20.999Z</time></trkpt><trkpt lat="36.89718469204302" lon="-108.10730388559028"><ele>1890.8</ele><time>2026-04-02T22:53:21.999Z</time></trkpt><trkpt lat="36.89724936874351" lon="-108.10721250319938"><ele>1891.6</ele><time>2026-04-02T22:53:22.999Z</time></trkpt><trkpt lat="36.89732135698354" lon="-108.10713909901729"><ele>1892.4</ele><time>2026-04-02T22:53:23.999Z</time></trkpt><trkpt lat="36.89739570919906" lon="-108.10708174678314"><ele>1893.2</ele><time>2026-04-02T22:53:24.999Z</time></trkpt><trkpt lat="36.897450918972865" lon="-108.10703465247869"><ele>1894.0</ele><time>2026-04-02T22:53:25.999Z</time></trkpt><trkpt lat="36.89757595961531" lon="-108.10708443521101"><ele>1894.1666666666667</ele><time>2026-04-02T22:53:27.999Z</time></trkpt><trkpt lat="36.897653999354624" lon="-108.10706838923832"><ele>1894.3333333333335</ele><time>2026-04-02T22:53:28.999Z</time></trkpt><trkpt lat="36.89772941123321" lon="-108.10699155872612"><ele>1894.5</ele><time>2026-04-02T22:53:29.999Z</time></trkpt><trkpt lat="36.89780139838338" lon="-108.10692193276783"><ele>1894.6666666666665</ele><time>2026-04-02T22:53:30.999Z</time></trkpt><trkpt lat="36.897863441129985" lon="-108.10686408592501"><ele>1894.8333333333333</ele><time>2026-04-02T22:53:31.999Z</time></trkpt><trkpt lat="36.89792806428245" lon="-108.10682645052941"><ele>1895.0</ele><time>2026-04-02T22:53:32.999Z</time></trkpt><trkpt lat="36.89804588440703" lon="-108.10681833802526"><ele>1895.0</ele><time>2026-04-02T22:53:33.999Z</time></trkpt><trkpt lat="36.898212235896985" lon="-108.10680032864795"><ele>1895.0</ele><time>2026-04-02T22:53:34.999Z</time></trkpt><trkpt lat="36.898347217795504" lon="-108.10677215795802"><ele>1895.0</ele><time>2026-04-02T22:53:35.999Z</time></trkpt><trkpt lat="36.89844555621014" lon="-108.10674598966962"><ele>1895.0</ele><time>2026-04-02T22:53:36.999Z</time></trkpt><trkpt lat="36.898524690370955" lon="-108.1067429167166"><ele>1894.9999999999998</ele><time>2026-04-02T22:53:37.999Z</time></trkpt><trkpt lat="36.89858797279496" lon="-108.1067668531238"><ele>1895.0</ele><time>2026-04-02T22:53:38.999Z</time></trkpt><trkpt lat="36.89865464135368" lon="-108.10681672000449"><ele>1895.0</ele><time>2026-04-02T22:53:39.999Z</time></trkpt><trkpt lat="36.89873422173793" lon="-108.10685320045054"><ele>1895.0</ele><time>2026-04-02T22:53:40.999Z</time></trkpt><trkpt lat="36.89880730094948" lon="-108.10686665257312"><ele>1894.9999999999998</ele><time>2026-04-02T22:53:41.999Z</time></trkpt><trkpt lat="36.89889769218847" lon="-108.10683066611921"><ele>1895.0</ele><time>2026-04-02T22:53:43.999Z</time></trkpt><trkpt lat="36.89896784021957" lon="-108.10672421902547"><ele>1894.0</ele><time>2026-04-02T22:53:44.999Z</time></trkpt><trkpt lat="36.89904347923237" lon="-108.10657493291664"><ele>1893.0</ele><time>2026-04-02T22:53:45.999Z</time></trkpt><trkpt lat="36.89909523716284" lon="-108.10649818779203"><ele>1892.0</ele><time>2026-04-02T22:53:46.999Z</time></trkpt><trkpt lat="36.899157406104116" lon="-108.10643806637174"><ele>1891.0</ele><time>2026-04-02T22:53:47.999Z</time></trkpt><trkpt lat="36.899230858456924" lon="-108.10637503272108"><ele>1890.0</ele><time>2026-04-02T22:53:48.999Z</time></trkpt><trkpt lat="36.89928507007943" lon="-108.10628836214528"><ele>1889.6</ele><time>2026-04-02T22:53:49.999Z</time></trkpt><trkpt lat="36.899320377360176" lon="-108.10617742251375"><ele>1889.2</ele><time>2026-04-02T22:53:50.999Z</time></trkpt><trkpt lat="36.89936778905083" lon="-108.10607556823655"><ele>1888.8000000000002</ele><time>2026-04-02T22:53:51.999Z</time></trkpt><trkpt lat="36.89942862356234" lon="-108.10597343044755"><ele>1888.4</ele><time>2026-04-02T22:53:52.999Z</time></trkpt><trkpt lat="36.89948514938182" lon="-108.10587252990403"><ele>1888.0</ele><time>2026-04-02T22:53:53.999Z</time></trkpt><trkpt lat="36.89952948884376" lon="-108.10578774718103"><ele>1888.0</ele><time>2026-04-02T22:53:54.999Z</time></trkpt><trkpt lat="36.899650881125574" lon="-108.10564109766167"><ele>1888.0</ele><time>2026-04-02T22:53:56.999Z</time></trkpt><trkpt lat="36.899769471236105" lon="-108.1055114794171"><ele>1888.0</ele><time>2026-04-02T22:53:57.999Z</time></trkpt><trkpt lat="36.89987579924172" lon="-108.10539478101884"><ele>1888.0</ele><time>2026-04-02T22:53:58.999Z</time></trkpt><trkpt lat="36.89994669989273" lon="-108.10529113760562"><ele>1888.0000000000002</ele><time>2026-04-02T22:53:59.999Z</time></trkpt><trkpt lat="36.89998537114593" lon="-108.10518852197477"><ele>1888.0000000000002</ele><time>2026-04-02T22:54:00.999Z</time></trkpt><trkpt lat="36.900031067903356" lon="-108.10509279671706"><ele>1888.0</ele><time>2026-04-02T22:54:01.999Z</time></trkpt><trkpt lat="36.90010577161152" lon="-108.10501019495292"><ele>1888.0</ele><time>2026-04-02T22:54:02.999Z</time></trkpt><trkpt lat="36.900176301127466" lon="-108.10492223938986"><ele>1888.4</ele><time>2026-04-02T22:54:03.999Z</time></trkpt><trkpt lat="36.90023957542174" lon="-108.10486181511861"><ele>1888.8000000000002</ele><time>2026-04-02T22:54:04.999Z</time></trkpt><trkpt lat="36.90030792816389" lon="-108.10480085968085"><ele>1889.2</ele><time>2026-04-02T22:54:05.999Z</time></trkpt><trkpt lat="36.90039879130896" lon="-108.10472997701471"><ele>1889.6</ele><time>2026-04-02T22:54:06.999Z</time></trkpt><trkpt lat="36.90041334466524" lon="-108.10462596460111"><ele>1890.0</ele><time>2026-04-02T22:54:08.999Z</time></trkpt><trkpt lat="36.90048180230272" lon="-108.10449522013815"><ele>1890.0</ele><time>2026-04-02T22:54:10.999Z</time></trkpt><trkpt lat="36.900564945565755" lon="-108.10440785504346"><ele>1890.0</ele><time>2026-04-02T22:54:11.999Z</time></trkpt><trkpt lat="36.90068757699934" lon="-108.10433661431534"><ele>1890.0</ele><time>2026-04-02T22:54:12.999Z</time></trkpt><trkpt lat="36.90080485119373" lon="-108.10428938039148"><ele>1890.0</ele><time>2026-04-02T22:54:13.999Z</time></trkpt><trkpt lat="36.90090394221556" lon="-108.10421837339976"><ele>1890.0</ele><time>2026-04-02T22:54:14.999Z</time></trkpt><trkpt lat="36.90096338363842" lon="-108.10415148212003"><ele>1890.0</ele><time>2026-04-02T22:54:15.999Z</time></trkpt><trkpt lat="36.90104546140614" lon="-108.10417367502853"><ele>1890.0</ele><time>2026-04-02T22:54:18.999Z</time></trkpt><trkpt lat="36.90113908227799" lon="-108.10416911325144"><ele>1890.0</ele><time>2026-04-02T22:54:20.999Z</time></trkpt><trkpt lat="36.901207208323335" lon="-108.1041363490535"><ele>1890.0</ele><time>2026-04-02T22:54:21.999Z</time></trkpt><trkpt lat="36.90131053350062" lon="-108.10408634959252"><ele>1890.0</ele><time>2026-04-02T22:54:22.999Z</time></trkpt><trkpt lat="36.90139693765265" lon="-108.10401643525536"><ele>1890.0</ele><time>2026-04-02T22:54:23.999Z</time></trkpt><trkpt lat="36.90146752257291" lon="-108.10395850917958"><ele>1890.0</ele><time>2026-04-02T22:54:24.999Z</time></trkpt><trkpt lat="36.90155807956862" lon="-108.10390396165646"><ele>1890.0</ele><time>2026-04-02T22:54:25.999Z</time></trkpt><trkpt lat="36.901626553875516" lon="-108.1038636446872"><ele>1890.0</ele><time>2026-04-02T22:54:26.999Z</time></trkpt><trkpt lat="36.90167994597309" lon="-108.1037999044571"><ele>1890.0</ele><time>2026-04-02T22:54:27.999Z</time></trkpt><trkpt lat="36.90171490120175" lon="-108.10371541747277"><ele>1890.0</ele><time>2026-04-02T22:54:28.999Z</time></trkpt><trkpt lat="36.90169817418" lon="-108.10355712407225"><ele>1890.0</ele><time>2026-04-02T22:54:30.999Z</time></trkpt><trkpt lat="36.90168186896211" lon="-108.10345916788417"><ele>1890.0</ele><time>2026-04-02T22:54:31.999Z</time></trkpt><trkpt lat="36.90170251804476" lon="-108.10326393491133"><ele>1890.0</ele><time>2026-04-02T22:54:33.999Z</time></trkpt><trkpt lat="36.90172192299348" lon="-108.10317337352446"><ele>1890.0</ele><time>2026-04-02T22:54:34.999Z</time></trkpt><trkpt lat="36.90179106846493" lon="-108.10310376430111"><ele>1890.0</ele><time>2026-04-02T22:54:35.999Z</time></trkpt><trkpt lat="36.90183109612953" lon="-108.10302042864093"><ele>1889.3333333333333</ele><time>2026-04-02T22:54:36.999Z</time></trkpt><trkpt lat="36.90187053711076" lon="-108.10290258101547"><ele>1888.6666666666665</ele><time>2026-04-02T22:54:38.999Z</time></trkpt><trkpt lat="36.90190046870539" lon="-108.10282082366008"><ele>1888.0</ele><time>2026-04-02T22:54:39.999Z</time></trkpt><trkpt lat="36.90193047375248" lon="-108.10274610866014"><ele>1887.3333333333333</ele><time>2026-04-02T22:54:40.999Z</time></trkpt><trkpt lat="36.9020011423589" lon="-108.10265077709619"><ele>1886.6666666666665</ele><time>2026-04-02T22:54:42.999Z</time></trkpt><trkpt lat="36.90201781608651" lon="-108.10252618224204"><ele>1886.0</ele><time>2026-04-02T22:54:44.999Z</time></trkpt><trkpt lat="36.902024614572206" lon="-108.10244448958625"><ele>1885.6</ele><time>2026-04-02T22:54:45.999Z</time></trkpt><trkpt lat="36.902063856989976" lon="-108.10227828239782"><ele>1885.1999999999998</ele><time>2026-04-02T22:54:47.999Z</time></trkpt><trkpt lat="36.90204889871499" lon="-108.1021064181048"><ele>1884.8000000000002</ele><time>2026-04-02T22:54:49.999Z</time></trkpt><trkpt lat="36.90205918137326" lon="-108.10200596689086"><ele>1884.4</ele><time>2026-04-02T22:54:50.999Z</time></trkpt><trkpt lat="36.90210896923352" lon="-108.10191663583707"><ele>1884.0</ele><time>2026-04-02T22:54:51.999Z</time></trkpt><trkpt lat="36.902179203048775" lon="-108.1018277829887"><ele>1884.0</ele><time>2026-04-02T22:54:52.999Z</time></trkpt><trkpt lat="36.90226050559459" lon="-108.10173844639046"><ele>1884.0</ele><time>2026-04-02T22:54:53.999Z</time></trkpt><trkpt lat="36.90231692720652" lon="-108.10166095765969"><ele>1884.0</ele><time>2026-04-02T22:54:54.999Z</time></trkpt><trkpt lat="36.902393354284115" lon="-108.10160476057396"><ele>1884.0</ele><time>2026-04-02T22:54:55.999Z</time></trkpt><trkpt lat="36.902510489139374" lon="-108.10155001984648"><ele>1884.0</ele><time>2026-04-02T22:54:56.999Z</time></trkpt><trkpt lat="36.90255997442946" lon="-108.10150089238537"><ele>1885.0</ele><time>2026-04-02T22:54:57.999Z</time></trkpt><trkpt lat="36.902644221133855" lon="-108.10142651409207"><ele>1886.0</ele><time>2026-04-02T22:54:58.999Z</time></trkpt><trkpt lat="36.90274037700225" lon="-108.10134239539114"><ele>1887.0</ele><time>2026-04-02T22:54:59.999Z</time></trkpt><trkpt lat="36.90284522075872" lon="-108.10127340452024"><ele>1888.0</ele><time>2026-04-02T22:55:00.999Z</time></trkpt><trkpt lat="36.902958828979244" lon="-108.10122033795399"><ele>1888.0000000000002</ele><time>2026-04-02T22:55:01.999Z</time></trkpt><trkpt lat="36.90305380908029" lon="-108.10115837181536"><ele>1888.0</ele><time>2026-04-02T22:55:02.999Z</time></trkpt><trkpt lat="36.90312388373358" lon="-108.10109286237655"><ele>1888.0</ele><time>2026-04-02T22:55:03.999Z</time></trkpt><trkpt lat="36.90317116520697" lon="-108.10103885394935"><ele>1888.0</ele><time>2026-04-02T22:55:04.999Z</time></trkpt><trkpt lat="36.903249488581125" lon="-108.10095678575513"><ele>1888.0000000000002</ele><time>2026-04-02T22:55:06.999Z</time></trkpt><trkpt lat="36.90330287858653" lon="-108.10088739958634"><ele>1888.0</ele><time>2026-04-02T22:55:10.999Z</time></trkpt><trkpt lat="36.90339206694148" lon="-108.10073270349197"><ele>1889.8333333333335</ele><time>2026-04-02T22:55:12.999Z</time></trkpt><trkpt lat="36.903433081783724" lon="-108.10064453687072"><ele>1891.6666666666667</ele><time>2026-04-02T22:55:13.999Z</time></trkpt><trkpt lat="36.903467001243875" lon="-108.10055262758625"><ele>1893.5</ele><time>2026-04-02T22:55:14.999Z</time></trkpt><trkpt lat="36.903505140878146" lon="-108.1004661486392"><ele>1895.3333333333335</ele><time>2026-04-02T22:55:15.999Z</time></trkpt><trkpt lat="36.9035521019585" lon="-108.1003846480029"><ele>1897.1666666666667</ele><time>2026-04-02T22:55:16.999Z</time></trkpt><trkpt lat="36.90360499979475" lon="-108.1002928213875"><ele>1899.0</ele><time>2026-04-02T22:55:17.999Z</time></trkpt><trkpt lat="36.90366671383103" lon="-108.1002072659236"><ele>1899.0</ele><time>2026-04-02T22:55:18.999Z</time></trkpt><trkpt lat="36.90372999466788" lon="-108.10011256981605"><ele>1899.0</ele><time>2026-04-02T22:55:19.999Z</time></trkpt><trkpt lat="36.9037861309767" lon="-108.10001692650695"><ele>1899.0</ele><time>2026-04-02T22:55:20.999Z</time></trkpt><trkpt lat="36.90383480882751" lon="-108.09992877509909"><ele>1899.0</ele><time>2026-04-02T22:55:21.999Z</time></trkpt><trkpt lat="36.90388879011951" lon="-108.09983981995084"><ele>1899.0</ele><time>2026-04-02T22:55:22.999Z</time></trkpt><trkpt lat="36.90394750633626" lon="-108.09973862491354"><ele>1899.0</ele><time>2026-04-02T22:55:23.999Z</time></trkpt><trkpt lat="36.90400366281499" lon="-108.09964088581836"><ele>1899.0</ele><time>2026-04-02T22:55:24.999Z</time></trkpt><trkpt lat="36.90405585546649" lon="-108.09955547112723"><ele>1899.0</ele><time>2026-04-02T22:55:25.999Z</time></trkpt><trkpt lat="36.90411462205624" lon="-108.09943415676845"><ele>1899.0</ele><time>2026-04-02T22:55:26.999Z</time></trkpt><trkpt lat="36.90415788086279" lon="-108.099349248937"><ele>1899.0</ele><time>2026-04-02T22:55:27.999Z</time></trkpt><trkpt lat="36.90417978998064" lon="-108.09926927754448"><ele>1899.0</ele><time>2026-04-02T22:55:29.999Z</time></trkpt><trkpt lat="36.90422902005455" lon="-108.09919720301323"><ele>1898.2</ele><time>2026-04-02T22:55:31.999Z</time></trkpt><trkpt lat="36.90433705150769" lon="-108.09912966934458"><ele>1897.4</ele><time>2026-04-02T22:55:33.999Z</time></trkpt><trkpt lat="36.904424284743186" lon="-108.09909674909125"><ele>1896.6</ele><time>2026-04-02T22:55:34.999Z</time></trkpt><trkpt lat="36.90450385627242" lon="-108.09910687718367"><ele>1895.8</ele><time>2026-04-02T22:55:35.999Z</time></trkpt><trkpt lat="36.90459190196282" lon="-108.09914391263725"><ele>1895.0</ele><time>2026-04-02T22:55:36.999Z</time></trkpt><trkpt lat="36.90470469344132" lon="-108.09910255292486"><ele>1895.0</ele><time>2026-04-02T22:55:37.999Z</time></trkpt><trkpt lat="36.90480566592639" lon="-108.0990487514363"><ele>1895.0</ele><time>2026-04-02T22:55:38.999Z</time></trkpt><trkpt lat="36.90491333395311" lon="-108.09899732011725"><ele>1895.0</ele><time>2026-04-02T22:55:39.999Z</time></trkpt><trkpt lat="36.90500087671752" lon="-108.09892055447523"><ele>1895.0</ele><time>2026-04-02T22:55:40.999Z</time></trkpt><trkpt lat="36.90507966719487" lon="-108.09886740584764"><ele>1895.0</ele><time>2026-04-02T22:55:41.999Z</time></trkpt><trkpt lat="36.905166401244585" lon="-108.09885353245286"><ele>1894.4999999999998</ele><time>2026-04-02T22:55:42.999Z</time></trkpt><trkpt lat="36.90527027288845" lon="-108.09886670623357"><ele>1894.0</ele><time>2026-04-02T22:55:43.999Z</time></trkpt><trkpt lat="36.90534197810427" lon="-108.09885509124494"><ele>1893.5</ele><time>2026-04-02T22:55:44.999Z</time></trkpt><trkpt lat="36.90539169011428" lon="-108.09879266499802"><ele>1893.0</ele><time>2026-04-02T22:55:45.999Z</time></trkpt><trkpt lat="36.90542230760644" lon="-108.09870230023915"><ele>1892.4999999999998</ele><time>2026-04-02T22:55:46.999Z</time></trkpt><trkpt lat="36.905455312544625" lon="-108.09861156590708"><ele>1892.0</ele><time>2026-04-02T22:55:47.999Z</time></trkpt><trkpt lat="36.90551111775775" lon="-108.0985391656098"><ele>1892.0</ele><time>2026-04-02T22:55:48.999Z</time></trkpt><trkpt lat="36.90560688791465" lon="-108.09847300912686"><ele>1891.9999999999998</ele><time>2026-04-02T22:55:49.999Z</time></trkpt><trkpt lat="36.9056943767207" lon="-108.09842469983062"><ele>1891.9999999999998</ele><time>2026-04-02T22:55:50.999Z</time></trkpt><trkpt lat="36.90579134016097" lon="-108.09838159941117"><ele>1892.0</ele><time>2026-04-02T22:55:51.999Z</time></trkpt><trkpt lat="36.90586158906162" lon="-108.09832339204304"><ele>1892.0</ele><time>2026-04-02T22:55:52.999Z</time></trkpt><trkpt lat="36.90592634804529" lon="-108.09820267646556"><ele>1891.9999999999998</ele><time>2026-04-02T22:55:54.999Z</time></trkpt><trkpt lat="36.90593245289801" lon="-108.09809768728373"><ele>1892.0</ele><time>2026-04-02T22:55:55.999Z</time></trkpt><trkpt lat="36.905946925674755" lon="-108.09800160288235"><ele>1892.0</ele><time>2026-04-02T22:55:56.999Z</time></trkpt><trkpt lat="36.90600827827648" lon="-108.09796150484955"><ele>1892.0</ele><time>2026-04-02T22:55:57.999Z</time></trkpt><trkpt lat="36.90607959936763" lon="-108.09792576819876"><ele>1891.9999999999998</ele><time>2026-04-02T22:55:58.999Z</time></trkpt><trkpt lat="36.90611357148103" lon="-108.09784875768845"><ele>1892.0</ele><time>2026-04-02T22:55:59.999Z</time></trkpt><trkpt lat="36.906193566928586" lon="-108.09776854594446"><ele>1891.9999999999998</ele><time>2026-04-02T22:56:01.999Z</time></trkpt><trkpt lat="36.90625470899054" lon="-108.09774314677983"><ele>1892.0</ele><time>2026-04-02T22:56:02.999Z</time></trkpt><trkpt lat="36.90634152428326" lon="-108.0977147274163"><ele>1892.0</ele><time>2026-04-02T22:56:04.999Z</time></trkpt><trkpt lat="36.90641583080607" lon="-108.0976778374288"><ele>1892.0</ele><time>2026-04-02T22:56:05.999Z</time></trkpt><trkpt lat="36.90650556825955" lon="-108.09762947238411"><ele>1891.9999999999998</ele><time>2026-04-02T22:56:06.999Z</time></trkpt><trkpt lat="36.90660311405711" lon="-108.09755903401197"><ele>1892.0</ele><time>2026-04-02T22:56:07.999Z</time></trkpt><trkpt lat="36.90669271144006" lon="-108.09752042560446"><ele>1892.0</ele><time>2026-04-02T22:56:08.999Z</time></trkpt><trkpt lat="36.90679589526685" lon="-108.09749232785937"><ele>1891.9999999999998</ele><time>2026-04-02T22:56:09.999Z</time></trkpt><trkpt lat="36.90689596718345" lon="-108.09745183778827"><ele>1891.9999999999998</ele><time>2026-04-02T22:56:10.999Z</time></trkpt><trkpt lat="36.906995688247676" lon="-108.09738761791623"><ele>1892.0</ele><time>2026-04-02T22:56:11.999Z</time></trkpt><trkpt lat="36.90709730679789" lon="-108.09733315106986"><ele>1892.0</ele><time>2026-04-02T22:56:12.999Z</time></trkpt><trkpt lat="36.90716660431714" lon="-108.09728174727219"><ele>1893.3999999999999</ele><time>2026-04-02T22:56:13.999Z</time></trkpt><trkpt lat="36.90728767106832" lon="-108.09729630125071"><ele>1894.7999999999997</ele><time>2026-04-02T22:56:15.999Z</time></trkpt><trkpt lat="36.90739833556655" lon="-108.09734250685138"><ele>1896.2</ele><time>2026-04-02T22:56:16.999Z</time></trkpt><trkpt lat="36.907508554250455" lon="-108.0973445018124"><ele>1897.6</ele><time>2026-04-02T22:56:17.999Z</time></trkpt><trkpt lat="36.90757638680268" lon="-108.09733361290425"><ele>1899.0</ele><time>2026-04-02T22:56:18.999Z</time></trkpt><trkpt lat="36.90763145258947" lon="-108.09729377863307"><ele>1899.75</ele><time>2026-04-02T22:56:19.999Z</time></trkpt><trkpt lat="36.90772325549251" lon="-108.0972014870636"><ele>1900.5</ele><time>2026-04-02T22:56:20.999Z</time></trkpt><trkpt lat="36.90783783121237" lon="-108.09710814446858"><ele>1901.25</ele><time>2026-04-02T22:56:21.999Z</time></trkpt><trkpt lat="36.90796807950546" lon="-108.0970302736127"><ele>1902.0</ele><time>2026-04-02T22:56:22.999Z</time></trkpt><trkpt lat="36.90807163160456" lon="-108.09693231637118"><ele>1902.0</ele><time>2026-04-02T22:56:23.999Z</time></trkpt><trkpt lat="36.908155746967545" lon="-108.09683703799038"><ele>1901.9999999999998</ele><time>2026-04-02T22:56:24.999Z</time></trkpt><trkpt lat="36.90823065212029" lon="-108.09676725530807"><ele>1901.9999999999998</ele><time>2026-04-02T22:56:25.999Z</time></trkpt><trkpt lat="36.908318446723705" lon="-108.09671840463243"><ele>1902.0</ele><time>2026-04-02T22:56:26.999Z</time></trkpt><trkpt lat="36.908408039127686" lon="-108.09666280410643"><ele>1902.0</ele><time>2026-04-02T22:56:27.999Z</time></trkpt><trkpt lat="36.908466579004056" lon="-108.09658210130766"><ele>1904.3333333333333</ele><time>2026-04-02T22:56:28.999Z</time></trkpt><trkpt lat="36.90851404461506" lon="-108.09650341295064"><ele>1906.6666666666665</ele><time>2026-04-02T22:56:29.999Z</time></trkpt><trkpt lat="36.90859448864515" lon="-108.09644814615608"><ele>1909.0</ele><time>2026-04-02T22:56:30.999Z</time></trkpt><trkpt lat="36.908679640228534" lon="-108.09640032033317"><ele>1911.3333333333333</ele><time>2026-04-02T22:56:31.999Z</time></trkpt><trkpt lat="36.90874355797892" lon="-108.09634057613769"><ele>1913.6666666666665</ele><time>2026-04-02T22:56:32.999Z</time></trkpt><trkpt lat="36.90882377641026" lon="-108.096295847005"><ele>1916.0</ele><time>2026-04-02T22:56:33.999Z</time></trkpt><trkpt lat="36.908935453904185" lon="-108.09624246711859"><ele>1916.0</ele><time>2026-04-02T22:56:34.999Z</time></trkpt><trkpt lat="36.909034575712255" lon="-108.09619053608796"><ele>1916.0</ele><time>2026-04-02T22:56:35.999Z</time></trkpt><trkpt lat="36.90913553641538" lon="-108.09614122505683"><ele>1916.0</ele><time>2026-04-02T22:56:36.999Z</time></trkpt><trkpt lat="36.90923584589999" lon="-108.09609472521817"><ele>1916.0</ele><time>2026-04-02T22:56:37.999Z</time></trkpt><trkpt lat="36.90931084239427" lon="-108.09608586008123"><ele>1916.0</ele><time>2026-04-02T22:56:38.999Z</time></trkpt><trkpt lat="36.90937476480731" lon="-108.09607556044027"><ele>1916.4</ele><time>2026-04-02T22:56:39.999Z</time></trkpt><trkpt lat="36.909428813165164" lon="-108.0960125028639"><ele>1916.8</ele><time>2026-04-02T22:56:40.999Z</time></trkpt><trkpt lat="36.909498205152566" lon="-108.09593221450689"><ele>1917.2000000000003</ele><time>2026-04-02T22:56:41.999Z</time></trkpt><trkpt lat="36.909581660039464" lon="-108.09584136811642"><ele>1917.6000000000001</ele><time>2026-04-02T22:56:42.999Z</time></trkpt><trkpt lat="36.90965623448522" lon="-108.09574658213828"><ele>1918.0</ele><time>2026-04-02T22:56:43.999Z</time></trkpt><trkpt lat="36.90971338669281" lon="-108.09567693169609"><ele>1918.3333333333335</ele><time>2026-04-02T22:56:44.999Z</time></trkpt><trkpt lat="36.909773349472324" lon="-108.09560249601228"><ele>1918.6666666666667</ele><time>2026-04-02T22:56:45.999Z</time></trkpt><trkpt lat="36.90985235649526" lon="-108.09554440840681"><ele>1919.0</ele><time>2026-04-02T22:56:46.999Z</time></trkpt><trkpt lat="36.90992028640403" lon="-108.095506429169"><ele>1919.3333333333335</ele><time>2026-04-02T22:56:47.999Z</time></trkpt><trkpt lat="36.910014909249995" lon="-108.09554643903019"><ele>1919.6666666666667</ele><time>2026-04-02T22:56:49.999Z</time></trkpt><trkpt lat="36.91007208784356" lon="-108.09562435312726"><ele>1920.0</ele><time>2026-04-02T22:56:50.999Z</time></trkpt><trkpt lat="36.9101285041642" lon="-108.09569565122337"><ele>1920.0</ele><time>2026-04-02T22:56:51.999Z</time></trkpt><trkpt lat="36.910194631361676" lon="-108.09574270892999"><ele>1920.0</ele><time>2026-04-02T22:56:52.999Z</time></trkpt><trkpt lat="36.91027300713713" lon="-108.09580718927582"><ele>1920.0</ele><time>2026-04-02T22:56:53.999Z</time></trkpt><trkpt lat="36.910342601661924" lon="-108.09588647021006"><ele>1920.0</ele><time>2026-04-02T22:56:54.999Z</time></trkpt><trkpt lat="36.910403442402135" lon="-108.0959106426563"><ele>1920.0</ele><time>2026-04-02T22:56:55.999Z</time></trkpt><trkpt lat="36.91049443054341" lon="-108.09591119312599"><ele>1920.0</ele><time>2026-04-02T22:56:56.999Z</time></trkpt><trkpt lat="36.910571066398106" lon="-108.09592989819357"><ele>1920.2</ele><time>2026-04-02T22:56:57.999Z</time></trkpt><trkpt lat="36.910639077756244" lon="-108.09598687967623"><ele>1920.4</ele><time>2026-04-02T22:56:58.999Z</time></trkpt><trkpt lat="36.910769315312514" lon="-108.09595960087968"><ele>1920.6</ele><time>2026-04-02T22:57:00.999Z</time></trkpt><trkpt lat="36.910855907311486" lon="-108.09592860914378"><ele>1920.8</ele><time>2026-04-02T22:57:01.999Z</time></trkpt><trkpt lat="36.91093019728631" lon="-108.09580599418814"><ele>1921.0</ele><time>2026-04-02T22:57:03.999Z</time></trkpt><trkpt lat="36.91097466544175" lon="-108.09566285548459"><ele>1920.5000000000002</ele><time>2026-04-02T22:57:05.999Z</time></trkpt><trkpt lat="36.91103586732165" lon="-108.09558325732188"><ele>1920.0</ele><time>2026-04-02T22:57:06.999Z</time></trkpt><trkpt lat="36.911089697949976" lon="-108.09552689806836"><ele>1919.5</ele><time>2026-04-02T22:57:07.999Z</time></trkpt><trkpt lat="36.911121978123504" lon="-108.09543359725727"><ele>1919.0</ele><time>2026-04-02T22:57:08.999Z</time></trkpt><trkpt lat="36.91117120845499" lon="-108.09534348308948"><ele>1918.5000000000002</ele><time>2026-04-02T22:57:09.999Z</time></trkpt><trkpt lat="36.91122359211079" lon="-108.0952640722982"><ele>1918.0</ele><time>2026-04-02T22:57:10.999Z</time></trkpt><trkpt lat="36.91128124787914" lon="-108.09516981147102"><ele>1918.0</ele><time>2026-04-02T22:57:11.999Z</time></trkpt><trkpt lat="36.91133476401957" lon="-108.09507050569373"><ele>1918.0000000000002</ele><time>2026-04-02T22:57:12.999Z</time></trkpt><trkpt lat="36.91138624142371" lon="-108.09495435398728"><ele>1918.0000000000002</ele><time>2026-04-02T22:57:13.999Z</time></trkpt><trkpt lat="36.911431016330866" lon="-108.09484381875548"><ele>1918.0</ele><time>2026-04-02T22:57:14.999Z</time></trkpt><trkpt lat="36.91149353669988" lon="-108.09475712228407"><ele>1918.0</ele><time>2026-04-02T22:57:15.999Z</time></trkpt><trkpt lat="36.91156679737204" lon="-108.09467516593563"><ele>1918.2857142857142</ele><time>2026-04-02T22:57:16.999Z</time></trkpt><trkpt lat="36.91163192035201" lon="-108.09461439607928"><ele>1918.5714285714284</ele><time>2026-04-02T22:57:17.999Z</time></trkpt><trkpt lat="36.91168590351058" lon="-108.09456994578629"><ele>1918.857142857143</ele><time>2026-04-02T22:57:18.999Z</time></trkpt><trkpt lat="36.91175103985698" lon="-108.09453112274257"><ele>1919.142857142857</ele><time>2026-04-02T22:57:19.999Z</time></trkpt><trkpt lat="36.91181370454632" lon="-108.0944809474545"><ele>1919.4285714285713</ele><time>2026-04-02T22:57:20.999Z</time></trkpt><trkpt lat="36.91187046803567" lon="-108.09440297632098"><ele>1919.7142857142858</ele><time>2026-04-02T22:57:21.999Z</time></trkpt><trkpt lat="36.91191993916643" lon="-108.09434146474239"><ele>1920.0</ele><time>2026-04-02T22:57:22.999Z</time></trkpt><trkpt lat="36.912050681248225" lon="-108.0942933541973"><ele>1918.8</ele><time>2026-04-02T22:57:24.999Z</time></trkpt><trkpt lat="36.91212066336818" lon="-108.09426940086371"><ele>1917.6</ele><time>2026-04-02T22:57:25.999Z</time></trkpt><trkpt lat="36.912187674194" lon="-108.09416019579722"><ele>1916.4</ele><time>2026-04-02T22:57:27.999Z</time></trkpt><trkpt lat="36.91221456738144" lon="-108.09404706894799"><ele>1915.2</ele><time>2026-04-02T22:57:28.999Z</time></trkpt><trkpt lat="36.91224862924779" lon="-108.09392194317269"><ele>1914.0</ele><time>2026-04-02T22:57:29.999Z</time></trkpt><trkpt lat="36.912279233367386" lon="-108.09381593008052"><ele>1914.0</ele><time>2026-04-02T22:57:30.999Z</time></trkpt><trkpt lat="36.912291174243215" lon="-108.09369417673722"><ele>1914.0</ele><time>2026-04-02T22:57:31.999Z</time></trkpt><trkpt lat="36.91230305992581" lon="-108.09356989598237"><ele>1914.0</ele><time>2026-04-02T22:57:32.999Z</time></trkpt><trkpt lat="36.91230948043631" lon="-108.0934593855985"><ele>1914.0</ele><time>2026-04-02T22:57:33.999Z</time></trkpt><trkpt lat="36.91230788449791" lon="-108.09334757923605"><ele>1914.0</ele><time>2026-04-02T22:57:34.999Z</time></trkpt><trkpt lat="36.912297709897686" lon="-108.09324692084391"><ele>1914.0</ele><time>2026-04-02T22:57:35.999Z</time></trkpt><trkpt lat="36.9122884014502" lon="-108.09315401529949"><ele>1914.0</ele><time>2026-04-02T22:57:36.999Z</time></trkpt><trkpt lat="36.91228719670193" lon="-108.09305526482242"><ele>1914.0</ele><time>2026-04-02T22:57:37.999Z</time></trkpt><trkpt lat="36.912297104604406" lon="-108.09295377837286"><ele>1914.0</ele><time>2026-04-02T22:57:38.999Z</time></trkpt><trkpt lat="36.91229213270887" lon="-108.09285819295276"><ele>1914.0</ele><time>2026-04-02T22:57:39.999Z</time></trkpt><trkpt lat="36.91228090909787" lon="-108.09276921633322"><ele>1914.0</ele><time>2026-04-02T22:57:40.999Z</time></trkpt><trkpt lat="36.912277342252324" lon="-108.09268066800922"><ele>1914.0</ele><time>2026-04-02T22:57:41.999Z</time></trkpt><trkpt lat="36.9122853128007" lon="-108.09258550027627"><ele>1914.0</ele><time>2026-04-02T22:57:42.999Z</time></trkpt><trkpt lat="36.91228600815817" lon="-108.0924816047709"><ele>1914.0</ele><time>2026-04-02T22:57:43.999Z</time></trkpt><trkpt lat="36.91229670418706" lon="-108.09238161311444"><ele>1914.0</ele><time>2026-04-02T22:57:44.999Z</time></trkpt><trkpt lat="36.912315216756284" lon="-108.09229706552624"><ele>1914.0</ele><time>2026-04-02T22:57:45.999Z</time></trkpt><trkpt lat="36.91236586291122" lon="-108.09220494952378"><ele>1914.0</ele><time>2026-04-02T22:57:46.999Z</time></trkpt><trkpt lat="36.91241434546693" lon="-108.0921208217075"><ele>1914.6</ele><time>2026-04-02T22:57:47.999Z</time></trkpt><trkpt lat="36.91243696492276" lon="-108.09202563895701"><ele>1915.2</ele><time>2026-04-02T22:57:48.999Z</time></trkpt><trkpt lat="36.91245581083347" lon="-108.09190849950046"><ele>1915.7999999999997</ele><time>2026-04-02T22:57:49.999Z</time></trkpt><trkpt lat="36.91248104894286" lon="-108.09176579324152"><ele>1916.3999999999999</ele><time>2026-04-02T22:57:50.999Z</time></trkpt><trkpt lat="36.91249188527959" lon="-108.0915994841887"><ele>1917.0</ele><time>2026-04-02T22:57:51.999Z</time></trkpt><trkpt lat="36.91249332816962" lon="-108.09151676033218"><ele>1917.1999999999998</ele><time>2026-04-02T22:57:52.999Z</time></trkpt><trkpt lat="36.91250099856921" lon="-108.09142441341754"><ele>1917.3999999999999</ele><time>2026-04-02T22:57:53.999Z</time></trkpt><trkpt lat="36.9125375252385" lon="-108.09130183184"><ele>1917.6000000000001</ele><time>2026-04-02T22:57:54.999Z</time></trkpt><trkpt lat="36.91257205865257" lon="-108.09119827205411"><ele>1917.8000000000002</ele><time>2026-04-02T22:57:55.999Z</time></trkpt><trkpt lat="36.91260520681159" lon="-108.09107353433691"><ele>1918.0</ele><time>2026-04-02T22:57:56.999Z</time></trkpt><trkpt lat="36.912625393822715" lon="-108.09095430059796"><ele>1917.6666666666667</ele><time>2026-04-02T22:57:57.999Z</time></trkpt><trkpt lat="36.912661614390615" lon="-108.0908821852"><ele>1917.3333333333335</ele><time>2026-04-02T22:57:58.999Z</time></trkpt><trkpt lat="36.91269103552583" lon="-108.09077129162387"><ele>1917.0</ele><time>2026-04-02T22:57:59.999Z</time></trkpt><trkpt lat="36.912691707297014" lon="-108.09066358006848"><ele>1916.6666666666665</ele><time>2026-04-02T22:58:00.999Z</time></trkpt><trkpt lat="36.912666565136284" lon="-108.09058473488899"><ele>1916.3333333333333</ele><time>2026-04-02T22:58:01.999Z</time></trkpt><trkpt lat="36.91266451742907" lon="-108.09050530509738"><ele>1916.0</ele><time>2026-04-02T22:58:02.999Z</time></trkpt><trkpt lat="36.91268481438424" lon="-108.09038399543054"><ele>1916.0</ele><time>2026-04-02T22:58:04.999Z</time></trkpt><trkpt lat="36.91267379139582" lon="-108.09025938338372"><ele>1916.0</ele><time>2026-04-02T22:58:06.999Z</time></trkpt><trkpt lat="36.91263512041091" lon="-108.09019120081734"><ele>1916.0</ele><time>2026-04-02T22:58:09.999Z</time></trkpt><trkpt lat="36.91257212257979" lon="-108.09010501145833"><ele>1916.0</ele><time>2026-04-02T22:58:12.999Z</time></trkpt><trkpt lat="36.91246915118188" lon="-108.09001420425406"><ele>1916.0</ele><time>2026-04-02T22:58:13.999Z</time></trkpt><trkpt lat="36.9123947328091" lon="-108.08994747484802"><ele>1916.5</ele><time>2026-04-02T22:58:14.999Z</time></trkpt><trkpt lat="36.91229537062913" lon="-108.0898908601259"><ele>1917.0</ele><time>2026-04-02T22:58:15.999Z</time></trkpt><trkpt lat="36.912203500308856" lon="-108.08980959507227"><ele>1917.5</ele><time>2026-04-02T22:58:16.999Z</time></trkpt><trkpt lat="36.912122186446396" lon="-108.0897167210783"><ele>1918.0</ele><time>2026-04-02T22:58:17.999Z</time></trkpt><trkpt lat="36.91200676874531" lon="-108.08961610094676"><ele>1918.0</ele><time>2026-04-02T22:58:18.999Z</time></trkpt><trkpt lat="36.91190429293025" lon="-108.08953184395412"><ele>1918.0000000000002</ele><time>2026-04-02T22:58:19.999Z</time></trkpt><trkpt lat="36.911773942821995" lon="-108.08949018576"><ele>1918.0000000000002</ele><time>2026-04-02T22:58:20.999Z</time></trkpt><trkpt lat="36.91167459588439" lon="-108.08944383704142"><ele>1918.0</ele><time>2026-04-02T22:58:21.999Z</time></trkpt><trkpt lat="36.91161872257559" lon="-108.08938076977117"><ele>1918.0</ele><time>2026-04-02T22:58:22.999Z</time></trkpt><trkpt lat="36.911572505045505" lon="-108.08931271288995"><ele>1917.6000000000001</ele><time>2026-04-02T22:58:23.999Z</time></trkpt><trkpt lat="36.91151025779734" lon="-108.08922681421267"><ele>1917.2000000000003</ele><time>2026-04-02T22:58:24.999Z</time></trkpt><trkpt lat="36.91143474294599" lon="-108.08915360900441"><ele>1916.8</ele><time>2026-04-02T22:58:25.999Z</time></trkpt><trkpt lat="36.9113503222391" lon="-108.08910161377237"><ele>1916.4</ele><time>2026-04-02T22:58:26.999Z</time></trkpt><trkpt lat="36.91125972006671" lon="-108.08905620859733"><ele>1916.0</ele><time>2026-04-02T22:58:27.999Z</time></trkpt><trkpt lat="36.911168988986184" lon="-108.08900761764211"><ele>1915.0</ele><time>2026-04-02T22:58:28.999Z</time></trkpt><trkpt lat="36.91110384488262" lon="-108.08893172405536"><ele>1914.0</ele><time>2026-04-02T22:58:29.999Z</time></trkpt><trkpt lat="36.91104281935472" lon="-108.08886023018597"><ele>1913.0</ele><time>2026-04-02T22:58:30.999Z</time></trkpt><trkpt lat="36.91106509216193" lon="-108.08872210856221"><ele>1912.0</ele><time>2026-04-02T22:58:32.999Z</time></trkpt><trkpt lat="36.91107184655568" lon="-108.08859729834143"><ele>1911.0</ele><time>2026-04-02T22:58:33.999Z</time></trkpt><trkpt lat="36.91106554328158" lon="-108.08847419038887"><ele>1911.0</ele><time>2026-04-02T22:58:34.999Z</time></trkpt><trkpt lat="36.91104868690097" lon="-108.08835414255554"><ele>1911.0</ele><time>2026-04-02T22:58:35.999Z</time></trkpt><trkpt lat="36.91101849473253" lon="-108.08821847168981"><ele>1911.0</ele><time>2026-04-02T22:58:36.999Z</time></trkpt><trkpt lat="36.9109814775917" lon="-108.08810942269717"><ele>1911.0</ele><time>2026-04-02T22:58:37.999Z</time></trkpt><trkpt lat="36.91093645919848" lon="-108.08799550282247"><ele>1911.0</ele><time>2026-04-02T22:58:38.999Z</time></trkpt><trkpt lat="36.91089525731496" lon="-108.08791470906316"><ele>1909.8333333333333</ele><time>2026-04-02T22:58:39.999Z</time></trkpt><trkpt lat="36.9108331725624" lon="-108.0878741032545"><ele>1908.6666666666665</ele><time>2026-04-02T22:58:40.999Z</time></trkpt><trkpt lat="36.91075135268283" lon="-108.08781991064792"><ele>1907.5</ele><time>2026-04-02T22:58:41.999Z</time></trkpt><trkpt lat="36.91068704448852" lon="-108.0877700201518"><ele>1906.3333333333333</ele><time>2026-04-02T22:58:42.999Z</time></trkpt><trkpt lat="36.91064644029761" lon="-108.08770598309755"><ele>1905.1666666666665</ele><time>2026-04-02T22:58:43.999Z</time></trkpt><trkpt lat="36.91060738465524" lon="-108.08762447946818"><ele>1904.0</ele><time>2026-04-02T22:58:44.999Z</time></trkpt><trkpt lat="36.91053446393902" lon="-108.08754089705154"><ele>1904.0</ele><time>2026-04-02T22:58:46.999Z</time></trkpt><trkpt lat="36.910505852409614" lon="-108.08743750011656"><ele>1904.0</ele><time>2026-04-02T22:58:48.999Z</time></trkpt><trkpt lat="36.910466373602915" lon="-108.0872983408581"><ele>1904.0</ele><time>2026-04-02T22:58:49.999Z</time></trkpt><trkpt lat="36.9104245959518" lon="-108.08719089687182"><ele>1904.0</ele><time>2026-04-02T22:58:50.999Z</time></trkpt><trkpt lat="36.91038741564227" lon="-108.08710207981154"><ele>1904.0</ele><time>2026-04-02T22:58:51.999Z</time></trkpt><trkpt lat="36.91034565876102" lon="-108.08702095021442"><ele>1902.8000000000002</ele><time>2026-04-02T22:58:52.999Z</time></trkpt><trkpt lat="36.91030492870971" lon="-108.08695411308615"><ele>1901.6000000000001</ele><time>2026-04-02T22:58:53.999Z</time></trkpt><trkpt lat="36.91019132970344" lon="-108.0868877803543"><ele>1900.4</ele><time>2026-04-02T22:58:55.999Z</time></trkpt><trkpt lat="36.91008127731501" lon="-108.08689507966848"><ele>1899.2</ele><time>2026-04-02T22:58:56.999Z</time></trkpt><trkpt lat="36.90993626092553" lon="-108.08690918392412"><ele>1898.0</ele><time>2026-04-02T22:58:57.999Z</time></trkpt><trkpt lat="36.90980122381546" lon="-108.08692574364308"><ele>1897.2</ele><time>2026-04-02T22:58:58.999Z</time></trkpt><trkpt lat="36.90971411911257" lon="-108.08691942104856"><ele>1896.4</ele><time>2026-04-02T22:58:59.999Z</time></trkpt><trkpt lat="36.90961860684595" lon="-108.08691281142409"><ele>1895.6000000000001</ele><time>2026-04-02T22:59:00.999Z</time></trkpt><trkpt lat="36.90952936334235" lon="-108.08691189692202"><ele>1894.8000000000002</ele><time>2026-04-02T22:59:01.999Z</time></trkpt><trkpt lat="36.909431592817" lon="-108.08690026388656"><ele>1894.0</ele><time>2026-04-02T22:59:02.999Z</time></trkpt><trkpt lat="36.909316458436514" lon="-108.08684767363135"><ele>1894.0000000000002</ele><time>2026-04-02T22:59:03.999Z</time></trkpt><trkpt lat="36.909252955701554" lon="-108.0867774136834"><ele>1894.0</ele><time>2026-04-02T22:59:04.999Z</time></trkpt><trkpt lat="36.909181077038205" lon="-108.08674699396003"><ele>1894.0</ele><time>2026-04-02T22:59:05.999Z</time></trkpt><trkpt lat="36.909114191722466" lon="-108.08673894546168"><ele>1894.0</ele><time>2026-04-02T22:59:06.999Z</time></trkpt><trkpt lat="36.90905104485953" lon="-108.08673151038067"><ele>1894.0000000000002</ele><time>2026-04-02T22:59:07.999Z</time></trkpt><trkpt lat="36.9089915502589" lon="-108.08667088378853"><ele>1894.0</ele><time>2026-04-02T22:59:08.999Z</time></trkpt><trkpt lat="36.908859273704806" lon="-108.08663584431038"><ele>1892.4</ele><time>2026-04-02T22:59:10.999Z</time></trkpt><trkpt lat="36.90877257518585" lon="-108.08662638384762"><ele>1890.8000000000002</ele><time>2026-04-02T22:59:11.999Z</time></trkpt><trkpt lat="36.90870020178933" lon="-108.08662499920659"><ele>1889.1999999999998</ele><time>2026-04-02T22:59:12.999Z</time></trkpt><trkpt lat="36.90863007864533" lon="-108.08658347235604"><ele>1887.6</ele><time>2026-04-02T22:59:14.999Z</time></trkpt><trkpt lat="36.908566735275244" lon="-108.08653257891731"><ele>1886.0</ele><time>2026-04-02T22:59:21.999Z</time></trkpt><trkpt lat="36.90841651119545" lon="-108.08659690943855"><ele>1885.0</ele><time>2026-04-02T22:59:24.999Z</time></trkpt><trkpt lat="36.90824656810815" lon="-108.08661814429215"><ele>1884.0</ele><time>2026-04-02T22:59:25.999Z</time></trkpt><trkpt lat="36.90815377875437" lon="-108.08664453630303"><ele>1883.0</ele><time>2026-04-02T22:59:26.999Z</time></trkpt><trkpt lat="36.908050661496446" lon="-108.08667939223632"><ele>1882.0</ele><time>2026-04-02T22:59:27.999Z</time></trkpt><trkpt lat="36.90796897446003" lon="-108.08668552974571"><ele>1882.0</ele><time>2026-04-02T22:59:28.999Z</time></trkpt><trkpt lat="36.90789784561334" lon="-108.08665823068775"><ele>1881.9999999999998</ele><time>2026-04-02T22:59:29.999Z</time></trkpt><trkpt lat="36.907798930568305" lon="-108.08660104092685"><ele>1881.9999999999998</ele><time>2026-04-02T22:59:30.999Z</time></trkpt><trkpt lat="36.90770111695126" lon="-108.08653816046315"><ele>1882.0</ele><time>2026-04-02T22:59:31.999Z</time></trkpt><trkpt lat="36.90758283205802" lon="-108.08646389411078"><ele>1882.0</ele><time>2026-04-02T22:59:32.999Z</time></trkpt><trkpt lat="36.90747472416501" lon="-108.08639178734228"><ele>1881.1666666666667</ele><time>2026-04-02T22:59:33.999Z</time></trkpt><trkpt lat="36.90738754601403" lon="-108.08633006667525"><ele>1880.3333333333335</ele><time>2026-04-02T22:59:34.999Z</time></trkpt><trkpt lat="36.907303096475836" lon="-108.0862676628935"><ele>1879.5</ele><time>2026-04-02T22:59:35.999Z</time></trkpt><trkpt lat="36.907239140330354" lon="-108.08620770207123"><ele>1878.6666666666665</ele><time>2026-04-02T22:59:36.999Z</time></trkpt><trkpt lat="36.907184962290835" lon="-108.08615247641177"><ele>1877.8333333333333</ele><time>2026-04-02T22:59:37.999Z</time></trkpt><trkpt lat="36.90708803238868" lon="-108.08615513348596"><ele>1877.0</ele><time>2026-04-02T22:59:40.999Z</time></trkpt><trkpt lat="36.906951997185374" lon="-108.08622343269742"><ele>1877.0</ele><time>2026-04-02T22:59:42.999Z</time></trkpt><trkpt lat="36.906853858308544" lon="-108.08630521375873"><ele>1877.0</ele><time>2026-04-02T22:59:43.999Z</time></trkpt><trkpt lat="36.90677422664317" lon="-108.08640399598687"><ele>1877.0</ele><time>2026-04-02T22:59:44.999Z</time></trkpt><trkpt lat="36.90669070240061" lon="-108.08646204772802"><ele>1877.0</ele><time>2026-04-02T22:59:45.999Z</time></trkpt><trkpt lat="36.90656279101981" lon="-108.08658611813958"><ele>1876.6666666666665</ele><time>2026-04-02T22:59:46.999Z</time></trkpt><trkpt lat="36.90643202501656" lon="-108.08671188565916"><ele>1876.3333333333335</ele><time>2026-04-02T22:59:47.999Z</time></trkpt><trkpt lat="36.906294953613084" lon="-108.08684775736393"><ele>1876.0</ele><time>2026-04-02T22:59:48.999Z</time></trkpt><trkpt lat="36.90614878755625" lon="-108.08698928968603"><ele>1876.0</ele><time>2026-04-02T22:59:49.999Z</time></trkpt><trkpt lat="36.906009536373745" lon="-108.08712764061859"><ele>1876.0</ele><time>2026-04-02T22:59:50.999Z</time></trkpt><trkpt lat="36.90588999807949" lon="-108.087256901179"><ele>1876.0</ele><time>2026-04-02T22:59:51.999Z</time></trkpt><trkpt lat="36.90578535199948" lon="-108.08737217616122"><ele>1875.5</ele><time>2026-04-02T22:59:52.999Z</time></trkpt><trkpt lat="36.90566559082719" lon="-108.0874951446926"><ele>1875.0</ele><time>2026-04-02T22:59:53.999Z</time></trkpt><trkpt lat="36.90555755252825" lon="-108.08761374949822"><ele>1874.5</ele><time>2026-04-02T22:59:54.999Z</time></trkpt><trkpt lat="36.905452045612776" lon="-108.08774472414267"><ele>1874.0</ele><time>2026-04-02T22:59:55.999Z</time></trkpt><trkpt lat="36.90534130343497" lon="-108.08789146384834"><ele>1874.0</ele><time>2026-04-02T22:59:56.999Z</time></trkpt><trkpt lat="36.90523550234389" lon="-108.08804935675127"><ele>1874.0</ele><time>2026-04-02T22:59:57.999Z</time></trkpt><trkpt lat="36.90514043850612" lon="-108.08820855839825"><ele>1874.0</ele><time>2026-04-02T22:59:58.999Z</time></trkpt><trkpt lat="36.90504685281575" lon="-108.08837675712572"><ele>1874.0</ele><time>2026-04-02T22:59:59.999Z</time></trkpt><trkpt lat="36.90495654492431" lon="-108.08855556567497"><ele>1874.0</ele><time>2026-04-02T23:00:00.999Z</time></trkpt><trkpt lat="36.904866882570296" lon="-108.08873436414414"><ele>1874.0</ele><time>2026-04-02T23:00:01.999Z</time></trkpt><trkpt lat="36.904783878879854" lon="-108.08890182711066"><ele>1874.0</ele><time>2026-04-02T23:00:02.999Z</time></trkpt><trkpt lat="36.904704611824414" lon="-108.08906215464268"><ele>1874.0</ele><time>2026-04-02T23:00:03.999Z</time></trkpt><trkpt lat="36.904621329625776" lon="-108.08923689624294"><ele>1874.0</ele><time>2026-04-02T23:00:04.999Z</time></trkpt><trkpt lat="36.90453760907582" lon="-108.08940908832707"><ele>1873.3333333333333</ele><time>2026-04-02T23:00:05.999Z</time></trkpt><trkpt lat="36.90446083072564" lon="-108.0895644439402"><ele>1872.6666666666665</ele><time>2026-04-02T23:00:06.999Z</time></trkpt><trkpt lat="36.904381139844396" lon="-108.08972248336897"><ele>1872.0</ele><time>2026-04-02T23:00:07.999Z</time></trkpt><trkpt lat="36.904297506156865" lon="-108.08989638355565"><ele>1871.3333333333335</ele><time>2026-04-02T23:00:08.999Z</time></trkpt><trkpt lat="36.90421279020301" lon="-108.09007863638699"><ele>1870.6666666666667</ele><time>2026-04-02T23:00:09.999Z</time></trkpt><trkpt lat="36.904126747874464" lon="-108.090266894044"><ele>1870.0</ele><time>2026-04-02T23:00:10.999Z</time></trkpt><trkpt lat="36.90404122798982" lon="-108.09045946125353"><ele>1870.0</ele><time>2026-04-02T23:00:11.999Z</time></trkpt><trkpt lat="36.90394968932513" lon="-108.0906492267046"><ele>1870.0</ele><time>2026-04-02T23:00:12.999Z</time></trkpt><trkpt lat="36.90385169639123" lon="-108.09083680521232"><ele>1870.0</ele><time>2026-04-02T23:00:13.999Z</time></trkpt><trkpt lat="36.90376629454676" lon="-108.09102250167092"><ele>1870.0</ele><time>2026-04-02T23:00:14.999Z</time></trkpt><trkpt lat="36.90369142467312" lon="-108.09118482121379"><ele>1870.0</ele><time>2026-04-02T23:00:15.999Z</time></trkpt><trkpt lat="36.903597828035025" lon="-108.09136925463073"><ele>1870.0</ele><time>2026-04-02T23:00:16.999Z</time></trkpt><trkpt lat="36.903515335729075" lon="-108.0915576178477"><ele>1870.0</ele><time>2026-04-02T23:00:17.999Z</time></trkpt><trkpt lat="36.90343609958343" lon="-108.0917294964067"><ele>1870.0</ele><time>2026-04-02T23:00:18.999Z</time></trkpt><trkpt lat="36.90337306874058" lon="-108.0918688808204"><ele>1870.0</ele><time>2026-04-02T23:00:19.999Z</time></trkpt><trkpt lat="36.90331777160464" lon="-108.09199456310486"><ele>1870.0</ele><time>2026-04-02T23:00:20.999Z</time></trkpt><trkpt lat="36.90325997589126" lon="-108.09212305954406"><ele>1869.75</ele><time>2026-04-02T23:00:21.999Z</time></trkpt><trkpt lat="36.903201134133134" lon="-108.09225500447353"><ele>1869.5</ele><time>2026-04-02T23:00:23Z</time></trkpt><trkpt lat="36.90315116041743" lon="-108.09237639648012"><ele>1869.25</ele><time>2026-04-02T23:00:24Z</time></trkpt><trkpt lat="36.903098948412044" lon="-108.09249364392178"><ele>1869.0</ele><time>2026-04-02T23:00:25Z</time></trkpt><trkpt lat="36.90303494641881" lon="-108.09261767368353"><ele>1869.0</ele><time>2026-04-02T23:00:26Z</time></trkpt><trkpt lat="36.90296396723303" lon="-108.09275274137916"><ele>1869.0</ele><time>2026-04-02T23:00:27Z</time></trkpt><trkpt lat="36.902890938942384" lon="-108.09290030831734"><ele>1869.0</ele><time>2026-04-02T23:00:28Z</time></trkpt><trkpt lat="36.90281502822138" lon="-108.09305397095574"><ele>1869.0</ele><time>2026-04-02T23:00:29Z</time></trkpt><trkpt lat="36.902734526288086" lon="-108.09321594711915"><ele>1868.6666666666665</ele><time>2026-04-02T23:00:30Z</time></trkpt><trkpt lat="36.90265461861392" lon="-108.09337468986098"><ele>1868.3333333333333</ele><time>2026-04-02T23:00:31Z</time></trkpt><trkpt lat="36.90257196016281" lon="-108.09353662760846"><ele>1868.0</ele><time>2026-04-02T23:00:32Z</time></trkpt><trkpt lat="36.90248362105639" lon="-108.09370705380202"><ele>1868.0</ele><time>2026-04-02T23:00:33Z</time></trkpt><trkpt lat="36.902399804374895" lon="-108.093877465491"><ele>1868.0</ele><time>2026-04-02T23:00:34Z</time></trkpt><trkpt lat="36.902321496953924" lon="-108.09403915618638"><ele>1868.0</ele><time>2026-04-02T23:00:35Z</time></trkpt><trkpt lat="36.90224635783447" lon="-108.09419030798104"><ele>1868.5</ele><time>2026-04-02T23:00:36Z</time></trkpt><trkpt lat="36.90217240864696" lon="-108.09434060156781"><ele>1869.0</ele><time>2026-04-02T23:00:37Z</time></trkpt><trkpt lat="36.90209244923031" lon="-108.09449730388882"><ele>1869.5</ele><time>2026-04-02T23:00:37.999Z</time></trkpt><trkpt lat="36.90200624100201" lon="-108.09465846363692"><ele>1870.0</ele><time>2026-04-02T23:00:39Z</time></trkpt><trkpt lat="36.90192397629979" lon="-108.09481854474483"><ele>1869.5</ele><time>2026-04-02T23:00:39.999Z</time></trkpt><trkpt lat="36.90185438342448" lon="-108.09495446814753"><ele>1869.0</ele><time>2026-04-02T23:00:40.999Z</time></trkpt><trkpt lat="36.9017886682592" lon="-108.09508560694596"><ele>1868.5</ele><time>2026-04-02T23:00:41.999Z</time></trkpt><trkpt lat="36.90171963113463" lon="-108.09523204298038"><ele>1868.0</ele><time>2026-04-02T23:00:42.999Z</time></trkpt><trkpt lat="36.901646700508046" lon="-108.09539309732942"><ele>1868.0</ele><time>2026-04-02T23:00:43.999Z</time></trkpt><trkpt lat="36.90156976659967" lon="-108.09555822799453"><ele>1868.0</ele><time>2026-04-02T23:00:44.999Z</time></trkpt><trkpt lat="36.90149812281599" lon="-108.09572627120845"><ele>1868.0</ele><time>2026-04-02T23:00:45.999Z</time></trkpt><trkpt lat="36.90142686686019" lon="-108.09590215940143"><ele>1868.0</ele><time>2026-04-02T23:00:46.999Z</time></trkpt><trkpt lat="36.901356285510815" lon="-108.09607069058434"><ele>1868.0</ele><time>2026-04-02T23:00:47.999Z</time></trkpt><trkpt lat="36.90128908688212" lon="-108.096222419085"><ele>1868.0</ele><time>2026-04-02T23:00:48.999Z</time></trkpt><trkpt lat="36.9012342846606" lon="-108.09634868144633"><ele>1868.0</ele><time>2026-04-02T23:00:49.999Z</time></trkpt><trkpt lat="36.901182059684075" lon="-108.09645430979815"><ele>1868.0</ele><time>2026-04-02T23:00:50.999Z</time></trkpt><trkpt lat="36.90113707263746" lon="-108.09654357449973"><ele>1868.0000000000002</ele><time>2026-04-02T23:00:51.999Z</time></trkpt><trkpt lat="36.90109448660032" lon="-108.09662145305079"><ele>1868.0000000000002</ele><time>2026-04-02T23:00:52.999Z</time></trkpt><trkpt lat="36.90104647381231" lon="-108.09670409744429"><ele>1868.0</ele><time>2026-04-02T23:00:53.999Z</time></trkpt><trkpt lat="36.90098569556489" lon="-108.09679946880416"><ele>1868.0</ele><time>2026-04-02T23:00:54.999Z</time></trkpt><trkpt lat="36.90090496429564" lon="-108.09691241842809"><ele>1867.75</ele><time>2026-04-02T23:00:55.999Z</time></trkpt><trkpt lat="36.900807823352196" lon="-108.09703620578001"><ele>1867.5</ele><time>2026-04-02T23:00:56.999Z</time></trkpt><trkpt lat="36.90070069070861" lon="-108.09717334594303"><ele>1867.25</ele><time>2026-04-02T23:00:57.999Z</time></trkpt><trkpt lat="36.900593921372874" lon="-108.09731102995207"><ele>1867.0</ele><time>2026-04-02T23:00:58.999Z</time></trkpt><trkpt lat="36.90048809499936" lon="-108.09745705531876"><ele>1867.0</ele><time>2026-04-02T23:00:59.999Z</time></trkpt><trkpt lat="36.9003781719325" lon="-108.09761170074108"><ele>1867.0</ele><time>2026-04-02T23:01:00.999Z</time></trkpt><trkpt lat="36.900266072029225" lon="-108.09776626108874"><ele>1867.0</ele><time>2026-04-02T23:01:01.999Z</time></trkpt><trkpt lat="36.900166351460285" lon="-108.09790391010353"><ele>1866.0</ele><time>2026-04-02T23:01:02.999Z</time></trkpt><trkpt lat="36.90006747298266" lon="-108.09804078231895"><ele>1865.0</ele><time>2026-04-02T23:01:03.999Z</time></trkpt><trkpt lat="36.89995832676664" lon="-108.09819081006707"><ele>1864.0</ele><time>2026-04-02T23:01:04.999Z</time></trkpt><trkpt lat="36.89984059449805" lon="-108.09835303123097"><ele>1863.3333333333335</ele><time>2026-04-02T23:01:05.999Z</time></trkpt><trkpt lat="36.89972044167252" lon="-108.09852141899417"><ele>1862.6666666666665</ele><time>2026-04-02T23:01:06.999Z</time></trkpt><trkpt lat="36.89960657850805" lon="-108.09868532075362"><ele>1862.0</ele><time>2026-04-02T23:01:07.999Z</time></trkpt><trkpt lat="36.899505044064156" lon="-108.09883751762695"><ele>1862.0</ele><time>2026-04-02T23:01:08.999Z</time></trkpt><trkpt lat="36.899400907531025" lon="-108.09898780533561"><ele>1862.0</ele><time>2026-04-02T23:01:09.999Z</time></trkpt><trkpt lat="36.89928924491309" lon="-108.09913812085807"><ele>1862.0</ele><time>2026-04-02T23:01:10.999Z</time></trkpt><trkpt lat="36.89916938875147" lon="-108.09929518093915"><ele>1861.6666666666665</ele><time>2026-04-02T23:01:11.999Z</time></trkpt><trkpt lat="36.8990490522345" lon="-108.09945856305681"><ele>1861.3333333333335</ele><time>2026-04-02T23:01:12.999Z</time></trkpt><trkpt lat="36.89892721133729" lon="-108.09962591651257"><ele>1861.0</ele><time>2026-04-02T23:01:13.999Z</time></trkpt><trkpt lat="36.89880420997306" lon="-108.09979077285534"><ele>1861.3333333333335</ele><time>2026-04-02T23:01:14.999Z</time></trkpt><trkpt lat="36.898685487860824" lon="-108.09995500162981"><ele>1861.6666666666665</ele><time>2026-04-02T23:01:15.999Z</time></trkpt><trkpt lat="36.89857955588233" lon="-108.1000971237831"><ele>1862.0</ele><time>2026-04-02T23:01:16.999Z</time></trkpt><trkpt lat="36.89848969439749" lon="-108.10021755161901"><ele>1861.75</ele><time>2026-04-02T23:01:17.999Z</time></trkpt><trkpt lat="36.89839245391703" lon="-108.10034179549885"><ele>1861.5</ele><time>2026-04-02T23:01:18.999Z</time></trkpt><trkpt lat="36.89829301599742" lon="-108.10046999921796"><ele>1861.25</ele><time>2026-04-02T23:01:19.999Z</time></trkpt><trkpt lat="36.89823127926398" lon="-108.10064245528797"><ele>1861.0</ele><time>2026-04-02T23:01:20.999Z</time></trkpt><trkpt lat="36.89813217096999" lon="-108.10077281465578"><ele>1861.75</ele><time>2026-04-02T23:01:21.999Z</time></trkpt><trkpt lat="36.898045212920714" lon="-108.10088598703769"><ele>1862.5</ele><time>2026-04-02T23:01:22.999Z</time></trkpt><trkpt lat="36.897960196734466" lon="-108.10099634354093"><ele>1863.25</ele><time>2026-04-02T23:01:23.999Z</time></trkpt><trkpt lat="36.897865552691826" lon="-108.10111919761263"><ele>1864.0</ele><time>2026-04-02T23:01:24.999Z</time></trkpt><trkpt lat="36.89777764646818" lon="-108.10123501657372"><ele>1864.0</ele><time>2026-04-02T23:01:25.999Z</time></trkpt><trkpt lat="36.89769819530739" lon="-108.10133574514977"><ele>1864.0</ele><time>2026-04-02T23:01:26.999Z</time></trkpt><trkpt lat="36.89760038309739" lon="-108.10135755722986"><ele>1864.0</ele><time>2026-04-02T23:01:27.999Z</time></trkpt><trkpt lat="36.89751814225632" lon="-108.10144319959214"><ele>1864.0</ele><time>2026-04-02T23:01:29.999Z</time></trkpt><trkpt lat="36.897454180903374" lon="-108.10149637032832"><ele>1864.0</ele><time>2026-04-02T23:01:31.999Z</time></trkpt><trkpt lat="36.897334302479045" lon="-108.10150015369369"><ele>1864.0</ele><time>2026-04-02T23:01:33.999Z</time></trkpt><trkpt lat="36.89724598408546" lon="-108.10147253086508"><ele>1864.0</ele><time>2026-04-02T23:01:34.999Z</time></trkpt><trkpt lat="36.89713696271346" lon="-108.10142318910643"><ele>1864.0</ele><time>2026-04-02T23:01:35.999Z</time></trkpt><trkpt lat="36.897014654472976" lon="-108.10134971730474"><ele>1864.0</ele><time>2026-04-02T23:01:36.999Z</time></trkpt><trkpt lat="36.896893268362746" lon="-108.10127353827913"><ele>1864.0</ele><time>2026-04-02T23:01:37.999Z</time></trkpt><trkpt lat="36.89678757179692" lon="-108.10120518701902"><ele>1864.0</ele><time>2026-04-02T23:01:38.999Z</time></trkpt><trkpt lat="36.89667941879283" lon="-108.1011255566066"><ele>1864.0</ele><time>2026-04-02T23:01:39.999Z</time></trkpt><trkpt lat="36.8965591493743" lon="-108.1010276813382"><ele>1864.0</ele><time>2026-04-02T23:01:40.999Z</time></trkpt><trkpt lat="36.89643261485187" lon="-108.10092471174649"><ele>1862.75</ele><time>2026-04-02T23:01:41.999Z</time></trkpt><trkpt lat="36.89631532197356" lon="-108.10083624273591"><ele>1861.5</ele><time>2026-04-02T23:01:42.999Z</time></trkpt><trkpt lat="36.89621246171344" lon="-108.10077108142725"><ele>1860.25</ele><time>2026-04-02T23:01:44Z</time></trkpt><trkpt lat="36.8961135714964" lon="-108.10073341089344"><ele>1859.0</ele><time>2026-04-02T23:01:45Z</time></trkpt><trkpt lat="36.89599945961677" lon="-108.10070838692897"><ele>1858.0</ele><time>2026-04-02T23:01:46Z</time></trkpt><trkpt lat="36.895878798072395" lon="-108.1007066838118"><ele>1857.0</ele><time>2026-04-02T23:01:47Z</time></trkpt><trkpt lat="36.895774324761895" lon="-108.10074155483693"><ele>1856.0</ele><time>2026-04-02T23:01:48Z</time></trkpt><trkpt lat="36.89566535089505" lon="-108.10080126119249"><ele>1855.0</ele><time>2026-04-02T23:01:49Z</time></trkpt><trkpt lat="36.895546101409224" lon="-108.10087486889714"><ele>1855.0</ele><time>2026-04-02T23:01:50Z</time></trkpt><trkpt lat="36.8954226829712" lon="-108.10095426438242"><ele>1855.0</ele><time>2026-04-02T23:01:51Z</time></trkpt><trkpt lat="36.89529367695289" lon="-108.10104294997068"><ele>1855.0</ele><time>2026-04-02T23:01:52Z</time></trkpt><trkpt lat="36.89516138573012" lon="-108.10112729423585"><ele>1855.0</ele><time>2026-04-02T23:01:53Z</time></trkpt><trkpt lat="36.89502698474894" lon="-108.10121198770521"><ele>1854.75</ele><time>2026-04-02T23:01:54Z</time></trkpt><trkpt lat="36.89490370664625" lon="-108.10129862311082"><ele>1854.5</ele><time>2026-04-02T23:01:55Z</time></trkpt><trkpt lat="36.89480018505075" lon="-108.10137980955015"><ele>1854.25</ele><time>2026-04-02T23:01:56Z</time></trkpt><trkpt lat="36.894705425126645" lon="-108.10145127954907"><ele>1854.0</ele><time>2026-04-02T23:01:57Z</time></trkpt><trkpt lat="36.894598723601405" lon="-108.10150464115418"><ele>1854.0</ele><time>2026-04-02T23:01:58Z</time></trkpt><trkpt lat="36.894474186237694" lon="-108.10154475331788"><ele>1854.0</ele><time>2026-04-02T23:01:59Z</time></trkpt><trkpt lat="36.89433976039315" lon="-108.10158995241976"><ele>1854.0</ele><time>2026-04-02T23:02:00Z</time></trkpt><trkpt lat="36.89420242370812" lon="-108.10164024975573"><ele>1854.0</ele><time>2026-04-02T23:02:01Z</time></trkpt><trkpt lat="36.89407760127288" lon="-108.10168361030087"><ele>1854.0</ele><time>2026-04-02T23:02:02Z</time></trkpt><trkpt lat="36.89395684186319" lon="-108.10172674057596"><ele>1854.0</ele><time>2026-04-02T23:02:03Z</time></trkpt><trkpt lat="36.89382397770568" lon="-108.10177662351366"><ele>1854.0</ele><time>2026-04-02T23:02:04Z</time></trkpt><trkpt lat="36.89368224086569" lon="-108.10183577424563"><ele>1854.0</ele><time>2026-04-02T23:02:05Z</time></trkpt><trkpt lat="36.89353658788687" lon="-108.10189603373281"><ele>1854.0</ele><time>2026-04-02T23:02:06Z</time></trkpt><trkpt lat="36.89339258207375" lon="-108.10195802289957"><ele>1854.0</ele><time>2026-04-02T23:02:07Z</time></trkpt><trkpt lat="36.8932634222302" lon="-108.10202585847034"><ele>1854.0</ele><time>2026-04-02T23:02:08Z</time></trkpt><trkpt lat="36.89314947256776" lon="-108.10209712042145"><ele>1854.0</ele><time>2026-04-02T23:02:09Z</time></trkpt><trkpt lat="36.89302486142158" lon="-108.10218021251306"><ele>1854.0</ele><time>2026-04-02T23:02:10Z</time></trkpt><trkpt lat="36.89289750825625" lon="-108.10227965926687"><ele>1854.0</ele><time>2026-04-02T23:02:11Z</time></trkpt><trkpt lat="36.89276834022837" lon="-108.10238810244209"><ele>1854.0</ele><time>2026-04-02T23:02:12Z</time></trkpt><trkpt lat="36.892640787192114" lon="-108.1024974902778"><ele>1854.0</ele><time>2026-04-02T23:02:13Z</time></trkpt><trkpt lat="36.8925327278824" lon="-108.1025887317735"><ele>1854.0</ele><time>2026-04-02T23:02:14Z</time></trkpt><trkpt lat="36.892436548093144" lon="-108.10266541266309"><ele>1854.0</ele><time>2026-04-02T23:02:15Z</time></trkpt><trkpt lat="36.89234234771874" lon="-108.10273573501922"><ele>1854.0</ele><time>2026-04-02T23:02:16Z</time></trkpt><trkpt lat="36.892234997325644" lon="-108.10280569797223"><ele>1854.0</ele><time>2026-04-02T23:02:17Z</time></trkpt><trkpt lat="36.892138013815305" lon="-108.10286515053076"><ele>1854.0</ele><time>2026-04-02T23:02:18Z</time></trkpt><trkpt lat="36.89205192155803" lon="-108.10291877852221"><ele>1854.0</ele><time>2026-04-02T23:02:19Z</time></trkpt><trkpt lat="36.891959602706315" lon="-108.10297294457119"><ele>1854.0</ele><time>2026-04-02T23:02:20Z</time></trkpt><trkpt lat="36.891847500861516" lon="-108.10303270368054"><ele>1854.0</ele><time>2026-04-02T23:02:21Z</time></trkpt><trkpt lat="36.891731294821" lon="-108.1030781843452"><ele>1853.8000000000002</ele><time>2026-04-02T23:02:22Z</time></trkpt><trkpt lat="36.89162217398269" lon="-108.10309450780595"><ele>1853.6000000000001</ele><time>2026-04-02T23:02:23Z</time></trkpt><trkpt lat="36.891519188524306" lon="-108.10308410292757"><ele>1853.4</ele><time>2026-04-02T23:02:24Z</time></trkpt><trkpt lat="36.891424214888055" lon="-108.10304751986781"><ele>1853.2</ele><time>2026-04-02T23:02:25Z</time></trkpt><trkpt lat="36.891323391621086" lon="-108.10298000693567"><ele>1853.0</ele><time>2026-04-02T23:02:26Z</time></trkpt><trkpt lat="36.89120631137876" lon="-108.10291243635506"><ele>1853.0</ele><time>2026-04-02T23:02:27Z</time></trkpt><trkpt lat="36.891083696413446" lon="-108.10286051136814"><ele>1853.0</ele><time>2026-04-02T23:02:28Z</time></trkpt><trkpt lat="36.89097030967202" lon="-108.10282635824348"><ele>1853.0</ele><time>2026-04-02T23:02:29Z</time></trkpt><trkpt lat="36.890853403916786" lon="-108.10281060201966"><ele>1853.0</ele><time>2026-04-02T23:02:30Z</time></trkpt><trkpt lat="36.89070913184076" lon="-108.1028049014216"><ele>1852.3333333333333</ele><time>2026-04-02T23:02:31Z</time></trkpt><trkpt lat="36.890552200515394" lon="-108.10281108056712"><ele>1851.6666666666665</ele><time>2026-04-02T23:02:32Z</time></trkpt><trkpt lat="36.89040581226799" lon="-108.10284091556672"><ele>1851.0</ele><time>2026-04-02T23:02:33Z</time></trkpt><trkpt lat="36.890260967668105" lon="-108.10288989022013"><ele>1851.0</ele><time>2026-04-02T23:02:34Z</time></trkpt><trkpt lat="36.89011657828569" lon="-108.10294662100165"><ele>1851.0</ele><time>2026-04-02T23:02:35Z</time></trkpt><trkpt lat="36.88999550625665" lon="-108.10300521954935"><ele>1851.0</ele><time>2026-04-02T23:02:36Z</time></trkpt><trkpt lat="36.88988902361533" lon="-108.10304746101464"><ele>1851.0</ele><time>2026-04-02T23:02:37Z</time></trkpt><trkpt lat="36.88977141203347" lon="-108.10307882292993"><ele>1851.0</ele><time>2026-04-02T23:02:38Z</time></trkpt><trkpt lat="36.88963567678524" lon="-108.10311361020305"><ele>1851.0</ele><time>2026-04-02T23:02:39Z</time></trkpt><trkpt lat="36.889488254078955" lon="-108.10315291858855"><ele>1851.0</ele><time>2026-04-02T23:02:40Z</time></trkpt><trkpt lat="36.88933680042231" lon="-108.10320868600844"><ele>1851.0</ele><time>2026-04-02T23:02:41Z</time></trkpt><trkpt lat="36.889214524879186" lon="-108.10327470101393"><ele>1850.75</ele><time>2026-04-02T23:02:42Z</time></trkpt><trkpt lat="36.8891013818699" lon="-108.10335370458547"><ele>1850.5</ele><time>2026-04-02T23:02:43Z</time></trkpt><trkpt lat="36.888975893112885" lon="-108.10345436068374"><ele>1850.25</ele><time>2026-04-02T23:02:44Z</time></trkpt><trkpt lat="36.88884377984898" lon="-108.10355414253132"><ele>1850.0</ele><time>2026-04-02T23:02:45Z</time></trkpt><trkpt lat="36.88871529383764" lon="-108.10365645416002"><ele>1850.0</ele><time>2026-04-02T23:02:46Z</time></trkpt><trkpt lat="36.88857999244465" lon="-108.10377525263524"><ele>1850.0</ele><time>2026-04-02T23:02:47Z</time></trkpt><trkpt lat="36.88844221066275" lon="-108.10390779337438"><ele>1850.0</ele><time>2026-04-02T23:02:48Z</time></trkpt><trkpt lat="36.888297496889194" lon="-108.1040489223171"><ele>1850.3333333333333</ele><time>2026-04-02T23:02:49Z</time></trkpt><trkpt lat="36.888144654055935" lon="-108.10419585757558"><ele>1850.6666666666665</ele><time>2026-04-02T23:02:50Z</time></trkpt><trkpt lat="36.8880003753662" lon="-108.10432923770236"><ele>1851.0</ele><time>2026-04-02T23:02:51Z</time></trkpt><trkpt lat="36.88787318364971" lon="-108.10444796059413"><ele>1851.0</ele><time>2026-04-02T23:02:52Z</time></trkpt><trkpt lat="36.8877419170875" lon="-108.10457382804306"><ele>1851.0</ele><time>2026-04-02T23:02:53Z</time></trkpt><trkpt lat="36.88763911594656" lon="-108.1046748931916"><ele>1851.0</ele><time>2026-04-02T23:02:54Z</time></trkpt><trkpt lat="36.88756557180993" lon="-108.10474796807385"><ele>1851.0</ele><time>2026-04-02T23:02:55Z</time></trkpt><trkpt lat="36.88750045185843" lon="-108.10481277977483"><ele>1850.8</ele><time>2026-04-02T23:02:56Z</time></trkpt><trkpt lat="36.887429630727375" lon="-108.10487944032441"><ele>1850.6</ele><time>2026-04-02T23:02:57Z</time></trkpt><trkpt lat="36.88733749870014" lon="-108.10496473826548"><ele>1850.4</ele><time>2026-04-02T23:02:58Z</time></trkpt><trkpt lat="36.8872574110106" lon="-108.10504587097131"><ele>1850.2</ele><time>2026-04-02T23:02:59Z</time></trkpt><trkpt lat="36.88719808137561" lon="-108.10510730144627"><ele>1850.0</ele><time>2026-04-02T23:03:00Z</time></trkpt><trkpt lat="36.88710450839926" lon="-108.10511370920094"><ele>1850.0</ele><time>2026-04-02T23:03:03Z</time></trkpt><trkpt lat="36.887038539347" lon="-108.10506406429054"><ele>1850.0</ele><time>2026-04-02T23:03:04Z</time></trkpt><trkpt lat="36.8869629261855" lon="-108.1049818236992"><ele>1850.0</ele><time>2026-04-02T23:03:05Z</time></trkpt><trkpt lat="36.8868871173274" lon="-108.10489073843247"><ele>1850.0</ele><time>2026-04-02T23:03:06Z</time></trkpt><trkpt lat="36.886814466296016" lon="-108.1047830282369"><ele>1850.0</ele><time>2026-04-02T23:03:07Z</time></trkpt><trkpt lat="36.88675238443169" lon="-108.10468962578975"><ele>1848.8333333333333</ele><time>2026-04-02T23:03:08Z</time></trkpt><trkpt lat="36.88669197319203" lon="-108.1046464246003"><ele>1847.6666666666665</ele><time>2026-04-02T23:03:09Z</time></trkpt><trkpt lat="36.88659612843917" lon="-108.10463666157658"><ele>1846.5</ele><time>2026-04-02T23:03:10Z</time></trkpt><trkpt lat="36.886519093331636" lon="-108.104648845167"><ele>1845.3333333333335</ele><time>2026-04-02T23:03:11Z</time></trkpt><trkpt lat="36.88641110989901" lon="-108.10465416908045"><ele>1844.1666666666667</ele><time>2026-04-02T23:03:13Z</time></trkpt><trkpt lat="36.88633751961846" lon="-108.10462700992156"><ele>1843.0</ele><time>2026-04-02T23:03:14Z</time></trkpt><trkpt lat="36.88625029246584" lon="-108.10459805738797"><ele>1843.0000000000002</ele><time>2026-04-02T23:03:16Z</time></trkpt><trkpt lat="36.88617460830928" lon="-108.10458020020882"><ele>1843.0</ele><time>2026-04-02T23:03:20Z</time></trkpt><trkpt lat="36.88614179601093" lon="-108.10448328180976"><ele>1843.0</ele><time>2026-04-02T23:03:23Z</time></trkpt><trkpt lat="36.886103898658156" lon="-108.10441581070192"><ele>1843.0</ele><time>2026-04-02T23:03:31Z</time></trkpt><trkpt lat="36.88604256112269" lon="-108.10444818957411"><ele>1843.0000000000002</ele><time>2026-04-02T23:03:33Z</time></trkpt><trkpt lat="36.88597727149317" lon="-108.10450389422098"><ele>1843.0</ele><time>2026-04-02T23:03:34Z</time></trkpt><trkpt lat="36.88590177758245" lon="-108.10455541313866"><ele>1842.75</ele><time>2026-04-02T23:03:35Z</time></trkpt><trkpt lat="36.88581455546256" lon="-108.10461665216998"><ele>1842.5</ele><time>2026-04-02T23:03:36Z</time></trkpt><trkpt lat="36.885723133990275" lon="-108.10470556755803"><ele>1842.25</ele><time>2026-04-02T23:03:37Z</time></trkpt><trkpt lat="36.88562738804201" lon="-108.10482934643336"><ele>1842.0</ele><time>2026-04-02T23:03:38Z</time></trkpt><trkpt lat="36.88552517845549" lon="-108.1049599700206"><ele>1842.0</ele><time>2026-04-02T23:03:39Z</time></trkpt><trkpt lat="36.88542858364428" lon="-108.10508522224386"><ele>1841.9999999999998</ele><time>2026-04-02T23:03:40Z</time></trkpt><trkpt lat="36.885356709032074" lon="-108.1051819784898"><ele>1841.9999999999998</ele><time>2026-04-02T23:03:41Z</time></trkpt><trkpt lat="36.8852988089621" lon="-108.10527709443542"><ele>1842.0</ele><time>2026-04-02T23:03:42Z</time></trkpt><trkpt lat="36.88525407792774" lon="-108.10536650287675"><ele>1842.0</ele><time>2026-04-02T23:03:43Z</time></trkpt><trkpt lat="36.8852271076748" lon="-108.10545498264943"><ele>1842.0</ele><time>2026-04-02T23:03:44Z</time></trkpt><trkpt lat="36.885199604237116" lon="-108.10556735952288"><ele>1841.9999999999998</ele><time>2026-04-02T23:03:45Z</time></trkpt><trkpt lat="36.88515733977762" lon="-108.1056758564289"><ele>1841.9999999999998</ele><time>2026-04-02T23:03:46Z</time></trkpt><trkpt lat="36.885096727701374" lon="-108.10575854810786"><ele>1842.0</ele><time>2026-04-02T23:03:47Z</time></trkpt><trkpt lat="36.88500838961872" lon="-108.10579149682056"><ele>1842.0</ele><time>2026-04-02T23:03:48Z</time></trkpt><trkpt lat="36.884881604850364" lon="-108.10579253447987"><ele>1842.0</ele><time>2026-04-02T23:03:49Z</time></trkpt><trkpt lat="36.88474590632128" lon="-108.10580800433213"><ele>1842.0</ele><time>2026-04-02T23:03:50.001Z</time></trkpt><trkpt lat="36.884609928970015" lon="-108.10584911764774"><ele>1842.0</ele><time>2026-04-02T23:03:51.001Z</time></trkpt><trkpt lat="36.88448427226888" lon="-108.10590623394914"><ele>1842.0</ele><time>2026-04-02T23:03:52.001Z</time></trkpt><trkpt lat="36.88439093832789" lon="-108.1059709863677"><ele>1842.0</ele><time>2026-04-02T23:03:53.001Z</time></trkpt><trkpt lat="36.88434038656811" lon="-108.10603678106867"><ele>1841.9999999999998</ele><time>2026-04-02T23:03:54.001Z</time></trkpt><trkpt lat="36.88431144210278" lon="-108.10612272281445"><ele>1841.9999999999998</ele><time>2026-04-02T23:03:56.001Z</time></trkpt><trkpt lat="36.8843744273185" lon="-108.10609888666227"><ele>1842.0</ele><time>2026-04-02T23:04:03.001Z</time></trkpt><trkpt lat="36.884446380985835" lon="-108.10595912838063"><ele>1842.0</ele><time>2026-04-02T23:04:04.001Z</time></trkpt><trkpt lat="36.8845840009229" lon="-108.10588127985416"><ele>1842.0</ele><time>2026-04-02T23:04:06.001Z</time></trkpt><trkpt lat="36.884738018160235" lon="-108.10582609146469"><ele>1842.0</ele><time>2026-04-02T23:04:07.001Z</time></trkpt><trkpt lat="36.88489616721339" lon="-108.10578909963294"><ele>1842.0</ele><time>2026-04-02T23:04:08.001Z</time></trkpt><trkpt lat="36.8850301743043" lon="-108.10575885179742"><ele>1842.0</ele><time>2026-04-02T23:04:09.001Z</time></trkpt><trkpt lat="36.88513916542544" lon="-108.10574208421102"><ele>1841.9999999999998</ele><time>2026-04-02T23:04:10.001Z</time></trkpt><trkpt lat="36.88520462316736" lon="-108.10570573880351"><ele>1841.9999999999998</ele><time>2026-04-02T23:04:11.001Z</time></trkpt><trkpt lat="36.88523170237684" lon="-108.10563027807575"><ele>1842.0</ele><time>2026-04-02T23:04:12.001Z</time></trkpt><trkpt lat="36.88527436118453" lon="-108.10548443725617"><ele>1842.0</ele><time>2026-04-02T23:04:13Z</time></trkpt><trkpt lat="36.88531577329405" lon="-108.10535888521511"><ele>1842.0</ele><time>2026-04-02T23:04:14Z</time></trkpt><trkpt lat="36.88535828891986" lon="-108.10523647837502"><ele>1842.0</ele><time>2026-04-02T23:04:15Z</time></trkpt><trkpt lat="36.88543636557542" lon="-108.1051412047736"><ele>1842.0</ele><time>2026-04-02T23:04:16Z</time></trkpt><trkpt lat="36.885524362550136" lon="-108.10503565223459"><ele>1842.0</ele><time>2026-04-02T23:04:17Z</time></trkpt><trkpt lat="36.88560781833752" lon="-108.10491931484432"><ele>1842.25</ele><time>2026-04-02T23:04:18Z</time></trkpt><trkpt lat="36.88569408937275" lon="-108.10480153059525"><ele>1842.5</ele><time>2026-04-02T23:04:19Z</time></trkpt><trkpt lat="36.88578913384985" lon="-108.10468235729064"><ele>1842.75</ele><time>2026-04-02T23:04:20Z</time></trkpt><trkpt lat="36.88588681182083" lon="-108.104587836438"><ele>1843.0</ele><time>2026-04-02T23:04:21Z</time></trkpt><trkpt lat="36.88597612933218" lon="-108.10451831562331"><ele>1843.0</ele><time>2026-04-02T23:04:22Z</time></trkpt><trkpt lat="36.886057106043175" lon="-108.10445865091634"><ele>1843.0000000000002</ele><time>2026-04-02T23:04:23Z</time></trkpt><trkpt lat="36.886105753024" lon="-108.10439290643772"><ele>1843.0000000000002</ele><time>2026-04-02T23:04:26Z</time></trkpt><trkpt lat="36.886107235747005" lon="-108.10428116212978"><ele>1843.0</ele><time>2026-04-02T23:04:30Z</time></trkpt><trkpt lat="36.88615423505155" lon="-108.10417526367208"><ele>1843.0</ele><time>2026-04-02T23:04:33Z</time></trkpt><trkpt lat="36.886238433028204" lon="-108.10410619717148"><ele>1843.6000000000001</ele><time>2026-04-02T23:04:35Z</time></trkpt><trkpt lat="36.88626050072612" lon="-108.10402720885436"><ele>1844.2000000000003</ele><time>2026-04-02T23:04:36Z</time></trkpt><trkpt lat="36.88624843866745" lon="-108.10389745234279"><ele>1844.8</ele><time>2026-04-02T23:04:37Z</time></trkpt><trkpt lat="36.88622159461319" lon="-108.10376715618709"><ele>1845.4</ele><time>2026-04-02T23:04:38Z</time></trkpt><trkpt lat="36.886152408826774" lon="-108.10361546896252"><ele>1846.0</ele><time>2026-04-02T23:04:39Z</time></trkpt><trkpt lat="36.88608180443467" lon="-108.10346470460176"><ele>1846.0</ele><time>2026-04-02T23:04:40Z</time></trkpt><trkpt lat="36.88602361251631" lon="-108.10329623180057"><ele>1846.0</ele><time>2026-04-02T23:04:41Z</time></trkpt><trkpt lat="36.88596720406595" lon="-108.10312569776362"><ele>1846.0</ele><time>2026-04-02T23:04:42Z</time></trkpt><trkpt lat="36.88592806167979" lon="-108.1029664914204"><ele>1846.0</ele><time>2026-04-02T23:04:43Z</time></trkpt><trkpt lat="36.885868308880575" lon="-108.10280335187471"><ele>1847.0</ele><time>2026-04-02T23:04:44Z</time></trkpt><trkpt lat="36.88581607145926" lon="-108.10265621043996"><ele>1848.0</ele><time>2026-04-02T23:04:45Z</time></trkpt><trkpt lat="36.885777325176" lon="-108.10253427609672"><ele>1849.0</ele><time>2026-04-02T23:04:46Z</time></trkpt><trkpt lat="36.885749079966565" lon="-108.10241944853168"><ele>1850.0</ele><time>2026-04-02T23:04:47Z</time></trkpt><trkpt lat="36.88571886874276" lon="-108.10230410189297"><ele>1851.0</ele><time>2026-04-02T23:04:48Z</time></trkpt><trkpt lat="36.88568625002857" lon="-108.10218806612278"><ele>1851.6</ele><time>2026-04-02T23:04:49Z</time></trkpt><trkpt lat="36.88565188092024" lon="-108.10211311016697"><ele>1852.1999999999998</ele><time>2026-04-02T23:04:50Z</time></trkpt><trkpt lat="36.88559422149282" lon="-108.10203090281348"><ele>1852.8000000000002</ele><time>2026-04-02T23:04:52Z</time></trkpt><trkpt lat="36.88553431195172" lon="-108.10191291054618"><ele>1853.4</ele><time>2026-04-02T23:04:55Z</time></trkpt><trkpt lat="36.88544984648951" lon="-108.10188570986416"><ele>1854.0</ele><time>2026-04-02T23:04:58Z</time></trkpt><trkpt lat="36.88535595917466" lon="-108.10190969701283"><ele>1854.0</ele><time>2026-04-02T23:05:00Z</time></trkpt><trkpt lat="36.88528835657998" lon="-108.10188377507394"><ele>1854.0</ele><time>2026-04-02T23:05:03Z</time></trkpt><trkpt lat="36.88521710509456" lon="-108.10184784571285"><ele>1854.0</ele><time>2026-04-02T23:05:04Z</time></trkpt><trkpt lat="36.88514023399941" lon="-108.10179242401858"><ele>1854.0</ele><time>2026-04-02T23:05:05Z</time></trkpt><trkpt lat="36.88508980392197" lon="-108.10172195454776"><ele>1854.0</ele><time>2026-04-02T23:05:06Z</time></trkpt><trkpt lat="36.885009176733476" lon="-108.10167668831177"><ele>1854.0</ele><time>2026-04-02T23:05:08Z</time></trkpt><trkpt lat="36.88491936610053" lon="-108.10167699523457"><ele>1854.0</ele><time>2026-04-02T23:05:09Z</time></trkpt><trkpt lat="36.884825903430986" lon="-108.10166736528721"><ele>1854.0</ele><time>2026-04-02T23:05:10Z</time></trkpt><trkpt lat="36.884731180911245" lon="-108.10164100296457"><ele>1854.0</ele><time>2026-04-02T23:05:11Z</time></trkpt><trkpt lat="36.88462205564026" lon="-108.10160119316993"><ele>1854.0</ele><time>2026-04-02T23:05:12Z</time></trkpt><trkpt lat="36.8845230375099" lon="-108.10156943182955"><ele>1854.0</ele><time>2026-04-02T23:05:13Z</time></trkpt><trkpt lat="36.88444088954948" lon="-108.10153788653611"><ele>1854.3333333333333</ele><time>2026-04-02T23:05:14Z</time></trkpt><trkpt lat="36.88436984771804" lon="-108.10150140084997"><ele>1854.6666666666665</ele><time>2026-04-02T23:05:15Z</time></trkpt><trkpt lat="36.884282581614336" lon="-108.10137674702956"><ele>1855.0</ele><time>2026-04-02T23:05:17Z</time></trkpt><trkpt lat="36.8842377425117" lon="-108.10129307107496"><ele>1855.3333333333333</ele><time>2026-04-02T23:05:18Z</time></trkpt><trkpt lat="36.88418516642805" lon="-108.10124645125741"><ele>1855.6666666666665</ele><time>2026-04-02T23:05:19Z</time></trkpt><trkpt lat="36.8841294933734" lon="-108.10120718837125"><ele>1856.0</ele><time>2026-04-02T23:05:20Z</time></trkpt><trkpt lat="36.884071944521715" lon="-108.10114719932206"><ele>1856.8</ele><time>2026-04-02T23:05:21Z</time></trkpt><trkpt lat="36.884015237564036" lon="-108.10104929388626"><ele>1857.6</ele><time>2026-04-02T23:05:22Z</time></trkpt><trkpt lat="36.88396196802472" lon="-108.10093261412148"><ele>1858.4</ele><time>2026-04-02T23:05:23Z</time></trkpt><trkpt lat="36.88390904566718" lon="-108.10081371570416"><ele>1859.2</ele><time>2026-04-02T23:05:24Z</time></trkpt><trkpt lat="36.8838734891655" lon="-108.10074775778473"><ele>1860.0</ele><time>2026-04-02T23:05:25Z</time></trkpt><trkpt lat="36.8837854946096" lon="-108.10064893188351"><ele>1860.5</ele><time>2026-04-02T23:05:27Z</time></trkpt><trkpt lat="36.88372094760568" lon="-108.10058324133256"><ele>1861.0</ele><time>2026-04-02T23:05:28Z</time></trkpt><trkpt lat="36.883679140996975" lon="-108.10045266558457"><ele>1861.5</ele><time>2026-04-02T23:05:29Z</time></trkpt><trkpt lat="36.88363992591857" lon="-108.1002862235126"><ele>1862.0</ele><time>2026-04-02T23:05:30Z</time></trkpt><trkpt lat="36.88359484524547" lon="-108.10013527397092"><ele>1862.0</ele><time>2026-04-02T23:05:31Z</time></trkpt><trkpt lat="36.88356321992387" lon="-108.10001285388452"><ele>1862.0</ele><time>2026-04-02T23:05:32Z</time></trkpt><trkpt lat="36.88354809908882" lon="-108.09990803862307"><ele>1862.0</ele><time>2026-04-02T23:05:34Z</time></trkpt><trkpt lat="36.88337942864746" lon="-108.09990743704027"><ele>1862.0</ele><time>2026-04-02T23:05:36Z</time></trkpt><trkpt lat="36.883257486997465" lon="-108.09985852194188"><ele>1863.0</ele><time>2026-04-02T23:05:37Z</time></trkpt><trkpt lat="36.883129555941444" lon="-108.09978893341305"><ele>1863.9999999999998</ele><time>2026-04-02T23:05:38Z</time></trkpt><trkpt lat="36.88302088765631" lon="-108.09972892708802"><ele>1864.9999999999998</ele><time>2026-04-02T23:05:39Z</time></trkpt><trkpt lat="36.88296225506804" lon="-108.09968336119961"><ele>1866.0</ele><time>2026-04-02T23:05:40Z</time></trkpt><trkpt lat="36.882912196942264" lon="-108.09960727073828"><ele>1867.0</ele><time>2026-04-02T23:05:41Z</time></trkpt><trkpt lat="36.882865768659606" lon="-108.0994827916796"><ele>1867.0</ele><time>2026-04-02T23:05:42Z</time></trkpt><trkpt lat="36.88281866046109" lon="-108.09934082118599"><ele>1866.9999999999998</ele><time>2026-04-02T23:05:43Z</time></trkpt><trkpt lat="36.8827456367144" lon="-108.09922425722377"><ele>1866.9999999999998</ele><time>2026-04-02T23:05:44Z</time></trkpt><trkpt lat="36.882662376053354" lon="-108.09916796122603"><ele>1867.0</ele><time>2026-04-02T23:05:45Z</time></trkpt><trkpt lat="36.88260730143404" lon="-108.09911411733525"><ele>1867.0</ele><time>2026-04-02T23:05:46Z</time></trkpt><trkpt lat="36.882534084320135" lon="-108.09911385622267"><ele>1868.1999999999998</ele><time>2026-04-02T23:05:48Z</time></trkpt><trkpt lat="36.882465399815864" lon="-108.0991516039476"><ele>1869.3999999999999</ele><time>2026-04-02T23:05:50Z</time></trkpt><trkpt lat="36.882404394200705" lon="-108.09920431430844"><ele>1870.6000000000001</ele><time>2026-04-02T23:05:51Z</time></trkpt><trkpt lat="36.88232067535682" lon="-108.09919970598148"><ele>1871.8000000000002</ele><time>2026-04-02T23:05:53Z</time></trkpt><trkpt lat="36.88215289423705" lon="-108.09918525673507"><ele>1873.0</ele><time>2026-04-02T23:05:56.001Z</time></trkpt><trkpt lat="36.8820550140433" lon="-108.09919580486309"><ele>1873.0</ele><time>2026-04-02T23:05:57.001Z</time></trkpt><trkpt lat="36.881975366603115" lon="-108.09919984260426"><ele>1873.0000000000002</ele><time>2026-04-02T23:05:58.001Z</time></trkpt><trkpt lat="36.88190520755983" lon="-108.09917678765143"><ele>1873.0000000000002</ele><time>2026-04-02T23:05:59.001Z</time></trkpt><trkpt lat="36.88181590928138" lon="-108.09907956669554"><ele>1873.0</ele><time>2026-04-02T23:06:01.001Z</time></trkpt><trkpt lat="36.88173259976675" lon="-108.09896990580462"><ele>1873.0</ele><time>2026-04-02T23:06:02.001Z</time></trkpt><trkpt lat="36.88166733034403" lon="-108.09890175511953"><ele>1874.2</ele><time>2026-04-02T23:06:03.001Z</time></trkpt><trkpt lat="36.88158339732116" lon="-108.0989048629084"><ele>1875.4</ele><time>2026-04-02T23:06:05.001Z</time></trkpt><trkpt lat="36.88144318770328" lon="-108.09893703555475"><ele>1876.6000000000001</ele><time>2026-04-02T23:06:07.001Z</time></trkpt><trkpt lat="36.881397852314365" lon="-108.09901744297481"><ele>1877.8000000000002</ele><time>2026-04-02T23:06:08.001Z</time></trkpt><trkpt lat="36.88133315719551" lon="-108.09909260110923"><ele>1879.0</ele><time>2026-04-02T23:06:09.001Z</time></trkpt><trkpt lat="36.881259656882605" lon="-108.099148031626"><ele>1879.5000000000002</ele><time>2026-04-02T23:06:10.001Z</time></trkpt><trkpt lat="36.88118174532582" lon="-108.09917687585528"><ele>1880.0</ele><time>2026-04-02T23:06:11.001Z</time></trkpt><trkpt lat="36.88110891091833" lon="-108.09920024881195"><ele>1880.5</ele><time>2026-04-02T23:06:12.001Z</time></trkpt><trkpt lat="36.88103579667229" lon="-108.09921073576635"><ele>1881.0</ele><time>2026-04-02T23:06:13.001Z</time></trkpt><trkpt lat="36.88096589313994" lon="-108.09924007903525"><ele>1881.5000000000002</ele><time>2026-04-02T23:06:14.001Z</time></trkpt><trkpt lat="36.88090662154812" lon="-108.09930667016323"><ele>1882.0</ele><time>2026-04-02T23:06:15.001Z</time></trkpt><trkpt lat="36.88084017180935" lon="-108.09935402161581"><ele>1882.0000000000002</ele><time>2026-04-02T23:06:16.001Z</time></trkpt><trkpt lat="36.88078921503913" lon="-108.09942804873212"><ele>1882.0</ele><time>2026-04-02T23:06:17.001Z</time></trkpt><trkpt lat="36.88072871728619" lon="-108.0995064330228"><ele>1882.0</ele><time>2026-04-02T23:06:18Z</time></trkpt><trkpt lat="36.88066923176212" lon="-108.09955991521628"><ele>1882.0</ele><time>2026-04-02T23:06:19Z</time></trkpt><trkpt lat="36.88060324926152" lon="-108.09959253621616"><ele>1882.0000000000002</ele><time>2026-04-02T23:06:20Z</time></trkpt><trkpt lat="36.880502391058116" lon="-108.09962879973175"><ele>1882.0</ele><time>2026-04-02T23:06:22Z</time></trkpt><trkpt lat="36.880408802028846" lon="-108.09962532795632"><ele>1882.0</ele><time>2026-04-02T23:06:23Z</time></trkpt><trkpt lat="36.88034330908958" lon="-108.09962298164601"><ele>1881.9999999999998</ele><time>2026-04-02T23:06:24Z</time></trkpt><trkpt lat="36.88026869622602" lon="-108.09967590901682"><ele>1881.9999999999998</ele><time>2026-04-02T23:06:25Z</time></trkpt><trkpt lat="36.88018143182978" lon="-108.09965444043979"><ele>1882.0</ele><time>2026-04-02T23:06:26Z</time></trkpt><trkpt lat="36.880058454033964" lon="-108.09963095569222"><ele>1882.0</ele><time>2026-04-02T23:06:27Z</time></trkpt><trkpt lat="36.879948050170874" lon="-108.09965609106628"><ele>1882.3333333333335</ele><time>2026-04-02T23:06:28Z</time></trkpt><trkpt lat="36.87982105610734" lon="-108.09962617633177"><ele>1882.6666666666667</ele><time>2026-04-02T23:06:29Z</time></trkpt><trkpt lat="36.879752863651184" lon="-108.09960910362526"><ele>1883.0</ele><time>2026-04-02T23:06:30Z</time></trkpt><trkpt lat="36.879696183865214" lon="-108.09956094194415"><ele>1883.3333333333335</ele><time>2026-04-02T23:06:31Z</time></trkpt><trkpt lat="36.87963083517474" lon="-108.09955769532027"><ele>1883.6666666666667</ele><time>2026-04-02T23:06:32Z</time></trkpt><trkpt lat="36.87955479461544" lon="-108.09960286013012"><ele>1884.0</ele><time>2026-04-02T23:06:33Z</time></trkpt><trkpt lat="36.879489043137674" lon="-108.09957956765189"><ele>1884.0</ele><time>2026-04-02T23:06:35Z</time></trkpt><trkpt lat="36.879507705913156" lon="-108.09947691498004"><ele>1884.0</ele><time>2026-04-02T23:06:36Z</time></trkpt><trkpt lat="36.87949157384658" lon="-108.09935604045873"><ele>1884.0</ele><time>2026-04-02T23:06:37Z</time></trkpt><trkpt lat="36.8794521243292" lon="-108.09922381350174"><ele>1884.0</ele><time>2026-04-02T23:06:38Z</time></trkpt><trkpt lat="36.879306956914824" lon="-108.09917112395945"><ele>1884.0</ele><time>2026-04-02T23:06:40Z</time></trkpt><trkpt lat="36.879213334181735" lon="-108.09918063211585"><ele>1885.2</ele><time>2026-04-02T23:06:41Z</time></trkpt><trkpt lat="36.87912874746616" lon="-108.09918130723366"><ele>1886.4</ele><time>2026-04-02T23:06:42Z</time></trkpt><trkpt lat="36.87901525991572" lon="-108.09914198261542"><ele>1887.6</ele><time>2026-04-02T23:06:43Z</time></trkpt><trkpt lat="36.87887870218058" lon="-108.0991189961974"><ele>1888.8</ele><time>2026-04-02T23:06:44Z</time></trkpt><trkpt lat="36.87879819591047" lon="-108.09910973084308"><ele>1890.0</ele><time>2026-04-02T23:06:45Z</time></trkpt><trkpt lat="36.87867105091532" lon="-108.09913740661919"><ele>1890.0</ele><time>2026-04-02T23:06:47Z</time></trkpt><trkpt lat="36.878607718011985" lon="-108.09920402816618"><ele>1890.0</ele><time>2026-04-02T23:06:48Z</time></trkpt><trkpt lat="36.87856665667816" lon="-108.09931950714345"><ele>1890.0</ele><time>2026-04-02T23:06:49Z</time></trkpt><trkpt lat="36.87852225958272" lon="-108.09946594328245"><ele>1890.0</ele><time>2026-04-02T23:06:50Z</time></trkpt><trkpt lat="36.87845916384933" lon="-108.09963184108383"><ele>1890.0</ele><time>2026-04-02T23:06:51Z</time></trkpt><trkpt lat="36.8784203559549" lon="-108.09977907530612"><ele>1890.0</ele><time>2026-04-02T23:06:52Z</time></trkpt><trkpt lat="36.878395927870024" lon="-108.09987246371756"><ele>1890.0</ele><time>2026-04-02T23:06:53Z</time></trkpt><trkpt lat="36.87830002643088" lon="-108.09997659318427"><ele>1890.0</ele><time>2026-04-02T23:06:55Z</time></trkpt><trkpt lat="36.87820444826142" lon="-108.10003709330675"><ele>1890.0</ele><time>2026-04-02T23:06:56Z</time></trkpt><trkpt lat="36.87812770395486" lon="-108.10011911836156"><ele>1890.1666666666667</ele><time>2026-04-02T23:06:57Z</time></trkpt><trkpt lat="36.87806190199836" lon="-108.10017976176074"><ele>1890.3333333333335</ele><time>2026-04-02T23:06:58Z</time></trkpt><trkpt lat="36.87799590492414" lon="-108.10019600601342"><ele>1890.5</ele><time>2026-04-02T23:06:59Z</time></trkpt><trkpt lat="36.877905468511166" lon="-108.10019487637588"><ele>1890.6666666666667</ele><time>2026-04-02T23:07:00Z</time></trkpt><trkpt lat="36.877826003313224" lon="-108.10022133334023"><ele>1890.8333333333335</ele><time>2026-04-02T23:07:01Z</time></trkpt><trkpt lat="36.87771096176964" lon="-108.1002038265576"><ele>1891.0</ele><time>2026-04-02T23:07:03Z</time></trkpt><trkpt lat="36.87764970325074" lon="-108.10024120933527"><ele>1890.1999999999998</ele><time>2026-04-02T23:07:04Z</time></trkpt><trkpt lat="36.8775842131136" lon="-108.10031962467131"><ele>1889.3999999999999</ele><time>2026-04-02T23:07:05Z</time></trkpt><trkpt lat="36.87753958398505" lon="-108.10041013064206"><ele>1888.6</ele><time>2026-04-02T23:07:06Z</time></trkpt><trkpt lat="36.87748318334105" lon="-108.10051138277404"><ele>1887.8</ele><time>2026-04-02T23:07:07Z</time></trkpt><trkpt lat="36.87742298477925" lon="-108.1005876933271"><ele>1887.0</ele><time>2026-04-02T23:07:08Z</time></trkpt><trkpt lat="36.87735609665647" lon="-108.1006742318634"><ele>1887.0</ele><time>2026-04-02T23:07:09Z</time></trkpt><trkpt lat="36.87727862770543" lon="-108.1007494767264"><ele>1886.9999999999998</ele><time>2026-04-02T23:07:10Z</time></trkpt><trkpt lat="36.87719781069246" lon="-108.10081395452347"><ele>1886.9999999999998</ele><time>2026-04-02T23:07:11Z</time></trkpt><trkpt lat="36.87710511803048" lon="-108.10085054329214"><ele>1887.0</ele><time>2026-04-02T23:07:12Z</time></trkpt><trkpt lat="36.87702293422092" lon="-108.10085638554688"><ele>1887.0</ele><time>2026-04-02T23:07:13Z</time></trkpt><trkpt lat="36.87693015714294" lon="-108.10082652317757"><ele>1887.0</ele><time>2026-04-02T23:07:14Z</time></trkpt><trkpt lat="36.87685012489949" lon="-108.10081481467749"><ele>1887.0</ele><time>2026-04-02T23:07:15Z</time></trkpt><trkpt lat="36.87677772076705" lon="-108.10079754930896"><ele>1887.0</ele><time>2026-04-02T23:07:16Z</time></trkpt><trkpt lat="36.87666415893607" lon="-108.1008393593801"><ele>1887.0</ele><time>2026-04-02T23:07:18Z</time></trkpt><trkpt lat="36.87660787416153" lon="-108.10089349556077"><ele>1887.0</ele><time>2026-04-02T23:07:19Z</time></trkpt><trkpt lat="36.87654308951376" lon="-108.10088639723126"><ele>1887.0</ele><time>2026-04-02T23:07:20Z</time></trkpt><trkpt lat="36.87647210707575" lon="-108.100926709014"><ele>1887.0</ele><time>2026-04-02T23:07:22Z</time></trkpt><trkpt lat="36.876451579577555" lon="-108.10101496812942"><ele>1887.0</ele><time>2026-04-02T23:07:23Z</time></trkpt><trkpt lat="36.87650600500766" lon="-108.10108944279851"><ele>1887.0</ele><time>2026-04-02T23:07:25Z</time></trkpt><trkpt lat="36.876587740590544" lon="-108.10113132739994"><ele>1887.0</ele><time>2026-04-02T23:07:26Z</time></trkpt><trkpt lat="36.876687665291314" lon="-108.10112185712975"><ele>1887.0</ele><time>2026-04-02T23:07:27Z</time></trkpt><trkpt lat="36.876756286494" lon="-108.10111497467192"><ele>1887.0</ele><time>2026-04-02T23:07:28Z</time></trkpt><trkpt lat="36.87682952872136" lon="-108.10122605681572"><ele>1887.0</ele><time>2026-04-02T23:07:30Z</time></trkpt><trkpt lat="36.876905784164244" lon="-108.10131016204464"><ele>1887.0</ele><time>2026-04-02T23:07:31Z</time></trkpt><trkpt lat="36.87697433493701" lon="-108.10135679373015"><ele>1887.0</ele><time>2026-04-02T23:07:32Z</time></trkpt><trkpt lat="36.87703829924449" lon="-108.1014356563543"><ele>1887.0</ele><time>2026-04-02T23:07:33Z</time></trkpt><trkpt lat="36.87709277085199" lon="-108.10149556589417"><ele>1887.0</ele><time>2026-04-02T23:07:34Z</time></trkpt><trkpt lat="36.87715241654375" lon="-108.1015264783211"><ele>1887.0</ele><time>2026-04-02T23:07:35Z</time></trkpt><trkpt lat="36.87722553761586" lon="-108.1016014196464"><ele>1886.1666666666667</ele><time>2026-04-02T23:07:36Z</time></trkpt><trkpt lat="36.877282096624675" lon="-108.10170088487577"><ele>1885.3333333333335</ele><time>2026-04-02T23:07:37Z</time></trkpt><trkpt lat="36.877340984437296" lon="-108.10179769977292"><ele>1884.5</ele><time>2026-04-02T23:07:38Z</time></trkpt><trkpt lat="36.8773954641293" lon="-108.10187495033695"><ele>1883.6666666666667</ele><time>2026-04-02T23:07:39Z</time></trkpt><trkpt lat="36.87741241156632" lon="-108.10199524489074"><ele>1882.8333333333335</ele><time>2026-04-02T23:07:41Z</time></trkpt><trkpt lat="36.877387370286904" lon="-108.10206795066415"><ele>1882.0</ele><time>2026-04-02T23:07:42Z</time></trkpt><trkpt lat="36.87743335818196" lon="-108.10218017685304"><ele>1882.0</ele><time>2026-04-02T23:07:44Z</time></trkpt><trkpt lat="36.87751446883314" lon="-108.1022490092627"><ele>1881.9999999999998</ele><time>2026-04-02T23:07:45Z</time></trkpt><trkpt lat="36.87759450679268" lon="-108.10231556577682"><ele>1881.9999999999998</ele><time>2026-04-02T23:07:46Z</time></trkpt><trkpt lat="36.877652310925995" lon="-108.10239826285964"><ele>1882.0</ele><time>2026-04-02T23:07:47Z</time></trkpt><trkpt lat="36.87770162467818" lon="-108.10250337352792"><ele>1882.0</ele><time>2026-04-02T23:07:48Z</time></trkpt><trkpt lat="36.87775361498598" lon="-108.10259432015819"><ele>1881.7142857142853</ele><time>2026-04-02T23:07:49Z</time></trkpt><trkpt lat="36.87781435608287" lon="-108.10265675050675"><ele>1881.4285714285713</ele><time>2026-04-02T23:07:50Z</time></trkpt><trkpt lat="36.87788200521363" lon="-108.10270324435668"><ele>1881.1428571428569</ele><time>2026-04-02T23:07:51Z</time></trkpt><trkpt lat="36.8779483546064" lon="-108.10272741259068"><ele>1880.8571428571427</ele><time>2026-04-02T23:07:52Z</time></trkpt><trkpt lat="36.8780031944892" lon="-108.10277404735004"><ele>1880.5714285714284</ele><time>2026-04-02T23:07:53Z</time></trkpt><trkpt lat="36.87800823710645" lon="-108.10287090342919"><ele>1880.2857142857142</ele><time>2026-04-02T23:07:56Z</time></trkpt><trkpt lat="36.87794423905526" lon="-108.10291282437375"><ele>1880.0</ele><time>2026-04-02T23:07:57Z</time></trkpt><trkpt lat="36.87786689040296" lon="-108.10297625180579"><ele>1880.0</ele><time>2026-04-02T23:07:58Z</time></trkpt><trkpt lat="36.87778257482875" lon="-108.10305797188391"><ele>1880.0</ele><time>2026-04-02T23:07:59Z</time></trkpt><trkpt lat="36.877746001412255" lon="-108.1032349424236"><ele>1880.0</ele><time>2026-04-02T23:08:00Z</time></trkpt><trkpt lat="36.87766107204414" lon="-108.10330886078896"><ele>1880.0</ele><time>2026-04-02T23:08:01Z</time></trkpt><trkpt lat="36.87758165658967" lon="-108.10337797997646"><ele>1878.4999999999998</ele><time>2026-04-02T23:08:02Z</time></trkpt><trkpt lat="36.87751368509868" lon="-108.10343713907143"><ele>1877.0</ele><time>2026-04-02T23:08:03Z</time></trkpt><trkpt lat="36.87745038286117" lon="-108.10349276675029"><ele>1875.5</ele><time>2026-04-02T23:08:04Z</time></trkpt><trkpt lat="36.87738871642668" lon="-108.10354715549748"><ele>1874.0</ele><time>2026-04-02T23:08:05Z</time></trkpt><trkpt lat="36.87732780380684" lon="-108.10360087888256"><ele>1872.4999999999998</ele><time>2026-04-02T23:08:06Z</time></trkpt><trkpt lat="36.87725582339577" lon="-108.10366436435828"><ele>1871.0</ele><time>2026-04-02T23:08:07Z</time></trkpt><trkpt lat="36.87717872320981" lon="-108.10373236495445"><ele>1870.9999999999998</ele><time>2026-04-02T23:08:08Z</time></trkpt><trkpt lat="36.87711683653084" lon="-108.10378694773651"><ele>1871.0</ele><time>2026-04-02T23:08:09Z</time></trkpt><trkpt lat="36.877052341282585" lon="-108.10384383115205"><ele>1871.0</ele><time>2026-04-02T23:08:10Z</time></trkpt><trkpt lat="36.87699180924324" lon="-108.10389721917095"><ele>1871.0</ele><time>2026-04-02T23:08:12Z</time></trkpt><trkpt lat="36.87689975592924" lon="-108.10396844680673"><ele>1870.9999999999998</ele><time>2026-04-02T23:08:15Z</time></trkpt><trkpt lat="36.876820652714365" lon="-108.10402017668709"><ele>1871.0</ele><time>2026-04-02T23:08:17Z</time></trkpt><trkpt lat="36.87675843654692" lon="-108.104103338673"><ele>1870.0</ele><time>2026-04-02T23:08:19Z</time></trkpt><trkpt lat="36.876702749074326" lon="-108.10414702412372"><ele>1869.0</ele><time>2026-04-02T23:08:22Z</time></trkpt><trkpt lat="36.876543599197184" lon="-108.10394029441173"><ele>1868.0</ele><time>2026-04-02T23:08:23Z</time></trkpt><trkpt lat="36.87647841808546" lon="-108.1038604933561"><ele>1867.0</ele><time>2026-04-02T23:08:24Z</time></trkpt><trkpt lat="36.87641661412212" lon="-108.10377459852484"><ele>1867.0</ele><time>2026-04-02T23:08:25Z</time></trkpt><trkpt lat="36.8763634910068" lon="-108.10366867476246"><ele>1866.9999999999998</ele><time>2026-04-02T23:08:26Z</time></trkpt><trkpt lat="36.876295779825234" lon="-108.10352209367952"><ele>1866.9999999999998</ele><time>2026-04-02T23:08:27Z</time></trkpt><trkpt lat="36.87624095799836" lon="-108.10341371422872"><ele>1867.0</ele><time>2026-04-02T23:08:28Z</time></trkpt><trkpt lat="36.87621495143531" lon="-108.10330753098376"><ele>1867.0</ele><time>2026-04-02T23:08:29Z</time></trkpt><trkpt lat="36.87617763459487" lon="-108.10321019320074"><ele>1867.3333333333335</ele><time>2026-04-02T23:08:30Z</time></trkpt><trkpt lat="36.87613401104264" lon="-108.10311677564168"><ele>1867.6666666666667</ele><time>2026-04-02T23:08:31Z</time></trkpt><trkpt lat="36.87608661035851" lon="-108.10301903439634"><ele>1868.0</ele><time>2026-04-02T23:08:32Z</time></trkpt><trkpt lat="36.87603759254398" lon="-108.1029417842663"><ele>1868.3333333333335</ele><time>2026-04-02T23:08:33Z</time></trkpt><trkpt lat="36.87598548864663" lon="-108.10283366376717"><ele>1868.6666666666667</ele><time>2026-04-02T23:08:34Z</time></trkpt><trkpt lat="36.8759415735556" lon="-108.10274157784647"><ele>1869.0</ele><time>2026-04-02T23:08:35Z</time></trkpt><trkpt lat="36.87589815019214" lon="-108.10267915194709"><ele>1869.0</ele><time>2026-04-02T23:08:36Z</time></trkpt><trkpt lat="36.87581112944878" lon="-108.10261103360583"><ele>1869.0</ele><time>2026-04-02T23:08:38Z</time></trkpt><trkpt lat="36.87573716900879" lon="-108.10261945982023"><ele>1869.0</ele><time>2026-04-02T23:08:39Z</time></trkpt><trkpt lat="36.87566274979252" lon="-108.10264348404114"><ele>1869.0</ele><time>2026-04-02T23:08:40Z</time></trkpt><trkpt lat="36.875546176062755" lon="-108.10269542972945"><ele>1869.0</ele><time>2026-04-02T23:08:42Z</time></trkpt><trkpt lat="36.87547179285114" lon="-108.10272958074455"><ele>1869.0</ele><time>2026-04-02T23:08:43Z</time></trkpt><trkpt lat="36.875373256606096" lon="-108.10277646019172"><ele>1869.0</ele><time>2026-04-02T23:08:44Z</time></trkpt><trkpt lat="36.87528225500101" lon="-108.10279918488004"><ele>1869.0</ele><time>2026-04-02T23:08:45Z</time></trkpt><trkpt lat="36.87515584289076" lon="-108.10282849950859"><ele>1869.0</ele><time>2026-04-02T23:08:46Z</time></trkpt><trkpt lat="36.87504603759345" lon="-108.10281813992175"><ele>1869.0</ele><time>2026-04-02T23:08:47Z</time></trkpt><trkpt lat="36.8749486131879" lon="-108.10276581039528"><ele>1869.8333333333333</ele><time>2026-04-02T23:08:48Z</time></trkpt><trkpt lat="36.87485450175545" lon="-108.10273742908596"><ele>1870.6666666666665</ele><time>2026-04-02T23:08:49Z</time></trkpt><trkpt lat="36.87478575529119" lon="-108.10277238366228"><ele>1871.5</ele><time>2026-04-02T23:08:50Z</time></trkpt><trkpt lat="36.874737319440214" lon="-108.10283934126373"><ele>1872.3333333333333</ele><time>2026-04-02T23:08:51Z</time></trkpt><trkpt lat="36.87466997543124" lon="-108.10289481527721"><ele>1873.1666666666665</ele><time>2026-04-02T23:08:52Z</time></trkpt><trkpt lat="36.87463149063851" lon="-108.10297449560817"><ele>1874.0</ele><time>2026-04-02T23:08:53Z</time></trkpt><trkpt lat="36.874608914463316" lon="-108.10312868427448"><ele>1873.9999999999998</ele><time>2026-04-02T23:08:54Z</time></trkpt><trkpt lat="36.87459367621461" lon="-108.10321097962893"><ele>1874.0</ele><time>2026-04-02T23:08:55Z</time></trkpt><trkpt lat="36.874519055981004" lon="-108.10320205426181"><ele>1874.0</ele><time>2026-04-02T23:08:57Z</time></trkpt><trkpt lat="36.874471399085444" lon="-108.10329307327517"><ele>1874.0</ele><time>2026-04-02T23:08:58Z</time></trkpt><trkpt lat="36.874403394582274" lon="-108.10344506050494"><ele>1873.9999999999998</ele><time>2026-04-02T23:08:59Z</time></trkpt><trkpt lat="36.8743367957858" lon="-108.1034994732191"><ele>1874.0</ele><time>2026-04-02T23:09:00Z</time></trkpt><trkpt lat="36.87426801567862" lon="-108.10354916364419"><ele>1875.2</ele><time>2026-04-02T23:09:01Z</time></trkpt><trkpt lat="36.874169952929556" lon="-108.10361479554325"><ele>1876.4</ele><time>2026-04-02T23:09:02Z</time></trkpt><trkpt lat="36.87409580147567" lon="-108.1036808033374"><ele>1877.6</ele><time>2026-04-02T23:09:03Z</time></trkpt><trkpt lat="36.8740327387967" lon="-108.10374538207026"><ele>1878.8</ele><time>2026-04-02T23:09:04Z</time></trkpt><trkpt lat="36.87395441306167" lon="-108.10379253013451"><ele>1880.0</ele><time>2026-04-02T23:09:05Z</time></trkpt><trkpt lat="36.87385023294939" lon="-108.1038692934361"><ele>1880.0</ele><time>2026-04-02T23:09:06Z</time></trkpt><trkpt lat="36.873757449460335" lon="-108.10395893242926"><ele>1880.0</ele><time>2026-04-02T23:09:07Z</time></trkpt><trkpt lat="36.873679690483904" lon="-108.1040666012728"><ele>1880.0</ele><time>2026-04-02T23:09:08Z</time></trkpt><trkpt lat="36.873589949721826" lon="-108.10414169690303"><ele>1880.0</ele><time>2026-04-02T23:09:09Z</time></trkpt><trkpt lat="36.87351673938722" lon="-108.10415549277785"><ele>1880.0</ele><time>2026-04-02T23:09:10Z</time></trkpt><trkpt lat="36.873426868990286" lon="-108.10412688137845"><ele>1879.9999999999998</ele><time>2026-04-02T23:09:12Z</time></trkpt><trkpt lat="36.873455191829095" lon="-108.10402043210154"><ele>1880.0</ele><time>2026-04-02T23:09:14Z</time></trkpt><trkpt lat="36.87346156370861" lon="-108.10393874177275"><ele>1880.0</ele><time>2026-04-02T23:09:15Z</time></trkpt><trkpt lat="36.8734491920048" lon="-108.1038547671789"><ele>1880.0</ele><time>2026-04-02T23:09:16Z</time></trkpt><trkpt lat="36.873482314170225" lon="-108.1037854476503"><ele>1879.9999999999998</ele><time>2026-04-02T23:09:17Z</time></trkpt><trkpt lat="36.87355229609498" lon="-108.10368795767458"><ele>1880.0</ele><time>2026-04-02T23:09:18Z</time></trkpt><trkpt lat="36.8735688802016" lon="-108.10358741109916"><ele>1880.0</ele><time>2026-04-02T23:09:19Z</time></trkpt><trkpt lat="36.87355348547485" lon="-108.10349893862094"><ele>1880.0</ele><time>2026-04-02T23:09:20Z</time></trkpt><trkpt lat="36.87359229154358" lon="-108.10339615139775"><ele>1880.0</ele><time>2026-04-02T23:09:22Z</time></trkpt><trkpt lat="36.873739276914286" lon="-108.10331673541404"><ele>1880.0</ele><time>2026-04-02T23:09:23Z</time></trkpt><trkpt lat="36.87378164784235" lon="-108.10318882754558"><ele>1880.0</ele><time>2026-04-02T23:09:24Z</time></trkpt><trkpt lat="36.87380999798401" lon="-108.10307315225803"><ele>1880.2</ele><time>2026-04-02T23:09:25Z</time></trkpt><trkpt lat="36.87383643596036" lon="-108.10295262597747"><ele>1880.4</ele><time>2026-04-02T23:09:26Z</time></trkpt><trkpt lat="36.87379134292361" lon="-108.10284904222286"><ele>1880.6</ele><time>2026-04-02T23:09:27Z</time></trkpt><trkpt lat="36.87371943524306" lon="-108.1026958824911"><ele>1880.8</ele><time>2026-04-02T23:09:29Z</time></trkpt><trkpt lat="36.8736651981935" lon="-108.10262646437366"><ele>1881.0</ele><time>2026-04-02T23:09:30Z</time></trkpt><trkpt lat="36.87364055426946" lon="-108.10249767787303"><ele>1881.0</ele><time>2026-04-02T23:09:32Z</time></trkpt><trkpt lat="36.87352697412222" lon="-108.10243110833116"><ele>1881.0</ele><time>2026-04-02T23:09:34Z</time></trkpt><trkpt lat="36.87344307423184" lon="-108.10234591157513"><ele>1881.0</ele><time>2026-04-02T23:09:35Z</time></trkpt><trkpt lat="36.873391422694944" lon="-108.10223355784288"><ele>1881.0</ele><time>2026-04-02T23:09:36Z</time></trkpt><trkpt lat="36.87328786682998" lon="-108.10216302527368"><ele>1882.4</ele><time>2026-04-02T23:09:37Z</time></trkpt><trkpt lat="36.87319456469781" lon="-108.10211142071074"><ele>1883.8</ele><time>2026-04-02T23:09:38Z</time></trkpt><trkpt lat="36.87307939904504" lon="-108.10204328383273"><ele>1885.2000000000003</ele><time>2026-04-02T23:09:39Z</time></trkpt><trkpt lat="36.87299606799081" lon="-108.10197506928495"><ele>1886.6000000000001</ele><time>2026-04-02T23:09:40Z</time></trkpt><trkpt lat="36.87294197215133" lon="-108.10191687886777"><ele>1888.0</ele><time>2026-04-02T23:09:41Z</time></trkpt><trkpt lat="36.87285622556453" lon="-108.101837925468"><ele>1888.0000000000002</ele><time>2026-04-02T23:09:43Z</time></trkpt><trkpt lat="36.872863203766414" lon="-108.1017006903366"><ele>1888.0</ele><time>2026-04-02T23:09:45Z</time></trkpt><trkpt lat="36.87288069596062" lon="-108.10160259198759"><ele>1888.0</ele><time>2026-04-02T23:09:46Z</time></trkpt><trkpt lat="36.872872762122434" lon="-108.1015209830936"><ele>1888.0</ele><time>2026-04-02T23:09:47Z</time></trkpt><trkpt lat="36.872845711603084" lon="-108.10144900970772"><ele>1888.0000000000002</ele><time>2026-04-02T23:09:48Z</time></trkpt><trkpt lat="36.872810224515305" lon="-108.10135795155571"><ele>1888.0</ele><time>2026-04-02T23:09:49Z</time></trkpt><trkpt lat="36.87278294193026" lon="-108.1012510384406"><ele>1887.8000000000002</ele><time>2026-04-02T23:09:50Z</time></trkpt><trkpt lat="36.872759491162455" lon="-108.10114293958871"><ele>1887.6000000000001</ele><time>2026-04-02T23:09:51Z</time></trkpt><trkpt lat="36.87273527587305" lon="-108.10104816703276"><ele>1887.3999999999999</ele><time>2026-04-02T23:09:52Z</time></trkpt><trkpt lat="36.872707674267794" lon="-108.1008872509394"><ele>1887.1999999999998</ele><time>2026-04-02T23:09:54Z</time></trkpt><trkpt lat="36.87265902114508" lon="-108.10079595576212"><ele>1887.0</ele><time>2026-04-02T23:09:55Z</time></trkpt><trkpt lat="36.87258922698212" lon="-108.10070723957055"><ele>1888.25</ele><time>2026-04-02T23:09:56Z</time></trkpt><trkpt lat="36.87252334058109" lon="-108.1005939883002"><ele>1889.5</ele><time>2026-04-02T23:09:57Z</time></trkpt><trkpt lat="36.87248377670933" lon="-108.1004583206604"><ele>1890.75</ele><time>2026-04-02T23:09:58Z</time></trkpt><trkpt lat="36.872454245610385" lon="-108.10031084193614"><ele>1892.0</ele><time>2026-04-02T23:09:59Z</time></trkpt><trkpt lat="36.87242315820145" lon="-108.10018996767303"><ele>1891.9999999999998</ele><time>2026-04-02T23:10:00Z</time></trkpt><trkpt lat="36.872372837975426" lon="-108.1001020317152"><ele>1892.0</ele><time>2026-04-02T23:10:01Z</time></trkpt><trkpt lat="36.87230526878568" lon="-108.10004636698405"><ele>1892.0</ele><time>2026-04-02T23:10:02Z</time></trkpt><trkpt lat="36.87220921970923" lon="-108.10001689534565"><ele>1892.0</ele><time>2026-04-02T23:10:03Z</time></trkpt><trkpt lat="36.87210822331749" lon="-108.09999060290612"><ele>1891.9999999999998</ele><time>2026-04-02T23:10:04Z</time></trkpt><trkpt lat="36.872035171710344" lon="-108.09995235786548"><ele>1892.0</ele><time>2026-04-02T23:10:05Z</time></trkpt><trkpt lat="36.87200291758579" lon="-108.09988115547209"><ele>1892.0</ele><time>2026-04-02T23:10:06Z</time></trkpt><trkpt lat="36.8719456771393" lon="-108.09977512551707"><ele>1891.9999999999998</ele><time>2026-04-02T23:10:07Z</time></trkpt><trkpt lat="36.871873667733176" lon="-108.09969278313712"><ele>1891.9999999999998</ele><time>2026-04-02T23:10:07.999Z</time></trkpt><trkpt lat="36.87181372567114" lon="-108.09953534537367"><ele>1892.0</ele><time>2026-04-02T23:10:10Z</time></trkpt><trkpt lat="36.87178333867743" lon="-108.09940709175626"><ele>1892.0</ele><time>2026-04-02T23:10:11Z</time></trkpt><trkpt lat="36.871721918079665" lon="-108.09930170712055"><ele>1893.25</ele><time>2026-04-02T23:10:12Z</time></trkpt><trkpt lat="36.8716287174361" lon="-108.09922698979902"><ele>1894.5</ele><time>2026-04-02T23:10:13Z</time></trkpt><trkpt lat="36.87153225349483" lon="-108.09915206826821"><ele>1895.75</ele><time>2026-04-02T23:10:14Z</time></trkpt><trkpt lat="36.87143302597539" lon="-108.09905214122549"><ele>1897.0</ele><time>2026-04-02T23:10:15Z</time></trkpt><trkpt lat="36.871373101130985" lon="-108.09894891323006"><ele>1897.1999999999998</ele><time>2026-04-02T23:10:16Z</time></trkpt><trkpt lat="36.87134578630454" lon="-108.09884894217014"><ele>1897.3999999999999</ele><time>2026-04-02T23:10:17Z</time></trkpt><trkpt lat="36.871328731649726" lon="-108.09872133286035"><ele>1897.6000000000001</ele><time>2026-04-02T23:10:18Z</time></trkpt><trkpt lat="36.871302028236855" lon="-108.09856311738592"><ele>1897.8000000000002</ele><time>2026-04-02T23:10:19Z</time></trkpt><trkpt lat="36.87128702070029" lon="-108.09843652872149"><ele>1898.0</ele><time>2026-04-02T23:10:20Z</time></trkpt><trkpt lat="36.87127629264931" lon="-108.09834699836934"><ele>1898.0</ele><time>2026-04-02T23:10:21Z</time></trkpt><trkpt lat="36.87123227453453" lon="-108.09827900214783"><ele>1898.0000000000002</ele><time>2026-04-02T23:10:22Z</time></trkpt><trkpt lat="36.871145286736656" lon="-108.09820815485172"><ele>1898.0000000000002</ele><time>2026-04-02T23:10:23Z</time></trkpt><trkpt lat="36.87106533735925" lon="-108.09812016927962"><ele>1898.0</ele><time>2026-04-02T23:10:24Z</time></trkpt><trkpt lat="36.870978528278464" lon="-108.09801793316589"><ele>1898.0</ele><time>2026-04-02T23:10:25Z</time></trkpt><trkpt lat="36.8708836789059" lon="-108.09789497936242"><ele>1899.6666666666665</ele><time>2026-04-02T23:10:26Z</time></trkpt><trkpt lat="36.87076869844757" lon="-108.097758770534"><ele>1901.3333333333335</ele><time>2026-04-02T23:10:27Z</time></trkpt><trkpt lat="36.870625880393746" lon="-108.09764904375157"><ele>1903.0</ele><time>2026-04-02T23:10:28Z</time></trkpt><trkpt lat="36.87049563836639" lon="-108.09754282855839"><ele>1903.0000000000002</ele><time>2026-04-02T23:10:29Z</time></trkpt><trkpt lat="36.870407188221144" lon="-108.09746358670797"><ele>1903.0</ele><time>2026-04-02T23:10:30Z</time></trkpt><trkpt lat="36.87034646599091" lon="-108.09740462995498"><ele>1903.0</ele><time>2026-04-02T23:10:31Z</time></trkpt><trkpt lat="36.87029666158382" lon="-108.0973529527298"><ele>1903.0</ele><time>2026-04-02T23:10:32Z</time></trkpt><trkpt lat="36.87023032739206" lon="-108.0972425070967"><ele>1903.0000000000002</ele><time>2026-04-02T23:10:33Z</time></trkpt><trkpt lat="36.87020384798506" lon="-108.09715436171807"><ele>1903.0</ele><time>2026-04-02T23:10:34Z</time></trkpt><trkpt lat="36.87010512180461" lon="-108.09710046926598"><ele>1903.5000000000002</ele><time>2026-04-02T23:10:36Z</time></trkpt><trkpt lat="36.870042575424094" lon="-108.09711467925072"><ele>1904.0</ele><time>2026-04-02T23:10:37Z</time></trkpt><trkpt lat="36.8699834266415" lon="-108.09705898074701"><ele>1904.5</ele><time>2026-04-02T23:10:38Z</time></trkpt><trkpt lat="36.86991830387308" lon="-108.09701382823187"><ele>1905.0</ele><time>2026-04-02T23:10:39Z</time></trkpt><trkpt lat="36.86983881557152" lon="-108.09703735768396"><ele>1905.5000000000002</ele><time>2026-04-02T23:10:41Z</time></trkpt><trkpt lat="36.86975004897822" lon="-108.09702683205913"><ele>1906.0</ele><time>2026-04-02T23:10:43Z</time></trkpt><trkpt lat="36.86966290146439" lon="-108.0969890983314"><ele>1906.0</ele><time>2026-04-02T23:10:44Z</time></trkpt><trkpt lat="36.8695928312182" lon="-108.09690961710567"><ele>1906.0</ele><time>2026-04-02T23:10:45Z</time></trkpt><trkpt lat="36.86949710444655" lon="-108.09682943925206"><ele>1906.0</ele><time>2026-04-02T23:10:46Z</time></trkpt><trkpt lat="36.86937312595933" lon="-108.09677433111756"><ele>1906.0</ele><time>2026-04-02T23:10:47Z</time></trkpt><trkpt lat="36.869251028266994" lon="-108.0967356488707"><ele>1906.6</ele><time>2026-04-02T23:10:48Z</time></trkpt><trkpt lat="36.86913942322008" lon="-108.09668498457941"><ele>1907.1999999999998</ele><time>2026-04-02T23:10:49Z</time></trkpt><trkpt lat="36.86903828360664" lon="-108.09671192466489"><ele>1907.8000000000002</ele><time>2026-04-02T23:10:50Z</time></trkpt><trkpt lat="36.86894912249583" lon="-108.09676224750594"><ele>1908.4</ele><time>2026-04-02T23:10:51Z</time></trkpt><trkpt lat="36.86886734982617" lon="-108.09684567632071"><ele>1909.0</ele><time>2026-04-02T23:10:52Z</time></trkpt><trkpt lat="36.868807118353054" lon="-108.09689723830958"><ele>1909.0000000000002</ele><time>2026-04-02T23:10:53Z</time></trkpt><trkpt lat="36.868727752640126" lon="-108.09690169977095"><ele>1909.0</ele><time>2026-04-02T23:10:54Z</time></trkpt><trkpt lat="36.86865832805929" lon="-108.0968706505045"><ele>1909.0</ele><time>2026-04-02T23:10:55Z</time></trkpt><trkpt lat="36.868583375420535" lon="-108.09683095086301"><ele>1909.0</ele><time>2026-04-02T23:10:56Z</time></trkpt><trkpt lat="36.86851856046914" lon="-108.096763072918"><ele>1909.0000000000002</ele><time>2026-04-02T23:10:57Z</time></trkpt><trkpt lat="36.86844848514011" lon="-108.09665332579473"><ele>1909.0</ele><time>2026-04-02T23:10:58Z</time></trkpt><trkpt lat="36.86836188893485" lon="-108.09654107342793"><ele>1907.0</ele><time>2026-04-02T23:10:59Z</time></trkpt><trkpt lat="36.86825091382791" lon="-108.09642762033673"><ele>1905.0</ele><time>2026-04-02T23:11:00Z</time></trkpt><trkpt lat="36.8681480988904" lon="-108.09630092241635"><ele>1903.0</ele><time>2026-04-02T23:11:01Z</time></trkpt><trkpt lat="36.86804563694631" lon="-108.09622825736028"><ele>1901.0</ele><time>2026-04-02T23:11:02Z</time></trkpt><trkpt lat="36.86795714111045" lon="-108.0961412308076"><ele>1901.0</ele><time>2026-04-02T23:11:03Z</time></trkpt><trkpt lat="36.86790685368714" lon="-108.09602613594224"><ele>1901.0</ele><time>2026-04-02T23:11:04Z</time></trkpt><trkpt lat="36.86785879354175" lon="-108.09592024364737"><ele>1901.0</ele><time>2026-04-02T23:11:05Z</time></trkpt><trkpt lat="36.867774460895546" lon="-108.0958157530324"><ele>1901.0</ele><time>2026-04-02T23:11:06Z</time></trkpt><trkpt lat="36.867696630580724" lon="-108.0957058969907"><ele>1901.0</ele><time>2026-04-02T23:11:07Z</time></trkpt><trkpt lat="36.8676277885519" lon="-108.09560592933938"><ele>1899.6</ele><time>2026-04-02T23:11:08Z</time></trkpt><trkpt lat="36.86755981158361" lon="-108.09551851817623"><ele>1898.1999999999998</ele><time>2026-04-02T23:11:09Z</time></trkpt><trkpt lat="36.86747630803998" lon="-108.09541550608614"><ele>1896.8000000000002</ele><time>2026-04-02T23:11:10Z</time></trkpt><trkpt lat="36.86740586977532" lon="-108.09532325415658"><ele>1895.4</ele><time>2026-04-02T23:11:11Z</time></trkpt><trkpt lat="36.86732991031777" lon="-108.09527826025827"><ele>1894.0</ele><time>2026-04-02T23:11:12Z</time></trkpt><trkpt lat="36.867238685415224" lon="-108.09525231522504"><ele>1894.0</ele><time>2026-04-02T23:11:13Z</time></trkpt><trkpt lat="36.86713235857593" lon="-108.09523856020049"><ele>1894.0</ele><time>2026-04-02T23:11:14Z</time></trkpt><trkpt lat="36.867021241283446" lon="-108.09520523966587"><ele>1894.0</ele><time>2026-04-02T23:11:15Z</time></trkpt><trkpt lat="36.86694376503592" lon="-108.09515328193352"><ele>1894.0</ele><time>2026-04-02T23:11:16Z</time></trkpt><trkpt lat="36.866890651145965" lon="-108.09506645137601"><ele>1894.0</ele><time>2026-04-02T23:11:17Z</time></trkpt><trkpt lat="36.86684126981935" lon="-108.09494650634845"><ele>1893.2</ele><time>2026-04-02T23:11:18Z</time></trkpt><trkpt lat="36.86678627769542" lon="-108.09481415880309"><ele>1892.4</ele><time>2026-04-02T23:11:19Z</time></trkpt><trkpt lat="36.866745630104475" lon="-108.09469023110971"><ele>1891.6</ele><time>2026-04-02T23:11:20Z</time></trkpt><trkpt lat="36.866724796342325" lon="-108.09461511985707"><ele>1890.8</ele><time>2026-04-02T23:11:21Z</time></trkpt><trkpt lat="36.866701974996296" lon="-108.09453710678011"><ele>1890.0</ele><time>2026-04-02T23:11:22Z</time></trkpt><trkpt lat="36.86657158529173" lon="-108.09461625861044"><ele>1889.8</ele><time>2026-04-02T23:11:24Z</time></trkpt><trkpt lat="36.866449522023764" lon="-108.09461596014287"><ele>1889.6</ele><time>2026-04-02T23:11:25Z</time></trkpt><trkpt lat="36.86630972066906" lon="-108.09461339271941"><ele>1889.4</ele><time>2026-04-02T23:11:26Z</time></trkpt><trkpt lat="36.866221661621246" lon="-108.09462624638641"><ele>1889.2</ele><time>2026-04-02T23:11:27Z</time></trkpt><trkpt lat="36.866133524008546" lon="-108.09459248435431"><ele>1889.0</ele><time>2026-04-02T23:11:28Z</time></trkpt><trkpt lat="36.866034288599174" lon="-108.09454546449679"><ele>1888.2</ele><time>2026-04-02T23:11:29Z</time></trkpt><trkpt lat="36.865933455841066" lon="-108.09450873131422"><ele>1887.4</ele><time>2026-04-02T23:11:30Z</time></trkpt><trkpt lat="36.86584467109417" lon="-108.09451863010415"><ele>1886.6</ele><time>2026-04-02T23:11:31Z</time></trkpt><trkpt lat="36.86576808734606" lon="-108.09453752023394"><ele>1885.8</ele><time>2026-04-02T23:11:32Z</time></trkpt><trkpt lat="36.865656198012616" lon="-108.09455505385185"><ele>1885.0</ele><time>2026-04-02T23:11:33Z</time></trkpt><trkpt lat="36.86554607493626" lon="-108.09455563591611"><ele>1885.0000000000002</ele><time>2026-04-02T23:11:34Z</time></trkpt><trkpt lat="36.86543991851582" lon="-108.09456046911819"><ele>1885.0</ele><time>2026-04-02T23:11:35Z</time></trkpt><trkpt lat="36.865346625464106" lon="-108.09457699450626"><ele>1885.0</ele><time>2026-04-02T23:11:36Z</time></trkpt><trkpt lat="36.86528763349776" lon="-108.09461474471848"><ele>1885.0</ele><time>2026-04-02T23:11:37Z</time></trkpt><trkpt lat="36.86522432717595" lon="-108.09465626722682"><ele>1885.0000000000002</ele><time>2026-04-02T23:11:38Z</time></trkpt><trkpt lat="36.86514117088156" lon="-108.09470728035379"><ele>1885.0</ele><time>2026-04-02T23:11:40Z</time></trkpt><trkpt lat="36.86498120354013" lon="-108.09474903113428"><ele>1883.8</ele><time>2026-04-02T23:11:42Z</time></trkpt><trkpt lat="36.86487255788896" lon="-108.0947781968427"><ele>1882.6</ele><time>2026-04-02T23:11:43Z</time></trkpt><trkpt lat="36.86481073085942" lon="-108.09480254147691"><ele>1881.4</ele><time>2026-04-02T23:11:44Z</time></trkpt><trkpt lat="36.86471509877497" lon="-108.09471694347558"><ele>1880.2</ele><time>2026-04-02T23:11:46Z</time></trkpt><trkpt lat="36.86465137752953" lon="-108.09462548816029"><ele>1879.0</ele><time>2026-04-02T23:11:47Z</time></trkpt><trkpt lat="36.86459115531519" lon="-108.09452181655257"><ele>1879.0</ele><time>2026-04-02T23:11:48Z</time></trkpt><trkpt lat="36.86449892837973" lon="-108.0944282446326"><ele>1879.0</ele><time>2026-04-02T23:11:49Z</time></trkpt><trkpt lat="36.86443277634947" lon="-108.09435862208517"><ele>1879.0</ele><time>2026-04-02T23:11:50Z</time></trkpt><trkpt lat="36.86435925678175" lon="-108.09431647590768"><ele>1879.0</ele><time>2026-04-02T23:11:51Z</time></trkpt><trkpt lat="36.86427374757979" lon="-108.09432486256068"><ele>1879.0</ele><time>2026-04-02T23:11:52Z</time></trkpt><trkpt lat="36.86417567025568" lon="-108.09433947073838"><ele>1878.6</ele><time>2026-04-02T23:11:53Z</time></trkpt><trkpt lat="36.864097964909284" lon="-108.09436555539216"><ele>1878.2</ele><time>2026-04-02T23:11:54Z</time></trkpt><trkpt lat="36.86397324381746" lon="-108.09445319969434"><ele>1877.7999999999997</ele><time>2026-04-02T23:11:56Z</time></trkpt><trkpt lat="36.86392402510304" lon="-108.09452603374679"><ele>1877.3999999999999</ele><time>2026-04-02T23:11:57Z</time></trkpt><trkpt lat="36.863886823629734" lon="-108.09459553227914"><ele>1877.0</ele><time>2026-04-02T23:11:58Z</time></trkpt><trkpt lat="36.86388845938695" lon="-108.09470001489784"><ele>1877.0</ele><time>2026-04-02T23:11:59Z</time></trkpt><trkpt lat="36.863837504847666" lon="-108.0947908327246"><ele>1876.9999999999998</ele><time>2026-04-02T23:12:00Z</time></trkpt><trkpt lat="36.863767462607285" lon="-108.09482509719138"><ele>1876.9999999999998</ele><time>2026-04-02T23:12:01Z</time></trkpt><trkpt lat="36.863684819694015" lon="-108.09485759124684"><ele>1877.0</ele><time>2026-04-02T23:12:03Z</time></trkpt><trkpt lat="36.86360028219837" lon="-108.09486565954344"><ele>1877.0</ele><time>2026-04-02T23:12:05Z</time></trkpt><trkpt lat="36.86346076959455" lon="-108.09482831849483"><ele>1876.8333333333333</ele><time>2026-04-02T23:12:07Z</time></trkpt><trkpt lat="36.863383684432314" lon="-108.09480593267374"><ele>1876.6666666666665</ele><time>2026-04-02T23:12:08Z</time></trkpt><trkpt lat="36.863318194696994" lon="-108.09477546684766"><ele>1876.5</ele><time>2026-04-02T23:12:09Z</time></trkpt><trkpt lat="36.863207465214785" lon="-108.09482433584868"><ele>1876.3333333333335</ele><time>2026-04-02T23:12:11Z</time></trkpt><trkpt lat="36.86313980486241" lon="-108.09485901956097"><ele>1876.1666666666667</ele><time>2026-04-02T23:12:12Z</time></trkpt><trkpt lat="36.8630770624844" lon="-108.09487744419597"><ele>1876.0</ele><time>2026-04-02T23:12:13Z</time></trkpt><trkpt lat="36.86297572851043" lon="-108.09485251551696"><ele>1876.0</ele><time>2026-04-02T23:12:16Z</time></trkpt><trkpt lat="36.862885032629215" lon="-108.09486512261401"><ele>1876.0</ele><time>2026-04-02T23:12:18Z</time></trkpt><trkpt lat="36.86277088831625" lon="-108.09490864562582"><ele>1876.0</ele><time>2026-04-02T23:12:20Z</time></trkpt><trkpt lat="36.86271378799394" lon="-108.09498797730619"><ele>1876.0</ele><time>2026-04-02T23:12:21Z</time></trkpt><trkpt lat="36.86266920284729" lon="-108.09508213398522"><ele>1876.0</ele><time>2026-04-02T23:12:22Z</time></trkpt><trkpt lat="36.862553857231724" lon="-108.09516729603291"><ele>1876.4</ele><time>2026-04-02T23:12:24Z</time></trkpt><trkpt lat="36.862491213626996" lon="-108.09523499764722"><ele>1876.8</ele><time>2026-04-02T23:12:25Z</time></trkpt><trkpt lat="36.862445714237765" lon="-108.09532979245944"><ele>1877.2000000000003</ele><time>2026-04-02T23:12:26Z</time></trkpt><trkpt lat="36.862383531334096" lon="-108.09538465180636"><ele>1877.6000000000001</ele><time>2026-04-02T23:12:27Z</time></trkpt><trkpt lat="36.86228505194177" lon="-108.09541366799985"><ele>1878.0</ele><time>2026-04-02T23:12:28Z</time></trkpt><trkpt lat="36.862168901399336" lon="-108.09542741255959"><ele>1878.0</ele><time>2026-04-02T23:12:29Z</time></trkpt><trkpt lat="36.86205992340104" lon="-108.09541660407348"><ele>1878.0000000000002</ele><time>2026-04-02T23:12:30Z</time></trkpt><trkpt lat="36.86198359651408" lon="-108.0953700015844"><ele>1878.0000000000002</ele><time>2026-04-02T23:12:31Z</time></trkpt><trkpt lat="36.861912832847146" lon="-108.09529864521814"><ele>1878.0</ele><time>2026-04-02T23:12:32Z</time></trkpt><trkpt lat="36.861801179167365" lon="-108.09524285389824"><ele>1878.0</ele><time>2026-04-02T23:12:33Z</time></trkpt><trkpt lat="36.861718857312766" lon="-108.09521580494895"><ele>1878.0</ele><time>2026-04-02T23:12:34Z</time></trkpt><trkpt lat="36.8616314564191" lon="-108.09517467227847"><ele>1878.0</ele><time>2026-04-02T23:12:36Z</time></trkpt><trkpt lat="36.86156299849502" lon="-108.09516890804348"><ele>1878.0</ele><time>2026-04-02T23:12:37Z</time></trkpt><trkpt lat="36.86149928351515" lon="-108.09512023782682"><ele>1878.0</ele><time>2026-04-02T23:12:38Z</time></trkpt><trkpt lat="36.861431564892065" lon="-108.09505399257613"><ele>1878.0</ele><time>2026-04-02T23:12:39Z</time></trkpt><trkpt lat="36.86135604485502" lon="-108.09506945504059"><ele>1878.0</ele><time>2026-04-02T23:12:40Z</time></trkpt><trkpt lat="36.861264027231144" lon="-108.09508109516749"><ele>1878.0</ele><time>2026-04-02T23:12:41Z</time></trkpt><trkpt lat="36.86119642920444" lon="-108.09505011163928"><ele>1878.0</ele><time>2026-04-02T23:12:42Z</time></trkpt><trkpt lat="36.86109871688005" lon="-108.09504749474566"><ele>1878.0</ele><time>2026-04-02T23:12:43Z</time></trkpt><trkpt lat="36.86100774213647" lon="-108.09505419740188"><ele>1878.0</ele><time>2026-04-02T23:12:44Z</time></trkpt><trkpt lat="36.860918153521034" lon="-108.09502710034826"><ele>1878.0</ele><time>2026-04-02T23:12:45Z</time></trkpt><trkpt lat="36.86082879796745" lon="-108.09499049093345"><ele>1878.0</ele><time>2026-04-02T23:12:46Z</time></trkpt><trkpt lat="36.86075887504336" lon="-108.09496716899422"><ele>1876.6666666666667</ele><time>2026-04-02T23:12:47Z</time></trkpt><trkpt lat="36.86069546440939" lon="-108.09491706657144"><ele>1875.3333333333335</ele><time>2026-04-02T23:12:48Z</time></trkpt><trkpt lat="36.86062284705654" lon="-108.09487956179385"><ele>1874.0</ele><time>2026-04-02T23:12:49Z</time></trkpt><trkpt lat="36.8605518253348" lon="-108.09487677369754"><ele>1872.6666666666667</ele><time>2026-04-02T23:12:50Z</time></trkpt><trkpt lat="36.86045129832288" lon="-108.09480670963033"><ele>1871.3333333333335</ele><time>2026-04-02T23:12:52Z</time></trkpt><trkpt lat="36.86042373489112" lon="-108.09472439397948"><ele>1870.0</ele><time>2026-04-02T23:12:53Z</time></trkpt><trkpt lat="36.860368892810264" lon="-108.09467106589261"><ele>1870.0</ele><time>2026-04-02T23:12:55Z</time></trkpt><trkpt lat="36.860257727796125" lon="-108.09468138817677"><ele>1870.0</ele><time>2026-04-02T23:12:57Z</time></trkpt><trkpt lat="36.860144688110324" lon="-108.0946992268076"><ele>1870.0</ele><time>2026-04-02T23:12:59Z</time></trkpt><trkpt lat="36.8600457626402" lon="-108.09468209891327"><ele>1870.0</ele><time>2026-04-02T23:13:00Z</time></trkpt><trkpt lat="36.859946880828375" lon="-108.09466474216848"><ele>1870.0</ele><time>2026-04-02T23:13:01Z</time></trkpt><trkpt lat="36.85983922398007" lon="-108.0947587466351"><ele>1869.0</ele><time>2026-04-02T23:13:03Z</time></trkpt><trkpt lat="36.85975213065907" lon="-108.09485809027301"><ele>1868.0</ele><time>2026-04-02T23:13:05Z</time></trkpt><trkpt lat="36.85964464654219" lon="-108.09483284077727"><ele>1867.0</ele><time>2026-04-02T23:13:07Z</time></trkpt><trkpt lat="36.85957210915094" lon="-108.09481421858123"><ele>1866.0</ele><time>2026-04-02T23:13:08Z</time></trkpt><trkpt lat="36.859476057219815" lon="-108.09484088953755"><ele>1865.0</ele><time>2026-04-02T23:13:09Z</time></trkpt><trkpt lat="36.85940425555274" lon="-108.09485268666577"><ele>1865.4</ele><time>2026-04-02T23:13:10Z</time></trkpt><trkpt lat="36.85926120790186" lon="-108.09487880114597"><ele>1865.8</ele><time>2026-04-02T23:13:12Z</time></trkpt><trkpt lat="36.8591909662839" lon="-108.0948862822099"><ele>1866.1999999999998</ele><time>2026-04-02T23:13:13Z</time></trkpt><trkpt lat="36.85911525835748" lon="-108.09492790329809"><ele>1866.6</ele><time>2026-04-02T23:13:14Z</time></trkpt><trkpt lat="36.85904943156908" lon="-108.094969433108"><ele>1867.0</ele><time>2026-04-02T23:13:15Z</time></trkpt><trkpt lat="36.85896651854528" lon="-108.09501138555291"><ele>1867.6666666666667</ele><time>2026-04-02T23:13:16Z</time></trkpt><trkpt lat="36.85889272295946" lon="-108.09505857138505"><ele>1868.3333333333335</ele><time>2026-04-02T23:13:17Z</time></trkpt><trkpt lat="36.85883443211679" lon="-108.09511841338046"><ele>1869.0</ele><time>2026-04-02T23:13:18Z</time></trkpt><trkpt lat="36.85876560218801" lon="-108.09517597450139"><ele>1869.6666666666665</ele><time>2026-04-02T23:13:19Z</time></trkpt><trkpt lat="36.85870073178513" lon="-108.09522870711682"><ele>1870.3333333333333</ele><time>2026-04-02T23:13:20Z</time></trkpt><trkpt lat="36.858632368288816" lon="-108.0952823037897"><ele>1871.0</ele><time>2026-04-02T23:13:21Z</time></trkpt><trkpt lat="36.85856223335375" lon="-108.09533296749196"><ele>1870.9999999999998</ele><time>2026-04-02T23:13:22Z</time></trkpt><trkpt lat="36.85850449796862" lon="-108.09536881335181"><ele>1871.0</ele><time>2026-04-02T23:13:23Z</time></trkpt><trkpt lat="36.85845100254183" lon="-108.0954229614503"><ele>1871.0</ele><time>2026-04-02T23:13:24Z</time></trkpt><trkpt lat="36.85840218151471" lon="-108.09548001951059"><ele>1871.0</ele><time>2026-04-02T23:13:25Z</time></trkpt><trkpt lat="36.858340174492184" lon="-108.09555003090443"><ele>1870.9999999999998</ele><time>2026-04-02T23:13:26Z</time></trkpt><trkpt lat="36.85828534166586" lon="-108.09560683289693"><ele>1871.0</ele><time>2026-04-02T23:13:27Z</time></trkpt><trkpt lat="36.85817885426926" lon="-108.0956827718222"><ele>1871.3333333333333</ele><time>2026-04-02T23:13:29Z</time></trkpt><trkpt lat="36.858090699552456" lon="-108.09572155820736"><ele>1871.6666666666665</ele><time>2026-04-02T23:13:30Z</time></trkpt><trkpt lat="36.85799033710171" lon="-108.09575138066168"><ele>1872.0</ele><time>2026-04-02T23:13:31Z</time></trkpt><trkpt lat="36.8579039874754" lon="-108.09577213766367"><ele>1872.3333333333335</ele><time>2026-04-02T23:13:32Z</time></trkpt><trkpt lat="36.857846173414316" lon="-108.09581218373722"><ele>1872.6666666666667</ele><time>2026-04-02T23:13:33Z</time></trkpt><trkpt lat="36.85780553801202" lon="-108.0958747514789"><ele>1873.0</ele><time>2026-04-02T23:13:34Z</time></trkpt><trkpt lat="36.85775907176881" lon="-108.09593861066415"><ele>1874.0000000000002</ele><time>2026-04-02T23:13:35Z</time></trkpt><trkpt lat="36.8576906803689" lon="-108.09597552369021"><ele>1875.0</ele><time>2026-04-02T23:13:36Z</time></trkpt><trkpt lat="36.85760999143733" lon="-108.09598791547589"><ele>1876.0</ele><time>2026-04-02T23:13:37Z</time></trkpt><trkpt lat="36.857521878081364" lon="-108.09599187114122"><ele>1877.0</ele><time>2026-04-02T23:13:38Z</time></trkpt><trkpt lat="36.85745343128323" lon="-108.09598296444979"><ele>1878.0000000000002</ele><time>2026-04-02T23:13:39Z</time></trkpt><trkpt lat="36.857343453367136" lon="-108.09596537131294"><ele>1879.0</ele><time>2026-04-02T23:13:41Z</time></trkpt><trkpt lat="36.857254021589185" lon="-108.09598508430915"><ele>1879.1666666666667</ele><time>2026-04-02T23:13:42Z</time></trkpt><trkpt lat="36.857174602031094" lon="-108.09599952620187"><ele>1879.3333333333335</ele><time>2026-04-02T23:13:43Z</time></trkpt><trkpt lat="36.8570525652477" lon="-108.09602995496145"><ele>1879.5</ele><time>2026-04-02T23:13:45Z</time></trkpt><trkpt lat="36.85697760208704" lon="-108.09605956871214"><ele>1879.6666666666665</ele><time>2026-04-02T23:13:46Z</time></trkpt><trkpt lat="36.8569057617303" lon="-108.09607112700925"><ele>1879.8333333333333</ele><time>2026-04-02T23:13:47Z</time></trkpt><trkpt lat="36.8568265225961" lon="-108.09606428545784"><ele>1880.0</ele><time>2026-04-02T23:13:48Z</time></trkpt><trkpt lat="36.856753754889645" lon="-108.0960653790453"><ele>1879.2</ele><time>2026-04-02T23:13:49Z</time></trkpt><trkpt lat="36.856674530198546" lon="-108.09615738109295"><ele>1878.4</ele><time>2026-04-02T23:13:51Z</time></trkpt><trkpt lat="36.85655441822187" lon="-108.09614421600246"><ele>1877.6</ele><time>2026-04-02T23:13:54Z</time></trkpt><trkpt lat="36.85646307573476" lon="-108.0961451917707"><ele>1876.8</ele><time>2026-04-02T23:13:55Z</time></trkpt><trkpt lat="36.85637561242817" lon="-108.09615416293562"><ele>1876.0</ele><time>2026-04-02T23:13:56Z</time></trkpt><trkpt lat="36.85628226354423" lon="-108.09619297814734"><ele>1876.0</ele><time>2026-04-02T23:13:58Z</time></trkpt><trkpt lat="36.85624427409965" lon="-108.09611019818873"><ele>1876.0</ele><time>2026-04-02T23:14:01Z</time></trkpt><trkpt lat="36.85624421239373" lon="-108.09599964728194"><ele>1876.0</ele><time>2026-04-02T23:14:02Z</time></trkpt><trkpt lat="36.85623589341494" lon="-108.095882664356"><ele>1876.0</ele><time>2026-04-02T23:14:04Z</time></trkpt><trkpt lat="36.85619184002582" lon="-108.09573023099634"><ele>1876.0</ele><time>2026-04-02T23:14:06Z</time></trkpt><trkpt lat="36.85615317575662" lon="-108.09564405337132"><ele>1875.6666666666667</ele><time>2026-04-02T23:14:07Z</time></trkpt><trkpt lat="36.85610409275207" lon="-108.09559249437757"><ele>1875.3333333333335</ele><time>2026-04-02T23:14:08Z</time></trkpt><trkpt lat="36.856036041002945" lon="-108.09555129235393"><ele>1875.0</ele><time>2026-04-02T23:14:09Z</time></trkpt><trkpt lat="36.85595631788091" lon="-108.09547926699413"><ele>1874.6666666666665</ele><time>2026-04-02T23:14:10Z</time></trkpt><trkpt lat="36.855897773030925" lon="-108.09541231518271"><ele>1874.3333333333333</ele><time>2026-04-02T23:14:11Z</time></trkpt><trkpt lat="36.85584543898559" lon="-108.09534194271366"><ele>1874.0</ele><time>2026-04-02T23:14:12Z</time></trkpt><trkpt lat="36.85578740114263" lon="-108.09529826735114"><ele>1872.8333333333333</ele><time>2026-04-02T23:14:13Z</time></trkpt><trkpt lat="36.855698278201295" lon="-108.09519723155965"><ele>1871.6666666666665</ele><time>2026-04-02T23:14:15Z</time></trkpt><trkpt lat="36.855631076777016" lon="-108.09517073261182"><ele>1870.5</ele><time>2026-04-02T23:14:16Z</time></trkpt><trkpt lat="36.85555318330975" lon="-108.09512896306593"><ele>1869.3333333333335</ele><time>2026-04-02T23:14:17Z</time></trkpt><trkpt lat="36.855483839195486" lon="-108.09508648157711"><ele>1868.1666666666667</ele><time>2026-04-02T23:14:18Z</time></trkpt><trkpt lat="36.85541745722012" lon="-108.09505580377864"><ele>1867.0</ele><time>2026-04-02T23:14:19.001Z</time></trkpt><trkpt lat="36.85530313398925" lon="-108.09500638276566"><ele>1867.0</ele><time>2026-04-02T23:14:21.001Z</time></trkpt><trkpt lat="36.855254205220426" lon="-108.09494690709202"><ele>1866.9999999999998</ele><time>2026-04-02T23:14:22.001Z</time></trkpt><trkpt lat="36.85520894739609" lon="-108.09486308434052"><ele>1866.9999999999998</ele><time>2026-04-02T23:14:23.001Z</time></trkpt><trkpt lat="36.85509953358681" lon="-108.09485728223234"><ele>1867.0</ele><time>2026-04-02T23:14:25.001Z</time></trkpt><trkpt lat="36.85501321614389" lon="-108.09491166754486"><ele>1867.0</ele><time>2026-04-02T23:14:26.001Z</time></trkpt><trkpt lat="36.85492758745473" lon="-108.09497530953333"><ele>1866.0000000000002</ele><time>2026-04-02T23:14:27.001Z</time></trkpt><trkpt lat="36.85480460865927" lon="-108.09497234422446"><ele>1865.0</ele><time>2026-04-02T23:14:29.001Z</time></trkpt><trkpt lat="36.854730175015035" lon="-108.09497699506007"><ele>1864.0</ele><time>2026-04-02T23:14:30.001Z</time></trkpt><trkpt lat="36.854649387656295" lon="-108.09498388341268"><ele>1863.0</ele><time>2026-04-02T23:14:31.001Z</time></trkpt><trkpt lat="36.8545773597855" lon="-108.09499488420842"><ele>1862.0000000000002</ele><time>2026-04-02T23:14:32.001Z</time></trkpt><trkpt lat="36.854521742251094" lon="-108.09492092285844"><ele>1861.0</ele><time>2026-04-02T23:14:34.001Z</time></trkpt><trkpt lat="36.85449162609644" lon="-108.09482269011387"><ele>1861.0</ele><time>2026-04-02T23:14:35.001Z</time></trkpt><trkpt lat="36.85436468979303" lon="-108.09480418834102"><ele>1861.0</ele><time>2026-04-02T23:14:37.001Z</time></trkpt><trkpt lat="36.85427421536035" lon="-108.09481544791714"><ele>1861.0</ele><time>2026-04-02T23:14:38.001Z</time></trkpt><trkpt lat="36.854193199114675" lon="-108.09482309472034"><ele>1861.0</ele><time>2026-04-02T23:14:39.001Z</time></trkpt><trkpt lat="36.854112117355314" lon="-108.09484387301386"><ele>1861.0</ele><time>2026-04-02T23:14:40.001Z</time></trkpt><trkpt lat="36.85404278127006" lon="-108.09488938993492"><ele>1859.6666666666667</ele><time>2026-04-02T23:14:41.001Z</time></trkpt><trkpt lat="36.853961934281315" lon="-108.09496606071407"><ele>1858.3333333333335</ele><time>2026-04-02T23:14:42.001Z</time></trkpt><trkpt lat="36.85387613716042" lon="-108.09501020043642"><ele>1857.0</ele><time>2026-04-02T23:14:43.001Z</time></trkpt><trkpt lat="36.853810829283326" lon="-108.09502168778198"><ele>1855.6666666666665</ele><time>2026-04-02T23:14:44.001Z</time></trkpt><trkpt lat="36.853737311254584" lon="-108.09503604955404"><ele>1854.3333333333333</ele><time>2026-04-02T23:14:45.001Z</time></trkpt><trkpt lat="36.85366175702628" lon="-108.09506549153171"><ele>1853.0</ele><time>2026-04-02T23:14:46.001Z</time></trkpt><trkpt lat="36.85358957393649" lon="-108.09511864939196"><ele>1853.0</ele><time>2026-04-02T23:14:47.001Z</time></trkpt><trkpt lat="36.85350576704543" lon="-108.09519610939627"><ele>1853.0000000000002</ele><time>2026-04-02T23:14:48.001Z</time></trkpt><trkpt lat="36.853428100392385" lon="-108.09527035920777"><ele>1853.0000000000002</ele><time>2026-04-02T23:14:49.001Z</time></trkpt><trkpt lat="36.853350663796945" lon="-108.09538827973059"><ele>1853.0</ele><time>2026-04-02T23:14:51.001Z</time></trkpt><trkpt lat="36.85329167973788" lon="-108.09542067673789"><ele>1853.0</ele><time>2026-04-02T23:14:52.001Z</time></trkpt><trkpt lat="36.85319986546294" lon="-108.09543120494382"><ele>1851.8333333333333</ele><time>2026-04-02T23:14:53.001Z</time></trkpt><trkpt lat="36.85314026627354" lon="-108.09548116952165"><ele>1850.6666666666665</ele><time>2026-04-02T23:14:54.001Z</time></trkpt><trkpt lat="36.853100625809425" lon="-108.09555934180356"><ele>1849.5</ele><time>2026-04-02T23:14:55.001Z</time></trkpt><trkpt lat="36.85303864791662" lon="-108.09560807857811"><ele>1848.3333333333335</ele><time>2026-04-02T23:14:56.001Z</time></trkpt><trkpt lat="36.852959260027845" lon="-108.09561813674095"><ele>1847.1666666666667</ele><time>2026-04-02T23:14:57.001Z</time></trkpt><trkpt lat="36.8529012286971" lon="-108.09548933992652"><ele>1846.0</ele><time>2026-04-02T23:14:59.001Z</time></trkpt><trkpt lat="36.85287266581094" lon="-108.09537759039023"><ele>1846.0</ele><time>2026-04-02T23:15:00.001Z</time></trkpt><trkpt lat="36.85283030537456" lon="-108.09530873796858"><ele>1846.0</ele><time>2026-04-02T23:15:01.001Z</time></trkpt><trkpt lat="36.85270911371475" lon="-108.09522135172743"><ele>1846.0</ele><time>2026-04-02T23:15:03.001Z</time></trkpt><trkpt lat="36.85264177534488" lon="-108.09516413904944"><ele>1846.0</ele><time>2026-04-02T23:15:04.001Z</time></trkpt><trkpt lat="36.85252595174417" lon="-108.09507931634377"><ele>1846.0</ele><time>2026-04-02T23:15:06.001Z</time></trkpt><trkpt lat="36.85247218429735" lon="-108.09499421481664"><ele>1845.0000000000002</ele><time>2026-04-02T23:15:07.001Z</time></trkpt><trkpt lat="36.85241729060161" lon="-108.09494343900987"><ele>1844.0</ele><time>2026-04-02T23:15:08.001Z</time></trkpt><trkpt lat="36.85233630238578" lon="-108.09490460916358"><ele>1843.0</ele><time>2026-04-02T23:15:09.001Z</time></trkpt><trkpt lat="36.85226779720666" lon="-108.09487522417498"><ele>1842.0</ele><time>2026-04-02T23:15:10.001Z</time></trkpt><trkpt lat="36.85221743512906" lon="-108.09474714197607"><ele>1841.0000000000002</ele><time>2026-04-02T23:15:12.001Z</time></trkpt><trkpt lat="36.85220507553593" lon="-108.0946590699117"><ele>1840.0</ele><time>2026-04-02T23:15:13.001Z</time></trkpt><trkpt lat="36.85220696306051" lon="-108.09456736198835"><ele>1840.0</ele><time>2026-04-02T23:15:14.001Z</time></trkpt><trkpt lat="36.8521883345269" lon="-108.09446426229965"><ele>1840.0</ele><time>2026-04-02T23:15:15.001Z</time></trkpt><trkpt lat="36.8521067553323" lon="-108.0944033317725"><ele>1840.0</ele><time>2026-04-02T23:15:17.001Z</time></trkpt><trkpt lat="36.85200675522869" lon="-108.09445502627558"><ele>1840.0</ele><time>2026-04-02T23:15:18.001Z</time></trkpt><trkpt lat="36.85189926922546" lon="-108.09453055580308"><ele>1840.0</ele><time>2026-04-02T23:15:19.001Z</time></trkpt><trkpt lat="36.8517752711625" lon="-108.09457803509544"><ele>1839.4</ele><time>2026-04-02T23:15:20.001Z</time></trkpt><trkpt lat="36.851666491572594" lon="-108.09465747848562"><ele>1838.8</ele><time>2026-04-02T23:15:21.001Z</time></trkpt><trkpt lat="36.851590258715525" lon="-108.09473190259493"><ele>1838.1999999999998</ele><time>2026-04-02T23:15:22.001Z</time></trkpt><trkpt lat="36.85152204162936" lon="-108.09477644808419"><ele>1837.6</ele><time>2026-04-02T23:15:23.001Z</time></trkpt><trkpt lat="36.85143509773767" lon="-108.0947915961948"><ele>1837.0</ele><time>2026-04-02T23:15:24.001Z</time></trkpt><trkpt lat="36.85130854480786" lon="-108.09480548206194"><ele>1837.0</ele><time>2026-04-02T23:15:25.001Z</time></trkpt><trkpt lat="36.851179465307546" lon="-108.09484575834121"><ele>1836.9999999999998</ele><time>2026-04-02T23:15:26.001Z</time></trkpt><trkpt lat="36.85106793073812" lon="-108.09487262334524"><ele>1836.9999999999998</ele><time>2026-04-02T23:15:27.001Z</time></trkpt><trkpt lat="36.85099998690112" lon="-108.09487228074201"><ele>1837.0</ele><time>2026-04-02T23:15:28.001Z</time></trkpt><trkpt lat="36.85092864961702" lon="-108.09496358762779"><ele>1837.0</ele><time>2026-04-02T23:15:30.001Z</time></trkpt><trkpt lat="36.85088897546448" lon="-108.0951100665861"><ele>1836.0</ele><time>2026-04-02T23:15:31.001Z</time></trkpt><trkpt lat="36.850863256080416" lon="-108.09525625374967"><ele>1834.9999999999998</ele><time>2026-04-02T23:15:32.001Z</time></trkpt><trkpt lat="36.85084299476079" lon="-108.09535269413006"><ele>1833.9999999999998</ele><time>2026-04-02T23:15:33.001Z</time></trkpt><trkpt lat="36.85080568908637" lon="-108.09543397523086"><ele>1833.0</ele><time>2026-04-02T23:15:34.001Z</time></trkpt><trkpt lat="36.85077204746693" lon="-108.09554876887074"><ele>1832.0</ele><time>2026-04-02T23:15:35.001Z</time></trkpt><trkpt lat="36.85074370196181" lon="-108.09565379084985"><ele>1830.3999999999999</ele><time>2026-04-02T23:15:36.001Z</time></trkpt><trkpt lat="36.85071006390258" lon="-108.09575374462803"><ele>1828.7999999999997</ele><time>2026-04-02T23:15:37.001Z</time></trkpt><trkpt lat="36.85066189651138" lon="-108.09582193531796"><ele>1827.2</ele><time>2026-04-02T23:15:38.001Z</time></trkpt><trkpt lat="36.85054358626141" lon="-108.0958935947563"><ele>1825.6</ele><time>2026-04-02T23:15:40.001Z</time></trkpt><trkpt lat="36.85043078325368" lon="-108.0959699330299"><ele>1824.0</ele><time>2026-04-02T23:15:42.001Z</time></trkpt><trkpt lat="36.85040013464745" lon="-108.09608356351399"><ele>1824.0</ele><time>2026-04-02T23:15:43.001Z</time></trkpt><trkpt lat="36.850395648078496" lon="-108.09621876404162"><ele>1824.0</ele><time>2026-04-02T23:15:44.001Z</time></trkpt><trkpt lat="36.85035958803815" lon="-108.09629895532646"><ele>1824.0</ele><time>2026-04-02T23:15:45.001Z</time></trkpt><trkpt lat="36.85029478058642" lon="-108.09633107839753"><ele>1824.0</ele><time>2026-04-02T23:15:46.001Z</time></trkpt><trkpt lat="36.85022886471221" lon="-108.0963931759374"><ele>1824.0</ele><time>2026-04-02T23:15:47.001Z</time></trkpt><trkpt lat="36.850175964216156" lon="-108.09647270267429"><ele>1824.0</ele><time>2026-04-02T23:15:48.001Z</time></trkpt><trkpt lat="36.850151520486214" lon="-108.09660173831578"><ele>1823.2</ele><time>2026-04-02T23:15:49.001Z</time></trkpt><trkpt lat="36.85012245355763" lon="-108.09673427205054"><ele>1822.4</ele><time>2026-04-02T23:15:50.001Z</time></trkpt><trkpt lat="36.85009669097077" lon="-108.09689686440068"><ele>1821.6</ele><time>2026-04-02T23:15:51.001Z</time></trkpt><trkpt lat="36.850058541297344" lon="-108.09699830284617"><ele>1820.8</ele><time>2026-04-02T23:15:52.001Z</time></trkpt><trkpt lat="36.85002217424552" lon="-108.09709615351164"><ele>1820.0</ele><time>2026-04-02T23:15:53.001Z</time></trkpt><trkpt lat="36.84998973778993" lon="-108.09723324257475"><ele>1820.0</ele><time>2026-04-02T23:15:54.001Z</time></trkpt><trkpt lat="36.84995290561049" lon="-108.09737873601084"><ele>1820.0</ele><time>2026-04-02T23:15:56.001Z</time></trkpt><trkpt lat="36.84984186754107" lon="-108.09743592428804"><ele>1820.0</ele><time>2026-04-02T23:15:57.001Z</time></trkpt><trkpt lat="36.84971457971386" lon="-108.0974847456149"><ele>1820.0</ele><time>2026-04-02T23:15:58.001Z</time></trkpt><trkpt lat="36.84958754061456" lon="-108.09753005116606"><ele>1818.6</ele><time>2026-04-02T23:15:59.001Z</time></trkpt><trkpt lat="36.8494682453494" lon="-108.0975713548384"><ele>1817.2</ele><time>2026-04-02T23:16:00.001Z</time></trkpt><trkpt lat="36.849340987198424" lon="-108.09761541624175"><ele>1815.8000000000002</ele><time>2026-04-02T23:16:01.001Z</time></trkpt><trkpt lat="36.84924253155641" lon="-108.09763586970189"><ele>1814.4</ele><time>2026-04-02T23:16:02.001Z</time></trkpt><trkpt lat="36.849149313542206" lon="-108.09763455520259"><ele>1813.0</ele><time>2026-04-02T23:16:03.001Z</time></trkpt><trkpt lat="36.84907041247279" lon="-108.09763785372438"><ele>1813.0</ele><time>2026-04-02T23:16:04.001Z</time></trkpt><trkpt lat="36.84901857878084" lon="-108.09768895999449"><ele>1813.0</ele><time>2026-04-02T23:16:06.001Z</time></trkpt><trkpt lat="36.849014738061676" lon="-108.09776975667926"><ele>1813.0</ele><time>2026-04-02T23:16:07Z</time></trkpt><trkpt lat="36.84900725537853" lon="-108.09788068654439"><ele>1813.0</ele><time>2026-04-02T23:16:08Z</time></trkpt><trkpt lat="36.84899931876461" lon="-108.09796244685765"><ele>1813.0</ele><time>2026-04-02T23:16:09Z</time></trkpt><trkpt lat="36.8489580807505" lon="-108.098039030353"><ele>1813.0</ele><time>2026-04-02T23:16:11Z</time></trkpt><trkpt lat="36.84889418448168" lon="-108.09806268135475"><ele>1813.0</ele><time>2026-04-02T23:16:12Z</time></trkpt><trkpt lat="36.848808825498885" lon="-108.09806879468806"><ele>1813.0</ele><time>2026-04-02T23:16:13Z</time></trkpt><trkpt lat="36.84873330509459" lon="-108.0980751058613"><ele>1813.0000000000002</ele><time>2026-04-02T23:16:14Z</time></trkpt><trkpt lat="36.84863087167408" lon="-108.09809869716473"><ele>1813.0000000000002</ele><time>2026-04-02T23:16:15Z</time></trkpt><trkpt lat="36.84855861272715" lon="-108.09810277590131"><ele>1813.0</ele><time>2026-04-02T23:16:16Z</time></trkpt><trkpt lat="36.848457745928464" lon="-108.09812679418707"><ele>1813.0</ele><time>2026-04-02T23:16:18Z</time></trkpt><trkpt lat="36.84834677404164" lon="-108.09819139436557"><ele>1811.8000000000002</ele><time>2026-04-02T23:16:19Z</time></trkpt><trkpt lat="36.848234145669544" lon="-108.09825447931883"><ele>1810.6000000000001</ele><time>2026-04-02T23:16:20Z</time></trkpt><trkpt lat="36.848160679758294" lon="-108.09828443356398"><ele>1809.3999999999999</ele><time>2026-04-02T23:16:21Z</time></trkpt><trkpt lat="36.84807765521889" lon="-108.09834753659335"><ele>1808.1999999999998</ele><time>2026-04-02T23:16:22Z</time></trkpt><trkpt lat="36.84798444932418" lon="-108.09842122275346"><ele>1807.0</ele><time>2026-04-02T23:16:23Z</time></trkpt><trkpt lat="36.84790806427559" lon="-108.09846385876116"><ele>1807.0</ele><time>2026-04-02T23:16:24Z</time></trkpt><trkpt lat="36.847830595682076" lon="-108.09853486903074"><ele>1807.0</ele><time>2026-04-02T23:16:25.001Z</time></trkpt><trkpt lat="36.84773876394059" lon="-108.09865392586565"><ele>1807.0</ele><time>2026-04-02T23:16:26.001Z</time></trkpt><trkpt lat="36.84763674959861" lon="-108.09878970048413"><ele>1807.0</ele><time>2026-04-02T23:16:27.001Z</time></trkpt><trkpt lat="36.84754768079652" lon="-108.09892049088019"><ele>1806.5</ele><time>2026-04-02T23:16:28.001Z</time></trkpt><trkpt lat="36.8474846038985" lon="-108.09906154125906"><ele>1806.0</ele><time>2026-04-02T23:16:29.001Z</time></trkpt><trkpt lat="36.84742484454517" lon="-108.0992156407493"><ele>1805.5</ele><time>2026-04-02T23:16:30.001Z</time></trkpt><trkpt lat="36.84735951746009" lon="-108.09933635741226"><ele>1805.0</ele><time>2026-04-02T23:16:31.001Z</time></trkpt><trkpt lat="36.84726991117074" lon="-108.0994355093985"><ele>1804.5</ele><time>2026-04-02T23:16:32.001Z</time></trkpt><trkpt lat="36.847147630588964" lon="-108.09953028099099"><ele>1804.0</ele><time>2026-04-02T23:16:33.001Z</time></trkpt><trkpt lat="36.847025621145555" lon="-108.09964305579402"><ele>1803.5</ele><time>2026-04-02T23:16:34.001Z</time></trkpt><trkpt lat="36.84693170178885" lon="-108.09974317946849"><ele>1803.0</ele><time>2026-04-02T23:16:35.001Z</time></trkpt><trkpt lat="36.846863240913564" lon="-108.09984648502842"><ele>1803.0</ele><time>2026-04-02T23:16:36.001Z</time></trkpt><trkpt lat="36.84681584522071" lon="-108.09998130036362"><ele>1803.0000000000002</ele><time>2026-04-02T23:16:37.001Z</time></trkpt><trkpt lat="36.84677257942433" lon="-108.10009287586067"><ele>1803.0000000000002</ele><time>2026-04-02T23:16:38.001Z</time></trkpt><trkpt lat="36.84672697391501" lon="-108.10015259363004"><ele>1803.0</ele><time>2026-04-02T23:16:39Z</time></trkpt><trkpt lat="36.84665672156942" lon="-108.10019848152135"><ele>1803.0</ele><time>2026-04-02T23:16:40Z</time></trkpt><trkpt lat="36.84655634869202" lon="-108.10020785564814"><ele>1802.75</ele><time>2026-04-02T23:16:41Z</time></trkpt><trkpt lat="36.84642975690164" lon="-108.10016857598197"><ele>1802.5</ele><time>2026-04-02T23:16:42Z</time></trkpt><trkpt lat="36.84630025522879" lon="-108.10012668796021"><ele>1802.25</ele><time>2026-04-02T23:16:43Z</time></trkpt><trkpt lat="36.846195801750376" lon="-108.10009356177532"><ele>1802.0</ele><time>2026-04-02T23:16:44Z</time></trkpt><trkpt lat="36.84609716803373" lon="-108.10005561055647"><ele>1802.0</ele><time>2026-04-02T23:16:45Z</time></trkpt><trkpt lat="36.84597993283661" lon="-108.10002590065858"><ele>1801.9999999999998</ele><time>2026-04-02T23:16:46Z</time></trkpt><trkpt lat="36.845863909676325" lon="-108.09999563258206"><ele>1801.9999999999998</ele><time>2026-04-02T23:16:47Z</time></trkpt><trkpt lat="36.8458127712299" lon="-108.09994011708226"><ele>1802.0</ele><time>2026-04-02T23:16:48Z</time></trkpt><trkpt lat="36.84578886819604" lon="-108.09986185934208"><ele>1802.0</ele><time>2026-04-02T23:16:49Z</time></trkpt><trkpt lat="36.84566889445757" lon="-108.09986542213683"><ele>1801.8</ele><time>2026-04-02T23:16:51Z</time></trkpt><trkpt lat="36.845574174150435" lon="-108.09996870800589"><ele>1801.6</ele><time>2026-04-02T23:16:52Z</time></trkpt><trkpt lat="36.845471337529645" lon="-108.10007880507894"><ele>1801.3999999999999</ele><time>2026-04-02T23:16:53Z</time></trkpt><trkpt lat="36.845392546270666" lon="-108.10014837578056"><ele>1801.1999999999998</ele><time>2026-04-02T23:16:54Z</time></trkpt><trkpt lat="36.84531319539518" lon="-108.10017883835137"><ele>1801.0</ele><time>2026-04-02T23:16:55Z</time></trkpt><trkpt lat="36.845227120358764" lon="-108.1002201573135"><ele>1801.0000000000002</ele><time>2026-04-02T23:16:56Z</time></trkpt><trkpt lat="36.84516262504687" lon="-108.10022943423581"><ele>1801.0</ele><time>2026-04-02T23:16:57Z</time></trkpt><trkpt lat="36.845080660091554" lon="-108.10020851592859"><ele>1801.0</ele><time>2026-04-02T23:16:58Z</time></trkpt><trkpt lat="36.844973965807675" lon="-108.10023377943044"><ele>1801.0</ele><time>2026-04-02T23:16:59Z</time></trkpt><trkpt lat="36.84488097554885" lon="-108.10030190129545"><ele>1801.0000000000002</ele><time>2026-04-02T23:17:01Z</time></trkpt><trkpt lat="36.844813609041324" lon="-108.10025034543567"><ele>1801.0</ele><time>2026-04-02T23:17:02Z</time></trkpt><trkpt lat="36.84473383880015" lon="-108.10016997387318"><ele>1802.0</ele><time>2026-04-02T23:17:03Z</time></trkpt><trkpt lat="36.84464522532679" lon="-108.10006652638788"><ele>1803.0</ele><time>2026-04-02T23:17:04Z</time></trkpt><trkpt lat="36.844572548415876" lon="-108.09998666232384"><ele>1804.0</ele><time>2026-04-02T23:17:05Z</time></trkpt><trkpt lat="36.84451688208934" lon="-108.09992231957173"><ele>1805.0</ele><time>2026-04-02T23:17:06Z</time></trkpt><trkpt lat="36.84441545792846" lon="-108.09991221553842"><ele>1806.0</ele><time>2026-04-02T23:17:08Z</time></trkpt><trkpt lat="36.844349671773614" lon="-108.09995791913427"><ele>1806.142857142857</ele><time>2026-04-02T23:17:09Z</time></trkpt><trkpt lat="36.84429348612578" lon="-108.10000141755008"><ele>1806.2857142857142</ele><time>2026-04-02T23:17:10Z</time></trkpt><trkpt lat="36.8442273605522" lon="-108.1000591043404"><ele>1806.4285714285716</ele><time>2026-04-02T23:17:11Z</time></trkpt><trkpt lat="36.844150519076926" lon="-108.10011561730941"><ele>1806.5714285714287</ele><time>2026-04-02T23:17:12Z</time></trkpt><trkpt lat="36.84407838981162" lon="-108.10013796352526"><ele>1806.7142857142858</ele><time>2026-04-02T23:17:13Z</time></trkpt><trkpt lat="36.84401939471939" lon="-108.10017364734635"><ele>1806.8571428571431</ele><time>2026-04-02T23:17:14Z</time></trkpt><trkpt lat="36.84397000313952" lon="-108.10022284735052"><ele>1807.0000000000002</ele><time>2026-04-02T23:17:15Z</time></trkpt><trkpt lat="36.843921038965924" lon="-108.10029900862833"><ele>1807.0</ele><time>2026-04-02T23:17:16Z</time></trkpt><trkpt lat="36.84388594361762" lon="-108.10036489494986"><ele>1806.9999999999998</ele><time>2026-04-02T23:17:17Z</time></trkpt><trkpt lat="36.84382754995762" lon="-108.1004288363943"><ele>1806.9999999999998</ele><time>2026-04-02T23:17:18Z</time></trkpt><trkpt lat="36.84372757663862" lon="-108.1004863319765"><ele>1807.0</ele><time>2026-04-02T23:17:19Z</time></trkpt><trkpt lat="36.84362717061872" lon="-108.10056953896375"><ele>1807.0</ele><time>2026-04-02T23:17:20Z</time></trkpt><trkpt lat="36.84356739854841" lon="-108.10066553154114"><ele>1806.3999999999999</ele><time>2026-04-02T23:17:21Z</time></trkpt><trkpt lat="36.84353921135708" lon="-108.10075215936544"><ele>1805.7999999999997</ele><time>2026-04-02T23:17:22Z</time></trkpt><trkpt lat="36.84354601767593" lon="-108.10088022541063"><ele>1805.2</ele><time>2026-04-02T23:17:23.999Z</time></trkpt><trkpt lat="36.84349391739156" lon="-108.10096885092197"><ele>1804.6</ele><time>2026-04-02T23:17:25.999Z</time></trkpt><trkpt lat="36.84347234128052" lon="-108.10104550189276"><ele>1804.0</ele><time>2026-04-02T23:17:27.999Z</time></trkpt><trkpt lat="36.843433682379406" lon="-108.10127113139711"><ele>1804.0000000000002</ele><time>2026-04-02T23:17:29.999Z</time></trkpt><trkpt lat="36.843436286736775" lon="-108.10135221986222"><ele>1804.0</ele><time>2026-04-02T23:17:30.999Z</time></trkpt><trkpt lat="36.84344439591895" lon="-108.10143511439435"><ele>1804.0</ele><time>2026-04-02T23:17:31.999Z</time></trkpt><trkpt lat="36.843458658912795" lon="-108.101528931562"><ele>1804.0</ele><time>2026-04-02T23:17:32.999Z</time></trkpt><trkpt lat="36.8434707192289" lon="-108.10163926083959"><ele>1804.0000000000002</ele><time>2026-04-02T23:17:33.999Z</time></trkpt><trkpt lat="36.843469741312624" lon="-108.10173857671755"><ele>1804.0</ele><time>2026-04-02T23:17:34.999Z</time></trkpt><trkpt lat="36.84346461522589" lon="-108.10182993264259"><ele>1803.0</ele><time>2026-04-02T23:17:35.999Z</time></trkpt><trkpt lat="36.84346567746829" lon="-108.10191262851399"><ele>1802.0</ele><time>2026-04-02T23:17:36.999Z</time></trkpt><trkpt lat="36.84346847060463" lon="-108.1019934463639"><ele>1801.0</ele><time>2026-04-02T23:17:37.999Z</time></trkpt><trkpt lat="36.8434799189639" lon="-108.10208533039679"><ele>1800.0</ele><time>2026-04-02T23:17:38.999Z</time></trkpt><trkpt lat="36.84347234097486" lon="-108.10218231650015"><ele>1799.0</ele><time>2026-04-02T23:17:39.999Z</time></trkpt><trkpt lat="36.843455535815544" lon="-108.10226102596032"><ele>1798.0</ele><time>2026-04-02T23:17:40.999Z</time></trkpt><trkpt lat="36.84343277282077" lon="-108.10235318216452"><ele>1797.0</ele><time>2026-04-02T23:17:41.999Z</time></trkpt><trkpt lat="36.84339555591683" lon="-108.10245982420444"><ele>1795.8</ele><time>2026-04-02T23:17:42.999Z</time></trkpt><trkpt lat="36.84335463645836" lon="-108.10256967373174"><ele>1794.6</ele><time>2026-04-02T23:17:43.999Z</time></trkpt><trkpt lat="36.8433197401073" lon="-108.10267641100397"><ele>1793.3999999999999</ele><time>2026-04-02T23:17:44.999Z</time></trkpt><trkpt lat="36.84328139373568" lon="-108.10278456809432"><ele>1792.1999999999998</ele><time>2026-04-02T23:17:45.999Z</time></trkpt><trkpt lat="36.84323924774484" lon="-108.10290953443153"><ele>1791.0</ele><time>2026-04-02T23:17:46.999Z</time></trkpt><trkpt lat="36.843179356468774" lon="-108.10304740408223"><ele>1791.0</ele><time>2026-04-02T23:17:47.999Z</time></trkpt><trkpt lat="36.84313573063118" lon="-108.10323052014724"><ele>1791.0</ele><time>2026-04-02T23:17:48.999Z</time></trkpt><trkpt lat="36.84296068506899" lon="-108.10358649856174"><ele>1790.75</ele><time>2026-04-02T23:17:49.999Z</time></trkpt><trkpt lat="36.84290913876957" lon="-108.10377657785271"><ele>1790.5</ele><time>2026-04-02T23:17:50.999Z</time></trkpt><trkpt lat="36.84285814535072" lon="-108.10396234082349"><ele>1790.25</ele><time>2026-04-02T23:17:51.999Z</time></trkpt><trkpt lat="36.84281345309593" lon="-108.10410678549314"><ele>1790.0</ele><time>2026-04-02T23:17:52.999Z</time></trkpt><trkpt lat="36.84277565479409" lon="-108.10422849216826"><ele>1789.9999999999998</ele><time>2026-04-02T23:17:53.999Z</time></trkpt><trkpt lat="36.842744622518275" lon="-108.10433475688363"><ele>1790.0</ele><time>2026-04-02T23:17:54.999Z</time></trkpt><trkpt lat="36.8427168468458" lon="-108.10443804995553"><ele>1790.0</ele><time>2026-04-02T23:17:55.999Z</time></trkpt><trkpt lat="36.84269297905018" lon="-108.1045263887675"><ele>1790.0</ele><time>2026-04-02T23:17:56.999Z</time></trkpt><trkpt lat="36.84266071436495" lon="-108.10463864176194"><ele>1789.9999999999998</ele><time>2026-04-02T23:17:58.999Z</time></trkpt><trkpt lat="36.842658824540436" lon="-108.10471905306635"><ele>1790.0</ele><time>2026-04-02T23:18:02.999Z</time></trkpt><trkpt lat="36.84257832798211" lon="-108.10477399542907"><ele>1789.0</ele><time>2026-04-02T23:18:05.999Z</time></trkpt><trkpt lat="36.84248142598275" lon="-108.10481486991426"><ele>1788.0</ele><time>2026-04-02T23:18:08.999Z</time></trkpt><trkpt lat="36.8423699290457" lon="-108.10493843194774"><ele>1787.0</ele><time>2026-04-02T23:18:10.999Z</time></trkpt><trkpt lat="36.84229847480345" lon="-108.10498090638798"><ele>1786.0</ele><time>2026-04-02T23:18:11.999Z</time></trkpt><trkpt lat="36.842214513664615" lon="-108.10500289926527"><ele>1785.0</ele><time>2026-04-02T23:18:12.999Z</time></trkpt><trkpt lat="36.84212219878865" lon="-108.1050353716869"><ele>1785.0</ele><time>2026-04-02T23:18:13.999Z</time></trkpt><trkpt lat="36.8420382007289" lon="-108.10508106054395"><ele>1785.0</ele><time>2026-04-02T23:18:14.999Z</time></trkpt><trkpt lat="36.84195977859831" lon="-108.1051330964738"><ele>1785.0</ele><time>2026-04-02T23:18:15.999Z</time></trkpt><trkpt lat="36.841890349386006" lon="-108.105203982198"><ele>1785.0</ele><time>2026-04-02T23:18:17.999Z</time></trkpt><trkpt lat="36.84191835406247" lon="-108.10532711230026"><ele>1785.0</ele><time>2026-04-02T23:18:20.999Z</time></trkpt><trkpt lat="36.84197253465379" lon="-108.10538844627763"><ele>1785.0</ele><time>2026-04-02T23:18:21.999Z</time></trkpt><trkpt lat="36.84203373913528" lon="-108.10545924550577"><ele>1785.0</ele><time>2026-04-02T23:18:22.999Z</time></trkpt><trkpt lat="36.842133278555195" lon="-108.10552124342932"><ele>1785.0</ele><time>2026-04-02T23:18:23.999Z</time></trkpt><trkpt lat="36.8422144269871" lon="-108.10563284095686"><ele>1785.0</ele><time>2026-04-02T23:18:24.999Z</time></trkpt><trkpt lat="36.84229943052897" lon="-108.10573577458729"><ele>1785.0</ele><time>2026-04-02T23:18:25.999Z</time></trkpt><trkpt lat="36.84232592716973" lon="-108.10585855613533"><ele>1785.2</ele><time>2026-04-02T23:18:26.999Z</time></trkpt><trkpt lat="36.84235934008314" lon="-108.10592760017282"><ele>1785.4</ele><time>2026-04-02T23:18:27.999Z</time></trkpt><trkpt lat="36.842364666366386" lon="-108.10608709038327"><ele>1785.6</ele><time>2026-04-02T23:18:29.999Z</time></trkpt><trkpt lat="36.842329511139134" lon="-108.10618754047258"><ele>1785.8</ele><time>2026-04-02T23:18:31Z</time></trkpt><trkpt lat="36.84227940112707" lon="-108.10632585488861"><ele>1786.0</ele><time>2026-04-02T23:18:32Z</time></trkpt><trkpt lat="36.842223411070705" lon="-108.10647859172032"><ele>1786.5</ele><time>2026-04-02T23:18:33Z</time></trkpt><trkpt lat="36.84215472175235" lon="-108.10660300079607"><ele>1787.0</ele><time>2026-04-02T23:18:34Z</time></trkpt><trkpt lat="36.84204644789576" lon="-108.10670895626359"><ele>1787.5</ele><time>2026-04-02T23:18:35Z</time></trkpt><trkpt lat="36.8419261780281" lon="-108.10681645300123"><ele>1788.0</ele><time>2026-04-02T23:18:36Z</time></trkpt><trkpt lat="36.84184435181288" lon="-108.10691431660364"><ele>1788.0</ele><time>2026-04-02T23:18:37Z</time></trkpt><trkpt lat="36.84178705571251" lon="-108.1070358260371"><ele>1788.0000000000002</ele><time>2026-04-02T23:18:38Z</time></trkpt><trkpt lat="36.84173409231147" lon="-108.10715773256807"><ele>1788.0000000000002</ele><time>2026-04-02T23:18:39Z</time></trkpt><trkpt lat="36.84169435250728" lon="-108.10722744861432"><ele>1788.0</ele><time>2026-04-02T23:18:40Z</time></trkpt><trkpt lat="36.84170354099442" lon="-108.10732879119834"><ele>1788.0</ele><time>2026-04-02T23:18:42Z</time></trkpt><trkpt lat="36.841703857233405" lon="-108.10744541668383"><ele>1788.75</ele><time>2026-04-02T23:18:43Z</time></trkpt><trkpt lat="36.841814077964564" lon="-108.10761930333518"><ele>1789.5</ele><time>2026-04-02T23:18:44Z</time></trkpt><trkpt lat="36.8418460910362" lon="-108.10777157183149"><ele>1790.25</ele><time>2026-04-02T23:18:45Z</time></trkpt><trkpt lat="36.84187739514604" lon="-108.10789047487549"><ele>1791.0</ele><time>2026-04-02T23:18:46Z</time></trkpt><trkpt lat="36.84200075163504" lon="-108.10795558416935"><ele>1791.0</ele><time>2026-04-02T23:18:48Z</time></trkpt><trkpt lat="36.84208556189881" lon="-108.10801190599695"><ele>1791.0</ele><time>2026-04-02T23:18:49Z</time></trkpt><trkpt lat="36.84217373461576" lon="-108.10809037858222"><ele>1791.0</ele><time>2026-04-02T23:18:50Z</time></trkpt><trkpt lat="36.84228923826926" lon="-108.10817716618078"><ele>1791.0</ele><time>2026-04-02T23:18:51Z</time></trkpt><trkpt lat="36.84239855037093" lon="-108.10824892145186"><ele>1793.0</ele><time>2026-04-02T23:18:52Z</time></trkpt><trkpt lat="36.84251144874197" lon="-108.10833690541068"><ele>1795.0</ele><time>2026-04-02T23:18:53Z</time></trkpt><trkpt lat="36.842574801574386" lon="-108.10845670945452"><ele>1797.0</ele><time>2026-04-02T23:18:54Z</time></trkpt><trkpt lat="36.84253743366083" lon="-108.10861515353788"><ele>1799.0</ele><time>2026-04-02T23:18:56Z</time></trkpt><trkpt lat="36.842503839498306" lon="-108.10870453588944"><ele>1798.9999999999998</ele><time>2026-04-02T23:18:57Z</time></trkpt><trkpt lat="36.842471896052494" lon="-108.10879241132947"><ele>1799.0</ele><time>2026-04-02T23:18:58Z</time></trkpt><trkpt lat="36.842440298246665" lon="-108.10888359885864"><ele>1799.0</ele><time>2026-04-02T23:18:59Z</time></trkpt><trkpt lat="36.84240129421805" lon="-108.10896510327511"><ele>1799.0</ele><time>2026-04-02T23:19:00Z</time></trkpt><trkpt lat="36.84237003496962" lon="-108.10905415713542"><ele>1798.9999999999998</ele><time>2026-04-02T23:19:01Z</time></trkpt><trkpt lat="36.842348704921065" lon="-108.10915563904233"><ele>1799.0</ele><time>2026-04-02T23:19:02Z</time></trkpt><trkpt lat="36.84232779677668" lon="-108.10927053361688"><ele>1800.3333333333333</ele><time>2026-04-02T23:19:03Z</time></trkpt><trkpt lat="36.842293290347904" lon="-108.10937283954375"><ele>1801.6666666666665</ele><time>2026-04-02T23:19:04Z</time></trkpt><trkpt lat="36.8422492360308" lon="-108.10944753412984"><ele>1803.0</ele><time>2026-04-02T23:19:05Z</time></trkpt><trkpt lat="36.84221933668451" lon="-108.10954966472775"><ele>1804.3333333333335</ele><time>2026-04-02T23:19:07Z</time></trkpt><trkpt lat="36.842208106510896" lon="-108.10965853333896"><ele>1805.6666666666667</ele><time>2026-04-02T23:19:09Z</time></trkpt><trkpt lat="36.84223313929803" lon="-108.10973312158248"><ele>1807.0</ele><time>2026-04-02T23:19:10Z</time></trkpt><trkpt lat="36.842233124093624" lon="-108.10982078852695"><ele>1806.5000000000002</ele><time>2026-04-02T23:19:11Z</time></trkpt><trkpt lat="36.842215167569286" lon="-108.10991794632405"><ele>1806.0</ele><time>2026-04-02T23:19:12Z</time></trkpt><trkpt lat="36.842170925805895" lon="-108.11001162033271"><ele>1805.5</ele><time>2026-04-02T23:19:13Z</time></trkpt><trkpt lat="36.84212516197009" lon="-108.110079333368"><ele>1805.0</ele><time>2026-04-02T23:19:14Z</time></trkpt><trkpt lat="36.842082125639976" lon="-108.11016621776653"><ele>1804.5000000000002</ele><time>2026-04-02T23:19:15Z</time></trkpt><trkpt lat="36.84205366353335" lon="-108.11026412241824"><ele>1804.0</ele><time>2026-04-02T23:19:16Z</time></trkpt><trkpt lat="36.84203155490288" lon="-108.11035136611633"><ele>1804.0</ele><time>2026-04-02T23:19:17Z</time></trkpt><trkpt lat="36.842085731508185" lon="-108.11046783893029"><ele>1804.0</ele><time>2026-04-02T23:19:19Z</time></trkpt><trkpt lat="36.842148791662254" lon="-108.11057194924219"><ele>1804.0</ele><time>2026-04-02T23:19:21Z</time></trkpt><trkpt lat="36.84220472620245" lon="-108.11063383061463"><ele>1804.0</ele><time>2026-04-02T23:19:22Z</time></trkpt><trkpt lat="36.84228758416966" lon="-108.11069731055524"><ele>1804.0</ele><time>2026-04-02T23:19:23Z</time></trkpt><trkpt lat="36.84238213677595" lon="-108.11077627228016"><ele>1803.75</ele><time>2026-04-02T23:19:24Z</time></trkpt><trkpt lat="36.84248303485843" lon="-108.11087125951154"><ele>1803.5</ele><time>2026-04-02T23:19:25Z</time></trkpt><trkpt lat="36.84259434704453" lon="-108.11098013326439"><ele>1803.25</ele><time>2026-04-02T23:19:26Z</time></trkpt><trkpt lat="36.842702338447516" lon="-108.11109428002794"><ele>1803.0</ele><time>2026-04-02T23:19:27Z</time></trkpt><trkpt lat="36.84278933486614" lon="-108.11117130584324"><ele>1804.0</ele><time>2026-04-02T23:19:28Z</time></trkpt><trkpt lat="36.84285435143422" lon="-108.11123738708484"><ele>1805.0</ele><time>2026-04-02T23:19:29Z</time></trkpt><trkpt lat="36.842896489756974" lon="-108.11130649985768"><ele>1806.0</ele><time>2026-04-02T23:19:30Z</time></trkpt><trkpt lat="36.84293481899299" lon="-108.11141455993578"><ele>1807.0</ele><time>2026-04-02T23:19:32Z</time></trkpt><trkpt lat="36.843016879594465" lon="-108.11144057783115"><ele>1808.0</ele><time>2026-04-02T23:19:34Z</time></trkpt><trkpt lat="36.84307434665199" lon="-108.111478193871"><ele>1809.0</ele><time>2026-04-02T23:19:35Z</time></trkpt><trkpt lat="36.84313519823403" lon="-108.11152207504374"><ele>1809.0</ele><time>2026-04-02T23:19:36Z</time></trkpt><trkpt lat="36.84324155035686" lon="-108.11156548410293"><ele>1809.0</ele><time>2026-04-02T23:19:38Z</time></trkpt><trkpt lat="36.8433071224352" lon="-108.11160451223631"><ele>1809.0</ele><time>2026-04-02T23:19:39Z</time></trkpt><trkpt lat="36.843375782875334" lon="-108.1116444944407"><ele>1809.0</ele><time>2026-04-02T23:19:40Z</time></trkpt><trkpt lat="36.84349107436014" lon="-108.11161518969344"><ele>1809.0</ele><time>2026-04-02T23:19:42Z</time></trkpt><trkpt lat="36.84358354983346" lon="-108.11160739384924"><ele>1810.0</ele><time>2026-04-02T23:19:43Z</time></trkpt><trkpt lat="36.84368619577253" lon="-108.11161049741966"><ele>1811.0</ele><time>2026-04-02T23:19:44Z</time></trkpt><trkpt lat="36.84377252071684" lon="-108.11157987707678"><ele>1812.0</ele><time>2026-04-02T23:19:45Z</time></trkpt><trkpt lat="36.84387265162723" lon="-108.11152762320057"><ele>1813.0</ele><time>2026-04-02T23:19:46Z</time></trkpt><trkpt lat="36.84395928192315" lon="-108.11149174687621"><ele>1814.0</ele><time>2026-04-02T23:19:47Z</time></trkpt><trkpt lat="36.84403746599654" lon="-108.11147315217441"><ele>1814.0</ele><time>2026-04-02T23:19:48Z</time></trkpt><trkpt lat="36.844106287107834" lon="-108.11146377268511"><ele>1814.0</ele><time>2026-04-02T23:19:49Z</time></trkpt><trkpt lat="36.84421623316212" lon="-108.11150293040355"><ele>1814.0</ele><time>2026-04-02T23:19:51Z</time></trkpt><trkpt lat="36.84425540749448" lon="-108.11156734758293"><ele>1814.0</ele><time>2026-04-02T23:19:52Z</time></trkpt><trkpt lat="36.84429673725867" lon="-108.11173400312657"><ele>1814.0</ele><time>2026-04-02T23:19:54Z</time></trkpt><trkpt lat="36.84430909768608" lon="-108.11186376776847"><ele>1814.4</ele><time>2026-04-02T23:19:55Z</time></trkpt><trkpt lat="36.84431158980573" lon="-108.11201619065709"><ele>1814.8000000000002</ele><time>2026-04-02T23:19:56Z</time></trkpt><trkpt lat="36.8443191344066" lon="-108.11214686021222"><ele>1815.1999999999998</ele><time>2026-04-02T23:19:57Z</time></trkpt><trkpt lat="36.84433280906785" lon="-108.1122684618154"><ele>1815.6</ele><time>2026-04-02T23:19:58Z</time></trkpt><trkpt lat="36.84434438716443" lon="-108.11241295625605"><ele>1816.0</ele><time>2026-04-02T23:19:59Z</time></trkpt><trkpt lat="36.84434607426335" lon="-108.1125392383155"><ele>1816.0000000000002</ele><time>2026-04-02T23:20:00Z</time></trkpt><trkpt lat="36.84434993521412" lon="-108.11264771672835"><ele>1816.0</ele><time>2026-04-02T23:20:01Z</time></trkpt><trkpt lat="36.8443616663127" lon="-108.11273839043871"><ele>1816.0</ele><time>2026-04-02T23:20:02Z</time></trkpt><trkpt lat="36.84438123483519" lon="-108.11281826551762"><ele>1816.0</ele><time>2026-04-02T23:20:03Z</time></trkpt><trkpt lat="36.84445266679551" lon="-108.1129533802861"><ele>1816.0000000000002</ele><time>2026-04-02T23:20:05Z</time></trkpt><trkpt lat="36.84449976313014" lon="-108.11303000953357"><ele>1816.0</ele><time>2026-04-02T23:20:06Z</time></trkpt><trkpt lat="36.84455662798913" lon="-108.11313043778704"><ele>1816.0</ele><time>2026-04-02T23:20:07Z</time></trkpt><trkpt lat="36.844615347299715" lon="-108.1132572099637"><ele>1816.0</ele><time>2026-04-02T23:20:08Z</time></trkpt><trkpt lat="36.84468528412823" lon="-108.11337901010003"><ele>1816.0</ele><time>2026-04-02T23:20:09Z</time></trkpt><trkpt lat="36.844760520162616" lon="-108.11345689916496"><ele>1816.0</ele><time>2026-04-02T23:20:10Z</time></trkpt><trkpt lat="36.844852015426014" lon="-108.11354844601125"><ele>1816.0000000000002</ele><time>2026-04-02T23:20:11Z</time></trkpt><trkpt lat="36.844904340113125" lon="-108.11361170142669"><ele>1816.0</ele><time>2026-04-02T23:20:11.999Z</time></trkpt><trkpt lat="36.84492314698103" lon="-108.11371602063836"><ele>1816.0</ele><time>2026-04-02T23:20:13.999Z</time></trkpt><trkpt lat="36.84492630182774" lon="-108.11380054838723"><ele>1816.0</ele><time>2026-04-02T23:20:14.999Z</time></trkpt><trkpt lat="36.84491508305348" lon="-108.11390324207025"><ele>1816.0000000000002</ele><time>2026-04-02T23:20:15.999Z</time></trkpt><trkpt lat="36.84486597781406" lon="-108.11401670612884"><ele>1816.0</ele><time>2026-04-02T23:20:17.999Z</time></trkpt><trkpt lat="36.84493247904076" lon="-108.11414765078145"><ele>1815.0</ele><time>2026-04-02T23:20:19.999Z</time></trkpt><trkpt lat="36.84496709646595" lon="-108.1142649078556"><ele>1814.0</ele><time>2026-04-02T23:20:20.999Z</time></trkpt><trkpt lat="36.84494825862631" lon="-108.11436796849"><ele>1813.0</ele><time>2026-04-02T23:20:21.999Z</time></trkpt><trkpt lat="36.844978126481024" lon="-108.11448059048138"><ele>1812.0</ele><time>2026-04-02T23:20:22.999Z</time></trkpt><trkpt lat="36.844956082814576" lon="-108.11457817305993"><ele>1811.0</ele><time>2026-04-02T23:20:23.999Z</time></trkpt><trkpt lat="36.84492857892966" lon="-108.11469146843844"><ele>1811.0</ele><time>2026-04-02T23:20:25.999Z</time></trkpt><trkpt lat="36.84496528217017" lon="-108.11484028717962"><ele>1811.0</ele><time>2026-04-02T23:20:27.999Z</time></trkpt><trkpt lat="36.84490893832666" lon="-108.11492704837652"><ele>1811.0</ele><time>2026-04-02T23:20:29.999Z</time></trkpt><trkpt lat="36.84484139832978" lon="-108.11505732828877"><ele>1811.0</ele><time>2026-04-02T23:20:31.999Z</time></trkpt><trkpt lat="36.844881415461245" lon="-108.11521578293306"><ele>1810.0</ele><time>2026-04-02T23:20:33.999Z</time></trkpt><trkpt lat="36.8449076616369" lon="-108.11532554438224"><ele>1809.0</ele><time>2026-04-02T23:20:34.999Z</time></trkpt><trkpt lat="36.84494895712238" lon="-108.11547748529485"><ele>1808.0</ele><time>2026-04-02T23:20:35.999Z</time></trkpt><trkpt lat="36.84498658432663" lon="-108.11559017213472"><ele>1807.0</ele><time>2026-04-02T23:20:37Z</time></trkpt><trkpt lat="36.84505791780855" lon="-108.11569148999038"><ele>1806.0</ele><time>2026-04-02T23:20:38Z</time></trkpt><trkpt lat="36.84513748148598" lon="-108.11581366769566"><ele>1805.8</ele><time>2026-04-02T23:20:39Z</time></trkpt><trkpt lat="36.84521571008577" lon="-108.1159227678624"><ele>1805.6</ele><time>2026-04-02T23:20:40Z</time></trkpt><trkpt lat="36.84527248494893" lon="-108.11601680349786"><ele>1805.4</ele><time>2026-04-02T23:20:41Z</time></trkpt><trkpt lat="36.84526970508806" lon="-108.11614151222436"><ele>1805.2</ele><time>2026-04-02T23:20:43Z</time></trkpt><trkpt lat="36.84522722945106" lon="-108.11621354445768"><ele>1805.0</ele><time>2026-04-02T23:20:45Z</time></trkpt><trkpt lat="36.8451368348696" lon="-108.1163260459594"><ele>1804.4</ele><time>2026-04-02T23:20:47Z</time></trkpt><trkpt lat="36.845073252700054" lon="-108.11641287272167"><ele>1803.8</ele><time>2026-04-02T23:20:48Z</time></trkpt><trkpt lat="36.84499857041308" lon="-108.11649591942721"><ele>1803.1999999999998</ele><time>2026-04-02T23:20:49Z</time></trkpt><trkpt lat="36.84489128527866" lon="-108.11657202367832"><ele>1802.6</ele><time>2026-04-02T23:20:50Z</time></trkpt><trkpt lat="36.84479935723036" lon="-108.11664230981341"><ele>1802.0</ele><time>2026-04-02T23:20:51Z</time></trkpt><trkpt lat="36.84473588346106" lon="-108.11670897165249"><ele>1801.0</ele><time>2026-04-02T23:20:52Z</time></trkpt><trkpt lat="36.84467700178761" lon="-108.11680896500012"><ele>1799.9999999999998</ele><time>2026-04-02T23:20:53Z</time></trkpt><trkpt lat="36.84462343784836" lon="-108.11691383217389"><ele>1798.9999999999998</ele><time>2026-04-02T23:20:54Z</time></trkpt><trkpt lat="36.844592101829846" lon="-108.11701180152295"><ele>1798.0</ele><time>2026-04-02T23:20:55Z</time></trkpt><trkpt lat="36.84455540191008" lon="-108.11709116203089"><ele>1797.0</ele><time>2026-04-02T23:20:56Z</time></trkpt><trkpt lat="36.844497211365706" lon="-108.11721583015245"><ele>1797.0</ele><time>2026-04-02T23:20:57Z</time></trkpt><trkpt lat="36.84443848165121" lon="-108.11734861509989"><ele>1796.9999999999998</ele><time>2026-04-02T23:20:58Z</time></trkpt><trkpt lat="36.84438574458247" lon="-108.1174368387158"><ele>1796.9999999999998</ele><time>2026-04-02T23:20:59Z</time></trkpt><trkpt lat="36.844310999001074" lon="-108.11747986190967"><ele>1797.0</ele><time>2026-04-02T23:21:00Z</time></trkpt><trkpt lat="36.84423742084981" lon="-108.11753973354473"><ele>1797.0</ele><time>2026-04-02T23:21:01Z</time></trkpt><trkpt lat="36.844156119620564" lon="-108.11761348847179"><ele>1798.1999999999998</ele><time>2026-04-02T23:21:02Z</time></trkpt><trkpt lat="36.84409122134635" lon="-108.11770281279428"><ele>1799.3999999999999</ele><time>2026-04-02T23:21:03Z</time></trkpt><trkpt lat="36.844047620486386" lon="-108.11778821569993"><ele>1800.6000000000001</ele><time>2026-04-02T23:21:04Z</time></trkpt><trkpt lat="36.843979661883445" lon="-108.11788239466215"><ele>1801.8000000000002</ele><time>2026-04-02T23:21:05Z</time></trkpt><trkpt lat="36.84389656134784" lon="-108.11796334504429"><ele>1803.0</ele><time>2026-04-02T23:21:06Z</time></trkpt><trkpt lat="36.84378941344378" lon="-108.1180367851142"><ele>1803.0</ele><time>2026-04-02T23:21:07Z</time></trkpt><trkpt lat="36.843736221614066" lon="-108.11813166822064"><ele>1803.0000000000002</ele><time>2026-04-02T23:21:08Z</time></trkpt><trkpt lat="36.84370082329448" lon="-108.11822875974632"><ele>1803.0000000000002</ele><time>2026-04-02T23:21:09Z</time></trkpt><trkpt lat="36.843592546756966" lon="-108.1183817177756"><ele>1803.0</ele><time>2026-04-02T23:21:11Z</time></trkpt><trkpt lat="36.843534492764775" lon="-108.11844396325624"><ele>1803.0</ele><time>2026-04-02T23:21:12Z</time></trkpt><trkpt lat="36.84346948879056" lon="-108.11848032099103"><ele>1803.8000000000002</ele><time>2026-04-02T23:21:13Z</time></trkpt><trkpt lat="36.84336541106122" lon="-108.11851872790643"><ele>1804.6000000000001</ele><time>2026-04-02T23:21:14Z</time></trkpt><trkpt lat="36.843250082030686" lon="-108.11856618421405"><ele>1805.3999999999999</ele><time>2026-04-02T23:21:15Z</time></trkpt><trkpt lat="36.84315094844424" lon="-108.11860716316494"><ele>1806.1999999999998</ele><time>2026-04-02T23:21:16Z</time></trkpt><trkpt lat="36.84305179019158" lon="-108.11864506862162"><ele>1807.0</ele><time>2026-04-02T23:21:18Z</time></trkpt><trkpt lat="36.843026274322995" lon="-108.1187626799095"><ele>1807.0</ele><time>2026-04-02T23:21:19Z</time></trkpt><trkpt lat="36.842993291073434" lon="-108.1189194258716"><ele>1807.0</ele><time>2026-04-02T23:21:20Z</time></trkpt><trkpt lat="36.8429168324775" lon="-108.11901040711295"><ele>1807.0</ele><time>2026-04-02T23:21:21Z</time></trkpt><trkpt lat="36.84283135384265" lon="-108.11909727869951"><ele>1807.0</ele><time>2026-04-02T23:21:22Z</time></trkpt><trkpt lat="36.84274982426009" lon="-108.11920360142962"><ele>1806.8</ele><time>2026-04-02T23:21:23Z</time></trkpt><trkpt lat="36.84267669836764" lon="-108.11931713309994"><ele>1806.6</ele><time>2026-04-02T23:21:24Z</time></trkpt><trkpt lat="36.842641122519794" lon="-108.11940077350663"><ele>1806.3999999999999</ele><time>2026-04-02T23:21:25Z</time></trkpt><trkpt lat="36.84258328754863" lon="-108.11952464573898"><ele>1806.1999999999998</ele><time>2026-04-02T23:21:27Z</time></trkpt><trkpt lat="36.84251889758581" lon="-108.11961109566886"><ele>1806.0</ele><time>2026-04-02T23:21:29Z</time></trkpt><trkpt lat="36.84238405044407" lon="-108.11969261700551"><ele>1806.0</ele><time>2026-04-02T23:21:31Z</time></trkpt><trkpt lat="36.842301366429474" lon="-108.11970389863697"><ele>1806.0</ele><time>2026-04-02T23:21:32Z</time></trkpt><trkpt lat="36.84219388570499" lon="-108.11970785778107"><ele>1806.0</ele><time>2026-04-02T23:21:33Z</time></trkpt><trkpt lat="36.84210865119575" lon="-108.11974191558144"><ele>1806.0</ele><time>2026-04-02T23:21:34Z</time></trkpt><trkpt lat="36.842014809390946" lon="-108.11978521379854"><ele>1806.0</ele><time>2026-04-02T23:21:35Z</time></trkpt><trkpt lat="36.841915340849425" lon="-108.11982324617017"><ele>1806.0</ele><time>2026-04-02T23:21:36Z</time></trkpt><trkpt lat="36.84180192714233" lon="-108.11984893958275"><ele>1806.0</ele><time>2026-04-02T23:21:37Z</time></trkpt><trkpt lat="36.841697576791205" lon="-108.11985421914844"><ele>1806.0</ele><time>2026-04-02T23:21:38Z</time></trkpt><trkpt lat="36.841597700576905" lon="-108.11986439969823"><ele>1806.0</ele><time>2026-04-02T23:21:39Z</time></trkpt><trkpt lat="36.84148288605946" lon="-108.119866989357"><ele>1806.0</ele><time>2026-04-02T23:21:40Z</time></trkpt><trkpt lat="36.841371884517486" lon="-108.11987560630358"><ele>1806.25</ele><time>2026-04-02T23:21:41Z</time></trkpt><trkpt lat="36.84125078905247" lon="-108.11988094426864"><ele>1806.5</ele><time>2026-04-02T23:21:42Z</time></trkpt><trkpt lat="36.841131418405574" lon="-108.11992356564687"><ele>1806.75</ele><time>2026-04-02T23:21:43Z</time></trkpt><trkpt lat="36.84102778071252" lon="-108.12000629014891"><ele>1807.0</ele><time>2026-04-02T23:21:44Z</time></trkpt><trkpt lat="36.840929325270885" lon="-108.12007633583468"><ele>1807.0</ele><time>2026-04-02T23:21:45Z</time></trkpt><trkpt lat="36.84086547498203" lon="-108.12013192519358"><ele>1806.9999999999998</ele><time>2026-04-02T23:21:46Z</time></trkpt><trkpt lat="36.840798049974964" lon="-108.12020510653045"><ele>1806.9999999999998</ele><time>2026-04-02T23:21:47Z</time></trkpt><trkpt lat="36.84070801809254" lon="-108.12028773989162"><ele>1807.0</ele><time>2026-04-02T23:21:48Z</time></trkpt><trkpt lat="36.840637411146474" lon="-108.12036412354385"><ele>1807.0</ele><time>2026-04-02T23:21:49Z</time></trkpt><trkpt lat="36.84058653525967" lon="-108.12045104105123"><ele>1807.0</ele><time>2026-04-02T23:21:50Z</time></trkpt><trkpt lat="36.84054710495714" lon="-108.12056105769338"><ele>1806.9999999999998</ele><time>2026-04-02T23:21:51Z</time></trkpt><trkpt lat="36.84046227404154" lon="-108.12064769598379"><ele>1806.9999999999998</ele><time>2026-04-02T23:21:52Z</time></trkpt><trkpt lat="36.84042983968789" lon="-108.1207655203103"><ele>1807.0</ele><time>2026-04-02T23:21:53Z</time></trkpt><trkpt lat="36.84040109134021" lon="-108.12087179304031"><ele>1807.0</ele><time>2026-04-02T23:21:54Z</time></trkpt><trkpt lat="36.84035099713434" lon="-108.12097476788811"><ele>1807.8</ele><time>2026-04-02T23:21:55Z</time></trkpt><trkpt lat="36.840291178435976" lon="-108.12108656270418"><ele>1808.6</ele><time>2026-04-02T23:21:56Z</time></trkpt><trkpt lat="36.8402331350487" lon="-108.12116507367445"><ele>1809.3999999999999</ele><time>2026-04-02T23:21:57Z</time></trkpt><trkpt lat="36.84015327595958" lon="-108.12121731269907"><ele>1810.1999999999998</ele><time>2026-04-02T23:21:58Z</time></trkpt><trkpt lat="36.84005083269641" lon="-108.12126748957171"><ele>1811.0</ele><time>2026-04-02T23:21:59Z</time></trkpt><trkpt lat="36.83994135803656" lon="-108.12131767922702"><ele>1811.8333333333333</ele><time>2026-04-02T23:22:00Z</time></trkpt><trkpt lat="36.83985758751807" lon="-108.12135950497384"><ele>1812.6666666666665</ele><time>2026-04-02T23:22:01Z</time></trkpt><trkpt lat="36.83978922508215" lon="-108.12138739679011"><ele>1813.5</ele><time>2026-04-02T23:22:02Z</time></trkpt><trkpt lat="36.8397229963108" lon="-108.12142911021058"><ele>1814.3333333333335</ele><time>2026-04-02T23:22:03Z</time></trkpt><trkpt lat="36.839618286025534" lon="-108.12141095766694"><ele>1815.1666666666667</ele><time>2026-04-02T23:22:05Z</time></trkpt><trkpt lat="36.839550316132176" lon="-108.12138350590148"><ele>1816.0</ele><time>2026-04-02T23:22:06Z</time></trkpt><trkpt lat="36.83948095752703" lon="-108.12140677841373"><ele>1816.0</ele><time>2026-04-02T23:22:07Z</time></trkpt><trkpt lat="36.839378100277806" lon="-108.12149429531894"><ele>1816.0</ele><time>2026-04-02T23:22:09Z</time></trkpt><trkpt lat="36.83932284139757" lon="-108.1216049389262"><ele>1816.0</ele><time>2026-04-02T23:22:11Z</time></trkpt><trkpt lat="36.839255953288564" lon="-108.12173863706937"><ele>1816.0</ele><time>2026-04-02T23:22:13Z</time></trkpt><trkpt lat="36.83920764765344" lon="-108.1217938250459"><ele>1816.0</ele><time>2026-04-02T23:22:14Z</time></trkpt><trkpt lat="36.83913166719296" lon="-108.12183914288133"><ele>1815.0</ele><time>2026-04-02T23:22:15Z</time></trkpt><trkpt lat="36.839017240650115" lon="-108.121893501007"><ele>1814.0</ele><time>2026-04-02T23:22:16Z</time></trkpt><trkpt lat="36.83887650141214" lon="-108.12195012680111"><ele>1813.0</ele><time>2026-04-02T23:22:17Z</time></trkpt><trkpt lat="36.8387760661071" lon="-108.12199144306796"><ele>1812.0</ele><time>2026-04-02T23:22:18Z</time></trkpt><trkpt lat="36.83867316272754" lon="-108.12204427151674"><ele>1812.0</ele><time>2026-04-02T23:22:19Z</time></trkpt><trkpt lat="36.83855164585754" lon="-108.12210316250004"><ele>1812.0</ele><time>2026-04-02T23:22:20Z</time></trkpt><trkpt lat="36.83841475042218" lon="-108.12212330887637"><ele>1812.0</ele><time>2026-04-02T23:22:21Z</time></trkpt><trkpt lat="36.83828263055872" lon="-108.12212725444014"><ele>1812.0</ele><time>2026-04-02T23:22:22Z</time></trkpt><trkpt lat="36.8381725491328" lon="-108.12214376273155"><ele>1810.0</ele><time>2026-04-02T23:22:23Z</time></trkpt><trkpt lat="36.83807498857317" lon="-108.12217370765684"><ele>1808.0</ele><time>2026-04-02T23:22:24Z</time></trkpt><trkpt lat="36.83796844523615" lon="-108.12218116922627"><ele>1806.0</ele><time>2026-04-02T23:22:25Z</time></trkpt><trkpt lat="36.83783142060665" lon="-108.12214433540444"><ele>1804.0</ele><time>2026-04-02T23:22:26Z</time></trkpt><trkpt lat="36.837718399250534" lon="-108.12213416440414"><ele>1803.2</ele><time>2026-04-02T23:22:27Z</time></trkpt><trkpt lat="36.837622701127884" lon="-108.12212167217297"><ele>1802.4</ele><time>2026-04-02T23:22:28Z</time></trkpt><trkpt lat="36.83754309985554" lon="-108.12213091028592"><ele>1801.6</ele><time>2026-04-02T23:22:29Z</time></trkpt><trkpt lat="36.837456053911076" lon="-108.12215681721976"><ele>1800.8</ele><time>2026-04-02T23:22:30Z</time></trkpt><trkpt lat="36.83736749183724" lon="-108.12220072297829"><ele>1800.0</ele><time>2026-04-02T23:22:31Z</time></trkpt><trkpt lat="36.83725800227772" lon="-108.12222055490177"><ele>1800.0</ele><time>2026-04-02T23:22:32Z</time></trkpt><trkpt lat="36.837133248536496" lon="-108.12221518403162"><ele>1800.0</ele><time>2026-04-02T23:22:33Z</time></trkpt><trkpt lat="36.837030669509666" lon="-108.12220033555339"><ele>1800.0</ele><time>2026-04-02T23:22:34Z</time></trkpt><trkpt lat="36.83694910895616" lon="-108.1222015251391"><ele>1800.0</ele><time>2026-04-02T23:22:35Z</time></trkpt><trkpt lat="36.83688506125955" lon="-108.12224075000884"><ele>1800.0</ele><time>2026-04-02T23:22:36Z</time></trkpt><trkpt lat="36.836757933372695" lon="-108.12219434881266"><ele>1800.0</ele><time>2026-04-02T23:22:38Z</time></trkpt><trkpt lat="36.836655396132684" lon="-108.12221513102344"><ele>1800.0</ele><time>2026-04-02T23:22:39Z</time></trkpt><trkpt lat="36.83656848678587" lon="-108.12223987665871"><ele>1800.0</ele><time>2026-04-02T23:22:40Z</time></trkpt><trkpt lat="36.836475976595345" lon="-108.12225121499824"><ele>1800.0</ele><time>2026-04-02T23:22:41Z</time></trkpt><trkpt lat="36.83635636981498" lon="-108.12227258190572"><ele>1800.0</ele><time>2026-04-02T23:22:42Z</time></trkpt><trkpt lat="36.83623041253008" lon="-108.12228569214595"><ele>1800.0</ele><time>2026-04-02T23:22:43.001Z</time></trkpt><trkpt lat="36.83614392455073" lon="-108.12230417465803"><ele>1800.0</ele><time>2026-04-02T23:22:44.001Z</time></trkpt><trkpt lat="36.83607121417141" lon="-108.122347402072"><ele>1800.0</ele><time>2026-04-02T23:22:45.001Z</time></trkpt><trkpt lat="36.83592496469184" lon="-108.12236394700044"><ele>1800.0</ele><time>2026-04-02T23:22:47.001Z</time></trkpt><trkpt lat="36.83580786895055" lon="-108.12237397221206"><ele>1800.0</ele><time>2026-04-02T23:22:48.001Z</time></trkpt><trkpt lat="36.8356865467259" lon="-108.12241900123418"><ele>1800.25</ele><time>2026-04-02T23:22:49.001Z</time></trkpt><trkpt lat="36.83556070729307" lon="-108.12246752808218"><ele>1800.5</ele><time>2026-04-02T23:22:50.001Z</time></trkpt><trkpt lat="36.83545210222472" lon="-108.1224805701023"><ele>1800.75</ele><time>2026-04-02T23:22:51Z</time></trkpt><trkpt lat="36.835316583894254" lon="-108.12246474217844"><ele>1801.0</ele><time>2026-04-02T23:22:52Z</time></trkpt><trkpt lat="36.835171547096586" lon="-108.1224299427873"><ele>1800.5</ele><time>2026-04-02T23:22:53Z</time></trkpt><trkpt lat="36.83505360837419" lon="-108.12241093307088"><ele>1800.0</ele><time>2026-04-02T23:22:54Z</time></trkpt><trkpt lat="36.83496733689538" lon="-108.12241733079337"><ele>1799.5</ele><time>2026-04-02T23:22:55Z</time></trkpt><trkpt lat="36.834823598962736" lon="-108.1224690253227"><ele>1799.0</ele><time>2026-04-02T23:22:57Z</time></trkpt><trkpt lat="36.834683888122825" lon="-108.12250839981438"><ele>1799.0</ele><time>2026-04-02T23:22:58Z</time></trkpt><trkpt lat="36.83454266789111" lon="-108.12256190844853"><ele>1799.0</ele><time>2026-04-02T23:22:59Z</time></trkpt><trkpt lat="36.83442365013217" lon="-108.12259232136344"><ele>1799.0</ele><time>2026-04-02T23:23:00Z</time></trkpt><trkpt lat="36.83430722973205" lon="-108.1226401343588"><ele>1799.0</ele><time>2026-04-02T23:23:01Z</time></trkpt><trkpt lat="36.83419725519705" lon="-108.12269588775885"><ele>1798.3333333333333</ele><time>2026-04-02T23:23:02Z</time></trkpt><trkpt lat="36.8340982559067" lon="-108.12272578029986"><ele>1797.6666666666665</ele><time>2026-04-02T23:23:03Z</time></trkpt><trkpt lat="36.834032806152265" lon="-108.1227452645295"><ele>1797.0</ele><time>2026-04-02T23:23:04Z</time></trkpt><trkpt lat="36.833956561064305" lon="-108.12268260392378"><ele>1796.3333333333335</ele><time>2026-04-02T23:23:06Z</time></trkpt><trkpt lat="36.8339082109183" lon="-108.12259453997673"><ele>1795.6666666666667</ele><time>2026-04-02T23:23:07Z</time></trkpt><trkpt lat="36.83385711397182" lon="-108.12248392466992"><ele>1795.0</ele><time>2026-04-02T23:23:08Z</time></trkpt><trkpt lat="36.83379758464556" lon="-108.12238043412998"><ele>1795.0000000000002</ele><time>2026-04-02T23:23:09Z</time></trkpt><trkpt lat="36.833749632008384" lon="-108.12231880022725"><ele>1795.0</ele><time>2026-04-02T23:23:10Z</time></trkpt><trkpt lat="36.833686044590415" lon="-108.12221845533203"><ele>1795.0</ele><time>2026-04-02T23:23:12Z</time></trkpt><trkpt lat="36.833649309068484" lon="-108.12215383804119"><ele>1795.0</ele><time>2026-04-02T23:23:13Z</time></trkpt><trkpt lat="36.83359901058009" lon="-108.12207416651904"><ele>1795.0000000000002</ele><time>2026-04-02T23:23:14Z</time></trkpt><trkpt lat="36.833552136325274" lon="-108.12200406465786"><ele>1795.0</ele><time>2026-04-02T23:23:15Z</time></trkpt><trkpt lat="36.83350144874942" lon="-108.12193450612784"><ele>1792.3333333333335</ele><time>2026-04-02T23:23:16Z</time></trkpt><trkpt lat="36.8331847888704" lon="-108.1221131740635"><ele>1789.6666666666665</ele><time>2026-04-02T23:23:17Z</time></trkpt><trkpt lat="36.83310241585004" lon="-108.12211090647273"><ele>1787.0</ele><time>2026-04-02T23:23:18Z</time></trkpt><trkpt lat="36.83301634222598" lon="-108.1220982810382"><ele>1787.0</ele><time>2026-04-02T23:23:19Z</time></trkpt><trkpt lat="36.832917575090136" lon="-108.12203033643084"><ele>1787.0</ele><time>2026-04-02T23:23:20Z</time></trkpt><trkpt lat="36.83279261587923" lon="-108.12193381581253"><ele>1787.0</ele><time>2026-04-02T23:23:21Z</time></trkpt><trkpt lat="36.83265870516741" lon="-108.12185427133845"><ele>1787.0</ele><time>2026-04-02T23:23:22Z</time></trkpt><trkpt lat="36.832520455514455" lon="-108.1217543041325"><ele>1786.75</ele><time>2026-04-02T23:23:23Z</time></trkpt><trkpt lat="36.832387733673535" lon="-108.12165639484357"><ele>1786.5</ele><time>2026-04-02T23:23:24Z</time></trkpt><trkpt lat="36.8322554523503" lon="-108.12158493717139"><ele>1786.25</ele><time>2026-04-02T23:23:25Z</time></trkpt><trkpt lat="36.83212110588366" lon="-108.12154219694786"><ele>1786.0</ele><time>2026-04-02T23:23:26Z</time></trkpt><trkpt lat="36.83198660929122" lon="-108.12150593969892"><ele>1786.0</ele><time>2026-04-02T23:23:27Z</time></trkpt><trkpt lat="36.83187232901502" lon="-108.12147790211749"><ele>1786.0</ele><time>2026-04-02T23:23:28Z</time></trkpt><trkpt lat="36.83176472285646" lon="-108.12144482181137"><ele>1786.0</ele><time>2026-04-02T23:23:29Z</time></trkpt><trkpt lat="36.831649916196646" lon="-108.12141815861096"><ele>1786.0</ele><time>2026-04-02T23:23:30Z</time></trkpt><trkpt lat="36.831549171121" lon="-108.121409312226"><ele>1786.0</ele><time>2026-04-02T23:23:31Z</time></trkpt><trkpt lat="36.83144457639638" lon="-108.1213922393941"><ele>1785.6</ele><time>2026-04-02T23:23:32Z</time></trkpt><trkpt lat="36.83133175172476" lon="-108.12136959076604"><ele>1785.1999999999998</ele><time>2026-04-02T23:23:33Z</time></trkpt><trkpt lat="36.831233392233884" lon="-108.12134188596465"><ele>1784.8000000000002</ele><time>2026-04-02T23:23:34Z</time></trkpt><trkpt lat="36.83114294391975" lon="-108.12130874061712"><ele>1784.4</ele><time>2026-04-02T23:23:35Z</time></trkpt><trkpt lat="36.8310435543613" lon="-108.12129851020852"><ele>1784.0</ele><time>2026-04-02T23:23:36Z</time></trkpt><trkpt lat="36.83094791108195" lon="-108.12130197302251"><ele>1784.0</ele><time>2026-04-02T23:23:37Z</time></trkpt><trkpt lat="36.83083118686718" lon="-108.12131456074337"><ele>1784.0</ele><time>2026-04-02T23:23:38Z</time></trkpt><trkpt lat="36.830737227579554" lon="-108.12131578300519"><ele>1784.0</ele><time>2026-04-02T23:23:39Z</time></trkpt><trkpt lat="36.830676396270476" lon="-108.121287680212"><ele>1784.0</ele><time>2026-04-02T23:23:40Z</time></trkpt><trkpt lat="36.8305997035321" lon="-108.12125242004204"><ele>1784.0</ele><time>2026-04-02T23:23:41Z</time></trkpt><trkpt lat="36.83051037430092" lon="-108.12122206568688"><ele>1784.0</ele><time>2026-04-02T23:23:42Z</time></trkpt><trkpt lat="36.83041129037534" lon="-108.12120282054491"><ele>1784.0</ele><time>2026-04-02T23:23:43Z</time></trkpt><trkpt lat="36.83032309243631" lon="-108.12119198118107"><ele>1784.0</ele><time>2026-04-02T23:23:44Z</time></trkpt><trkpt lat="36.830225698683314" lon="-108.1211920875841"><ele>1784.0</ele><time>2026-04-02T23:23:45Z</time></trkpt><trkpt lat="36.83010682201585" lon="-108.12119816730156"><ele>1784.0</ele><time>2026-04-02T23:23:46Z</time></trkpt><trkpt lat="36.829987976002975" lon="-108.12120250030904"><ele>1785.0</ele><time>2026-04-02T23:23:47Z</time></trkpt><trkpt lat="36.82987497876329" lon="-108.12122147788006"><ele>1786.0</ele><time>2026-04-02T23:23:48Z</time></trkpt><trkpt lat="36.829782971504244" lon="-108.12123085922146"><ele>1787.0</ele><time>2026-04-02T23:23:49Z</time></trkpt><trkpt lat="36.82968343778425" lon="-108.12121716001994"><ele>1788.0</ele><time>2026-04-02T23:23:50Z</time></trkpt><trkpt lat="36.82957767336899" lon="-108.12120877314265"><ele>1789.0</ele><time>2026-04-02T23:23:51Z</time></trkpt><trkpt lat="36.82950580892368" lon="-108.12121004062297"><ele>1789.0</ele><time>2026-04-02T23:23:52Z</time></trkpt><trkpt lat="36.82941066312941" lon="-108.12123420486753"><ele>1789.0</ele><time>2026-04-02T23:23:54Z</time></trkpt><trkpt lat="36.8293355089687" lon="-108.12121997621864"><ele>1789.0</ele><time>2026-04-02T23:23:58Z</time></trkpt><trkpt lat="36.82924121260056" lon="-108.12134977311678"><ele>1789.0</ele><time>2026-04-02T23:24:01Z</time></trkpt><trkpt lat="36.829127794141755" lon="-108.12148698543426"><ele>1790.0</ele><time>2026-04-02T23:24:02Z</time></trkpt><trkpt lat="36.82903277322021" lon="-108.12157355959218"><ele>1791.0</ele><time>2026-04-02T23:24:03Z</time></trkpt><trkpt lat="36.8289172635751" lon="-108.1216836281708"><ele>1792.0</ele><time>2026-04-02T23:24:04Z</time></trkpt><trkpt lat="36.82877927766104" lon="-108.121811233365"><ele>1793.0</ele><time>2026-04-02T23:24:05Z</time></trkpt><trkpt lat="36.828677356755485" lon="-108.12191445592256"><ele>1793.0</ele><time>2026-04-02T23:24:06Z</time></trkpt><trkpt lat="36.82856771961674" lon="-108.12202146131096"><ele>1793.0000000000002</ele><time>2026-04-02T23:24:07Z</time></trkpt><trkpt lat="36.828470452604535" lon="-108.1221177638929"><ele>1793.0000000000002</ele><time>2026-04-02T23:24:08Z</time></trkpt><trkpt lat="36.82839258364452" lon="-108.12219876783453"><ele>1793.0</ele><time>2026-04-02T23:24:09Z</time></trkpt><trkpt lat="36.82832600249577" lon="-108.12224978996112"><ele>1793.0</ele><time>2026-04-02T23:24:10Z</time></trkpt><trkpt lat="36.82825275960671" lon="-108.12226714918731"><ele>1793.0</ele><time>2026-04-02T23:24:11Z</time></trkpt><trkpt lat="36.82816736333367" lon="-108.12230653852271"><ele>1793.0000000000002</ele><time>2026-04-02T23:24:12Z</time></trkpt><trkpt lat="36.82809108087752" lon="-108.12237238977757"><ele>1793.0000000000002</ele><time>2026-04-02T23:24:13Z</time></trkpt><trkpt lat="36.828009231497475" lon="-108.12245032706349"><ele>1793.0</ele><time>2026-04-02T23:24:14Z</time></trkpt><trkpt lat="36.82792438915133" lon="-108.12253347297333"><ele>1793.0</ele><time>2026-04-02T23:24:15Z</time></trkpt><trkpt lat="36.82781138990041" lon="-108.12264797472827"><ele>1793.0</ele><time>2026-04-02T23:24:16Z</time></trkpt><trkpt lat="36.827696370344476" lon="-108.12275044410673"><ele>1793.0</ele><time>2026-04-02T23:24:17Z</time></trkpt><trkpt lat="36.82759713156613" lon="-108.12283879023119"><ele>1793.0</ele><time>2026-04-02T23:24:18Z</time></trkpt><trkpt lat="36.82749530475028" lon="-108.12295858680208"><ele>1793.0</ele><time>2026-04-02T23:24:19Z</time></trkpt><trkpt lat="36.82736806404211" lon="-108.12307455639466"><ele>1794.0</ele><time>2026-04-02T23:24:20Z</time></trkpt><trkpt lat="36.82720263105883" lon="-108.1231733343999"><ele>1795.0</ele><time>2026-04-02T23:24:21Z</time></trkpt><trkpt lat="36.827084717544636" lon="-108.12328940747798"><ele>1796.0</ele><time>2026-04-02T23:24:22Z</time></trkpt><trkpt lat="36.826966894792626" lon="-108.12340884769978"><ele>1796.25</ele><time>2026-04-02T23:24:23Z</time></trkpt><trkpt lat="36.82687331748115" lon="-108.12349443507952"><ele>1796.5</ele><time>2026-04-02T23:24:24Z</time></trkpt><trkpt lat="36.826767050274064" lon="-108.12360128460742"><ele>1796.75</ele><time>2026-04-02T23:24:25Z</time></trkpt><trkpt lat="36.82667246611071" lon="-108.12370270539984"><ele>1797.0</ele><time>2026-04-02T23:24:26Z</time></trkpt><trkpt lat="36.82658279985284" lon="-108.12378660570937"><ele>1797.0</ele><time>2026-04-02T23:24:27Z</time></trkpt><trkpt lat="36.826482982807676" lon="-108.12389836823903"><ele>1797.0</ele><time>2026-04-02T23:24:28Z</time></trkpt><trkpt lat="36.82639152471225" lon="-108.12400096996659"><ele>1797.0</ele><time>2026-04-02T23:24:29Z</time></trkpt><trkpt lat="36.82630456969233" lon="-108.124079235584"><ele>1797.0</ele><time>2026-04-02T23:24:30Z</time></trkpt><trkpt lat="36.826211811480015" lon="-108.12416026746654"><ele>1797.25</ele><time>2026-04-02T23:24:31Z</time></trkpt><trkpt lat="36.82611696698906" lon="-108.12424631191972"><ele>1797.5</ele><time>2026-04-02T23:24:32Z</time></trkpt><trkpt lat="36.82602932977602" lon="-108.1243286618372"><ele>1797.75</ele><time>2026-04-02T23:24:33Z</time></trkpt><trkpt lat="36.825941011717795" lon="-108.1244073677108"><ele>1798.0</ele><time>2026-04-02T23:24:34Z</time></trkpt><trkpt lat="36.825834745860234" lon="-108.12449768064363"><ele>1797.4</ele><time>2026-04-02T23:24:35Z</time></trkpt><trkpt lat="36.82573379582205" lon="-108.12458137562164"><ele>1796.8000000000002</ele><time>2026-04-02T23:24:36Z</time></trkpt><trkpt lat="36.82564408596146" lon="-108.12465427254382"><ele>1796.2</ele><time>2026-04-02T23:24:37Z</time></trkpt><trkpt lat="36.82554573787578" lon="-108.1247213937944"><ele>1795.6</ele><time>2026-04-02T23:24:38Z</time></trkpt><trkpt lat="36.82544858760663" lon="-108.12477028811189"><ele>1795.0</ele><time>2026-04-02T23:24:39Z</time></trkpt><trkpt lat="36.82536197811547" lon="-108.1248155215346"><ele>1795.0000000000002</ele><time>2026-04-02T23:24:40Z</time></trkpt><trkpt lat="36.82528842585556" lon="-108.12488035502169"><ele>1795.0</ele><time>2026-04-02T23:24:41Z</time></trkpt><trkpt lat="36.82523839160617" lon="-108.12493197244642"><ele>1795.0</ele><time>2026-04-02T23:24:42Z</time></trkpt><trkpt lat="36.825180708698184" lon="-108.12496523434088"><ele>1795.0</ele><time>2026-04-02T23:24:43Z</time></trkpt><trkpt lat="36.82511369227917" lon="-108.12496186197448"><ele>1795.0000000000002</ele><time>2026-04-02T23:24:44Z</time></trkpt><trkpt lat="36.825025757225205" lon="-108.12491515194256"><ele>1795.0</ele><time>2026-04-02T23:24:45Z</time></trkpt><trkpt lat="36.82491563197536" lon="-108.12481250317059"><ele>1794.0</ele><time>2026-04-02T23:24:46Z</time></trkpt><trkpt lat="36.82482619058794" lon="-108.12475373309144"><ele>1793.0</ele><time>2026-04-02T23:24:47Z</time></trkpt><trkpt lat="36.82472856344566" lon="-108.12468269612103"><ele>1792.0</ele><time>2026-04-02T23:24:49Z</time></trkpt><trkpt lat="36.82464682770413" lon="-108.1246078701749"><ele>1791.0</ele><time>2026-04-02T23:24:50Z</time></trkpt><trkpt lat="36.82457137045309" lon="-108.1245445057853"><ele>1790.0</ele><time>2026-04-02T23:24:51Z</time></trkpt><trkpt lat="36.82448608234223" lon="-108.1245365710601"><ele>1790.0</ele><time>2026-04-02T23:24:52Z</time></trkpt><trkpt lat="36.82438424727226" lon="-108.1244708990457"><ele>1790.0</ele><time>2026-04-02T23:24:53Z</time></trkpt><trkpt lat="36.82430353375925" lon="-108.12438474842611"><ele>1790.0</ele><time>2026-04-02T23:24:54Z</time></trkpt><trkpt lat="36.82421224348598" lon="-108.12430487181658"><ele>1790.0</ele><time>2026-04-02T23:24:55Z</time></trkpt><trkpt lat="36.824110499912045" lon="-108.12422410187952"><ele>1790.25</ele><time>2026-04-02T23:24:56Z</time></trkpt><trkpt lat="36.82404239931816" lon="-108.12416121417282"><ele>1790.5</ele><time>2026-04-02T23:24:57Z</time></trkpt><trkpt lat="36.82399437335856" lon="-108.1241090955185"><ele>1790.75</ele><time>2026-04-02T23:24:58Z</time></trkpt><trkpt lat="36.823846077747085" lon="-108.12416515675258"><ele>1791.0</ele><time>2026-04-02T23:25:00Z</time></trkpt><trkpt lat="36.82370424067309" lon="-108.12422969434485"><ele>1791.0</ele><time>2026-04-02T23:25:01Z</time></trkpt><trkpt lat="36.82358468157787" lon="-108.12426966473117"><ele>1791.0</ele><time>2026-04-02T23:25:02Z</time></trkpt><trkpt lat="36.82350892052326" lon="-108.12430227069542"><ele>1791.0</ele><time>2026-04-02T23:25:03Z</time></trkpt><trkpt lat="36.82344769048286" lon="-108.12434536677688"><ele>1791.0</ele><time>2026-04-02T23:25:04Z</time></trkpt><trkpt lat="36.82339814847155" lon="-108.12440703949285"><ele>1791.0</ele><time>2026-04-02T23:25:05Z</time></trkpt><trkpt lat="36.8233589057622" lon="-108.1245615877584"><ele>1791.0</ele><time>2026-04-02T23:25:07Z</time></trkpt><trkpt lat="36.82334234366059" lon="-108.12466773319315"><ele>1791.0</ele><time>2026-04-02T23:25:08Z</time></trkpt><trkpt lat="36.823307811936516" lon="-108.1247642146037"><ele>1791.0</ele><time>2026-04-02T23:25:09Z</time></trkpt><trkpt lat="36.82325758788385" lon="-108.12485249670844"><ele>1791.0</ele><time>2026-04-02T23:25:10Z</time></trkpt><trkpt lat="36.82318852806374" lon="-108.1249200464306"><ele>1791.0</ele><time>2026-04-02T23:25:11Z</time></trkpt><trkpt lat="36.823120501445274" lon="-108.12494724438423"><ele>1791.0</ele><time>2026-04-02T23:25:12Z</time></trkpt><trkpt lat="36.82304313470842" lon="-108.12496768868749"><ele>1790.6666666666667</ele><time>2026-04-02T23:25:13Z</time></trkpt><trkpt lat="36.82296681030537" lon="-108.12500456903322"><ele>1790.3333333333335</ele><time>2026-04-02T23:25:14Z</time></trkpt><trkpt lat="36.8229097864588" lon="-108.12504362402018"><ele>1790.0</ele><time>2026-04-02T23:25:15Z</time></trkpt><trkpt lat="36.82285805879867" lon="-108.12510079295768"><ele>1789.6666666666667</ele><time>2026-04-02T23:25:16Z</time></trkpt><trkpt lat="36.82278422978766" lon="-108.12518643969587"><ele>1789.3333333333335</ele><time>2026-04-02T23:25:17Z</time></trkpt><trkpt lat="36.82269514360206" lon="-108.12526890480248"><ele>1789.0</ele><time>2026-04-02T23:25:18Z</time></trkpt><trkpt lat="36.82261889976661" lon="-108.12534720897902"><ele>1789.0</ele><time>2026-04-02T23:25:19Z</time></trkpt><trkpt lat="36.82252441912475" lon="-108.12542692487038"><ele>1789.0</ele><time>2026-04-02T23:25:20Z</time></trkpt><trkpt lat="36.822428063157155" lon="-108.12551240038597"><ele>1789.0</ele><time>2026-04-02T23:25:21Z</time></trkpt><trkpt lat="36.82234494081739" lon="-108.12558422672396"><ele>1789.0</ele><time>2026-04-02T23:25:22Z</time></trkpt><trkpt lat="36.82227511416914" lon="-108.12565388359988"><ele>1789.0</ele><time>2026-04-02T23:25:23Z</time></trkpt><trkpt lat="36.822215159340004" lon="-108.12571814904058"><ele>1788.8333333333335</ele><time>2026-04-02T23:25:24Z</time></trkpt><trkpt lat="36.82215482091064" lon="-108.12579093538508"><ele>1788.6666666666667</ele><time>2026-04-02T23:25:25Z</time></trkpt><trkpt lat="36.82210268314272" lon="-108.12587483788707"><ele>1788.5</ele><time>2026-04-02T23:25:26Z</time></trkpt><trkpt lat="36.82208734569414" lon="-108.12598276865415"><ele>1788.3333333333335</ele><time>2026-04-02T23:25:27Z</time></trkpt><trkpt lat="36.82208215706741" lon="-108.12608777996402"><ele>1788.1666666666667</ele><time>2026-04-02T23:25:28Z</time></trkpt><trkpt lat="36.82212047253639" lon="-108.12620225662063"><ele>1788.0</ele><time>2026-04-02T23:25:29Z</time></trkpt><trkpt lat="36.82217085068503" lon="-108.12633893992576"><ele>1788.0</ele><time>2026-04-02T23:25:30Z</time></trkpt><trkpt lat="36.822198296485126" lon="-108.12651962469891"><ele>1788.0000000000002</ele><time>2026-04-02T23:25:31Z</time></trkpt><trkpt lat="36.82220887079205" lon="-108.1266848610999"><ele>1788.0000000000002</ele><time>2026-04-02T23:25:32Z</time></trkpt><trkpt lat="36.822207466003455" lon="-108.12679720571138"><ele>1788.0</ele><time>2026-04-02T23:25:33Z</time></trkpt><trkpt lat="36.822180861854584" lon="-108.12687323310888"><ele>1788.0</ele><time>2026-04-02T23:25:34Z</time></trkpt><trkpt lat="36.82211768561751" lon="-108.12695587921806"><ele>1788.2</ele><time>2026-04-02T23:25:35Z</time></trkpt><trkpt lat="36.82203773117845" lon="-108.1270510871234"><ele>1788.4</ele><time>2026-04-02T23:25:36Z</time></trkpt><trkpt lat="36.82197795424045" lon="-108.12710791693351"><ele>1788.6000000000001</ele><time>2026-04-02T23:25:37Z</time></trkpt><trkpt lat="36.82183604490941" lon="-108.127072348233"><ele>1788.8000000000002</ele><time>2026-04-02T23:25:39Z</time></trkpt><trkpt lat="36.82173153802453" lon="-108.12701362540564"><ele>1789.0</ele><time>2026-04-02T23:25:40Z</time></trkpt><trkpt lat="36.821642590139234" lon="-108.12695209052123"><ele>1789.0</ele><time>2026-04-02T23:25:41Z</time></trkpt><trkpt lat="36.82157232122596" lon="-108.12682448920573"><ele>1789.0</ele><time>2026-04-02T23:25:42Z</time></trkpt><trkpt lat="36.8214993161593" lon="-108.12672446411494"><ele>1789.0</ele><time>2026-04-02T23:25:43Z</time></trkpt><trkpt lat="36.82141497059524" lon="-108.1266779390621"><ele>1789.0</ele><time>2026-04-02T23:25:44Z</time></trkpt><trkpt lat="36.82133302312187" lon="-108.12661238328826"><ele>1789.0</ele><time>2026-04-02T23:25:45Z</time></trkpt><trkpt lat="36.82124239026374" lon="-108.12656060261453"><ele>1788.6</ele><time>2026-04-02T23:25:46Z</time></trkpt><trkpt lat="36.821126514371734" lon="-108.12655304772069"><ele>1788.2</ele><time>2026-04-02T23:25:47Z</time></trkpt><trkpt lat="36.82101468855853" lon="-108.12654570783884"><ele>1787.7999999999997</ele><time>2026-04-02T23:25:48Z</time></trkpt><trkpt lat="36.82091876164262" lon="-108.12652728954886"><ele>1787.3999999999999</ele><time>2026-04-02T23:25:49Z</time></trkpt><trkpt lat="36.82082070064249" lon="-108.12649505313527"><ele>1787.0</ele><time>2026-04-02T23:25:50Z</time></trkpt><trkpt lat="36.82071162795934" lon="-108.12644970673793"><ele>1786.1999999999998</ele><time>2026-04-02T23:25:51Z</time></trkpt><trkpt lat="36.820625497830186" lon="-108.12636756408105"><ele>1785.3999999999999</ele><time>2026-04-02T23:25:52Z</time></trkpt><trkpt lat="36.82053667014168" lon="-108.12627286203741"><ele>1784.6000000000001</ele><time>2026-04-02T23:25:53Z</time></trkpt><trkpt lat="36.82047345319177" lon="-108.12620493138516"><ele>1783.8000000000002</ele><time>2026-04-02T23:25:54Z</time></trkpt><trkpt lat="36.820390434586194" lon="-108.12612986223922"><ele>1783.0</ele><time>2026-04-02T23:25:55Z</time></trkpt><trkpt lat="36.820306257623855" lon="-108.12607512199641"><ele>1783.0</ele><time>2026-04-02T23:25:56Z</time></trkpt><trkpt lat="36.820242148233504" lon="-108.1260374993836"><ele>1783.0000000000002</ele><time>2026-04-02T23:25:57Z</time></trkpt><trkpt lat="36.82012722583063" lon="-108.12601278077153"><ele>1783.0000000000002</ele><time>2026-04-02T23:25:59Z</time></trkpt><trkpt lat="36.82005047937796" lon="-108.12605899633691"><ele>1783.0</ele><time>2026-04-02T23:26:00Z</time></trkpt><trkpt lat="36.819958950164875" lon="-108.12613606889322"><ele>1783.0</ele><time>2026-04-02T23:26:01Z</time></trkpt><trkpt lat="36.81988735660254" lon="-108.12616140495308"><ele>1783.25</ele><time>2026-04-02T23:26:02Z</time></trkpt><trkpt lat="36.81978219075163" lon="-108.12604217506941"><ele>1783.5</ele><time>2026-04-02T23:26:04Z</time></trkpt><trkpt lat="36.819675831138404" lon="-108.12599506517817"><ele>1783.75</ele><time>2026-04-02T23:26:05Z</time></trkpt><trkpt lat="36.8195618934891" lon="-108.12595206519747"><ele>1784.0</ele><time>2026-04-02T23:26:06Z</time></trkpt><trkpt lat="36.819475247745224" lon="-108.12591323853532"><ele>1784.0</ele><time>2026-04-02T23:26:07Z</time></trkpt><trkpt lat="36.81940738264561" lon="-108.12590753510223"><ele>1784.0</ele><time>2026-04-02T23:26:08Z</time></trkpt><trkpt lat="36.819318266534715" lon="-108.12594462228294"><ele>1784.0</ele><time>2026-04-02T23:26:09Z</time></trkpt><trkpt lat="36.81919981553328" lon="-108.12597291195745"><ele>1784.0</ele><time>2026-04-02T23:26:10Z</time></trkpt><trkpt lat="36.81908924004749" lon="-108.12600130510518"><ele>1784.0</ele><time>2026-04-02T23:26:11Z</time></trkpt><trkpt lat="36.81898588713342" lon="-108.12600224723779"><ele>1785.25</ele><time>2026-04-02T23:26:12Z</time></trkpt><trkpt lat="36.8188583870985" lon="-108.12598344918798"><ele>1786.5</ele><time>2026-04-02T23:26:13Z</time></trkpt><trkpt lat="36.81872158817924" lon="-108.12597086838392"><ele>1787.75</ele><time>2026-04-02T23:26:14Z</time></trkpt><trkpt lat="36.818578026163195" lon="-108.12598002603163"><ele>1789.0</ele><time>2026-04-02T23:26:15Z</time></trkpt><trkpt lat="36.81843805567266" lon="-108.12598201841175"><ele>1790.25</ele><time>2026-04-02T23:26:16Z</time></trkpt><trkpt lat="36.81828480445843" lon="-108.12598391045881"><ele>1791.5</ele><time>2026-04-02T23:26:17Z</time></trkpt><trkpt lat="36.8181414373978" lon="-108.12599349830518"><ele>1792.75</ele><time>2026-04-02T23:26:18Z</time></trkpt><trkpt lat="36.81802917943141" lon="-108.12600504167887"><ele>1794.0</ele><time>2026-04-02T23:26:19Z</time></trkpt><trkpt lat="36.81791006528645" lon="-108.1259888267844"><ele>1794.0</ele><time>2026-04-02T23:26:20Z</time></trkpt><trkpt lat="36.81782496556637" lon="-108.12596511444698"><ele>1794.0</ele><time>2026-04-02T23:26:21Z</time></trkpt><trkpt lat="36.81775327101716" lon="-108.12594409556095"><ele>1794.0</ele><time>2026-04-02T23:26:22Z</time></trkpt><trkpt lat="36.81765987913975" lon="-108.12594506942291"><ele>1794.0</ele><time>2026-04-02T23:26:23Z</time></trkpt><trkpt lat="36.81758583860909" lon="-108.1259301379743"><ele>1794.0</ele><time>2026-04-02T23:26:24Z</time></trkpt><trkpt lat="36.81752012790395" lon="-108.12586355397939"><ele>1794.0</ele><time>2026-04-02T23:26:25Z</time></trkpt><trkpt lat="36.817449240513106" lon="-108.12574364863417"><ele>1793.8000000000002</ele><time>2026-04-02T23:26:26Z</time></trkpt><trkpt lat="36.81738540541722" lon="-108.12563783064819"><ele>1793.6000000000001</ele><time>2026-04-02T23:26:27Z</time></trkpt><trkpt lat="36.81732310467188" lon="-108.12551796099211"><ele>1793.4</ele><time>2026-04-02T23:26:28Z</time></trkpt><trkpt lat="36.81728716267188" lon="-108.12540960063171"><ele>1793.2</ele><time>2026-04-02T23:26:29Z</time></trkpt><trkpt lat="36.81725903376117" lon="-108.12533860882165"><ele>1793.0</ele><time>2026-04-02T23:26:30Z</time></trkpt><trkpt lat="36.817179966608855" lon="-108.12528193285056"><ele>1793.0</ele><time>2026-04-02T23:26:32Z</time></trkpt><trkpt lat="36.817084307293214" lon="-108.1252505638613"><ele>1793.0000000000002</ele><time>2026-04-02T23:26:33Z</time></trkpt><trkpt lat="36.81699732387565" lon="-108.125223476812"><ele>1793.0000000000002</ele><time>2026-04-02T23:26:34Z</time></trkpt><trkpt lat="36.816899633627195" lon="-108.12520819668876"><ele>1793.0</ele><time>2026-04-02T23:26:35Z</time></trkpt><trkpt lat="36.816776961367786" lon="-108.12521573049503"><ele>1793.0</ele><time>2026-04-02T23:26:36Z</time></trkpt><trkpt lat="36.81666122838182" lon="-108.12522303330563"><ele>1792.4</ele><time>2026-04-02T23:26:37Z</time></trkpt><trkpt lat="36.81655274300662" lon="-108.12526637312024"><ele>1791.8000000000002</ele><time>2026-04-02T23:26:38Z</time></trkpt><trkpt lat="36.81645600309049" lon="-108.1253166361889"><ele>1791.2</ele><time>2026-04-02T23:26:39Z</time></trkpt><trkpt lat="36.81636527747598" lon="-108.12536883737322"><ele>1790.6</ele><time>2026-04-02T23:26:40Z</time></trkpt><trkpt lat="36.816293605709404" lon="-108.1254267395673"><ele>1790.0</ele><time>2026-04-02T23:26:41Z</time></trkpt><trkpt lat="36.81622844729476" lon="-108.12545942160627"><ele>1790.0</ele><time>2026-04-02T23:26:42Z</time></trkpt><trkpt lat="36.81615678202183" lon="-108.12546382832375"><ele>1790.0</ele><time>2026-04-02T23:26:43Z</time></trkpt><trkpt lat="36.81603118219021" lon="-108.12542521955089"><ele>1790.0</ele><time>2026-04-02T23:26:43.999Z</time></trkpt><trkpt lat="36.81588508927324" lon="-108.12540818347753"><ele>1790.0</ele><time>2026-04-02T23:26:44.999Z</time></trkpt><trkpt lat="36.81576564028036" lon="-108.12539706905373"><ele>1789.25</ele><time>2026-04-02T23:26:45.999Z</time></trkpt><trkpt lat="36.81566982076334" lon="-108.12539351605133"><ele>1788.5</ele><time>2026-04-02T23:26:46.999Z</time></trkpt><trkpt lat="36.81556201944969" lon="-108.12539946182852"><ele>1787.75</ele><time>2026-04-02T23:26:47.999Z</time></trkpt><trkpt lat="36.81542235140158" lon="-108.12540594396691"><ele>1787.0</ele><time>2026-04-02T23:26:48.999Z</time></trkpt><trkpt lat="36.81528215098284" lon="-108.12538460711271"><ele>1787.0</ele><time>2026-04-02T23:26:49.999Z</time></trkpt><trkpt lat="36.81515970463964" lon="-108.12535830493958"><ele>1786.9999999999998</ele><time>2026-04-02T23:26:50.999Z</time></trkpt><trkpt lat="36.8150566455787" lon="-108.12535354467015"><ele>1786.9999999999998</ele><time>2026-04-02T23:26:51.999Z</time></trkpt><trkpt lat="36.81496950020594" lon="-108.12539685022192"><ele>1787.0</ele><time>2026-04-02T23:26:52.999Z</time></trkpt><trkpt lat="36.814861876682926" lon="-108.12544889246354"><ele>1787.0</ele><time>2026-04-02T23:26:54Z</time></trkpt><trkpt lat="36.81473298366658" lon="-108.12547474643362"><ele>1787.6</ele><time>2026-04-02T23:26:55Z</time></trkpt><trkpt lat="36.81460714607681" lon="-108.12548966479083"><ele>1788.1999999999998</ele><time>2026-04-02T23:26:56Z</time></trkpt><trkpt lat="36.81448755187481" lon="-108.12551639424747"><ele>1788.8</ele><time>2026-04-02T23:26:57Z</time></trkpt><trkpt lat="36.81440774875731" lon="-108.1255540647996"><ele>1789.4</ele><time>2026-04-02T23:26:58Z</time></trkpt><trkpt lat="36.8143212589461" lon="-108.12546881891927"><ele>1790.0</ele><time>2026-04-02T23:27:00Z</time></trkpt><trkpt lat="36.81423634634873" lon="-108.12535573025959"><ele>1790.6</ele><time>2026-04-02T23:27:01Z</time></trkpt><trkpt lat="36.8141317591303" lon="-108.12538422511231"><ele>1791.2</ele><time>2026-04-02T23:27:03Z</time></trkpt><trkpt lat="36.8140500223178" lon="-108.12542174547615"><ele>1791.8000000000002</ele><time>2026-04-02T23:27:04Z</time></trkpt><trkpt lat="36.81392940118044" lon="-108.12548019044424"><ele>1792.4</ele><time>2026-04-02T23:27:05Z</time></trkpt><trkpt lat="36.81381648059204" lon="-108.1255282834694"><ele>1793.0</ele><time>2026-04-02T23:27:06Z</time></trkpt><trkpt lat="36.81370233183854" lon="-108.1255779824425"><ele>1793.0</ele><time>2026-04-02T23:27:07Z</time></trkpt><trkpt lat="36.813588285281476" lon="-108.12562848687894"><ele>1793.0000000000002</ele><time>2026-04-02T23:27:08Z</time></trkpt><trkpt lat="36.81349162246899" lon="-108.12566318536432"><ele>1793.0000000000002</ele><time>2026-04-02T23:27:09Z</time></trkpt><trkpt lat="36.81340339449493" lon="-108.12570245464181"><ele>1793.0</ele><time>2026-04-02T23:27:10Z</time></trkpt><trkpt lat="36.813326180074874" lon="-108.1257842420942"><ele>1793.0</ele><time>2026-04-02T23:27:11Z</time></trkpt><trkpt lat="36.81324581076723" lon="-108.12590491269249"><ele>1793.75</ele><time>2026-04-02T23:27:12Z</time></trkpt><trkpt lat="36.813163404233805" lon="-108.1260239387306"><ele>1794.5</ele><time>2026-04-02T23:27:13Z</time></trkpt><trkpt lat="36.81306765836461" lon="-108.12613801949311"><ele>1795.25</ele><time>2026-04-02T23:27:14Z</time></trkpt><trkpt lat="36.812973515418555" lon="-108.1262121077847"><ele>1796.0</ele><time>2026-04-02T23:27:15Z</time></trkpt><trkpt lat="36.81288322513421" lon="-108.1262669052685"><ele>1795.9999999999998</ele><time>2026-04-02T23:27:16Z</time></trkpt><trkpt lat="36.812792785212714" lon="-108.12630522323465"><ele>1796.0</ele><time>2026-04-02T23:27:17Z</time></trkpt><trkpt lat="36.81270971009158" lon="-108.12631896555764"><ele>1796.0</ele><time>2026-04-02T23:27:18Z</time></trkpt><trkpt lat="36.812630459314434" lon="-108.1263075424075"><ele>1796.0</ele><time>2026-04-02T23:27:19Z</time></trkpt><trkpt lat="36.812564652337855" lon="-108.12629307144321"><ele>1795.9999999999998</ele><time>2026-04-02T23:27:20Z</time></trkpt><trkpt lat="36.81249062285399" lon="-108.12628554739514"><ele>1796.0</ele><time>2026-04-02T23:27:21Z</time></trkpt><trkpt lat="36.81239169081162" lon="-108.12626873151535"><ele>1796.0</ele><time>2026-04-02T23:27:22Z</time></trkpt><trkpt lat="36.812276532281935" lon="-108.12625665515695"><ele>1796.0</ele><time>2026-04-02T23:27:23Z</time></trkpt><trkpt lat="36.81217940539378" lon="-108.12625925993922"><ele>1796.0</ele><time>2026-04-02T23:27:24Z</time></trkpt><trkpt lat="36.81209433670947" lon="-108.12628456661963"><ele>1796.0</ele><time>2026-04-02T23:27:25Z</time></trkpt><trkpt lat="36.81199621402459" lon="-108.12633136480773"><ele>1796.0</ele><time>2026-04-02T23:27:26Z</time></trkpt><trkpt lat="36.81188817525745" lon="-108.12637868543479"><ele>1796.5</ele><time>2026-04-02T23:27:27Z</time></trkpt><trkpt lat="36.81176220102932" lon="-108.12643202798604"><ele>1797.0</ele><time>2026-04-02T23:27:28Z</time></trkpt><trkpt lat="36.811624506280424" lon="-108.12648891156938"><ele>1797.5</ele><time>2026-04-02T23:27:29Z</time></trkpt><trkpt lat="36.81147031661885" lon="-108.12653706215191"><ele>1798.0</ele><time>2026-04-02T23:27:30Z</time></trkpt><trkpt lat="36.811332615252134" lon="-108.12656272339794"><ele>1798.6000000000001</ele><time>2026-04-02T23:27:31Z</time></trkpt><trkpt lat="36.81123214716397" lon="-108.12658332678305"><ele>1799.2000000000003</ele><time>2026-04-02T23:27:32Z</time></trkpt><trkpt lat="36.81114928720262" lon="-108.1266784445583"><ele>1799.8</ele><time>2026-04-02T23:27:34Z</time></trkpt><trkpt lat="36.811078228720255" lon="-108.12676060536593"><ele>1800.4</ele><time>2026-04-02T23:27:35Z</time></trkpt><trkpt lat="36.810999148598704" lon="-108.12684150802231"><ele>1801.0</ele><time>2026-04-02T23:27:36Z</time></trkpt><trkpt lat="36.810914015119444" lon="-108.12691668461524"><ele>1801.0</ele><time>2026-04-02T23:27:37Z</time></trkpt><trkpt lat="36.810840266325116" lon="-108.12697645043383"><ele>1801.0</ele><time>2026-04-02T23:27:38Z</time></trkpt><trkpt lat="36.81075628172979" lon="-108.12694083175876"><ele>1801.0</ele><time>2026-04-02T23:27:40Z</time></trkpt><trkpt lat="36.81070372611776" lon="-108.12685160166833"><ele>1801.0</ele><time>2026-04-02T23:27:41Z</time></trkpt><trkpt lat="36.81064730300081" lon="-108.1267827311874"><ele>1801.0</ele><time>2026-04-02T23:27:42Z</time></trkpt><trkpt lat="36.810550275711876" lon="-108.12669633959375"><ele>1801.0</ele><time>2026-04-02T23:27:43Z</time></trkpt><trkpt lat="36.81042722719898" lon="-108.12661851361936"><ele>1801.0</ele><time>2026-04-02T23:27:44Z</time></trkpt><trkpt lat="36.810333174207344" lon="-108.12656318316837"><ele>1801.0</ele><time>2026-04-02T23:27:45Z</time></trkpt><trkpt lat="36.810226453017144" lon="-108.12649337602969"><ele>1801.0</ele><time>2026-04-02T23:27:46Z</time></trkpt><trkpt lat="36.81013752143754" lon="-108.12643383997909"><ele>1800.0</ele><time>2026-04-02T23:27:47Z</time></trkpt><trkpt lat="36.8100602498849" lon="-108.12640404268865"><ele>1799.0</ele><time>2026-04-02T23:27:48Z</time></trkpt><trkpt lat="36.80999683563166" lon="-108.12638556479189"><ele>1798.0</ele><time>2026-04-02T23:27:49Z</time></trkpt><trkpt lat="36.809889666117485" lon="-108.12636923724409"><ele>1797.0</ele><time>2026-04-02T23:27:52Z</time></trkpt><trkpt lat="36.80976039277832" lon="-108.12632737830558"><ele>1796.0</ele><time>2026-04-02T23:27:53Z</time></trkpt><trkpt lat="36.80964417289379" lon="-108.12631346491712"><ele>1796.0</ele><time>2026-04-02T23:27:54Z</time></trkpt><trkpt lat="36.80955953789614" lon="-108.12631920222395"><ele>1796.0</ele><time>2026-04-02T23:27:55Z</time></trkpt><trkpt lat="36.80947156605221" lon="-108.12634520418614"><ele>1796.0</ele><time>2026-04-02T23:27:56Z</time></trkpt><trkpt lat="36.80937288658181" lon="-108.12640691477405"><ele>1796.0</ele><time>2026-04-02T23:27:57Z</time></trkpt><trkpt lat="36.809251770553004" lon="-108.12647704946482"><ele>1796.0</ele><time>2026-04-02T23:27:58Z</time></trkpt><trkpt lat="36.809112923512465" lon="-108.1265702825189"><ele>1793.6666666666665</ele><time>2026-04-02T23:27:59Z</time></trkpt><trkpt lat="36.80894824649079" lon="-108.12669162662192"><ele>1791.3333333333335</ele><time>2026-04-02T23:28:00Z</time></trkpt><trkpt lat="36.8088115644546" lon="-108.12678244096098"><ele>1789.0</ele><time>2026-04-02T23:28:01Z</time></trkpt><trkpt lat="36.80870489386558" lon="-108.12685594563042"><ele>1789.0</ele><time>2026-04-02T23:28:02Z</time></trkpt><trkpt lat="36.80861680205318" lon="-108.12692326105051"><ele>1789.0</ele><time>2026-04-02T23:28:03Z</time></trkpt><trkpt lat="36.80854579972817" lon="-108.12700499507653"><ele>1789.0</ele><time>2026-04-02T23:28:04Z</time></trkpt><trkpt lat="36.80846114944228" lon="-108.12711792219694"><ele>1789.0</ele><time>2026-04-02T23:28:05Z</time></trkpt><trkpt lat="36.80838080482076" lon="-108.12724969405778"><ele>1788.25</ele><time>2026-04-02T23:28:06Z</time></trkpt><trkpt lat="36.80829720221333" lon="-108.1273729721926"><ele>1787.5</ele><time>2026-04-02T23:28:07Z</time></trkpt><trkpt lat="36.808212917657045" lon="-108.12747994595124"><ele>1786.75</ele><time>2026-04-02T23:28:08Z</time></trkpt><trkpt lat="36.8081273648563" lon="-108.12757602899539"><ele>1786.0</ele><time>2026-04-02T23:28:09Z</time></trkpt><trkpt lat="36.80803888068096" lon="-108.12767359099114"><ele>1787.1999999999998</ele><time>2026-04-02T23:28:10Z</time></trkpt><trkpt lat="36.80794906369336" lon="-108.12776775049379"><ele>1788.3999999999999</ele><time>2026-04-02T23:28:11Z</time></trkpt><trkpt lat="36.80786179300657" lon="-108.12784975775858"><ele>1789.6</ele><time>2026-04-02T23:28:12Z</time></trkpt><trkpt lat="36.807790121683006" lon="-108.12792612913786"><ele>1790.8</ele><time>2026-04-02T23:28:13Z</time></trkpt><trkpt lat="36.80776327392605" lon="-108.12808177907742"><ele>1792.0</ele><time>2026-04-02T23:28:15Z</time></trkpt><trkpt lat="36.80778122332058" lon="-108.12818215474502"><ele>1791.75</ele><time>2026-04-02T23:28:16Z</time></trkpt><trkpt lat="36.80773326162558" lon="-108.12829361087655"><ele>1791.5</ele><time>2026-04-02T23:28:18Z</time></trkpt><trkpt lat="36.80757841079333" lon="-108.12827602335152"><ele>1791.25</ele><time>2026-04-02T23:28:20Z</time></trkpt><trkpt lat="36.80745750859587" lon="-108.12823869441226"><ele>1791.0</ele><time>2026-04-02T23:28:21Z</time></trkpt><trkpt lat="36.80734553746742" lon="-108.12825157793424"><ele>1791.0</ele><time>2026-04-02T23:28:22Z</time></trkpt><trkpt lat="36.80720478403831" lon="-108.12826304075293"><ele>1791.0</ele><time>2026-04-02T23:28:23Z</time></trkpt><trkpt lat="36.8070558751058" lon="-108.1282418704893"><ele>1791.0</ele><time>2026-04-02T23:28:24Z</time></trkpt><trkpt lat="36.80687111709727" lon="-108.12822367190142"><ele>1790.25</ele><time>2026-04-02T23:28:25Z</time></trkpt><trkpt lat="36.80673478315843" lon="-108.12822097281888"><ele>1789.5</ele><time>2026-04-02T23:28:26Z</time></trkpt><trkpt lat="36.80659795268892" lon="-108.12822899016636"><ele>1788.75</ele><time>2026-04-02T23:28:27Z</time></trkpt><trkpt lat="36.80646792059836" lon="-108.12825454186473"><ele>1788.0</ele><time>2026-04-02T23:28:28Z</time></trkpt><trkpt lat="36.80639060557338" lon="-108.12833765512977"><ele>1788.0</ele><time>2026-04-02T23:28:29Z</time></trkpt><trkpt lat="36.80628952484295" lon="-108.1284904617076"><ele>1788.0</ele><time>2026-04-02T23:28:30Z</time></trkpt><trkpt lat="36.8061753417639" lon="-108.12858135459174"><ele>1788.0</ele><time>2026-04-02T23:28:31Z</time></trkpt><trkpt lat="36.80605049346107" lon="-108.1286216827402"><ele>1788.0</ele><time>2026-04-02T23:28:32Z</time></trkpt><trkpt lat="36.805921449041016" lon="-108.1286576958208"><ele>1787.0</ele><time>2026-04-02T23:28:33Z</time></trkpt><trkpt lat="36.805810949618156" lon="-108.12875604212616"><ele>1786.0</ele><time>2026-04-02T23:28:34Z</time></trkpt><trkpt lat="36.80569160321767" lon="-108.12882606306314"><ele>1785.0</ele><time>2026-04-02T23:28:35Z</time></trkpt><trkpt lat="36.805572753515044" lon="-108.12887657656597"><ele>1784.0</ele><time>2026-04-02T23:28:36Z</time></trkpt><trkpt lat="36.80548111481581" lon="-108.12891097023555"><ele>1784.0</ele><time>2026-04-02T23:28:37Z</time></trkpt><trkpt lat="36.80538512417152" lon="-108.1289546599293"><ele>1784.0</ele><time>2026-04-02T23:28:38Z</time></trkpt><trkpt lat="36.80529458894634" lon="-108.12899442492936"><ele>1784.0</ele><time>2026-04-02T23:28:39Z</time></trkpt><trkpt lat="36.805225724455624" lon="-108.12904949286252"><ele>1784.0</ele><time>2026-04-02T23:28:40Z</time></trkpt><trkpt lat="36.8051527597966" lon="-108.1291277113514"><ele>1784.0</ele><time>2026-04-02T23:28:41Z</time></trkpt><trkpt lat="36.80508192172733" lon="-108.1291857152796"><ele>1782.8333333333333</ele><time>2026-04-02T23:28:41.999Z</time></trkpt><trkpt lat="36.805005421105236" lon="-108.12927891525929"><ele>1781.6666666666665</ele><time>2026-04-02T23:28:43.999Z</time></trkpt><trkpt lat="36.8049972066621" lon="-108.129379921126"><ele>1780.5</ele><time>2026-04-02T23:28:44.999Z</time></trkpt><trkpt lat="36.80495849986923" lon="-108.12949141800196"><ele>1779.3333333333335</ele><time>2026-04-02T23:28:45.999Z</time></trkpt><trkpt lat="36.80492036182345" lon="-108.12958051105414"><ele>1778.1666666666667</ele><time>2026-04-02T23:28:46.999Z</time></trkpt><trkpt lat="36.80490638441757" lon="-108.12967030869244"><ele>1777.0</ele><time>2026-04-02T23:28:47.999Z</time></trkpt><trkpt lat="36.80500998160544" lon="-108.1297540837778"><ele>1777.0</ele><time>2026-04-02T23:28:48.999Z</time></trkpt><trkpt lat="36.80500976612553" lon="-108.1298715397551"><ele>1777.0</ele><time>2026-04-02T23:28:49.999Z</time></trkpt><trkpt lat="36.805009520055" lon="-108.13000567022563"><ele>1777.0</ele><time>2026-04-02T23:28:50.999Z</time></trkpt><trkpt lat="36.80500921885182" lon="-108.13016985364993"><ele>1777.0</ele><time>2026-04-02T23:28:51.999Z</time></trkpt><trkpt lat="36.80500865208483" lon="-108.13034464136639"><ele>1777.0</ele><time>2026-04-02T23:28:52.999Z</time></trkpt><trkpt lat="36.80500700188625" lon="-108.13053830747432"><ele>1777.0</ele><time>2026-04-02T23:28:53.999Z</time></trkpt><trkpt lat="36.80500522809965" lon="-108.1307464779457"><ele>1777.0</ele><time>2026-04-02T23:28:54.999Z</time></trkpt><trkpt lat="36.80500347915291" lon="-108.13095173316755"><ele>1777.0</ele><time>2026-04-02T23:28:55.999Z</time></trkpt><trkpt lat="36.80500238889547" lon="-108.13111413093799"><ele>1777.0</ele><time>2026-04-02T23:28:56.999Z</time></trkpt><trkpt lat="36.80500182733979" lon="-108.13128952345886"><ele>1777.0</ele><time>2026-04-02T23:28:57.999Z</time></trkpt><trkpt lat="36.8050012472884" lon="-108.13147069257953"><ele>1777.0</ele><time>2026-04-02T23:28:58.999Z</time></trkpt><trkpt lat="36.805000692030085" lon="-108.13164411813847"><ele>1777.25</ele><time>2026-04-02T23:29:00Z</time></trkpt><trkpt lat="36.80500011718976" lon="-108.13179234892665"><ele>1777.5</ele><time>2026-04-02T23:29:01Z</time></trkpt><trkpt lat="36.80499943973685" lon="-108.13194308258352"><ele>1777.75</ele><time>2026-04-02T23:29:02Z</time></trkpt><trkpt lat="36.804998711458104" lon="-108.13210512400349"><ele>1778.0</ele><time>2026-04-02T23:29:03Z</time></trkpt><trkpt lat="36.80496760198975" lon="-108.13225767263329"><ele>1778.8000000000002</ele><time>2026-04-02T23:29:04Z</time></trkpt><trkpt lat="36.80495927049165" lon="-108.13239603042051"><ele>1779.6000000000001</ele><time>2026-04-02T23:29:05Z</time></trkpt><trkpt lat="36.80496273488136" lon="-108.13254537464805"><ele>1780.3999999999999</ele><time>2026-04-02T23:29:06Z</time></trkpt><trkpt lat="36.8049510717863" lon="-108.13264481840692"><ele>1781.1999999999998</ele><time>2026-04-02T23:29:07Z</time></trkpt><trkpt lat="36.8049293779133" lon="-108.13272325770605"><ele>1782.0</ele><time>2026-04-02T23:29:08Z</time></trkpt><trkpt lat="36.804870943917315" lon="-108.13278224330898"><ele>1782.0</ele><time>2026-04-02T23:29:09Z</time></trkpt><trkpt lat="36.80478235474953" lon="-108.1328170484821"><ele>1782.0</ele><time>2026-04-02T23:29:10Z</time></trkpt><trkpt lat="36.80467649022265" lon="-108.13281309208102"><ele>1782.0</ele><time>2026-04-02T23:29:11Z</time></trkpt><trkpt lat="36.80452456947164" lon="-108.13277034109866"><ele>1782.0</ele><time>2026-04-02T23:29:12Z</time></trkpt><trkpt lat="36.80439336963629" lon="-108.1327736451106"><ele>1781.75</ele><time>2026-04-02T23:29:13Z</time></trkpt><trkpt lat="36.804250950641055" lon="-108.13278315947903"><ele>1781.5</ele><time>2026-04-02T23:29:14Z</time></trkpt><trkpt lat="36.8041206978991" lon="-108.13279321714232"><ele>1781.25</ele><time>2026-04-02T23:29:15Z</time></trkpt><trkpt lat="36.80399778517862" lon="-108.13279785045259"><ele>1781.0</ele><time>2026-04-02T23:29:16Z</time></trkpt><trkpt lat="36.803857484075074" lon="-108.13279733426805"><ele>1781.0</ele><time>2026-04-02T23:29:17Z</time></trkpt><trkpt lat="36.80370210239213" lon="-108.13279528605322"><ele>1781.0</ele><time>2026-04-02T23:29:18Z</time></trkpt><trkpt lat="36.803538160306346" lon="-108.13279764224826"><ele>1781.0</ele><time>2026-04-02T23:29:19Z</time></trkpt><trkpt lat="36.803389733299106" lon="-108.13280107321407"><ele>1779.75</ele><time>2026-04-02T23:29:20Z</time></trkpt><trkpt lat="36.80325909067469" lon="-108.13281364688028"><ele>1778.5</ele><time>2026-04-02T23:29:21Z</time></trkpt><trkpt lat="36.80312597944354" lon="-108.13282578606436"><ele>1777.25</ele><time>2026-04-02T23:29:22Z</time></trkpt><trkpt lat="36.80298074179432" lon="-108.13282118866374"><ele>1776.0</ele><time>2026-04-02T23:29:23Z</time></trkpt><trkpt lat="36.802830917817815" lon="-108.13282201326471"><ele>1776.0</ele><time>2026-04-02T23:29:24Z</time></trkpt><trkpt lat="36.802691121947774" lon="-108.13282777164196"><ele>1776.0</ele><time>2026-04-02T23:29:25Z</time></trkpt><trkpt lat="36.80255273551568" lon="-108.13283309428347"><ele>1776.0</ele><time>2026-04-02T23:29:26Z</time></trkpt><trkpt lat="36.802426171389435" lon="-108.13284128196483"><ele>1776.0</ele><time>2026-04-02T23:29:27Z</time></trkpt><trkpt lat="36.80231354359087" lon="-108.13285831100904"><ele>1775.6</ele><time>2026-04-02T23:29:28Z</time></trkpt><trkpt lat="36.80221092785201" lon="-108.13289954837535"><ele>1775.1999999999998</ele><time>2026-04-02T23:29:29Z</time></trkpt><trkpt lat="36.80211692824662" lon="-108.13296262063525"><ele>1774.8000000000002</ele><time>2026-04-02T23:29:30Z</time></trkpt><trkpt lat="36.802031895969016" lon="-108.13303409210167"><ele>1774.4</ele><time>2026-04-02T23:29:31Z</time></trkpt><trkpt lat="36.801959346678075" lon="-108.13309784528789"><ele>1774.0</ele><time>2026-04-02T23:29:32Z</time></trkpt><trkpt lat="36.80190974631551" lon="-108.13314937972767"><ele>1774.2</ele><time>2026-04-02T23:29:33Z</time></trkpt><trkpt lat="36.801858551997995" lon="-108.1332575042861"><ele>1774.4</ele><time>2026-04-02T23:29:35Z</time></trkpt><trkpt lat="36.80187488255234" lon="-108.13335963118203"><ele>1774.6</ele><time>2026-04-02T23:29:36Z</time></trkpt><trkpt lat="36.80193596748743" lon="-108.13346778515205"><ele>1774.8</ele><time>2026-04-02T23:29:37Z</time></trkpt><trkpt lat="36.80201523466421" lon="-108.13357637770125"><ele>1775.0</ele><time>2026-04-02T23:29:38Z</time></trkpt><trkpt lat="36.80208562026182" lon="-108.1336980221649"><ele>1775.0</ele><time>2026-04-02T23:29:39Z</time></trkpt><trkpt lat="36.802141468255016" lon="-108.1338418952659"><ele>1775.0</ele><time>2026-04-02T23:29:40Z</time></trkpt><trkpt lat="36.802182829645176" lon="-108.13399002079062"><ele>1775.0</ele><time>2026-04-02T23:29:41Z</time></trkpt><trkpt lat="36.802218480718146" lon="-108.13415561938878"><ele>1775.0</ele><time>2026-04-02T23:29:42Z</time></trkpt><trkpt lat="36.802239802408096" lon="-108.13433191867965"><ele>1776.3333333333333</ele><time>2026-04-02T23:29:43Z</time></trkpt><trkpt lat="36.8022479016499" lon="-108.13451771983615"><ele>1777.6666666666665</ele><time>2026-04-02T23:29:44Z</time></trkpt><trkpt lat="36.802245569436195" lon="-108.13471120823587"><ele>1779.0</ele><time>2026-04-02T23:29:45Z</time></trkpt><trkpt lat="36.802239267342735" lon="-108.13490549978982"><ele>1779.25</ele><time>2026-04-02T23:29:46Z</time></trkpt><trkpt lat="36.80223803039687" lon="-108.1350764083197"><ele>1779.5</ele><time>2026-04-02T23:29:47Z</time></trkpt><trkpt lat="36.80223631459989" lon="-108.1352370082144"><ele>1779.75</ele><time>2026-04-02T23:29:48Z</time></trkpt><trkpt lat="36.80223706533587" lon="-108.13540442292606"><ele>1780.0</ele><time>2026-04-02T23:29:49Z</time></trkpt><trkpt lat="36.8022370272624" lon="-108.13558626149316"><ele>1779.0</ele><time>2026-04-02T23:29:50Z</time></trkpt><trkpt lat="36.802237873761804" lon="-108.13577687294335"><ele>1778.0</ele><time>2026-04-02T23:29:51Z</time></trkpt><trkpt lat="36.80223872737407" lon="-108.13597748340572"><ele>1777.0</ele><time>2026-04-02T23:29:52Z</time></trkpt><trkpt lat="36.80223857250508" lon="-108.13617415406657"><ele>1777.0</ele><time>2026-04-02T23:29:53Z</time></trkpt><trkpt lat="36.80223874385867" lon="-108.13635423168289"><ele>1777.0</ele><time>2026-04-02T23:29:54Z</time></trkpt><trkpt lat="36.80223578592725" lon="-108.1365259736909"><ele>1777.0</ele><time>2026-04-02T23:29:55Z</time></trkpt><trkpt lat="36.802231878662084" lon="-108.1366888767742"><ele>1777.0</ele><time>2026-04-02T23:29:56Z</time></trkpt><trkpt lat="36.80223123154189" lon="-108.13684091480154"><ele>1776.0</ele><time>2026-04-02T23:29:57Z</time></trkpt><trkpt lat="36.802234343269" lon="-108.13698622770711"><ele>1775.0</ele><time>2026-04-02T23:29:58Z</time></trkpt><trkpt lat="36.80223729836296" lon="-108.1371451796996"><ele>1774.0</ele><time>2026-04-02T23:29:59Z</time></trkpt><trkpt lat="36.80223257421378" lon="-108.13732939656182"><ele>1773.0</ele><time>2026-04-02T23:30:00Z</time></trkpt><trkpt lat="36.80222434404969" lon="-108.13753018942901"><ele>1772.6666666666665</ele><time>2026-04-02T23:30:01Z</time></trkpt><trkpt lat="36.80221825103806" lon="-108.13774236181376"><ele>1772.3333333333333</ele><time>2026-04-02T23:30:02Z</time></trkpt><trkpt lat="36.802220299953355" lon="-108.13794966912666"><ele>1772.0</ele><time>2026-04-02T23:30:03Z</time></trkpt><trkpt lat="36.80222864845778" lon="-108.13812397445754"><ele>1772.3999999999999</ele><time>2026-04-02T23:30:04Z</time></trkpt><trkpt lat="36.80223134822206" lon="-108.13827800689653"><ele>1772.7999999999997</ele><time>2026-04-02T23:30:05Z</time></trkpt><trkpt lat="36.8022291919209" lon="-108.13841057186859"><ele>1773.2</ele><time>2026-04-02T23:30:06Z</time></trkpt><trkpt lat="36.80223182193206" lon="-108.13852464464271"><ele>1773.6</ele><time>2026-04-02T23:30:07Z</time></trkpt><trkpt lat="36.80225348048513" lon="-108.13862091942276"><ele>1774.0</ele><time>2026-04-02T23:30:08Z</time></trkpt><trkpt lat="36.80228116565757" lon="-108.13870391627619"><ele>1774.0000000000002</ele><time>2026-04-02T23:30:09Z</time></trkpt><trkpt lat="36.80231941126793" lon="-108.13878850157029"><ele>1774.0</ele><time>2026-04-02T23:30:10Z</time></trkpt><trkpt lat="36.80234723286896" lon="-108.13886672734941"><ele>1774.0</ele><time>2026-04-02T23:30:11Z</time></trkpt><trkpt lat="36.80229008422761" lon="-108.13901788106214"><ele>1774.0</ele><time>2026-04-02T23:30:13Z</time></trkpt><trkpt lat="36.802218573248055" lon="-108.13905894746115"><ele>1774.0000000000002</ele><time>2026-04-02T23:30:14Z</time></trkpt><trkpt lat="36.802141279119084" lon="-108.13903351964217"><ele>1774.0</ele><time>2026-04-02T23:30:15Z</time></trkpt><trkpt lat="36.802056749476854" lon="-108.13896821108446"><ele>1774.0</ele><time>2026-04-02T23:30:16Z</time></trkpt><trkpt lat="36.801962952451085" lon="-108.13891900128468"><ele>1774.0</ele><time>2026-04-02T23:30:17Z</time></trkpt><trkpt lat="36.80184580285801" lon="-108.13890846063164"><ele>1774.0</ele><time>2026-04-02T23:30:18Z</time></trkpt><trkpt lat="36.8017108328534" lon="-108.13891609740136"><ele>1774.0</ele><time>2026-04-02T23:30:19Z</time></trkpt><trkpt lat="36.801572304423644" lon="-108.13892818587752"><ele>1774.0</ele><time>2026-04-02T23:30:20Z</time></trkpt><trkpt lat="36.8014231792261" lon="-108.13893862166823"><ele>1774.0</ele><time>2026-04-02T23:30:21Z</time></trkpt><trkpt lat="36.80126345267758" lon="-108.13894256464783"><ele>1774.0</ele><time>2026-04-02T23:30:22Z</time></trkpt><trkpt lat="36.80109552501885" lon="-108.13894448843027"><ele>1773.3333333333335</ele><time>2026-04-02T23:30:23Z</time></trkpt><trkpt lat="36.80092106102099" lon="-108.13894799878659"><ele>1772.6666666666665</ele><time>2026-04-02T23:30:24Z</time></trkpt><trkpt lat="36.80075739081979" lon="-108.13895429536684"><ele>1772.0</ele><time>2026-04-02T23:30:25Z</time></trkpt><trkpt lat="36.8006035859002" lon="-108.13896302468059"><ele>1772.0</ele><time>2026-04-02T23:30:26Z</time></trkpt><trkpt lat="36.800442202027604" lon="-108.13897042008533"><ele>1772.0</ele><time>2026-04-02T23:30:27Z</time></trkpt><trkpt lat="36.800277187292636" lon="-108.13897203350214"><ele>1772.0</ele><time>2026-04-02T23:30:28Z</time></trkpt><trkpt lat="36.80010958186339" lon="-108.13897460512977"><ele>1770.6666666666665</ele><time>2026-04-02T23:30:29Z</time></trkpt><trkpt lat="36.79994151733266" lon="-108.13898262808415"><ele>1769.3333333333335</ele><time>2026-04-02T23:30:30Z</time></trkpt><trkpt lat="36.79977500292886" lon="-108.13899074058266"><ele>1768.0</ele><time>2026-04-02T23:30:31Z</time></trkpt><trkpt lat="36.799608956816584" lon="-108.13899714690453"><ele>1768.0</ele><time>2026-04-02T23:30:32Z</time></trkpt><trkpt lat="36.79944889675892" lon="-108.13900285399383"><ele>1768.0</ele><time>2026-04-02T23:30:33Z</time></trkpt><trkpt lat="36.799288365017794" lon="-108.13901163285819"><ele>1768.0</ele><time>2026-04-02T23:30:34Z</time></trkpt><trkpt lat="36.7991267689315" lon="-108.13901815111481"><ele>1767.6666666666667</ele><time>2026-04-02T23:30:35Z</time></trkpt><trkpt lat="36.79896506405991" lon="-108.13902078400184"><ele>1767.3333333333335</ele><time>2026-04-02T23:30:36Z</time></trkpt><trkpt lat="36.79880878994019" lon="-108.13902245252889"><ele>1767.0</ele><time>2026-04-02T23:30:37Z</time></trkpt><trkpt lat="36.79867395445237" lon="-108.1390219836575"><ele>1767.0</ele><time>2026-04-02T23:30:38Z</time></trkpt><trkpt lat="36.7985428562068" lon="-108.13901961731811"><ele>1767.0</ele><time>2026-04-02T23:30:38.999Z</time></trkpt><trkpt lat="36.79841379828632" lon="-108.13901946776238"><ele>1767.0</ele><time>2026-04-02T23:30:39.999Z</time></trkpt><trkpt lat="36.798297328690836" lon="-108.13902195209457"><ele>1767.0</ele><time>2026-04-02T23:30:40.999Z</time></trkpt><trkpt lat="36.798181176949946" lon="-108.13902527673204"><ele>1766.75</ele><time>2026-04-02T23:30:41.999Z</time></trkpt><trkpt lat="36.798058705678166" lon="-108.13902516710756"><ele>1766.5</ele><time>2026-04-02T23:30:42.999Z</time></trkpt><trkpt lat="36.79791406142073" lon="-108.13902449868947"><ele>1766.25</ele><time>2026-04-02T23:30:43.999Z</time></trkpt><trkpt lat="36.797754651731495" lon="-108.13903115367745"><ele>1766.0</ele><time>2026-04-02T23:30:44.999Z</time></trkpt><trkpt lat="36.797586780407016" lon="-108.13903966284225"><ele>1766.0</ele><time>2026-04-02T23:30:45.999Z</time></trkpt><trkpt lat="36.79741252866034" lon="-108.13904253396481"><ele>1766.0</ele><time>2026-04-02T23:30:46.999Z</time></trkpt><trkpt lat="36.797236767374166" lon="-108.13904347906033"><ele>1766.0</ele><time>2026-04-02T23:30:47.999Z</time></trkpt><trkpt lat="36.797077300826764" lon="-108.13904670639201"><ele>1765.6666666666665</ele><time>2026-04-02T23:30:48.999Z</time></trkpt><trkpt lat="36.79690893215305" lon="-108.13905341552405"><ele>1765.3333333333335</ele><time>2026-04-02T23:30:49.999Z</time></trkpt><trkpt lat="36.796738503313485" lon="-108.13906193660424"><ele>1765.0</ele><time>2026-04-02T23:30:50.999Z</time></trkpt><trkpt lat="36.79657373011088" lon="-108.13907018764573"><ele>1765.0</ele><time>2026-04-02T23:30:51.999Z</time></trkpt><trkpt lat="36.796414766771775" lon="-108.13907817491452"><ele>1765.0</ele><time>2026-04-02T23:30:52.999Z</time></trkpt><trkpt lat="36.79625907004127" lon="-108.13908161349237"><ele>1765.0</ele><time>2026-04-02T23:30:53.999Z</time></trkpt><trkpt lat="36.796107333101496" lon="-108.13906429994799"><ele>1763.5</ele><time>2026-04-02T23:30:54.999Z</time></trkpt><trkpt lat="36.79596037009028" lon="-108.13906685064927"><ele>1762.0</ele><time>2026-04-02T23:30:55.999Z</time></trkpt><trkpt lat="36.79582024103351" lon="-108.1390692152408"><ele>1760.5</ele><time>2026-04-02T23:30:56.999Z</time></trkpt><trkpt lat="36.795676675027586" lon="-108.1390716055759"><ele>1759.0</ele><time>2026-04-02T23:30:57.999Z</time></trkpt><trkpt lat="36.795520505496405" lon="-108.13907420575005"><ele>1759.0</ele><time>2026-04-02T23:30:58.999Z</time></trkpt><trkpt lat="36.7953525210581" lon="-108.13907700263654"><ele>1759.0</ele><time>2026-04-02T23:30:59.999Z</time></trkpt><trkpt lat="36.795180240241805" lon="-108.13909342492133"><ele>1759.0</ele><time>2026-04-02T23:31:00.999Z</time></trkpt><trkpt lat="36.795005475033015" lon="-108.13908304755397"><ele>1759.0</ele><time>2026-04-02T23:31:01.999Z</time></trkpt><trkpt lat="36.794830390727796" lon="-108.13907205401382"><ele>1759.0</ele><time>2026-04-02T23:31:02.999Z</time></trkpt><trkpt lat="36.79465745622653" lon="-108.13906856192908"><ele>1759.0</ele><time>2026-04-02T23:31:03.999Z</time></trkpt><trkpt lat="36.794507318316825" lon="-108.13906957790547"><ele>1759.0</ele><time>2026-04-02T23:31:04.999Z</time></trkpt><trkpt lat="36.794363911527434" lon="-108.13907222937856"><ele>1759.0</ele><time>2026-04-02T23:31:06Z</time></trkpt><trkpt lat="36.79420871060438" lon="-108.13907416431552"><ele>1759.0</ele><time>2026-04-02T23:31:07Z</time></trkpt><trkpt lat="36.79404056222713" lon="-108.13907888801724"><ele>1759.0</ele><time>2026-04-02T23:31:08Z</time></trkpt><trkpt lat="36.79386271064172" lon="-108.13908126493249"><ele>1759.0</ele><time>2026-04-02T23:31:09Z</time></trkpt><trkpt lat="36.7936806161933" lon="-108.13908463094562"><ele>1759.0</ele><time>2026-04-02T23:31:10Z</time></trkpt><trkpt lat="36.79350019872437" lon="-108.13909008564183"><ele>1759.0</ele><time>2026-04-02T23:31:11Z</time></trkpt><trkpt lat="36.79332546995746" lon="-108.13909531720753"><ele>1759.0</ele><time>2026-04-02T23:31:12Z</time></trkpt><trkpt lat="36.793169897877824" lon="-108.13909980985102"><ele>1759.0</ele><time>2026-04-02T23:31:13Z</time></trkpt><trkpt lat="36.79302597851941" lon="-108.13910112617202"><ele>1759.0</ele><time>2026-04-02T23:31:14Z</time></trkpt><trkpt lat="36.79287701560404" lon="-108.13910087164787"><ele>1759.0</ele><time>2026-04-02T23:31:15Z</time></trkpt><trkpt lat="36.79271981982725" lon="-108.13910127052239"><ele>1759.0</ele><time>2026-04-02T23:31:16Z</time></trkpt><trkpt lat="36.79255820932181" lon="-108.13910668262278"><ele>1758.6666666666667</ele><time>2026-04-02T23:31:17Z</time></trkpt><trkpt lat="36.792394840885116" lon="-108.1391140590726"><ele>1758.3333333333335</ele><time>2026-04-02T23:31:18Z</time></trkpt><trkpt lat="36.79223509592641" lon="-108.13911733231022"><ele>1758.0</ele><time>2026-04-02T23:31:19Z</time></trkpt><trkpt lat="36.792095306503924" lon="-108.13911781794252"><ele>1758.0</ele><time>2026-04-02T23:31:20Z</time></trkpt><trkpt lat="36.79197251144178" lon="-108.13911534926582"><ele>1758.0000000000002</ele><time>2026-04-02T23:31:21Z</time></trkpt><trkpt lat="36.79187287257087" lon="-108.13911786513967"><ele>1758.0000000000002</ele><time>2026-04-02T23:31:22Z</time></trkpt><trkpt lat="36.79178594082149" lon="-108.13912551843217"><ele>1758.0</ele><time>2026-04-02T23:31:23Z</time></trkpt><trkpt lat="36.79170386198799" lon="-108.13913716106093"><ele>1758.0</ele><time>2026-04-02T23:31:24Z</time></trkpt><trkpt lat="36.79161866852936" lon="-108.13915479846187"><ele>1757.2</ele><time>2026-04-02T23:31:25Z</time></trkpt><trkpt lat="36.79152913851286" lon="-108.13916017475555"><ele>1756.4</ele><time>2026-04-02T23:31:26Z</time></trkpt><trkpt lat="36.791460564195425" lon="-108.13923362901706"><ele>1755.6000000000001</ele><time>2026-04-02T23:31:27Z</time></trkpt><trkpt lat="36.79136176543127" lon="-108.13919777315495"><ele>1754.8000000000002</ele><time>2026-04-02T23:31:28Z</time></trkpt><trkpt lat="36.791248702469396" lon="-108.13916033048588"><ele>1754.0</ele><time>2026-04-02T23:31:29Z</time></trkpt><trkpt lat="36.79112381379164" lon="-108.13911858152011"><ele>1752.3333333333333</ele><time>2026-04-02T23:31:30Z</time></trkpt><trkpt lat="36.79097681197916" lon="-108.13910643468355"><ele>1750.6666666666665</ele><time>2026-04-02T23:31:31Z</time></trkpt><trkpt lat="36.79081283250678" lon="-108.13911631344412"><ele>1749.0</ele><time>2026-04-02T23:31:32Z</time></trkpt><trkpt lat="36.79064092916113" lon="-108.13912558360751"><ele>1749.0</ele><time>2026-04-02T23:31:33Z</time></trkpt><trkpt lat="36.79047425797924" lon="-108.13912007537213"><ele>1749.0</ele><time>2026-04-02T23:31:34Z</time></trkpt><trkpt lat="36.79030995763445" lon="-108.13911469962022"><ele>1749.0</ele><time>2026-04-02T23:31:35Z</time></trkpt><trkpt lat="36.79014754760437" lon="-108.13911440580452"><ele>1747.3333333333335</ele><time>2026-04-02T23:31:36Z</time></trkpt><trkpt lat="36.789987229723785" lon="-108.13912282646588"><ele>1745.6666666666667</ele><time>2026-04-02T23:31:37Z</time></trkpt><trkpt lat="36.78982877743854" lon="-108.13913074363525"><ele>1744.0</ele><time>2026-04-02T23:31:38Z</time></trkpt><trkpt lat="36.789671420651324" lon="-108.13913674275965"><ele>1744.0</ele><time>2026-04-02T23:31:39Z</time></trkpt><trkpt lat="36.789516105987545" lon="-108.13913725255156"><ele>1744.0</ele><time>2026-04-02T23:31:40Z</time></trkpt><trkpt lat="36.789364679442144" lon="-108.13913301056805"><ele>1744.0</ele><time>2026-04-02T23:31:41Z</time></trkpt><trkpt lat="36.7892147104797" lon="-108.13913100185101"><ele>1742.5</ele><time>2026-04-02T23:31:42Z</time></trkpt><trkpt lat="36.78906903112661" lon="-108.13913400839677"><ele>1741.0</ele><time>2026-04-02T23:31:43Z</time></trkpt><trkpt lat="36.78892695769221" lon="-108.13913869315688"><ele>1739.5</ele><time>2026-04-02T23:31:44Z</time></trkpt><trkpt lat="36.788789431230974" lon="-108.1391407657107"><ele>1738.0</ele><time>2026-04-02T23:31:45Z</time></trkpt><trkpt lat="36.7886559534849" lon="-108.13914032124666"><ele>1738.0</ele><time>2026-04-02T23:31:46Z</time></trkpt><trkpt lat="36.78852156248966" lon="-108.13913561171908"><ele>1738.0</ele><time>2026-04-02T23:31:47Z</time></trkpt><trkpt lat="36.788368306077714" lon="-108.13913473009605"><ele>1738.0</ele><time>2026-04-02T23:31:48Z</time></trkpt><trkpt lat="36.78820314089232" lon="-108.13914514062698"><ele>1737.3333333333335</ele><time>2026-04-02T23:31:49Z</time></trkpt><trkpt lat="36.788029411703135" lon="-108.13915294153536"><ele>1736.6666666666665</ele><time>2026-04-02T23:31:50Z</time></trkpt><trkpt lat="36.787856743802585" lon="-108.13915431819069"><ele>1736.0</ele><time>2026-04-02T23:31:51Z</time></trkpt><trkpt lat="36.78767980601589" lon="-108.13915435084294"><ele>1735.3333333333333</ele><time>2026-04-02T23:31:52Z</time></trkpt><trkpt lat="36.78749993388815" lon="-108.13915966505513"><ele>1734.6666666666665</ele><time>2026-04-02T23:31:53Z</time></trkpt><trkpt lat="36.787336253727865" lon="-108.13916581618643"><ele>1734.0</ele><time>2026-04-02T23:31:54Z</time></trkpt><trkpt lat="36.787183867338825" lon="-108.1391702839611"><ele>1734.0</ele><time>2026-04-02T23:31:55Z</time></trkpt><trkpt lat="36.787025092098055" lon="-108.1391728486468"><ele>1734.0</ele><time>2026-04-02T23:31:56Z</time></trkpt><trkpt lat="36.786857252234896" lon="-108.13917795268462"><ele>1734.0</ele><time>2026-04-02T23:31:57Z</time></trkpt><trkpt lat="36.786685281006875" lon="-108.1391866954539"><ele>1733.0</ele><time>2026-04-02T23:31:58Z</time></trkpt><trkpt lat="36.78650824892045" lon="-108.13919149210123"><ele>1732.0</ele><time>2026-04-02T23:31:59Z</time></trkpt><trkpt lat="36.786337804039086" lon="-108.13919183054735"><ele>1731.0</ele><time>2026-04-02T23:32:00Z</time></trkpt><trkpt lat="36.786181284683344" lon="-108.13918962888397"><ele>1730.3333333333335</ele><time>2026-04-02T23:32:01Z</time></trkpt><trkpt lat="36.78601067278741" lon="-108.13918649404935"><ele>1729.6666666666667</ele><time>2026-04-02T23:32:02Z</time></trkpt><trkpt lat="36.7858278660713" lon="-108.13919112517323"><ele>1729.0</ele><time>2026-04-02T23:32:03Z</time></trkpt><trkpt lat="36.785641315576186" lon="-108.13919943939224"><ele>1729.0</ele><time>2026-04-02T23:32:04Z</time></trkpt><trkpt lat="36.785451823358784" lon="-108.13920787519694"><ele>1729.0</ele><time>2026-04-02T23:32:05Z</time></trkpt><trkpt lat="36.78527791315313" lon="-108.13921015251013"><ele>1729.0</ele><time>2026-04-02T23:32:06Z</time></trkpt><trkpt lat="36.78510573552313" lon="-108.13921086286334"><ele>1727.6666666666667</ele><time>2026-04-02T23:32:07Z</time></trkpt><trkpt lat="36.78492522186065" lon="-108.13921508646506"><ele>1726.3333333333335</ele><time>2026-04-02T23:32:08Z</time></trkpt><trkpt lat="36.78474403335369" lon="-108.13922156459466"><ele>1725.0</ele><time>2026-04-02T23:32:09Z</time></trkpt><trkpt lat="36.78456229259085" lon="-108.13922266036084"><ele>1725.0</ele><time>2026-04-02T23:32:10Z</time></trkpt><trkpt lat="36.78439023358333" lon="-108.13922010789891"><ele>1725.0</ele><time>2026-04-02T23:32:11Z</time></trkpt><trkpt lat="36.78421360296046" lon="-108.13921860915622"><ele>1725.0</ele><time>2026-04-02T23:32:12Z</time></trkpt><trkpt lat="36.78404490877593" lon="-108.13922038436748"><ele>1723.6666666666665</ele><time>2026-04-02T23:32:13Z</time></trkpt><trkpt lat="36.78388166953992" lon="-108.13922438938546"><ele>1722.3333333333333</ele><time>2026-04-02T23:32:14Z</time></trkpt><trkpt lat="36.7837239968638" lon="-108.13922829029391"><ele>1721.0</ele><time>2026-04-02T23:32:15Z</time></trkpt><trkpt lat="36.783570188639786" lon="-108.13922771624758"><ele>1720.5</ele><time>2026-04-02T23:32:16Z</time></trkpt><trkpt lat="36.78342513582244" lon="-108.13923133696599"><ele>1720.0</ele><time>2026-04-02T23:32:17Z</time></trkpt><trkpt lat="36.78328095830016" lon="-108.13923871391131"><ele>1719.5</ele><time>2026-04-02T23:32:18Z</time></trkpt><trkpt lat="36.78314073810725" lon="-108.13924018506297"><ele>1719.0</ele><time>2026-04-02T23:32:19Z</time></trkpt><trkpt lat="36.78300128230736" lon="-108.13924223365672"><ele>1719.0</ele><time>2026-04-02T23:32:20Z</time></trkpt><trkpt lat="36.78285324521297" lon="-108.13924448820237"><ele>1719.0</ele><time>2026-04-02T23:32:21Z</time></trkpt><trkpt lat="36.782698607933135" lon="-108.1392424471469"><ele>1719.0</ele><time>2026-04-02T23:32:22Z</time></trkpt><trkpt lat="36.78253881605959" lon="-108.13924293545583"><ele>1718.0</ele><time>2026-04-02T23:32:23Z</time></trkpt><trkpt lat="36.78237454227589" lon="-108.13924680582927"><ele>1717.0</ele><time>2026-04-02T23:32:24Z</time></trkpt><trkpt lat="36.782205862690624" lon="-108.13925233537712"><ele>1716.0</ele><time>2026-04-02T23:32:25Z</time></trkpt><trkpt lat="36.78203048744231" lon="-108.13925779047189"><ele>1716.0</ele><time>2026-04-02T23:32:26Z</time></trkpt><trkpt lat="36.78185234116685" lon="-108.13925922783358"><ele>1716.0</ele><time>2026-04-02T23:32:27Z</time></trkpt><trkpt lat="36.781673450905" lon="-108.13925978709192"><ele>1716.0</ele><time>2026-04-02T23:32:28Z</time></trkpt><trkpt lat="36.78149574715648" lon="-108.13925948663265"><ele>1715.0</ele><time>2026-04-02T23:32:29Z</time></trkpt><trkpt lat="36.78133365767625" lon="-108.13925909628273"><ele>1714.0</ele><time>2026-04-02T23:32:30Z</time></trkpt><trkpt lat="36.78116576526707" lon="-108.13925924239581"><ele>1713.0</ele><time>2026-04-02T23:32:31Z</time></trkpt><trkpt lat="36.78099073137071" lon="-108.13926307092581"><ele>1711.0</ele><time>2026-04-02T23:32:32Z</time></trkpt><trkpt lat="36.78082065069898" lon="-108.13926520550167"><ele>1709.0</ele><time>2026-04-02T23:32:33Z</time></trkpt><trkpt lat="36.7806665730289" lon="-108.13926513998095"><ele>1707.0</ele><time>2026-04-02T23:32:34Z</time></trkpt><trkpt lat="36.78050541452516" lon="-108.13926549124412"><ele>1707.0</ele><time>2026-04-02T23:32:35Z</time></trkpt><trkpt lat="36.780336444622066" lon="-108.13927029882744"><ele>1707.0</ele><time>2026-04-02T23:32:36Z</time></trkpt><trkpt lat="36.78016361856234" lon="-108.13927976270276"><ele>1707.0</ele><time>2026-04-02T23:32:37Z</time></trkpt><trkpt lat="36.77999501338471" lon="-108.13928033938937"><ele>1706.75</ele><time>2026-04-02T23:32:38Z</time></trkpt><trkpt lat="36.77984433476309" lon="-108.13927645140208"><ele>1706.5</ele><time>2026-04-02T23:32:39Z</time></trkpt><trkpt lat="36.77970098697382" lon="-108.13927346835317"><ele>1706.25</ele><time>2026-04-02T23:32:40Z</time></trkpt><trkpt lat="36.77954894909149" lon="-108.13927381616196"><ele>1706.0</ele><time>2026-04-02T23:32:41Z</time></trkpt><trkpt lat="36.779393241737026" lon="-108.13927841504253"><ele>1705.5</ele><time>2026-04-02T23:32:42Z</time></trkpt><trkpt lat="36.779254361531" lon="-108.13928318201972"><ele>1705.0</ele><time>2026-04-02T23:32:42.999Z</time></trkpt><trkpt lat="36.77911125987035" lon="-108.13928576804025"><ele>1704.5</ele><time>2026-04-02T23:32:43.999Z</time></trkpt><trkpt lat="36.77897350679054" lon="-108.13929099115546"><ele>1704.0</ele><time>2026-04-02T23:32:44.999Z</time></trkpt><trkpt lat="36.778827304077765" lon="-108.13929552935836"><ele>1704.0</ele><time>2026-04-02T23:32:45.999Z</time></trkpt><trkpt lat="36.7786886448193" lon="-108.13929621378465"><ele>1704.0</ele><time>2026-04-02T23:32:46.999Z</time></trkpt><trkpt lat="36.77855831351188" lon="-108.13929818025174"><ele>1704.0</ele><time>2026-04-02T23:32:47.999Z</time></trkpt><trkpt lat="36.778418239571984" lon="-108.1393028118544"><ele>1704.0</ele><time>2026-04-02T23:32:48.999Z</time></trkpt><trkpt lat="36.778291859663305" lon="-108.13930584263153"><ele>1703.75</ele><time>2026-04-02T23:32:49.999Z</time></trkpt><trkpt lat="36.77816280664198" lon="-108.13930886762968"><ele>1703.5</ele><time>2026-04-02T23:32:50.999Z</time></trkpt><trkpt lat="36.77802564516169" lon="-108.13931234538249"><ele>1703.25</ele><time>2026-04-02T23:32:51.999Z</time></trkpt><trkpt lat="36.777887353995546" lon="-108.13931493709251"><ele>1703.0</ele><time>2026-04-02T23:32:52.999Z</time></trkpt><trkpt lat="36.77776422610449" lon="-108.13931992980045"><ele>1702.2</ele><time>2026-04-02T23:32:53.999Z</time></trkpt><trkpt lat="36.77764860899567" lon="-108.13931886478066"><ele>1701.4</ele><time>2026-04-02T23:32:54.999Z</time></trkpt><trkpt lat="36.77753339017711" lon="-108.13931899064065"><ele>1700.6000000000001</ele><time>2026-04-02T23:32:55.999Z</time></trkpt><trkpt lat="36.77742161418862" lon="-108.13932221611805"><ele>1699.8000000000002</ele><time>2026-04-02T23:32:56.999Z</time></trkpt><trkpt lat="36.77732331697962" lon="-108.13932046416922"><ele>1699.0</ele><time>2026-04-02T23:32:57.999Z</time></trkpt><trkpt lat="36.77722869699503" lon="-108.13931172982738"><ele>1699.0</ele><time>2026-04-02T23:32:58.999Z</time></trkpt><trkpt lat="36.77714600031115" lon="-108.13930547109837"><ele>1699.0</ele><time>2026-04-02T23:32:59.999Z</time></trkpt><trkpt lat="36.77706526978128" lon="-108.13930226470946"><ele>1699.0</ele><time>2026-04-02T23:33:00.999Z</time></trkpt><trkpt lat="36.776997456345306" lon="-108.1392853054312"><ele>1699.0</ele><time>2026-04-02T23:33:01.999Z</time></trkpt><trkpt lat="36.776909287818306" lon="-108.13913583250918"><ele>1699.0</ele><time>2026-04-02T23:33:03.999Z</time></trkpt><trkpt lat="36.77690330954156" lon="-108.13900714385878"><ele>1699.0</ele><time>2026-04-02T23:33:04.999Z</time></trkpt><trkpt lat="36.776907514230665" lon="-108.13885862545983"><ele>1699.0</ele><time>2026-04-02T23:33:05.999Z</time></trkpt><trkpt lat="36.7769050364885" lon="-108.13872662811494"><ele>1699.0</ele><time>2026-04-02T23:33:06.999Z</time></trkpt><trkpt lat="36.776898428419294" lon="-108.1386104377832"><ele>1699.0</ele><time>2026-04-02T23:33:07.999Z</time></trkpt><trkpt lat="36.776896538888906" lon="-108.13850494166437"><ele>1699.0</ele><time>2026-04-02T23:33:08.999Z</time></trkpt><trkpt lat="36.776885740389524" lon="-108.13841769650742"><ele>1699.0</ele><time>2026-04-02T23:33:09.999Z</time></trkpt><trkpt lat="36.77687060590528" lon="-108.13833150978489"><ele>1699.0</ele><time>2026-04-02T23:33:12Z</time></trkpt><trkpt lat="36.77670787170837" lon="-108.13832478871252"><ele>1699.0</ele><time>2026-04-02T23:33:13Z</time></trkpt><trkpt lat="36.77659531254029" lon="-108.13834517226235"><ele>1699.0</ele><time>2026-04-02T23:33:14Z</time></trkpt><trkpt lat="36.77646707761835" lon="-108.13836097820514"><ele>1698.2</ele><time>2026-04-02T23:33:15Z</time></trkpt><trkpt lat="36.776353173714" lon="-108.1383665945205"><ele>1697.4</ele><time>2026-04-02T23:33:16Z</time></trkpt><trkpt lat="36.77625663138386" lon="-108.13837005419342"><ele>1696.6</ele><time>2026-04-02T23:33:17Z</time></trkpt><trkpt lat="36.77616862888089" lon="-108.13837119568407"><ele>1695.8</ele><time>2026-04-02T23:33:18Z</time></trkpt><trkpt lat="36.776095123732404" lon="-108.13836758978353"><ele>1695.0</ele><time>2026-04-02T23:33:19Z</time></trkpt><trkpt lat="36.776021877181996" lon="-108.1383224986575"><ele>1695.0</ele><time>2026-04-02T23:33:21Z</time></trkpt><trkpt lat="36.776002358591136" lon="-108.13823699313019"><ele>1692.0</ele><time>2026-04-02T23:33:23Z</time></trkpt><trkpt lat="36.7759906230701" lon="-108.13814956181432"><ele>1690.0</ele><time>2026-04-02T23:33:26Z</time></trkpt><trkpt lat="36.77602141149685" lon="-108.13808017946802"><ele>1693.0</ele><time>2026-04-02T23:34:29Z</time></trkpt></trkseg></trk></gpx>